<?xml version="1.0" encoding="UTF-8" standalone="no" ?>
<gpx xmlns="http://www.topografix.com/GPX/1/1" xmlns:xsi="http://www.w3.org/2001/XMLSchema-instance" xsi:schemaLocation="http://www.topografix.com/GPX/1/1 http://www.topografix.com/GPX/1/1/gpx.xsd" version="1.1" creator="VisuGPX - https://www.visugpx.com">
  <metadata>
    <name>2018-11-11 Bike ride-Ambérieux-Rancé O v35k</name>
    <desc><![CDATA[2018-11-11 Bike ride-Ambérieux-Rancé O v35k]]></desc>
  </metadata>
  <wpt lat="45.9249" lon="4.73035">
    <ele>170</ele>
    <name><![CDATA[2018-11-11 10:29 (Start)]]></name>
  </wpt>
  <wpt lat="45.92459" lon="4.73711">
    <ele>174</ele>
    <name><![CDATA[2018-11-11 10:29 (End)]]></name>
  </wpt>
  <trk>
    <name><![CDATA[2018-11-11 10:29]]></name>
    <trkseg>
      <trkpt lat="45.9249" lon="4.73035">
        <ele>170</ele>
        <time>2018-11-11T09:29:30.748Z</time>
      </trkpt>
      <trkpt lat="45.92496" lon="4.73039">
        <ele>170</ele>
        <time>2018-11-11T09:29:39.17Z</time>
      </trkpt>
      <trkpt lat="45.92498" lon="4.73043">
        <ele>170</ele>
        <time>2018-11-11T09:29:41Z</time>
      </trkpt>
      <trkpt lat="45.92498" lon="4.73047">
        <ele>170</ele>
        <time>2018-11-11T09:29:47Z</time>
      </trkpt>
      <trkpt lat="45.92497" lon="4.73047">
        <ele>170</ele>
        <time>2018-11-11T09:29:48Z</time>
      </trkpt>
      <trkpt lat="45.92502" lon="4.73039">
        <ele>169</ele>
        <time>2018-11-11T09:29:56Z</time>
      </trkpt>
      <trkpt lat="45.92504" lon="4.73037">
        <ele>169</ele>
        <time>2018-11-11T09:29:57Z</time>
      </trkpt>
      <trkpt lat="45.92511" lon="4.73031">
        <ele>169</ele>
        <time>2018-11-11T09:30:00Z</time>
      </trkpt>
      <trkpt lat="45.92516" lon="4.73027">
        <ele>169</ele>
        <time>2018-11-11T09:30:01Z</time>
      </trkpt>
      <trkpt lat="45.92522" lon="4.7302">
        <ele>169</ele>
        <time>2018-11-11T09:30:03Z</time>
      </trkpt>
      <trkpt lat="45.92525" lon="4.73017">
        <ele>169</ele>
        <time>2018-11-11T09:30:04Z</time>
      </trkpt>
      <trkpt lat="45.92533" lon="4.73013">
        <ele>169</ele>
        <time>2018-11-11T09:30:06Z</time>
      </trkpt>
      <trkpt lat="45.92537" lon="4.7301">
        <ele>169</ele>
        <time>2018-11-11T09:30:07Z</time>
      </trkpt>
      <trkpt lat="45.92541" lon="4.73006">
        <ele>169</ele>
        <time>2018-11-11T09:30:08Z</time>
      </trkpt>
      <trkpt lat="45.92544" lon="4.73003">
        <ele>169</ele>
        <time>2018-11-11T09:30:09Z</time>
      </trkpt>
      <trkpt lat="45.92549" lon="4.72998">
        <ele>169</ele>
        <time>2018-11-11T09:30:10Z</time>
      </trkpt>
      <trkpt lat="45.92553" lon="4.72994">
        <ele>169</ele>
        <time>2018-11-11T09:30:11Z</time>
      </trkpt>
      <trkpt lat="45.92558" lon="4.72989">
        <ele>169</ele>
        <time>2018-11-11T09:30:12Z</time>
      </trkpt>
      <trkpt lat="45.92562" lon="4.72985">
        <ele>169</ele>
        <time>2018-11-11T09:30:13Z</time>
      </trkpt>
      <trkpt lat="45.92567" lon="4.72981">
        <ele>169</ele>
        <time>2018-11-11T09:30:14Z</time>
      </trkpt>
      <trkpt lat="45.92571" lon="4.72975">
        <ele>169</ele>
        <time>2018-11-11T09:30:15Z</time>
      </trkpt>
      <trkpt lat="45.92577" lon="4.7297">
        <ele>169</ele>
        <time>2018-11-11T09:30:16Z</time>
      </trkpt>
      <trkpt lat="45.92582" lon="4.72964">
        <ele>169</ele>
        <time>2018-11-11T09:30:17Z</time>
      </trkpt>
      <trkpt lat="45.92587" lon="4.72959">
        <ele>169</ele>
        <time>2018-11-11T09:30:18Z</time>
      </trkpt>
      <trkpt lat="45.92592" lon="4.72952">
        <ele>169</ele>
        <time>2018-11-11T09:30:19Z</time>
      </trkpt>
      <trkpt lat="45.92597" lon="4.72947">
        <ele>169</ele>
        <time>2018-11-11T09:30:20Z</time>
      </trkpt>
      <trkpt lat="45.92602" lon="4.72943">
        <ele>169</ele>
        <time>2018-11-11T09:30:21Z</time>
      </trkpt>
      <trkpt lat="45.92606" lon="4.72938">
        <ele>169</ele>
        <time>2018-11-11T09:30:22Z</time>
      </trkpt>
      <trkpt lat="45.9261" lon="4.72932">
        <ele>169</ele>
        <time>2018-11-11T09:30:23Z</time>
      </trkpt>
      <trkpt lat="45.92614" lon="4.72928">
        <ele>169</ele>
        <time>2018-11-11T09:30:24Z</time>
      </trkpt>
      <trkpt lat="45.92619" lon="4.72925">
        <ele>169</ele>
        <time>2018-11-11T09:30:25Z</time>
      </trkpt>
      <trkpt lat="45.92624" lon="4.72921">
        <ele>169</ele>
        <time>2018-11-11T09:30:26Z</time>
      </trkpt>
      <trkpt lat="45.92629" lon="4.72918">
        <ele>170</ele>
        <time>2018-11-11T09:30:27Z</time>
      </trkpt>
      <trkpt lat="45.92634" lon="4.72914">
        <ele>169</ele>
        <time>2018-11-11T09:30:28Z</time>
      </trkpt>
      <trkpt lat="45.9264" lon="4.72909">
        <ele>169</ele>
        <time>2018-11-11T09:30:29Z</time>
      </trkpt>
      <trkpt lat="45.92645" lon="4.72905">
        <ele>170</ele>
        <time>2018-11-11T09:30:30Z</time>
      </trkpt>
      <trkpt lat="45.92651" lon="4.72901">
        <ele>170</ele>
        <time>2018-11-11T09:30:31Z</time>
      </trkpt>
      <trkpt lat="45.92657" lon="4.72897">
        <ele>170</ele>
        <time>2018-11-11T09:30:32Z</time>
      </trkpt>
      <trkpt lat="45.92661" lon="4.72891">
        <ele>169</ele>
        <time>2018-11-11T09:30:33Z</time>
      </trkpt>
      <trkpt lat="45.92667" lon="4.72887">
        <ele>170</ele>
        <time>2018-11-11T09:30:34Z</time>
      </trkpt>
      <trkpt lat="45.92672" lon="4.72882">
        <ele>170</ele>
        <time>2018-11-11T09:30:35Z</time>
      </trkpt>
      <trkpt lat="45.92678" lon="4.72878">
        <ele>170</ele>
        <time>2018-11-11T09:30:36Z</time>
      </trkpt>
      <trkpt lat="45.92684" lon="4.72874">
        <ele>169</ele>
        <time>2018-11-11T09:30:37Z</time>
      </trkpt>
      <trkpt lat="45.9269" lon="4.72869">
        <ele>169</ele>
        <time>2018-11-11T09:30:38Z</time>
      </trkpt>
      <trkpt lat="45.92696" lon="4.72865">
        <ele>169</ele>
        <time>2018-11-11T09:30:39Z</time>
      </trkpt>
      <trkpt lat="45.92701" lon="4.72861">
        <ele>169</ele>
        <time>2018-11-11T09:30:40Z</time>
      </trkpt>
      <trkpt lat="45.92706" lon="4.72856">
        <ele>169</ele>
        <time>2018-11-11T09:30:41Z</time>
      </trkpt>
      <trkpt lat="45.92713" lon="4.72851">
        <ele>169</ele>
        <time>2018-11-11T09:30:42Z</time>
      </trkpt>
      <trkpt lat="45.92719" lon="4.72846">
        <ele>169</ele>
        <time>2018-11-11T09:30:43Z</time>
      </trkpt>
      <trkpt lat="45.92724" lon="4.72841">
        <ele>169</ele>
        <time>2018-11-11T09:30:44Z</time>
      </trkpt>
      <trkpt lat="45.9273" lon="4.72836">
        <ele>169</ele>
        <time>2018-11-11T09:30:45Z</time>
      </trkpt>
      <trkpt lat="45.92734" lon="4.72833">
        <ele>169</ele>
        <time>2018-11-11T09:30:46Z</time>
      </trkpt>
      <trkpt lat="45.92739" lon="4.7283">
        <ele>169</ele>
        <time>2018-11-11T09:30:47Z</time>
      </trkpt>
      <trkpt lat="45.92745" lon="4.72826">
        <ele>169</ele>
        <time>2018-11-11T09:30:48Z</time>
      </trkpt>
      <trkpt lat="45.9275" lon="4.72823">
        <ele>169</ele>
        <time>2018-11-11T09:30:49Z</time>
      </trkpt>
      <trkpt lat="45.92754" lon="4.72821">
        <ele>170</ele>
        <time>2018-11-11T09:30:50Z</time>
      </trkpt>
      <trkpt lat="45.92759" lon="4.72816">
        <ele>170</ele>
        <time>2018-11-11T09:30:51Z</time>
      </trkpt>
      <trkpt lat="45.92764" lon="4.72812">
        <ele>170</ele>
        <time>2018-11-11T09:30:52Z</time>
      </trkpt>
      <trkpt lat="45.92768" lon="4.72808">
        <ele>170</ele>
        <time>2018-11-11T09:30:53Z</time>
      </trkpt>
      <trkpt lat="45.92772" lon="4.72804">
        <ele>170</ele>
        <time>2018-11-11T09:30:54Z</time>
      </trkpt>
      <trkpt lat="45.92776" lon="4.72802">
        <ele>170</ele>
        <time>2018-11-11T09:30:55Z</time>
      </trkpt>
      <trkpt lat="45.92781" lon="4.72799">
        <ele>170</ele>
        <time>2018-11-11T09:30:56Z</time>
      </trkpt>
      <trkpt lat="45.92787" lon="4.72798">
        <ele>170</ele>
        <time>2018-11-11T09:30:57Z</time>
      </trkpt>
      <trkpt lat="45.92795" lon="4.72803">
        <ele>170</ele>
        <time>2018-11-11T09:31:01Z</time>
      </trkpt>
      <trkpt lat="45.92796" lon="4.72803">
        <ele>170</ele>
        <time>2018-11-11T09:31:02Z</time>
      </trkpt>
      <trkpt lat="45.92796" lon="4.72803">
        <ele>170</ele>
        <time>2018-11-11T09:31:03Z</time>
      </trkpt>
      <trkpt lat="45.92797" lon="4.72801">
        <ele>170</ele>
        <time>2018-11-11T09:31:05Z</time>
      </trkpt>
      <trkpt lat="45.92797" lon="4.728">
        <ele>170</ele>
        <time>2018-11-11T09:31:06Z</time>
      </trkpt>
      <trkpt lat="45.92802" lon="4.72799">
        <ele>171</ele>
        <time>2018-11-11T09:31:30Z</time>
      </trkpt>
      <trkpt lat="45.92802" lon="4.72799">
        <ele>171</ele>
        <time>2018-11-11T09:31:31Z</time>
      </trkpt>
      <trkpt lat="45.92802" lon="4.72798">
        <ele>171</ele>
        <time>2018-11-11T09:33:10Z</time>
      </trkpt>
      <trkpt lat="45.92802" lon="4.72799">
        <ele>171</ele>
        <time>2018-11-11T09:33:11Z</time>
      </trkpt>
      <trkpt lat="45.92805" lon="4.72809">
        <ele>171</ele>
        <time>2018-11-11T09:33:16Z</time>
      </trkpt>
      <trkpt lat="45.92805" lon="4.72812">
        <ele>171</ele>
        <time>2018-11-11T09:33:17Z</time>
      </trkpt>
      <trkpt lat="45.92809" lon="4.72822">
        <ele>171</ele>
        <time>2018-11-11T09:33:20Z</time>
      </trkpt>
      <trkpt lat="45.9281" lon="4.72827">
        <ele>171</ele>
        <time>2018-11-11T09:33:21Z</time>
      </trkpt>
      <trkpt lat="45.92811" lon="4.72835">
        <ele>170</ele>
        <time>2018-11-11T09:33:23Z</time>
      </trkpt>
      <trkpt lat="45.92812" lon="4.72844">
        <ele>170</ele>
        <time>2018-11-11T09:33:24Z</time>
      </trkpt>
      <trkpt lat="45.92814" lon="4.72856">
        <ele>170</ele>
        <time>2018-11-11T09:33:26Z</time>
      </trkpt>
      <trkpt lat="45.92816" lon="4.72862">
        <ele>170</ele>
        <time>2018-11-11T09:33:27Z</time>
      </trkpt>
      <trkpt lat="45.92819" lon="4.72874">
        <ele>170</ele>
        <time>2018-11-11T09:33:29Z</time>
      </trkpt>
      <trkpt lat="45.92819" lon="4.72881">
        <ele>170</ele>
        <time>2018-11-11T09:33:30Z</time>
      </trkpt>
      <trkpt lat="45.9282" lon="4.72888">
        <ele>170</ele>
        <time>2018-11-11T09:33:31Z</time>
      </trkpt>
      <trkpt lat="45.92821" lon="4.72894">
        <ele>170</ele>
        <time>2018-11-11T09:33:32Z</time>
      </trkpt>
      <trkpt lat="45.92823" lon="4.72902">
        <ele>170</ele>
        <time>2018-11-11T09:33:33Z</time>
      </trkpt>
      <trkpt lat="45.92825" lon="4.72909">
        <ele>170</ele>
        <time>2018-11-11T09:33:34Z</time>
      </trkpt>
      <trkpt lat="45.92826" lon="4.72917">
        <ele>170</ele>
        <time>2018-11-11T09:33:35Z</time>
      </trkpt>
      <trkpt lat="45.92826" lon="4.72925">
        <ele>170</ele>
        <time>2018-11-11T09:33:36Z</time>
      </trkpt>
      <trkpt lat="45.92827" lon="4.72934">
        <ele>170</ele>
        <time>2018-11-11T09:33:37Z</time>
      </trkpt>
      <trkpt lat="45.92828" lon="4.72942">
        <ele>170</ele>
        <time>2018-11-11T09:33:38Z</time>
      </trkpt>
      <trkpt lat="45.92828" lon="4.7295">
        <ele>170</ele>
        <time>2018-11-11T09:33:39Z</time>
      </trkpt>
      <trkpt lat="45.92829" lon="4.72958">
        <ele>170</ele>
        <time>2018-11-11T09:33:40Z</time>
      </trkpt>
      <trkpt lat="45.92829" lon="4.72966">
        <ele>170</ele>
        <time>2018-11-11T09:33:41Z</time>
      </trkpt>
      <trkpt lat="45.9283" lon="4.72975">
        <ele>170</ele>
        <time>2018-11-11T09:33:42Z</time>
      </trkpt>
      <trkpt lat="45.9283" lon="4.72984">
        <ele>170</ele>
        <time>2018-11-11T09:33:43Z</time>
      </trkpt>
      <trkpt lat="45.92831" lon="4.72993">
        <ele>170</ele>
        <time>2018-11-11T09:33:44Z</time>
      </trkpt>
      <trkpt lat="45.92832" lon="4.73002">
        <ele>170</ele>
        <time>2018-11-11T09:33:45Z</time>
      </trkpt>
      <trkpt lat="45.92834" lon="4.7301">
        <ele>170</ele>
        <time>2018-11-11T09:33:46Z</time>
      </trkpt>
      <trkpt lat="45.92835" lon="4.7302">
        <ele>171</ele>
        <time>2018-11-11T09:33:47Z</time>
      </trkpt>
      <trkpt lat="45.92836" lon="4.73029">
        <ele>171</ele>
        <time>2018-11-11T09:33:48Z</time>
      </trkpt>
      <trkpt lat="45.92839" lon="4.7304">
        <ele>171</ele>
        <time>2018-11-11T09:33:49Z</time>
      </trkpt>
      <trkpt lat="45.9284" lon="4.73048">
        <ele>171</ele>
        <time>2018-11-11T09:33:50Z</time>
      </trkpt>
      <trkpt lat="45.92842" lon="4.73056">
        <ele>171</ele>
        <time>2018-11-11T09:33:51Z</time>
      </trkpt>
      <trkpt lat="45.92843" lon="4.73064">
        <ele>171</ele>
        <time>2018-11-11T09:33:52Z</time>
      </trkpt>
      <trkpt lat="45.92845" lon="4.73072">
        <ele>171</ele>
        <time>2018-11-11T09:33:53Z</time>
      </trkpt>
      <trkpt lat="45.92847" lon="4.7308">
        <ele>171</ele>
        <time>2018-11-11T09:33:54Z</time>
      </trkpt>
      <trkpt lat="45.92849" lon="4.73092">
        <ele>171</ele>
        <time>2018-11-11T09:33:56Z</time>
      </trkpt>
      <trkpt lat="45.92851" lon="4.73097">
        <ele>171</ele>
        <time>2018-11-11T09:33:57Z</time>
      </trkpt>
      <trkpt lat="45.92856" lon="4.731">
        <ele>171</ele>
        <time>2018-11-11T09:33:59Z</time>
      </trkpt>
      <trkpt lat="45.92861" lon="4.73099">
        <ele>171</ele>
        <time>2018-11-11T09:34:00Z</time>
      </trkpt>
      <trkpt lat="45.92866" lon="4.73094">
        <ele>172</ele>
        <time>2018-11-11T09:34:02Z</time>
      </trkpt>
      <trkpt lat="45.92869" lon="4.7309">
        <ele>172</ele>
        <time>2018-11-11T09:34:03Z</time>
      </trkpt>
      <trkpt lat="45.92874" lon="4.73083">
        <ele>172</ele>
        <time>2018-11-11T09:34:05Z</time>
      </trkpt>
      <trkpt lat="45.92877" lon="4.7308">
        <ele>172</ele>
        <time>2018-11-11T09:34:06Z</time>
      </trkpt>
      <trkpt lat="45.92885" lon="4.73075">
        <ele>172</ele>
        <time>2018-11-11T09:34:08Z</time>
      </trkpt>
      <trkpt lat="45.92889" lon="4.73071">
        <ele>172</ele>
        <time>2018-11-11T09:34:09Z</time>
      </trkpt>
      <trkpt lat="45.92893" lon="4.73066">
        <ele>172</ele>
        <time>2018-11-11T09:34:10Z</time>
      </trkpt>
      <trkpt lat="45.92896" lon="4.73061">
        <ele>172</ele>
        <time>2018-11-11T09:34:11Z</time>
      </trkpt>
      <trkpt lat="45.929" lon="4.73054">
        <ele>172</ele>
        <time>2018-11-11T09:34:12Z</time>
      </trkpt>
      <trkpt lat="45.92904" lon="4.73048">
        <ele>172</ele>
        <time>2018-11-11T09:34:13Z</time>
      </trkpt>
      <trkpt lat="45.92907" lon="4.73041">
        <ele>172</ele>
        <time>2018-11-11T09:34:14Z</time>
      </trkpt>
      <trkpt lat="45.92911" lon="4.73035">
        <ele>172</ele>
        <time>2018-11-11T09:34:15Z</time>
      </trkpt>
      <trkpt lat="45.92916" lon="4.73028">
        <ele>172</ele>
        <time>2018-11-11T09:34:16Z</time>
      </trkpt>
      <trkpt lat="45.9292" lon="4.73022">
        <ele>172</ele>
        <time>2018-11-11T09:34:17Z</time>
      </trkpt>
      <trkpt lat="45.92925" lon="4.73016">
        <ele>172</ele>
        <time>2018-11-11T09:34:18Z</time>
      </trkpt>
      <trkpt lat="45.9293" lon="4.73011">
        <ele>171</ele>
        <time>2018-11-11T09:34:19Z</time>
      </trkpt>
      <trkpt lat="45.92934" lon="4.73006">
        <ele>171</ele>
        <time>2018-11-11T09:34:20Z</time>
      </trkpt>
      <trkpt lat="45.92939" lon="4.73001">
        <ele>171</ele>
        <time>2018-11-11T09:34:21Z</time>
      </trkpt>
      <trkpt lat="45.92943" lon="4.72996">
        <ele>171</ele>
        <time>2018-11-11T09:34:22Z</time>
      </trkpt>
      <trkpt lat="45.92947" lon="4.72991">
        <ele>171</ele>
        <time>2018-11-11T09:34:23Z</time>
      </trkpt>
      <trkpt lat="45.92951" lon="4.72986">
        <ele>171</ele>
        <time>2018-11-11T09:34:24Z</time>
      </trkpt>
      <trkpt lat="45.92954" lon="4.72981">
        <ele>171</ele>
        <time>2018-11-11T09:34:25Z</time>
      </trkpt>
      <trkpt lat="45.92959" lon="4.72976">
        <ele>171</ele>
        <time>2018-11-11T09:34:26Z</time>
      </trkpt>
      <trkpt lat="45.92963" lon="4.72972">
        <ele>171</ele>
        <time>2018-11-11T09:34:27Z</time>
      </trkpt>
      <trkpt lat="45.92967" lon="4.72968">
        <ele>171</ele>
        <time>2018-11-11T09:34:28Z</time>
      </trkpt>
      <trkpt lat="45.92972" lon="4.72962">
        <ele>171</ele>
        <time>2018-11-11T09:34:29Z</time>
      </trkpt>
      <trkpt lat="45.92977" lon="4.72958">
        <ele>171</ele>
        <time>2018-11-11T09:34:30Z</time>
      </trkpt>
      <trkpt lat="45.92981" lon="4.72953">
        <ele>171</ele>
        <time>2018-11-11T09:34:31Z</time>
      </trkpt>
      <trkpt lat="45.92986" lon="4.72948">
        <ele>171</ele>
        <time>2018-11-11T09:34:32Z</time>
      </trkpt>
      <trkpt lat="45.92991" lon="4.72943">
        <ele>171</ele>
        <time>2018-11-11T09:34:33Z</time>
      </trkpt>
      <trkpt lat="45.92995" lon="4.72937">
        <ele>171</ele>
        <time>2018-11-11T09:34:34Z</time>
      </trkpt>
      <trkpt lat="45.93" lon="4.72932">
        <ele>171</ele>
        <time>2018-11-11T09:34:35Z</time>
      </trkpt>
      <trkpt lat="45.93005" lon="4.72925">
        <ele>170</ele>
        <time>2018-11-11T09:34:36Z</time>
      </trkpt>
      <trkpt lat="45.9301" lon="4.72919">
        <ele>170</ele>
        <time>2018-11-11T09:34:37Z</time>
      </trkpt>
      <trkpt lat="45.93014" lon="4.72914">
        <ele>171</ele>
        <time>2018-11-11T09:34:38Z</time>
      </trkpt>
      <trkpt lat="45.93019" lon="4.72908">
        <ele>172</ele>
        <time>2018-11-11T09:34:39Z</time>
      </trkpt>
      <trkpt lat="45.93024" lon="4.72903">
        <ele>172</ele>
        <time>2018-11-11T09:34:40Z</time>
      </trkpt>
      <trkpt lat="45.93028" lon="4.72898">
        <ele>172</ele>
        <time>2018-11-11T09:34:41Z</time>
      </trkpt>
      <trkpt lat="45.93033" lon="4.72895">
        <ele>172</ele>
        <time>2018-11-11T09:34:42Z</time>
      </trkpt>
      <trkpt lat="45.93037" lon="4.72889">
        <ele>172</ele>
        <time>2018-11-11T09:34:43Z</time>
      </trkpt>
      <trkpt lat="45.93042" lon="4.72883">
        <ele>172</ele>
        <time>2018-11-11T09:34:44Z</time>
      </trkpt>
      <trkpt lat="45.93048" lon="4.72878">
        <ele>172</ele>
        <time>2018-11-11T09:34:45Z</time>
      </trkpt>
      <trkpt lat="45.93053" lon="4.72872">
        <ele>172</ele>
        <time>2018-11-11T09:34:46Z</time>
      </trkpt>
      <trkpt lat="45.93057" lon="4.72866">
        <ele>172</ele>
        <time>2018-11-11T09:34:47Z</time>
      </trkpt>
      <trkpt lat="45.93062" lon="4.7286">
        <ele>172</ele>
        <time>2018-11-11T09:34:48Z</time>
      </trkpt>
      <trkpt lat="45.93067" lon="4.72854">
        <ele>172</ele>
        <time>2018-11-11T09:34:49Z</time>
      </trkpt>
      <trkpt lat="45.93073" lon="4.7285">
        <ele>172</ele>
        <time>2018-11-11T09:34:50Z</time>
      </trkpt>
      <trkpt lat="45.93078" lon="4.72846">
        <ele>173</ele>
        <time>2018-11-11T09:34:51Z</time>
      </trkpt>
      <trkpt lat="45.93083" lon="4.72841">
        <ele>173</ele>
        <time>2018-11-11T09:34:52Z</time>
      </trkpt>
      <trkpt lat="45.93093" lon="4.72834">
        <ele>172</ele>
        <time>2018-11-11T09:34:54Z</time>
      </trkpt>
      <trkpt lat="45.93093" lon="4.72824">
        <ele>172</ele>
        <time>2018-11-11T09:34:56Z</time>
      </trkpt>
      <trkpt lat="45.93099" lon="4.72817">
        <ele>172</ele>
        <time>2018-11-11T09:34:57Z</time>
      </trkpt>
      <trkpt lat="45.93103" lon="4.7281">
        <ele>172</ele>
        <time>2018-11-11T09:34:58Z</time>
      </trkpt>
      <trkpt lat="45.93109" lon="4.72805">
        <ele>171</ele>
        <time>2018-11-11T09:34:59Z</time>
      </trkpt>
      <trkpt lat="45.93117" lon="4.72795">
        <ele>171</ele>
        <time>2018-11-11T09:35:00Z</time>
      </trkpt>
      <trkpt lat="45.93121" lon="4.72789">
        <ele>171</ele>
        <time>2018-11-11T09:35:01Z</time>
      </trkpt>
      <trkpt lat="45.93127" lon="4.72785">
        <ele>171</ele>
        <time>2018-11-11T09:35:02Z</time>
      </trkpt>
      <trkpt lat="45.93131" lon="4.72779">
        <ele>171</ele>
        <time>2018-11-11T09:35:03Z</time>
      </trkpt>
      <trkpt lat="45.93135" lon="4.72774">
        <ele>171</ele>
        <time>2018-11-11T09:35:04Z</time>
      </trkpt>
      <trkpt lat="45.9314" lon="4.72768">
        <ele>171</ele>
        <time>2018-11-11T09:35:05Z</time>
      </trkpt>
      <trkpt lat="45.93145" lon="4.72762">
        <ele>171</ele>
        <time>2018-11-11T09:35:06Z</time>
      </trkpt>
      <trkpt lat="45.93149" lon="4.72758">
        <ele>170</ele>
        <time>2018-11-11T09:35:07Z</time>
      </trkpt>
      <trkpt lat="45.93154" lon="4.72753">
        <ele>170</ele>
        <time>2018-11-11T09:35:08Z</time>
      </trkpt>
      <trkpt lat="45.93158" lon="4.72748">
        <ele>170</ele>
        <time>2018-11-11T09:35:09Z</time>
      </trkpt>
      <trkpt lat="45.93163" lon="4.72742">
        <ele>170</ele>
        <time>2018-11-11T09:35:10Z</time>
      </trkpt>
      <trkpt lat="45.93167" lon="4.72736">
        <ele>170</ele>
        <time>2018-11-11T09:35:11Z</time>
      </trkpt>
      <trkpt lat="45.93173" lon="4.7273">
        <ele>170</ele>
        <time>2018-11-11T09:35:12Z</time>
      </trkpt>
      <trkpt lat="45.93177" lon="4.72725">
        <ele>170</ele>
        <time>2018-11-11T09:35:13Z</time>
      </trkpt>
      <trkpt lat="45.93182" lon="4.72719">
        <ele>169</ele>
        <time>2018-11-11T09:35:14Z</time>
      </trkpt>
      <trkpt lat="45.93186" lon="4.72714">
        <ele>169</ele>
        <time>2018-11-11T09:35:15Z</time>
      </trkpt>
      <trkpt lat="45.93191" lon="4.72709">
        <ele>169</ele>
        <time>2018-11-11T09:35:16Z</time>
      </trkpt>
      <trkpt lat="45.93195" lon="4.72704">
        <ele>169</ele>
        <time>2018-11-11T09:35:17Z</time>
      </trkpt>
      <trkpt lat="45.932" lon="4.72699">
        <ele>169</ele>
        <time>2018-11-11T09:35:18Z</time>
      </trkpt>
      <trkpt lat="45.93203" lon="4.72695">
        <ele>169</ele>
        <time>2018-11-11T09:35:19Z</time>
      </trkpt>
      <trkpt lat="45.93207" lon="4.7269">
        <ele>169</ele>
        <time>2018-11-11T09:35:20Z</time>
      </trkpt>
      <trkpt lat="45.9321" lon="4.72684">
        <ele>169</ele>
        <time>2018-11-11T09:35:21Z</time>
      </trkpt>
      <trkpt lat="45.93214" lon="4.72679">
        <ele>169</ele>
        <time>2018-11-11T09:35:22Z</time>
      </trkpt>
      <trkpt lat="45.93218" lon="4.72674">
        <ele>169</ele>
        <time>2018-11-11T09:35:23Z</time>
      </trkpt>
      <trkpt lat="45.93223" lon="4.72668">
        <ele>169</ele>
        <time>2018-11-11T09:35:24Z</time>
      </trkpt>
      <trkpt lat="45.93228" lon="4.72662">
        <ele>169</ele>
        <time>2018-11-11T09:35:25Z</time>
      </trkpt>
      <trkpt lat="45.93233" lon="4.72656">
        <ele>169</ele>
        <time>2018-11-11T09:35:26Z</time>
      </trkpt>
      <trkpt lat="45.93238" lon="4.72651">
        <ele>169</ele>
        <time>2018-11-11T09:35:27Z</time>
      </trkpt>
      <trkpt lat="45.93243" lon="4.72646">
        <ele>170</ele>
        <time>2018-11-11T09:35:28Z</time>
      </trkpt>
      <trkpt lat="45.93247" lon="4.7264">
        <ele>170</ele>
        <time>2018-11-11T09:35:29Z</time>
      </trkpt>
      <trkpt lat="45.93252" lon="4.72635">
        <ele>170</ele>
        <time>2018-11-11T09:35:30Z</time>
      </trkpt>
      <trkpt lat="45.93257" lon="4.72629">
        <ele>170</ele>
        <time>2018-11-11T09:35:31Z</time>
      </trkpt>
      <trkpt lat="45.93261" lon="4.72623">
        <ele>170</ele>
        <time>2018-11-11T09:35:32Z</time>
      </trkpt>
      <trkpt lat="45.93266" lon="4.72617">
        <ele>170</ele>
        <time>2018-11-11T09:35:33Z</time>
      </trkpt>
      <trkpt lat="45.93271" lon="4.7261">
        <ele>170</ele>
        <time>2018-11-11T09:35:34Z</time>
      </trkpt>
      <trkpt lat="45.93275" lon="4.72606">
        <ele>170</ele>
        <time>2018-11-11T09:35:35Z</time>
      </trkpt>
      <trkpt lat="45.93281" lon="4.72599">
        <ele>170</ele>
        <time>2018-11-11T09:35:36Z</time>
      </trkpt>
      <trkpt lat="45.93285" lon="4.72593">
        <ele>170</ele>
        <time>2018-11-11T09:35:37Z</time>
      </trkpt>
      <trkpt lat="45.93289" lon="4.72588">
        <ele>170</ele>
        <time>2018-11-11T09:35:38Z</time>
      </trkpt>
      <trkpt lat="45.93294" lon="4.72582">
        <ele>171</ele>
        <time>2018-11-11T09:35:39Z</time>
      </trkpt>
      <trkpt lat="45.93299" lon="4.72578">
        <ele>171</ele>
        <time>2018-11-11T09:35:40Z</time>
      </trkpt>
      <trkpt lat="45.93304" lon="4.72573">
        <ele>171</ele>
        <time>2018-11-11T09:35:41Z</time>
      </trkpt>
      <trkpt lat="45.93309" lon="4.72566">
        <ele>171</ele>
        <time>2018-11-11T09:35:42Z</time>
      </trkpt>
      <trkpt lat="45.93314" lon="4.72562">
        <ele>171</ele>
        <time>2018-11-11T09:35:43Z</time>
      </trkpt>
      <trkpt lat="45.93319" lon="4.72556">
        <ele>171</ele>
        <time>2018-11-11T09:35:44Z</time>
      </trkpt>
      <trkpt lat="45.93324" lon="4.7255">
        <ele>172</ele>
        <time>2018-11-11T09:35:45Z</time>
      </trkpt>
      <trkpt lat="45.93329" lon="4.72543">
        <ele>172</ele>
        <time>2018-11-11T09:35:46Z</time>
      </trkpt>
      <trkpt lat="45.93334" lon="4.72539">
        <ele>171</ele>
        <time>2018-11-11T09:35:47Z</time>
      </trkpt>
      <trkpt lat="45.93339" lon="4.72533">
        <ele>172</ele>
        <time>2018-11-11T09:35:48Z</time>
      </trkpt>
      <trkpt lat="45.93344" lon="4.72528">
        <ele>172</ele>
        <time>2018-11-11T09:35:49Z</time>
      </trkpt>
      <trkpt lat="45.93349" lon="4.72521">
        <ele>172</ele>
        <time>2018-11-11T09:35:50Z</time>
      </trkpt>
      <trkpt lat="45.93354" lon="4.72515">
        <ele>172</ele>
        <time>2018-11-11T09:35:51Z</time>
      </trkpt>
      <trkpt lat="45.93358" lon="4.7251">
        <ele>172</ele>
        <time>2018-11-11T09:35:52Z</time>
      </trkpt>
      <trkpt lat="45.93363" lon="4.72505">
        <ele>172</ele>
        <time>2018-11-11T09:35:53Z</time>
      </trkpt>
      <trkpt lat="45.93366" lon="4.725">
        <ele>172</ele>
        <time>2018-11-11T09:35:54Z</time>
      </trkpt>
      <trkpt lat="45.9337" lon="4.72495">
        <ele>173</ele>
        <time>2018-11-11T09:35:55Z</time>
      </trkpt>
      <trkpt lat="45.93373" lon="4.72491">
        <ele>173</ele>
        <time>2018-11-11T09:35:56Z</time>
      </trkpt>
      <trkpt lat="45.93377" lon="4.72487">
        <ele>173</ele>
        <time>2018-11-11T09:35:57Z</time>
      </trkpt>
      <trkpt lat="45.93381" lon="4.72483">
        <ele>173</ele>
        <time>2018-11-11T09:35:58Z</time>
      </trkpt>
      <trkpt lat="45.93385" lon="4.72478">
        <ele>173</ele>
        <time>2018-11-11T09:35:59Z</time>
      </trkpt>
      <trkpt lat="45.93388" lon="4.72474">
        <ele>173</ele>
        <time>2018-11-11T09:36:00Z</time>
      </trkpt>
      <trkpt lat="45.93391" lon="4.72466">
        <ele>173</ele>
        <time>2018-11-11T09:36:01Z</time>
      </trkpt>
      <trkpt lat="45.93392" lon="4.7246">
        <ele>173</ele>
        <time>2018-11-11T09:36:02Z</time>
      </trkpt>
      <trkpt lat="45.93395" lon="4.72451">
        <ele>173</ele>
        <time>2018-11-11T09:36:03Z</time>
      </trkpt>
      <trkpt lat="45.93397" lon="4.72445">
        <ele>173</ele>
        <time>2018-11-11T09:36:04Z</time>
      </trkpt>
      <trkpt lat="45.93401" lon="4.72439">
        <ele>173</ele>
        <time>2018-11-11T09:36:05Z</time>
      </trkpt>
      <trkpt lat="45.93405" lon="4.72433">
        <ele>173</ele>
        <time>2018-11-11T09:36:06Z</time>
      </trkpt>
      <trkpt lat="45.93409" lon="4.72428">
        <ele>174</ele>
        <time>2018-11-11T09:36:07Z</time>
      </trkpt>
      <trkpt lat="45.93413" lon="4.72423">
        <ele>174</ele>
        <time>2018-11-11T09:36:08Z</time>
      </trkpt>
      <trkpt lat="45.93418" lon="4.72419">
        <ele>174</ele>
        <time>2018-11-11T09:36:09Z</time>
      </trkpt>
      <trkpt lat="45.93424" lon="4.72417">
        <ele>174</ele>
        <time>2018-11-11T09:36:10Z</time>
      </trkpt>
      <trkpt lat="45.9343" lon="4.72412">
        <ele>174</ele>
        <time>2018-11-11T09:36:11Z</time>
      </trkpt>
      <trkpt lat="45.93436" lon="4.72408">
        <ele>174</ele>
        <time>2018-11-11T09:36:12Z</time>
      </trkpt>
      <trkpt lat="45.93442" lon="4.72404">
        <ele>173</ele>
        <time>2018-11-11T09:36:13Z</time>
      </trkpt>
      <trkpt lat="45.93448" lon="4.724">
        <ele>173</ele>
        <time>2018-11-11T09:36:14Z</time>
      </trkpt>
      <trkpt lat="45.93453" lon="4.72395">
        <ele>173</ele>
        <time>2018-11-11T09:36:15Z</time>
      </trkpt>
      <trkpt lat="45.93459" lon="4.7239">
        <ele>173</ele>
        <time>2018-11-11T09:36:16Z</time>
      </trkpt>
      <trkpt lat="45.93464" lon="4.72384">
        <ele>173</ele>
        <time>2018-11-11T09:36:17Z</time>
      </trkpt>
      <trkpt lat="45.93469" lon="4.72378">
        <ele>173</ele>
        <time>2018-11-11T09:36:18Z</time>
      </trkpt>
      <trkpt lat="45.93472" lon="4.72372">
        <ele>173</ele>
        <time>2018-11-11T09:36:19Z</time>
      </trkpt>
      <trkpt lat="45.93477" lon="4.72366">
        <ele>173</ele>
        <time>2018-11-11T09:36:20Z</time>
      </trkpt>
      <trkpt lat="45.9348" lon="4.72361">
        <ele>173</ele>
        <time>2018-11-11T09:36:21Z</time>
      </trkpt>
      <trkpt lat="45.93484" lon="4.72355">
        <ele>173</ele>
        <time>2018-11-11T09:36:22Z</time>
      </trkpt>
      <trkpt lat="45.93488" lon="4.7235">
        <ele>173</ele>
        <time>2018-11-11T09:36:23Z</time>
      </trkpt>
      <trkpt lat="45.93492" lon="4.72344">
        <ele>173</ele>
        <time>2018-11-11T09:36:24Z</time>
      </trkpt>
      <trkpt lat="45.93495" lon="4.72339">
        <ele>173</ele>
        <time>2018-11-11T09:36:25Z</time>
      </trkpt>
      <trkpt lat="45.93499" lon="4.72334">
        <ele>173</ele>
        <time>2018-11-11T09:36:26Z</time>
      </trkpt>
      <trkpt lat="45.93504" lon="4.72328">
        <ele>173</ele>
        <time>2018-11-11T09:36:27Z</time>
      </trkpt>
      <trkpt lat="45.93509" lon="4.72321">
        <ele>173</ele>
        <time>2018-11-11T09:36:28Z</time>
      </trkpt>
      <trkpt lat="45.93513" lon="4.72316">
        <ele>173</ele>
        <time>2018-11-11T09:36:29Z</time>
      </trkpt>
      <trkpt lat="45.93516" lon="4.7231">
        <ele>173</ele>
        <time>2018-11-11T09:36:30Z</time>
      </trkpt>
      <trkpt lat="45.93519" lon="4.72304">
        <ele>173</ele>
        <time>2018-11-11T09:36:31Z</time>
      </trkpt>
      <trkpt lat="45.93522" lon="4.72298">
        <ele>172</ele>
        <time>2018-11-11T09:36:32Z</time>
      </trkpt>
      <trkpt lat="45.93525" lon="4.72291">
        <ele>172</ele>
        <time>2018-11-11T09:36:33Z</time>
      </trkpt>
      <trkpt lat="45.93528" lon="4.72286">
        <ele>172</ele>
        <time>2018-11-11T09:36:34Z</time>
      </trkpt>
      <trkpt lat="45.9353" lon="4.7228">
        <ele>172</ele>
        <time>2018-11-11T09:36:35Z</time>
      </trkpt>
      <trkpt lat="45.93532" lon="4.72274">
        <ele>172</ele>
        <time>2018-11-11T09:36:36Z</time>
      </trkpt>
      <trkpt lat="45.93535" lon="4.72267">
        <ele>172</ele>
        <time>2018-11-11T09:36:37Z</time>
      </trkpt>
      <trkpt lat="45.93537" lon="4.72261">
        <ele>172</ele>
        <time>2018-11-11T09:36:38Z</time>
      </trkpt>
      <trkpt lat="45.93539" lon="4.72255">
        <ele>172</ele>
        <time>2018-11-11T09:36:39Z</time>
      </trkpt>
      <trkpt lat="45.93542" lon="4.72249">
        <ele>172</ele>
        <time>2018-11-11T09:36:40Z</time>
      </trkpt>
      <trkpt lat="45.93544" lon="4.72243">
        <ele>172</ele>
        <time>2018-11-11T09:36:41Z</time>
      </trkpt>
      <trkpt lat="45.93546" lon="4.72237">
        <ele>172</ele>
        <time>2018-11-11T09:36:42Z</time>
      </trkpt>
      <trkpt lat="45.93549" lon="4.72232">
        <ele>172</ele>
        <time>2018-11-11T09:36:43Z</time>
      </trkpt>
      <trkpt lat="45.93553" lon="4.72227">
        <ele>173</ele>
        <time>2018-11-11T09:36:44Z</time>
      </trkpt>
      <trkpt lat="45.93557" lon="4.72224">
        <ele>173</ele>
        <time>2018-11-11T09:36:45Z</time>
      </trkpt>
      <trkpt lat="45.93562" lon="4.72224">
        <ele>173</ele>
        <time>2018-11-11T09:36:46Z</time>
      </trkpt>
      <trkpt lat="45.93567" lon="4.72227">
        <ele>173</ele>
        <time>2018-11-11T09:36:47Z</time>
      </trkpt>
      <trkpt lat="45.93571" lon="4.72231">
        <ele>173</ele>
        <time>2018-11-11T09:36:48Z</time>
      </trkpt>
      <trkpt lat="45.93575" lon="4.72235">
        <ele>173</ele>
        <time>2018-11-11T09:36:49Z</time>
      </trkpt>
      <trkpt lat="45.93579" lon="4.7224">
        <ele>173</ele>
        <time>2018-11-11T09:36:50Z</time>
      </trkpt>
      <trkpt lat="45.93583" lon="4.72244">
        <ele>173</ele>
        <time>2018-11-11T09:36:51Z</time>
      </trkpt>
      <trkpt lat="45.93588" lon="4.72248">
        <ele>173</ele>
        <time>2018-11-11T09:36:52Z</time>
      </trkpt>
      <trkpt lat="45.93592" lon="4.72251">
        <ele>173</ele>
        <time>2018-11-11T09:36:53Z</time>
      </trkpt>
      <trkpt lat="45.93596" lon="4.72255">
        <ele>173</ele>
        <time>2018-11-11T09:36:54Z</time>
      </trkpt>
      <trkpt lat="45.93601" lon="4.72258">
        <ele>173</ele>
        <time>2018-11-11T09:36:55Z</time>
      </trkpt>
      <trkpt lat="45.93607" lon="4.72262">
        <ele>173</ele>
        <time>2018-11-11T09:36:56Z</time>
      </trkpt>
      <trkpt lat="45.93611" lon="4.72267">
        <ele>172</ele>
        <time>2018-11-11T09:36:57Z</time>
      </trkpt>
      <trkpt lat="45.93616" lon="4.72271">
        <ele>172</ele>
        <time>2018-11-11T09:36:58Z</time>
      </trkpt>
      <trkpt lat="45.9362" lon="4.72275">
        <ele>172</ele>
        <time>2018-11-11T09:36:59Z</time>
      </trkpt>
      <trkpt lat="45.93624" lon="4.7228">
        <ele>172</ele>
        <time>2018-11-11T09:37:00Z</time>
      </trkpt>
      <trkpt lat="45.93628" lon="4.72285">
        <ele>172</ele>
        <time>2018-11-11T09:37:01Z</time>
      </trkpt>
      <trkpt lat="45.93632" lon="4.72289">
        <ele>172</ele>
        <time>2018-11-11T09:37:02Z</time>
      </trkpt>
      <trkpt lat="45.93637" lon="4.72293">
        <ele>172</ele>
        <time>2018-11-11T09:37:03Z</time>
      </trkpt>
      <trkpt lat="45.93641" lon="4.72297">
        <ele>172</ele>
        <time>2018-11-11T09:37:04Z</time>
      </trkpt>
      <trkpt lat="45.93646" lon="4.72301">
        <ele>172</ele>
        <time>2018-11-11T09:37:05Z</time>
      </trkpt>
      <trkpt lat="45.9365" lon="4.72306">
        <ele>172</ele>
        <time>2018-11-11T09:37:06Z</time>
      </trkpt>
      <trkpt lat="45.93655" lon="4.72311">
        <ele>172</ele>
        <time>2018-11-11T09:37:07Z</time>
      </trkpt>
      <trkpt lat="45.93659" lon="4.72316">
        <ele>172</ele>
        <time>2018-11-11T09:37:08Z</time>
      </trkpt>
      <trkpt lat="45.93664" lon="4.72321">
        <ele>171</ele>
        <time>2018-11-11T09:37:09Z</time>
      </trkpt>
      <trkpt lat="45.93669" lon="4.72326">
        <ele>171</ele>
        <time>2018-11-11T09:37:10Z</time>
      </trkpt>
      <trkpt lat="45.93673" lon="4.72331">
        <ele>171</ele>
        <time>2018-11-11T09:37:11Z</time>
      </trkpt>
      <trkpt lat="45.93676" lon="4.72335">
        <ele>171</ele>
        <time>2018-11-11T09:37:12Z</time>
      </trkpt>
      <trkpt lat="45.93681" lon="4.72339">
        <ele>171</ele>
        <time>2018-11-11T09:37:13Z</time>
      </trkpt>
      <trkpt lat="45.93685" lon="4.72343">
        <ele>171</ele>
        <time>2018-11-11T09:37:14Z</time>
      </trkpt>
      <trkpt lat="45.93691" lon="4.72347">
        <ele>171</ele>
        <time>2018-11-11T09:37:16Z</time>
      </trkpt>
      <trkpt lat="45.93698" lon="4.72351">
        <ele>171</ele>
        <time>2018-11-11T09:37:17Z</time>
      </trkpt>
      <trkpt lat="45.93702" lon="4.72357">
        <ele>171</ele>
        <time>2018-11-11T09:37:18Z</time>
      </trkpt>
      <trkpt lat="45.93706" lon="4.72361">
        <ele>171</ele>
        <time>2018-11-11T09:37:19Z</time>
      </trkpt>
      <trkpt lat="45.93712" lon="4.72365">
        <ele>172</ele>
        <time>2018-11-11T09:37:20Z</time>
      </trkpt>
      <trkpt lat="45.93716" lon="4.72371">
        <ele>172</ele>
        <time>2018-11-11T09:37:21Z</time>
      </trkpt>
      <trkpt lat="45.9372" lon="4.72376">
        <ele>171</ele>
        <time>2018-11-11T09:37:22Z</time>
      </trkpt>
      <trkpt lat="45.93725" lon="4.7238">
        <ele>171</ele>
        <time>2018-11-11T09:37:23Z</time>
      </trkpt>
      <trkpt lat="45.93728" lon="4.72383">
        <ele>171</ele>
        <time>2018-11-11T09:37:24Z</time>
      </trkpt>
      <trkpt lat="45.93732" lon="4.72388">
        <ele>171</ele>
        <time>2018-11-11T09:37:25Z</time>
      </trkpt>
      <trkpt lat="45.93735" lon="4.72392">
        <ele>171</ele>
        <time>2018-11-11T09:37:26Z</time>
      </trkpt>
      <trkpt lat="45.93739" lon="4.72396">
        <ele>171</ele>
        <time>2018-11-11T09:37:27Z</time>
      </trkpt>
      <trkpt lat="45.93744" lon="4.72403">
        <ele>171</ele>
        <time>2018-11-11T09:37:28Z</time>
      </trkpt>
      <trkpt lat="45.93748" lon="4.72406">
        <ele>171</ele>
        <time>2018-11-11T09:37:29Z</time>
      </trkpt>
      <trkpt lat="45.93753" lon="4.7241">
        <ele>171</ele>
        <time>2018-11-11T09:37:30Z</time>
      </trkpt>
      <trkpt lat="45.93756" lon="4.72415">
        <ele>171</ele>
        <time>2018-11-11T09:37:31Z</time>
      </trkpt>
      <trkpt lat="45.93761" lon="4.7242">
        <ele>171</ele>
        <time>2018-11-11T09:37:32Z</time>
      </trkpt>
      <trkpt lat="45.93765" lon="4.72423">
        <ele>171</ele>
        <time>2018-11-11T09:37:33Z</time>
      </trkpt>
      <trkpt lat="45.93772" lon="4.72428">
        <ele>171</ele>
        <time>2018-11-11T09:37:34Z</time>
      </trkpt>
      <trkpt lat="45.93776" lon="4.72431">
        <ele>171</ele>
        <time>2018-11-11T09:37:35Z</time>
      </trkpt>
      <trkpt lat="45.9378" lon="4.72435">
        <ele>172</ele>
        <time>2018-11-11T09:37:36Z</time>
      </trkpt>
      <trkpt lat="45.93785" lon="4.7244">
        <ele>172</ele>
        <time>2018-11-11T09:37:37Z</time>
      </trkpt>
      <trkpt lat="45.9379" lon="4.72444">
        <ele>172</ele>
        <time>2018-11-11T09:37:38Z</time>
      </trkpt>
      <trkpt lat="45.93794" lon="4.72448">
        <ele>172</ele>
        <time>2018-11-11T09:37:39Z</time>
      </trkpt>
      <trkpt lat="45.93797" lon="4.72453">
        <ele>172</ele>
        <time>2018-11-11T09:37:40Z</time>
      </trkpt>
      <trkpt lat="45.93801" lon="4.72458">
        <ele>172</ele>
        <time>2018-11-11T09:37:41Z</time>
      </trkpt>
      <trkpt lat="45.93806" lon="4.72465">
        <ele>172</ele>
        <time>2018-11-11T09:37:42Z</time>
      </trkpt>
      <trkpt lat="45.9381" lon="4.72468">
        <ele>172</ele>
        <time>2018-11-11T09:37:43Z</time>
      </trkpt>
      <trkpt lat="45.93815" lon="4.72472">
        <ele>172</ele>
        <time>2018-11-11T09:37:44Z</time>
      </trkpt>
      <trkpt lat="45.93821" lon="4.72477">
        <ele>172</ele>
        <time>2018-11-11T09:37:45Z</time>
      </trkpt>
      <trkpt lat="45.93827" lon="4.72484">
        <ele>173</ele>
        <time>2018-11-11T09:37:47Z</time>
      </trkpt>
      <trkpt lat="45.9383" lon="4.72487">
        <ele>173</ele>
        <time>2018-11-11T09:37:48Z</time>
      </trkpt>
      <trkpt lat="45.93832" lon="4.72485">
        <ele>173</ele>
        <time>2018-11-11T09:37:49Z</time>
      </trkpt>
      <trkpt lat="45.93848" lon="4.72488">
        <ele>173</ele>
        <time>2018-11-11T09:37:50Z</time>
      </trkpt>
      <trkpt lat="45.93851" lon="4.72504">
        <ele>174</ele>
        <time>2018-11-11T09:37:51Z</time>
      </trkpt>
      <trkpt lat="45.93858" lon="4.72509">
        <ele>173</ele>
        <time>2018-11-11T09:37:53Z</time>
      </trkpt>
      <trkpt lat="45.93865" lon="4.72515">
        <ele>173</ele>
        <time>2018-11-11T09:37:54Z</time>
      </trkpt>
      <trkpt lat="45.93871" lon="4.72516">
        <ele>173</ele>
        <time>2018-11-11T09:37:55Z</time>
      </trkpt>
      <trkpt lat="45.93875" lon="4.72514">
        <ele>173</ele>
        <time>2018-11-11T09:37:56Z</time>
      </trkpt>
      <trkpt lat="45.93879" lon="4.72512">
        <ele>173</ele>
        <time>2018-11-11T09:37:57Z</time>
      </trkpt>
      <trkpt lat="45.93883" lon="4.72509">
        <ele>173</ele>
        <time>2018-11-11T09:37:58Z</time>
      </trkpt>
      <trkpt lat="45.93887" lon="4.72505">
        <ele>173</ele>
        <time>2018-11-11T09:37:59Z</time>
      </trkpt>
      <trkpt lat="45.93891" lon="4.725">
        <ele>173</ele>
        <time>2018-11-11T09:38:00Z</time>
      </trkpt>
      <trkpt lat="45.93894" lon="4.72495">
        <ele>172</ele>
        <time>2018-11-11T09:38:01Z</time>
      </trkpt>
      <trkpt lat="45.93898" lon="4.72491">
        <ele>172</ele>
        <time>2018-11-11T09:38:02Z</time>
      </trkpt>
      <trkpt lat="45.93902" lon="4.72486">
        <ele>172</ele>
        <time>2018-11-11T09:38:03Z</time>
      </trkpt>
      <trkpt lat="45.93907" lon="4.72481">
        <ele>172</ele>
        <time>2018-11-11T09:38:04Z</time>
      </trkpt>
      <trkpt lat="45.93912" lon="4.72476">
        <ele>172</ele>
        <time>2018-11-11T09:38:05Z</time>
      </trkpt>
      <trkpt lat="45.93917" lon="4.7247">
        <ele>171</ele>
        <time>2018-11-11T09:38:06Z</time>
      </trkpt>
      <trkpt lat="45.93921" lon="4.72464">
        <ele>171</ele>
        <time>2018-11-11T09:38:07Z</time>
      </trkpt>
      <trkpt lat="45.93925" lon="4.72458">
        <ele>171</ele>
        <time>2018-11-11T09:38:08Z</time>
      </trkpt>
      <trkpt lat="45.9393" lon="4.72452">
        <ele>171</ele>
        <time>2018-11-11T09:38:09Z</time>
      </trkpt>
      <trkpt lat="45.93934" lon="4.72446">
        <ele>171</ele>
        <time>2018-11-11T09:38:10Z</time>
      </trkpt>
      <trkpt lat="45.93938" lon="4.7244">
        <ele>171</ele>
        <time>2018-11-11T09:38:11Z</time>
      </trkpt>
      <trkpt lat="45.93944" lon="4.72435">
        <ele>171</ele>
        <time>2018-11-11T09:38:12Z</time>
      </trkpt>
      <trkpt lat="45.93948" lon="4.72429">
        <ele>171</ele>
        <time>2018-11-11T09:38:13Z</time>
      </trkpt>
      <trkpt lat="45.93953" lon="4.72424">
        <ele>171</ele>
        <time>2018-11-11T09:38:14Z</time>
      </trkpt>
      <trkpt lat="45.93958" lon="4.72419">
        <ele>171</ele>
        <time>2018-11-11T09:38:15Z</time>
      </trkpt>
      <trkpt lat="45.93962" lon="4.72413">
        <ele>171</ele>
        <time>2018-11-11T09:38:16Z</time>
      </trkpt>
      <trkpt lat="45.93968" lon="4.72408">
        <ele>171</ele>
        <time>2018-11-11T09:38:17Z</time>
      </trkpt>
      <trkpt lat="45.93972" lon="4.72403">
        <ele>171</ele>
        <time>2018-11-11T09:38:18Z</time>
      </trkpt>
      <trkpt lat="45.93977" lon="4.72398">
        <ele>171</ele>
        <time>2018-11-11T09:38:19Z</time>
      </trkpt>
      <trkpt lat="45.93982" lon="4.72393">
        <ele>171</ele>
        <time>2018-11-11T09:38:20Z</time>
      </trkpt>
      <trkpt lat="45.93987" lon="4.72386">
        <ele>171</ele>
        <time>2018-11-11T09:38:21Z</time>
      </trkpt>
      <trkpt lat="45.93992" lon="4.7238">
        <ele>171</ele>
        <time>2018-11-11T09:38:22Z</time>
      </trkpt>
      <trkpt lat="45.93997" lon="4.72374">
        <ele>171</ele>
        <time>2018-11-11T09:38:23Z</time>
      </trkpt>
      <trkpt lat="45.94001" lon="4.72368">
        <ele>171</ele>
        <time>2018-11-11T09:38:24Z</time>
      </trkpt>
      <trkpt lat="45.94005" lon="4.72363">
        <ele>171</ele>
        <time>2018-11-11T09:38:25Z</time>
      </trkpt>
      <trkpt lat="45.94009" lon="4.72357">
        <ele>171</ele>
        <time>2018-11-11T09:38:26Z</time>
      </trkpt>
      <trkpt lat="45.94013" lon="4.72352">
        <ele>171</ele>
        <time>2018-11-11T09:38:27Z</time>
      </trkpt>
      <trkpt lat="45.94017" lon="4.72346">
        <ele>171</ele>
        <time>2018-11-11T09:38:28Z</time>
      </trkpt>
      <trkpt lat="45.94022" lon="4.7234">
        <ele>171</ele>
        <time>2018-11-11T09:38:29Z</time>
      </trkpt>
      <trkpt lat="45.94026" lon="4.72333">
        <ele>171</ele>
        <time>2018-11-11T09:38:30Z</time>
      </trkpt>
      <trkpt lat="45.9403" lon="4.72328">
        <ele>171</ele>
        <time>2018-11-11T09:38:31Z</time>
      </trkpt>
      <trkpt lat="45.94034" lon="4.72323">
        <ele>171</ele>
        <time>2018-11-11T09:38:32Z</time>
      </trkpt>
      <trkpt lat="45.94038" lon="4.72318">
        <ele>171</ele>
        <time>2018-11-11T09:38:33Z</time>
      </trkpt>
      <trkpt lat="45.94043" lon="4.72312">
        <ele>171</ele>
        <time>2018-11-11T09:38:34Z</time>
      </trkpt>
      <trkpt lat="45.94047" lon="4.72305">
        <ele>171</ele>
        <time>2018-11-11T09:38:35Z</time>
      </trkpt>
      <trkpt lat="45.94051" lon="4.72299">
        <ele>171</ele>
        <time>2018-11-11T09:38:36Z</time>
      </trkpt>
      <trkpt lat="45.94055" lon="4.72294">
        <ele>171</ele>
        <time>2018-11-11T09:38:37Z</time>
      </trkpt>
      <trkpt lat="45.94059" lon="4.72289">
        <ele>171</ele>
        <time>2018-11-11T09:38:38Z</time>
      </trkpt>
      <trkpt lat="45.94062" lon="4.72284">
        <ele>171</ele>
        <time>2018-11-11T09:38:39Z</time>
      </trkpt>
      <trkpt lat="45.94066" lon="4.7228">
        <ele>171</ele>
        <time>2018-11-11T09:38:40Z</time>
      </trkpt>
      <trkpt lat="45.9407" lon="4.72276">
        <ele>171</ele>
        <time>2018-11-11T09:38:41Z</time>
      </trkpt>
      <trkpt lat="45.94074" lon="4.72273">
        <ele>171</ele>
        <time>2018-11-11T09:38:42Z</time>
      </trkpt>
      <trkpt lat="45.94079" lon="4.7227">
        <ele>171</ele>
        <time>2018-11-11T09:38:43Z</time>
      </trkpt>
      <trkpt lat="45.94084" lon="4.72267">
        <ele>171</ele>
        <time>2018-11-11T09:38:44Z</time>
      </trkpt>
      <trkpt lat="45.94088" lon="4.72265">
        <ele>171</ele>
        <time>2018-11-11T09:38:45Z</time>
      </trkpt>
      <trkpt lat="45.94094" lon="4.72264">
        <ele>171</ele>
        <time>2018-11-11T09:38:46Z</time>
      </trkpt>
      <trkpt lat="45.94099" lon="4.72264">
        <ele>171</ele>
        <time>2018-11-11T09:38:47Z</time>
      </trkpt>
      <trkpt lat="45.94104" lon="4.72264">
        <ele>171</ele>
        <time>2018-11-11T09:38:48Z</time>
      </trkpt>
      <trkpt lat="45.9411" lon="4.72266">
        <ele>171</ele>
        <time>2018-11-11T09:38:49Z</time>
      </trkpt>
      <trkpt lat="45.94116" lon="4.7227">
        <ele>171</ele>
        <time>2018-11-11T09:38:50Z</time>
      </trkpt>
      <trkpt lat="45.94122" lon="4.72273">
        <ele>171</ele>
        <time>2018-11-11T09:38:51Z</time>
      </trkpt>
      <trkpt lat="45.94127" lon="4.72277">
        <ele>171</ele>
        <time>2018-11-11T09:38:52Z</time>
      </trkpt>
      <trkpt lat="45.94132" lon="4.72279">
        <ele>171</ele>
        <time>2018-11-11T09:38:53Z</time>
      </trkpt>
      <trkpt lat="45.94136" lon="4.72282">
        <ele>171</ele>
        <time>2018-11-11T09:38:54Z</time>
      </trkpt>
      <trkpt lat="45.94145" lon="4.72285">
        <ele>171</ele>
        <time>2018-11-11T09:38:56Z</time>
      </trkpt>
      <trkpt lat="45.94149" lon="4.72286">
        <ele>171</ele>
        <time>2018-11-11T09:38:57Z</time>
      </trkpt>
      <trkpt lat="45.94154" lon="4.72287">
        <ele>171</ele>
        <time>2018-11-11T09:38:58Z</time>
      </trkpt>
      <trkpt lat="45.94159" lon="4.72288">
        <ele>171</ele>
        <time>2018-11-11T09:38:59Z</time>
      </trkpt>
      <trkpt lat="45.94165" lon="4.72288">
        <ele>171</ele>
        <time>2018-11-11T09:39:00Z</time>
      </trkpt>
      <trkpt lat="45.94172" lon="4.7229">
        <ele>171</ele>
        <time>2018-11-11T09:39:01Z</time>
      </trkpt>
      <trkpt lat="45.94177" lon="4.7229">
        <ele>171</ele>
        <time>2018-11-11T09:39:02Z</time>
      </trkpt>
      <trkpt lat="45.94183" lon="4.72291">
        <ele>171</ele>
        <time>2018-11-11T09:39:03Z</time>
      </trkpt>
      <trkpt lat="45.94189" lon="4.7229">
        <ele>171</ele>
        <time>2018-11-11T09:39:04Z</time>
      </trkpt>
      <trkpt lat="45.94194" lon="4.7229">
        <ele>171</ele>
        <time>2018-11-11T09:39:05Z</time>
      </trkpt>
      <trkpt lat="45.94199" lon="4.7229">
        <ele>171</ele>
        <time>2018-11-11T09:39:06Z</time>
      </trkpt>
      <trkpt lat="45.94205" lon="4.7229">
        <ele>171</ele>
        <time>2018-11-11T09:39:07Z</time>
      </trkpt>
      <trkpt lat="45.9421" lon="4.7229">
        <ele>171</ele>
        <time>2018-11-11T09:39:08Z</time>
      </trkpt>
      <trkpt lat="45.94216" lon="4.7229">
        <ele>171</ele>
        <time>2018-11-11T09:39:09Z</time>
      </trkpt>
      <trkpt lat="45.94221" lon="4.7229">
        <ele>171</ele>
        <time>2018-11-11T09:39:10Z</time>
      </trkpt>
      <trkpt lat="45.94225" lon="4.72288">
        <ele>171</ele>
        <time>2018-11-11T09:39:11Z</time>
      </trkpt>
      <trkpt lat="45.9423" lon="4.72286">
        <ele>171</ele>
        <time>2018-11-11T09:39:12Z</time>
      </trkpt>
      <trkpt lat="45.94234" lon="4.72286">
        <ele>171</ele>
        <time>2018-11-11T09:39:13Z</time>
      </trkpt>
      <trkpt lat="45.94239" lon="4.72285">
        <ele>171</ele>
        <time>2018-11-11T09:39:14Z</time>
      </trkpt>
      <trkpt lat="45.94244" lon="4.72283">
        <ele>171</ele>
        <time>2018-11-11T09:39:15Z</time>
      </trkpt>
      <trkpt lat="45.9425" lon="4.72282">
        <ele>171</ele>
        <time>2018-11-11T09:39:16Z</time>
      </trkpt>
      <trkpt lat="45.94255" lon="4.7228">
        <ele>171</ele>
        <time>2018-11-11T09:39:17Z</time>
      </trkpt>
      <trkpt lat="45.94263" lon="4.72275">
        <ele>171</ele>
        <time>2018-11-11T09:39:19Z</time>
      </trkpt>
      <trkpt lat="45.94266" lon="4.72274">
        <ele>171</ele>
        <time>2018-11-11T09:39:20Z</time>
      </trkpt>
      <trkpt lat="45.94275" lon="4.72274">
        <ele>171</ele>
        <time>2018-11-11T09:39:23Z</time>
      </trkpt>
      <trkpt lat="45.94277" lon="4.72277">
        <ele>171</ele>
        <time>2018-11-11T09:39:24Z</time>
      </trkpt>
      <trkpt lat="45.94282" lon="4.72286">
        <ele>171</ele>
        <time>2018-11-11T09:39:26Z</time>
      </trkpt>
      <trkpt lat="45.94284" lon="4.72292">
        <ele>171</ele>
        <time>2018-11-11T09:39:27Z</time>
      </trkpt>
      <trkpt lat="45.94287" lon="4.72299">
        <ele>171</ele>
        <time>2018-11-11T09:39:28Z</time>
      </trkpt>
      <trkpt lat="45.94289" lon="4.72304">
        <ele>171</ele>
        <time>2018-11-11T09:39:29Z</time>
      </trkpt>
      <trkpt lat="45.94291" lon="4.7231">
        <ele>171</ele>
        <time>2018-11-11T09:39:30Z</time>
      </trkpt>
      <trkpt lat="45.94294" lon="4.72316">
        <ele>171</ele>
        <time>2018-11-11T09:39:31Z</time>
      </trkpt>
      <trkpt lat="45.94297" lon="4.72322">
        <ele>171</ele>
        <time>2018-11-11T09:39:32Z</time>
      </trkpt>
      <trkpt lat="45.94299" lon="4.72328">
        <ele>171</ele>
        <time>2018-11-11T09:39:33Z</time>
      </trkpt>
      <trkpt lat="45.94303" lon="4.72334">
        <ele>172</ele>
        <time>2018-11-11T09:39:34Z</time>
      </trkpt>
      <trkpt lat="45.94305" lon="4.72341">
        <ele>172</ele>
        <time>2018-11-11T09:39:35Z</time>
      </trkpt>
      <trkpt lat="45.94308" lon="4.72348">
        <ele>172</ele>
        <time>2018-11-11T09:39:36Z</time>
      </trkpt>
      <trkpt lat="45.94311" lon="4.72355">
        <ele>172</ele>
        <time>2018-11-11T09:39:37Z</time>
      </trkpt>
      <trkpt lat="45.94314" lon="4.72361">
        <ele>172</ele>
        <time>2018-11-11T09:39:38Z</time>
      </trkpt>
      <trkpt lat="45.94317" lon="4.72367">
        <ele>172</ele>
        <time>2018-11-11T09:39:39Z</time>
      </trkpt>
      <trkpt lat="45.94319" lon="4.72374">
        <ele>172</ele>
        <time>2018-11-11T09:39:40Z</time>
      </trkpt>
      <trkpt lat="45.94322" lon="4.7238">
        <ele>172</ele>
        <time>2018-11-11T09:39:41Z</time>
      </trkpt>
      <trkpt lat="45.94325" lon="4.72387">
        <ele>172</ele>
        <time>2018-11-11T09:39:42Z</time>
      </trkpt>
      <trkpt lat="45.94327" lon="4.72392">
        <ele>172</ele>
        <time>2018-11-11T09:39:43Z</time>
      </trkpt>
      <trkpt lat="45.9433" lon="4.72399">
        <ele>172</ele>
        <time>2018-11-11T09:39:44Z</time>
      </trkpt>
      <trkpt lat="45.94333" lon="4.72405">
        <ele>173</ele>
        <time>2018-11-11T09:39:45Z</time>
      </trkpt>
      <trkpt lat="45.94336" lon="4.72411">
        <ele>173</ele>
        <time>2018-11-11T09:39:46Z</time>
      </trkpt>
      <trkpt lat="45.94338" lon="4.72418">
        <ele>173</ele>
        <time>2018-11-11T09:39:47Z</time>
      </trkpt>
      <trkpt lat="45.94341" lon="4.72424">
        <ele>173</ele>
        <time>2018-11-11T09:39:48Z</time>
      </trkpt>
      <trkpt lat="45.94344" lon="4.72431">
        <ele>173</ele>
        <time>2018-11-11T09:39:49Z</time>
      </trkpt>
      <trkpt lat="45.94347" lon="4.72436">
        <ele>173</ele>
        <time>2018-11-11T09:39:50Z</time>
      </trkpt>
      <trkpt lat="45.9435" lon="4.72443">
        <ele>173</ele>
        <time>2018-11-11T09:39:51Z</time>
      </trkpt>
      <trkpt lat="45.94352" lon="4.7245">
        <ele>173</ele>
        <time>2018-11-11T09:39:52Z</time>
      </trkpt>
      <trkpt lat="45.94354" lon="4.72458">
        <ele>173</ele>
        <time>2018-11-11T09:39:53Z</time>
      </trkpt>
      <trkpt lat="45.94357" lon="4.72464">
        <ele>173</ele>
        <time>2018-11-11T09:39:54Z</time>
      </trkpt>
      <trkpt lat="45.9436" lon="4.72472">
        <ele>173</ele>
        <time>2018-11-11T09:39:55Z</time>
      </trkpt>
      <trkpt lat="45.94363" lon="4.7248">
        <ele>173</ele>
        <time>2018-11-11T09:39:56Z</time>
      </trkpt>
      <trkpt lat="45.94366" lon="4.72487">
        <ele>173</ele>
        <time>2018-11-11T09:39:57Z</time>
      </trkpt>
      <trkpt lat="45.94369" lon="4.72495">
        <ele>173</ele>
        <time>2018-11-11T09:39:58Z</time>
      </trkpt>
      <trkpt lat="45.94371" lon="4.72503">
        <ele>173</ele>
        <time>2018-11-11T09:39:59Z</time>
      </trkpt>
      <trkpt lat="45.94373" lon="4.7251">
        <ele>173</ele>
        <time>2018-11-11T09:40:00Z</time>
      </trkpt>
      <trkpt lat="45.94375" lon="4.72517">
        <ele>174</ele>
        <time>2018-11-11T09:40:01Z</time>
      </trkpt>
      <trkpt lat="45.94377" lon="4.72523">
        <ele>174</ele>
        <time>2018-11-11T09:40:02Z</time>
      </trkpt>
      <trkpt lat="45.94377" lon="4.72531">
        <ele>174</ele>
        <time>2018-11-11T09:40:03Z</time>
      </trkpt>
      <trkpt lat="45.94379" lon="4.72538">
        <ele>174</ele>
        <time>2018-11-11T09:40:04Z</time>
      </trkpt>
      <trkpt lat="45.94381" lon="4.72547">
        <ele>173</ele>
        <time>2018-11-11T09:40:05Z</time>
      </trkpt>
      <trkpt lat="45.94383" lon="4.72554">
        <ele>173</ele>
        <time>2018-11-11T09:40:06Z</time>
      </trkpt>
      <trkpt lat="45.94385" lon="4.72561">
        <ele>173</ele>
        <time>2018-11-11T09:40:07Z</time>
      </trkpt>
      <trkpt lat="45.94385" lon="4.72568">
        <ele>173</ele>
        <time>2018-11-11T09:40:08Z</time>
      </trkpt>
      <trkpt lat="45.94386" lon="4.72575">
        <ele>173</ele>
        <time>2018-11-11T09:40:09Z</time>
      </trkpt>
      <trkpt lat="45.94387" lon="4.72582">
        <ele>173</ele>
        <time>2018-11-11T09:40:10Z</time>
      </trkpt>
      <trkpt lat="45.94388" lon="4.7259">
        <ele>173</ele>
        <time>2018-11-11T09:40:11Z</time>
      </trkpt>
      <trkpt lat="45.94389" lon="4.72598">
        <ele>173</ele>
        <time>2018-11-11T09:40:12Z</time>
      </trkpt>
      <trkpt lat="45.9439" lon="4.72605">
        <ele>173</ele>
        <time>2018-11-11T09:40:13Z</time>
      </trkpt>
      <trkpt lat="45.94391" lon="4.72612">
        <ele>173</ele>
        <time>2018-11-11T09:40:14Z</time>
      </trkpt>
      <trkpt lat="45.94392" lon="4.72617">
        <ele>173</ele>
        <time>2018-11-11T09:40:15Z</time>
      </trkpt>
      <trkpt lat="45.94394" lon="4.72629">
        <ele>174</ele>
        <time>2018-11-11T09:40:17Z</time>
      </trkpt>
      <trkpt lat="45.94395" lon="4.72636">
        <ele>174</ele>
        <time>2018-11-11T09:40:18Z</time>
      </trkpt>
      <trkpt lat="45.94396" lon="4.72643">
        <ele>174</ele>
        <time>2018-11-11T09:40:19Z</time>
      </trkpt>
      <trkpt lat="45.94396" lon="4.7265">
        <ele>174</ele>
        <time>2018-11-11T09:40:20Z</time>
      </trkpt>
      <trkpt lat="45.94397" lon="4.72657">
        <ele>174</ele>
        <time>2018-11-11T09:40:21Z</time>
      </trkpt>
      <trkpt lat="45.94398" lon="4.72665">
        <ele>174</ele>
        <time>2018-11-11T09:40:22Z</time>
      </trkpt>
      <trkpt lat="45.944" lon="4.72671">
        <ele>173</ele>
        <time>2018-11-11T09:40:23Z</time>
      </trkpt>
      <trkpt lat="45.94402" lon="4.72679">
        <ele>173</ele>
        <time>2018-11-11T09:40:24Z</time>
      </trkpt>
      <trkpt lat="45.94403" lon="4.72687">
        <ele>173</ele>
        <time>2018-11-11T09:40:25Z</time>
      </trkpt>
      <trkpt lat="45.94405" lon="4.72695">
        <ele>172</ele>
        <time>2018-11-11T09:40:26Z</time>
      </trkpt>
      <trkpt lat="45.94406" lon="4.72702">
        <ele>172</ele>
        <time>2018-11-11T09:40:27Z</time>
      </trkpt>
      <trkpt lat="45.94407" lon="4.7271">
        <ele>172</ele>
        <time>2018-11-11T09:40:28Z</time>
      </trkpt>
      <trkpt lat="45.94408" lon="4.72717">
        <ele>172</ele>
        <time>2018-11-11T09:40:29Z</time>
      </trkpt>
      <trkpt lat="45.94409" lon="4.72725">
        <ele>172</ele>
        <time>2018-11-11T09:40:30Z</time>
      </trkpt>
      <trkpt lat="45.9441" lon="4.72733">
        <ele>172</ele>
        <time>2018-11-11T09:40:31Z</time>
      </trkpt>
      <trkpt lat="45.94411" lon="4.72741">
        <ele>171</ele>
        <time>2018-11-11T09:40:32Z</time>
      </trkpt>
      <trkpt lat="45.94412" lon="4.72749">
        <ele>171</ele>
        <time>2018-11-11T09:40:33Z</time>
      </trkpt>
      <trkpt lat="45.94413" lon="4.72756">
        <ele>170</ele>
        <time>2018-11-11T09:40:34Z</time>
      </trkpt>
      <trkpt lat="45.94415" lon="4.72763">
        <ele>170</ele>
        <time>2018-11-11T09:40:35Z</time>
      </trkpt>
      <trkpt lat="45.94415" lon="4.72772">
        <ele>169</ele>
        <time>2018-11-11T09:40:36Z</time>
      </trkpt>
      <trkpt lat="45.94418" lon="4.72778">
        <ele>168</ele>
        <time>2018-11-11T09:40:37Z</time>
      </trkpt>
      <trkpt lat="45.94418" lon="4.72786">
        <ele>168</ele>
        <time>2018-11-11T09:40:38Z</time>
      </trkpt>
      <trkpt lat="45.94419" lon="4.72793">
        <ele>168</ele>
        <time>2018-11-11T09:40:39Z</time>
      </trkpt>
      <trkpt lat="45.9442" lon="4.72801">
        <ele>167</ele>
        <time>2018-11-11T09:40:40Z</time>
      </trkpt>
      <trkpt lat="45.94421" lon="4.72808">
        <ele>167</ele>
        <time>2018-11-11T09:40:41Z</time>
      </trkpt>
      <trkpt lat="45.94422" lon="4.72814">
        <ele>167</ele>
        <time>2018-11-11T09:40:42Z</time>
      </trkpt>
      <trkpt lat="45.94424" lon="4.72826">
        <ele>166</ele>
        <time>2018-11-11T09:40:44Z</time>
      </trkpt>
      <trkpt lat="45.94424" lon="4.72832">
        <ele>166</ele>
        <time>2018-11-11T09:40:45Z</time>
      </trkpt>
      <trkpt lat="45.94426" lon="4.72843">
        <ele>166</ele>
        <time>2018-11-11T09:40:47Z</time>
      </trkpt>
      <trkpt lat="45.94428" lon="4.72849">
        <ele>166</ele>
        <time>2018-11-11T09:40:48Z</time>
      </trkpt>
      <trkpt lat="45.94429" lon="4.7286">
        <ele>166</ele>
        <time>2018-11-11T09:40:50Z</time>
      </trkpt>
      <trkpt lat="45.9443" lon="4.72866">
        <ele>166</ele>
        <time>2018-11-11T09:40:51Z</time>
      </trkpt>
      <trkpt lat="45.94432" lon="4.72878">
        <ele>166</ele>
        <time>2018-11-11T09:40:53Z</time>
      </trkpt>
      <trkpt lat="45.94432" lon="4.72884">
        <ele>166</ele>
        <time>2018-11-11T09:40:54Z</time>
      </trkpt>
      <trkpt lat="45.94434" lon="4.72896">
        <ele>166</ele>
        <time>2018-11-11T09:40:56Z</time>
      </trkpt>
      <trkpt lat="45.94435" lon="4.72902">
        <ele>166</ele>
        <time>2018-11-11T09:40:57Z</time>
      </trkpt>
      <trkpt lat="45.94436" lon="4.72908">
        <ele>166</ele>
        <time>2018-11-11T09:40:58Z</time>
      </trkpt>
      <trkpt lat="45.94437" lon="4.72915">
        <ele>166</ele>
        <time>2018-11-11T09:40:59Z</time>
      </trkpt>
      <trkpt lat="45.94438" lon="4.72922">
        <ele>167</ele>
        <time>2018-11-11T09:41:00Z</time>
      </trkpt>
      <trkpt lat="45.94439" lon="4.72929">
        <ele>167</ele>
        <time>2018-11-11T09:41:01Z</time>
      </trkpt>
      <trkpt lat="45.9444" lon="4.72937">
        <ele>167</ele>
        <time>2018-11-11T09:41:02Z</time>
      </trkpt>
      <trkpt lat="45.94441" lon="4.72946">
        <ele>167</ele>
        <time>2018-11-11T09:41:03Z</time>
      </trkpt>
      <trkpt lat="45.94442" lon="4.72954">
        <ele>167</ele>
        <time>2018-11-11T09:41:04Z</time>
      </trkpt>
      <trkpt lat="45.94443" lon="4.72963">
        <ele>167</ele>
        <time>2018-11-11T09:41:05Z</time>
      </trkpt>
      <trkpt lat="45.94445" lon="4.72972">
        <ele>167</ele>
        <time>2018-11-11T09:41:06Z</time>
      </trkpt>
      <trkpt lat="45.94445" lon="4.72981">
        <ele>167</ele>
        <time>2018-11-11T09:41:07Z</time>
      </trkpt>
      <trkpt lat="45.94447" lon="4.7299">
        <ele>167</ele>
        <time>2018-11-11T09:41:08Z</time>
      </trkpt>
      <trkpt lat="45.94447" lon="4.73001">
        <ele>169</ele>
        <time>2018-11-11T09:41:09Z</time>
      </trkpt>
      <trkpt lat="45.94448" lon="4.7301">
        <ele>169</ele>
        <time>2018-11-11T09:41:10Z</time>
      </trkpt>
      <trkpt lat="45.9445" lon="4.73019">
        <ele>169</ele>
        <time>2018-11-11T09:41:11Z</time>
      </trkpt>
      <trkpt lat="45.94452" lon="4.73029">
        <ele>169</ele>
        <time>2018-11-11T09:41:12Z</time>
      </trkpt>
      <trkpt lat="45.94453" lon="4.7304">
        <ele>169</ele>
        <time>2018-11-11T09:41:13Z</time>
      </trkpt>
      <trkpt lat="45.94454" lon="4.7305">
        <ele>169</ele>
        <time>2018-11-11T09:41:14Z</time>
      </trkpt>
      <trkpt lat="45.94455" lon="4.7306">
        <ele>170</ele>
        <time>2018-11-11T09:41:15Z</time>
      </trkpt>
      <trkpt lat="45.94456" lon="4.73071">
        <ele>170</ele>
        <time>2018-11-11T09:41:16Z</time>
      </trkpt>
      <trkpt lat="45.94458" lon="4.73082">
        <ele>170</ele>
        <time>2018-11-11T09:41:17Z</time>
      </trkpt>
      <trkpt lat="45.94459" lon="4.73092">
        <ele>171</ele>
        <time>2018-11-11T09:41:18Z</time>
      </trkpt>
      <trkpt lat="45.9446" lon="4.73102">
        <ele>171</ele>
        <time>2018-11-11T09:41:19Z</time>
      </trkpt>
      <trkpt lat="45.94461" lon="4.73111">
        <ele>172</ele>
        <time>2018-11-11T09:41:20Z</time>
      </trkpt>
      <trkpt lat="45.94462" lon="4.7312">
        <ele>172</ele>
        <time>2018-11-11T09:41:21Z</time>
      </trkpt>
      <trkpt lat="45.94464" lon="4.73129">
        <ele>172</ele>
        <time>2018-11-11T09:41:22Z</time>
      </trkpt>
      <trkpt lat="45.94465" lon="4.73137">
        <ele>172</ele>
        <time>2018-11-11T09:41:23Z</time>
      </trkpt>
      <trkpt lat="45.94467" lon="4.73145">
        <ele>172</ele>
        <time>2018-11-11T09:41:24Z</time>
      </trkpt>
      <trkpt lat="45.94468" lon="4.73153">
        <ele>172</ele>
        <time>2018-11-11T09:41:25Z</time>
      </trkpt>
      <trkpt lat="45.94469" lon="4.7316">
        <ele>172</ele>
        <time>2018-11-11T09:41:26Z</time>
      </trkpt>
      <trkpt lat="45.9447" lon="4.73168">
        <ele>174</ele>
        <time>2018-11-11T09:41:27Z</time>
      </trkpt>
      <trkpt lat="45.94471" lon="4.73175">
        <ele>174</ele>
        <time>2018-11-11T09:41:28Z</time>
      </trkpt>
      <trkpt lat="45.94472" lon="4.73183">
        <ele>174</ele>
        <time>2018-11-11T09:41:29Z</time>
      </trkpt>
      <trkpt lat="45.94473" lon="4.7319">
        <ele>174</ele>
        <time>2018-11-11T09:41:30Z</time>
      </trkpt>
      <trkpt lat="45.94474" lon="4.73198">
        <ele>174</ele>
        <time>2018-11-11T09:41:31Z</time>
      </trkpt>
      <trkpt lat="45.94475" lon="4.73205">
        <ele>175</ele>
        <time>2018-11-11T09:41:32Z</time>
      </trkpt>
      <trkpt lat="45.94476" lon="4.73212">
        <ele>175</ele>
        <time>2018-11-11T09:41:33Z</time>
      </trkpt>
      <trkpt lat="45.94477" lon="4.73219">
        <ele>175</ele>
        <time>2018-11-11T09:41:34Z</time>
      </trkpt>
      <trkpt lat="45.94479" lon="4.73225">
        <ele>175</ele>
        <time>2018-11-11T09:41:35Z</time>
      </trkpt>
      <trkpt lat="45.9448" lon="4.73232">
        <ele>175</ele>
        <time>2018-11-11T09:41:36Z</time>
      </trkpt>
      <trkpt lat="45.9448" lon="4.73238">
        <ele>175</ele>
        <time>2018-11-11T09:41:37Z</time>
      </trkpt>
      <trkpt lat="45.94481" lon="4.73249">
        <ele>175</ele>
        <time>2018-11-11T09:41:39Z</time>
      </trkpt>
      <trkpt lat="45.94481" lon="4.73254">
        <ele>176</ele>
        <time>2018-11-11T09:41:40Z</time>
      </trkpt>
      <trkpt lat="45.94482" lon="4.73261">
        <ele>177</ele>
        <time>2018-11-11T09:41:41Z</time>
      </trkpt>
      <trkpt lat="45.94482" lon="4.73267">
        <ele>177</ele>
        <time>2018-11-11T09:41:42Z</time>
      </trkpt>
      <trkpt lat="45.94483" lon="4.7328">
        <ele>177</ele>
        <time>2018-11-11T09:41:44Z</time>
      </trkpt>
      <trkpt lat="45.94484" lon="4.73285">
        <ele>177</ele>
        <time>2018-11-11T09:41:45Z</time>
      </trkpt>
      <trkpt lat="45.94485" lon="4.73297">
        <ele>177</ele>
        <time>2018-11-11T09:41:47Z</time>
      </trkpt>
      <trkpt lat="45.94486" lon="4.73303">
        <ele>177</ele>
        <time>2018-11-11T09:41:48Z</time>
      </trkpt>
      <trkpt lat="45.94487" lon="4.73313">
        <ele>177</ele>
        <time>2018-11-11T09:41:50Z</time>
      </trkpt>
      <trkpt lat="45.94488" lon="4.73318">
        <ele>177</ele>
        <time>2018-11-11T09:41:51Z</time>
      </trkpt>
      <trkpt lat="45.94489" lon="4.73328">
        <ele>177</ele>
        <time>2018-11-11T09:41:53Z</time>
      </trkpt>
      <trkpt lat="45.94489" lon="4.73333">
        <ele>177</ele>
        <time>2018-11-11T09:41:54Z</time>
      </trkpt>
      <trkpt lat="45.9449" lon="4.73344">
        <ele>178</ele>
        <time>2018-11-11T09:41:56Z</time>
      </trkpt>
      <trkpt lat="45.9449" lon="4.73349">
        <ele>178</ele>
        <time>2018-11-11T09:41:57Z</time>
      </trkpt>
      <trkpt lat="45.94491" lon="4.73357">
        <ele>178</ele>
        <time>2018-11-11T09:41:59Z</time>
      </trkpt>
      <trkpt lat="45.94492" lon="4.73365">
        <ele>179</ele>
        <time>2018-11-11T09:42:00Z</time>
      </trkpt>
      <trkpt lat="45.94494" lon="4.73375">
        <ele>179</ele>
        <time>2018-11-11T09:42:02Z</time>
      </trkpt>
      <trkpt lat="45.94494" lon="4.73381">
        <ele>179</ele>
        <time>2018-11-11T09:42:03Z</time>
      </trkpt>
      <trkpt lat="45.94495" lon="4.73391">
        <ele>179</ele>
        <time>2018-11-11T09:42:05Z</time>
      </trkpt>
      <trkpt lat="45.94496" lon="4.73396">
        <ele>179</ele>
        <time>2018-11-11T09:42:06Z</time>
      </trkpt>
      <trkpt lat="45.94497" lon="4.73407">
        <ele>180</ele>
        <time>2018-11-11T09:42:08Z</time>
      </trkpt>
      <trkpt lat="45.94498" lon="4.73412">
        <ele>180</ele>
        <time>2018-11-11T09:42:09Z</time>
      </trkpt>
      <trkpt lat="45.94499" lon="4.73423">
        <ele>180</ele>
        <time>2018-11-11T09:42:11Z</time>
      </trkpt>
      <trkpt lat="45.94499" lon="4.73428">
        <ele>181</ele>
        <time>2018-11-11T09:42:12Z</time>
      </trkpt>
      <trkpt lat="45.945" lon="4.73439">
        <ele>181</ele>
        <time>2018-11-11T09:42:14Z</time>
      </trkpt>
      <trkpt lat="45.945" lon="4.73444">
        <ele>181</ele>
        <time>2018-11-11T09:42:15Z</time>
      </trkpt>
      <trkpt lat="45.94501" lon="4.73455">
        <ele>181</ele>
        <time>2018-11-11T09:42:17Z</time>
      </trkpt>
      <trkpt lat="45.94501" lon="4.73461">
        <ele>181</ele>
        <time>2018-11-11T09:42:18Z</time>
      </trkpt>
      <trkpt lat="45.94501" lon="4.7347">
        <ele>182</ele>
        <time>2018-11-11T09:42:20Z</time>
      </trkpt>
      <trkpt lat="45.94501" lon="4.73478">
        <ele>182</ele>
        <time>2018-11-11T09:42:21Z</time>
      </trkpt>
      <trkpt lat="45.94501" lon="4.7349">
        <ele>182</ele>
        <time>2018-11-11T09:42:23Z</time>
      </trkpt>
      <trkpt lat="45.94501" lon="4.73496">
        <ele>183</ele>
        <time>2018-11-11T09:42:24Z</time>
      </trkpt>
      <trkpt lat="45.945" lon="4.73507">
        <ele>183</ele>
        <time>2018-11-11T09:42:26Z</time>
      </trkpt>
      <trkpt lat="45.945" lon="4.73513">
        <ele>183</ele>
        <time>2018-11-11T09:42:27Z</time>
      </trkpt>
      <trkpt lat="45.945" lon="4.73526">
        <ele>184</ele>
        <time>2018-11-11T09:42:29Z</time>
      </trkpt>
      <trkpt lat="45.945" lon="4.73532">
        <ele>184</ele>
        <time>2018-11-11T09:42:30Z</time>
      </trkpt>
      <trkpt lat="45.945" lon="4.73539">
        <ele>184</ele>
        <time>2018-11-11T09:42:31Z</time>
      </trkpt>
      <trkpt lat="45.945" lon="4.73546">
        <ele>185</ele>
        <time>2018-11-11T09:42:32Z</time>
      </trkpt>
      <trkpt lat="45.94499" lon="4.73552">
        <ele>185</ele>
        <time>2018-11-11T09:42:33Z</time>
      </trkpt>
      <trkpt lat="45.94499" lon="4.73559">
        <ele>185</ele>
        <time>2018-11-11T09:42:34Z</time>
      </trkpt>
      <trkpt lat="45.94498" lon="4.73571">
        <ele>185</ele>
        <time>2018-11-11T09:42:36Z</time>
      </trkpt>
      <trkpt lat="45.94498" lon="4.73577">
        <ele>185</ele>
        <time>2018-11-11T09:42:37Z</time>
      </trkpt>
      <trkpt lat="45.94497" lon="4.73584">
        <ele>185</ele>
        <time>2018-11-11T09:42:38Z</time>
      </trkpt>
      <trkpt lat="45.94497" lon="4.7359">
        <ele>185</ele>
        <time>2018-11-11T09:42:39Z</time>
      </trkpt>
      <trkpt lat="45.94497" lon="4.73597">
        <ele>185</ele>
        <time>2018-11-11T09:42:40Z</time>
      </trkpt>
      <trkpt lat="45.94495" lon="4.73603">
        <ele>186</ele>
        <time>2018-11-11T09:42:41Z</time>
      </trkpt>
      <trkpt lat="45.94495" lon="4.73616">
        <ele>186</ele>
        <time>2018-11-11T09:42:43Z</time>
      </trkpt>
      <trkpt lat="45.94494" lon="4.73622">
        <ele>186</ele>
        <time>2018-11-11T09:42:44Z</time>
      </trkpt>
      <trkpt lat="45.94493" lon="4.73629">
        <ele>186</ele>
        <time>2018-11-11T09:42:45Z</time>
      </trkpt>
      <trkpt lat="45.94492" lon="4.73636">
        <ele>186</ele>
        <time>2018-11-11T09:42:46Z</time>
      </trkpt>
      <trkpt lat="45.94491" lon="4.73649">
        <ele>186</ele>
        <time>2018-11-11T09:42:48Z</time>
      </trkpt>
      <trkpt lat="45.9449" lon="4.73656">
        <ele>185</ele>
        <time>2018-11-11T09:42:49Z</time>
      </trkpt>
      <trkpt lat="45.9449" lon="4.73662">
        <ele>185</ele>
        <time>2018-11-11T09:42:50Z</time>
      </trkpt>
      <trkpt lat="45.94489" lon="4.73668">
        <ele>185</ele>
        <time>2018-11-11T09:42:51Z</time>
      </trkpt>
      <trkpt lat="45.94487" lon="4.73675">
        <ele>185</ele>
        <time>2018-11-11T09:42:52Z</time>
      </trkpt>
      <trkpt lat="45.94487" lon="4.73682">
        <ele>186</ele>
        <time>2018-11-11T09:42:53Z</time>
      </trkpt>
      <trkpt lat="45.94485" lon="4.7369">
        <ele>186</ele>
        <time>2018-11-11T09:42:54Z</time>
      </trkpt>
      <trkpt lat="45.94484" lon="4.73696">
        <ele>186</ele>
        <time>2018-11-11T09:42:55Z</time>
      </trkpt>
      <trkpt lat="45.94483" lon="4.73703">
        <ele>186</ele>
        <time>2018-11-11T09:42:56Z</time>
      </trkpt>
      <trkpt lat="45.94482" lon="4.7371">
        <ele>186</ele>
        <time>2018-11-11T09:42:57Z</time>
      </trkpt>
      <trkpt lat="45.94483" lon="4.73722">
        <ele>186</ele>
        <time>2018-11-11T09:42:59Z</time>
      </trkpt>
      <trkpt lat="45.94482" lon="4.7373">
        <ele>186</ele>
        <time>2018-11-11T09:43:00Z</time>
      </trkpt>
      <trkpt lat="45.9448" lon="4.73737">
        <ele>186</ele>
        <time>2018-11-11T09:43:01Z</time>
      </trkpt>
      <trkpt lat="45.94479" lon="4.73745">
        <ele>186</ele>
        <time>2018-11-11T09:43:02Z</time>
      </trkpt>
      <trkpt lat="45.94476" lon="4.73756">
        <ele>186</ele>
        <time>2018-11-11T09:43:04Z</time>
      </trkpt>
      <trkpt lat="45.94475" lon="4.73762">
        <ele>186</ele>
        <time>2018-11-11T09:43:05Z</time>
      </trkpt>
      <trkpt lat="45.94477" lon="4.73773">
        <ele>186</ele>
        <time>2018-11-11T09:43:07Z</time>
      </trkpt>
      <trkpt lat="45.94482" lon="4.73777">
        <ele>186</ele>
        <time>2018-11-11T09:43:08Z</time>
      </trkpt>
      <trkpt lat="45.94489" lon="4.73783">
        <ele>186</ele>
        <time>2018-11-11T09:43:10Z</time>
      </trkpt>
      <trkpt lat="45.94493" lon="4.73787">
        <ele>186</ele>
        <time>2018-11-11T09:43:11Z</time>
      </trkpt>
      <trkpt lat="45.94497" lon="4.7379">
        <ele>186</ele>
        <time>2018-11-11T09:43:12Z</time>
      </trkpt>
      <trkpt lat="45.94501" lon="4.73793">
        <ele>186</ele>
        <time>2018-11-11T09:43:13Z</time>
      </trkpt>
      <trkpt lat="45.94505" lon="4.73797">
        <ele>186</ele>
        <time>2018-11-11T09:43:14Z</time>
      </trkpt>
      <trkpt lat="45.94509" lon="4.73799">
        <ele>186</ele>
        <time>2018-11-11T09:43:15Z</time>
      </trkpt>
      <trkpt lat="45.94513" lon="4.73803">
        <ele>186</ele>
        <time>2018-11-11T09:43:16Z</time>
      </trkpt>
      <trkpt lat="45.94517" lon="4.73807">
        <ele>186</ele>
        <time>2018-11-11T09:43:17Z</time>
      </trkpt>
      <trkpt lat="45.94522" lon="4.73812">
        <ele>186</ele>
        <time>2018-11-11T09:43:18Z</time>
      </trkpt>
      <trkpt lat="45.94527" lon="4.73815">
        <ele>186</ele>
        <time>2018-11-11T09:43:19Z</time>
      </trkpt>
      <trkpt lat="45.94531" lon="4.73819">
        <ele>186</ele>
        <time>2018-11-11T09:43:20Z</time>
      </trkpt>
      <trkpt lat="45.94535" lon="4.73823">
        <ele>186</ele>
        <time>2018-11-11T09:43:21Z</time>
      </trkpt>
      <trkpt lat="45.94542" lon="4.73829">
        <ele>186</ele>
        <time>2018-11-11T09:43:23Z</time>
      </trkpt>
      <trkpt lat="45.94546" lon="4.73832">
        <ele>186</ele>
        <time>2018-11-11T09:43:24Z</time>
      </trkpt>
      <trkpt lat="45.94553" lon="4.73838">
        <ele>186</ele>
        <time>2018-11-11T09:43:26Z</time>
      </trkpt>
      <trkpt lat="45.94557" lon="4.73842">
        <ele>186</ele>
        <time>2018-11-11T09:43:27Z</time>
      </trkpt>
      <trkpt lat="45.94561" lon="4.73846">
        <ele>186</ele>
        <time>2018-11-11T09:43:28Z</time>
      </trkpt>
      <trkpt lat="45.94565" lon="4.7385">
        <ele>186</ele>
        <time>2018-11-11T09:43:29Z</time>
      </trkpt>
      <trkpt lat="45.94568" lon="4.73854">
        <ele>186</ele>
        <time>2018-11-11T09:43:30Z</time>
      </trkpt>
      <trkpt lat="45.94573" lon="4.73858">
        <ele>186</ele>
        <time>2018-11-11T09:43:31Z</time>
      </trkpt>
      <trkpt lat="45.94577" lon="4.73862">
        <ele>186</ele>
        <time>2018-11-11T09:43:32Z</time>
      </trkpt>
      <trkpt lat="45.9458" lon="4.73866">
        <ele>186</ele>
        <time>2018-11-11T09:43:33Z</time>
      </trkpt>
      <trkpt lat="45.94586" lon="4.73874">
        <ele>187</ele>
        <time>2018-11-11T09:43:35Z</time>
      </trkpt>
      <trkpt lat="45.9459" lon="4.73878">
        <ele>187</ele>
        <time>2018-11-11T09:43:36Z</time>
      </trkpt>
      <trkpt lat="45.94596" lon="4.73886">
        <ele>187</ele>
        <time>2018-11-11T09:43:38Z</time>
      </trkpt>
      <trkpt lat="45.946" lon="4.7389">
        <ele>187</ele>
        <time>2018-11-11T09:43:39Z</time>
      </trkpt>
      <trkpt lat="45.94605" lon="4.73897">
        <ele>187</ele>
        <time>2018-11-11T09:43:41Z</time>
      </trkpt>
      <trkpt lat="45.94608" lon="4.73901">
        <ele>187</ele>
        <time>2018-11-11T09:43:42Z</time>
      </trkpt>
      <trkpt lat="45.94614" lon="4.73909">
        <ele>187</ele>
        <time>2018-11-11T09:43:44Z</time>
      </trkpt>
      <trkpt lat="45.94617" lon="4.73913">
        <ele>187</ele>
        <time>2018-11-11T09:43:45Z</time>
      </trkpt>
      <trkpt lat="45.94624" lon="4.73921">
        <ele>187</ele>
        <time>2018-11-11T09:43:47Z</time>
      </trkpt>
      <trkpt lat="45.94627" lon="4.73925">
        <ele>187</ele>
        <time>2018-11-11T09:43:48Z</time>
      </trkpt>
      <trkpt lat="45.94631" lon="4.73929">
        <ele>187</ele>
        <time>2018-11-11T09:43:49Z</time>
      </trkpt>
      <trkpt lat="45.94634" lon="4.73933">
        <ele>187</ele>
        <time>2018-11-11T09:43:50Z</time>
      </trkpt>
      <trkpt lat="45.94637" lon="4.73938">
        <ele>187</ele>
        <time>2018-11-11T09:43:51Z</time>
      </trkpt>
      <trkpt lat="45.94641" lon="4.73942">
        <ele>187</ele>
        <time>2018-11-11T09:43:52Z</time>
      </trkpt>
      <trkpt lat="45.94645" lon="4.73947">
        <ele>187</ele>
        <time>2018-11-11T09:43:53Z</time>
      </trkpt>
      <trkpt lat="45.94648" lon="4.73951">
        <ele>187</ele>
        <time>2018-11-11T09:43:54Z</time>
      </trkpt>
      <trkpt lat="45.94654" lon="4.7396">
        <ele>187</ele>
        <time>2018-11-11T09:43:56Z</time>
      </trkpt>
      <trkpt lat="45.94658" lon="4.73965">
        <ele>187</ele>
        <time>2018-11-11T09:43:57Z</time>
      </trkpt>
      <trkpt lat="45.94665" lon="4.73974">
        <ele>187</ele>
        <time>2018-11-11T09:43:59Z</time>
      </trkpt>
      <trkpt lat="45.94668" lon="4.73979">
        <ele>187</ele>
        <time>2018-11-11T09:44:00Z</time>
      </trkpt>
      <trkpt lat="45.94675" lon="4.73988">
        <ele>187</ele>
        <time>2018-11-11T09:44:02Z</time>
      </trkpt>
      <trkpt lat="45.94678" lon="4.73993">
        <ele>187</ele>
        <time>2018-11-11T09:44:03Z</time>
      </trkpt>
      <trkpt lat="45.94682" lon="4.73997">
        <ele>187</ele>
        <time>2018-11-11T09:44:04Z</time>
      </trkpt>
      <trkpt lat="45.94686" lon="4.74002">
        <ele>187</ele>
        <time>2018-11-11T09:44:05Z</time>
      </trkpt>
      <trkpt lat="45.94689" lon="4.74007">
        <ele>187</ele>
        <time>2018-11-11T09:44:06Z</time>
      </trkpt>
      <trkpt lat="45.94692" lon="4.74013">
        <ele>187</ele>
        <time>2018-11-11T09:44:07Z</time>
      </trkpt>
      <trkpt lat="45.94696" lon="4.74018">
        <ele>187</ele>
        <time>2018-11-11T09:44:08Z</time>
      </trkpt>
      <trkpt lat="45.947" lon="4.74021">
        <ele>187</ele>
        <time>2018-11-11T09:44:09Z</time>
      </trkpt>
      <trkpt lat="45.94705" lon="4.74029">
        <ele>187</ele>
        <time>2018-11-11T09:44:11Z</time>
      </trkpt>
      <trkpt lat="45.94709" lon="4.74034">
        <ele>187</ele>
        <time>2018-11-11T09:44:12Z</time>
      </trkpt>
      <trkpt lat="45.94715" lon="4.74042">
        <ele>187</ele>
        <time>2018-11-11T09:44:14Z</time>
      </trkpt>
      <trkpt lat="45.94719" lon="4.74046">
        <ele>187</ele>
        <time>2018-11-11T09:44:15Z</time>
      </trkpt>
      <trkpt lat="45.94722" lon="4.74052">
        <ele>187</ele>
        <time>2018-11-11T09:44:16Z</time>
      </trkpt>
      <trkpt lat="45.94725" lon="4.74056">
        <ele>188</ele>
        <time>2018-11-11T09:44:17Z</time>
      </trkpt>
      <trkpt lat="45.94731" lon="4.74063">
        <ele>188</ele>
        <time>2018-11-11T09:44:19Z</time>
      </trkpt>
      <trkpt lat="45.94734" lon="4.74067">
        <ele>188</ele>
        <time>2018-11-11T09:44:20Z</time>
      </trkpt>
      <trkpt lat="45.94737" lon="4.74071">
        <ele>188</ele>
        <time>2018-11-11T09:44:21Z</time>
      </trkpt>
      <trkpt lat="45.94741" lon="4.74077">
        <ele>188</ele>
        <time>2018-11-11T09:44:22Z</time>
      </trkpt>
      <trkpt lat="45.94747" lon="4.74085">
        <ele>189</ele>
        <time>2018-11-11T09:44:24Z</time>
      </trkpt>
      <trkpt lat="45.94751" lon="4.7409">
        <ele>189</ele>
        <time>2018-11-11T09:44:25Z</time>
      </trkpt>
      <trkpt lat="45.94756" lon="4.74099">
        <ele>189</ele>
        <time>2018-11-11T09:44:27Z</time>
      </trkpt>
      <trkpt lat="45.94759" lon="4.74102">
        <ele>189</ele>
        <time>2018-11-11T09:44:28Z</time>
      </trkpt>
      <trkpt lat="45.94765" lon="4.7411">
        <ele>189</ele>
        <time>2018-11-11T09:44:30Z</time>
      </trkpt>
      <trkpt lat="45.9477" lon="4.74113">
        <ele>189</ele>
        <time>2018-11-11T09:44:31Z</time>
      </trkpt>
      <trkpt lat="45.94773" lon="4.74118">
        <ele>189</ele>
        <time>2018-11-11T09:44:32Z</time>
      </trkpt>
      <trkpt lat="45.94776" lon="4.74124">
        <ele>189</ele>
        <time>2018-11-11T09:44:33Z</time>
      </trkpt>
      <trkpt lat="45.9478" lon="4.74129">
        <ele>189</ele>
        <time>2018-11-11T09:44:34Z</time>
      </trkpt>
      <trkpt lat="45.94784" lon="4.74135">
        <ele>189</ele>
        <time>2018-11-11T09:44:35Z</time>
      </trkpt>
      <trkpt lat="45.94786" lon="4.74141">
        <ele>189</ele>
        <time>2018-11-11T09:44:36Z</time>
      </trkpt>
      <trkpt lat="45.94789" lon="4.74145">
        <ele>189</ele>
        <time>2018-11-11T09:44:37Z</time>
      </trkpt>
      <trkpt lat="45.94795" lon="4.74153">
        <ele>189</ele>
        <time>2018-11-11T09:44:39Z</time>
      </trkpt>
      <trkpt lat="45.94798" lon="4.74158">
        <ele>189</ele>
        <time>2018-11-11T09:44:40Z</time>
      </trkpt>
      <trkpt lat="45.94803" lon="4.74167">
        <ele>189</ele>
        <time>2018-11-11T09:44:42Z</time>
      </trkpt>
      <trkpt lat="45.94806" lon="4.74171">
        <ele>189</ele>
        <time>2018-11-11T09:44:43Z</time>
      </trkpt>
      <trkpt lat="45.94809" lon="4.74177">
        <ele>189</ele>
        <time>2018-11-11T09:44:44Z</time>
      </trkpt>
      <trkpt lat="45.94812" lon="4.74182">
        <ele>189</ele>
        <time>2018-11-11T09:44:45Z</time>
      </trkpt>
      <trkpt lat="45.94815" lon="4.74188">
        <ele>189</ele>
        <time>2018-11-11T09:44:46Z</time>
      </trkpt>
      <trkpt lat="45.94818" lon="4.74194">
        <ele>189</ele>
        <time>2018-11-11T09:44:47Z</time>
      </trkpt>
      <trkpt lat="45.94821" lon="4.74199">
        <ele>189</ele>
        <time>2018-11-11T09:44:48Z</time>
      </trkpt>
      <trkpt lat="45.94824" lon="4.74205">
        <ele>189</ele>
        <time>2018-11-11T09:44:49Z</time>
      </trkpt>
      <trkpt lat="45.94829" lon="4.74212">
        <ele>189</ele>
        <time>2018-11-11T09:44:50Z</time>
      </trkpt>
      <trkpt lat="45.94832" lon="4.74218">
        <ele>188</ele>
        <time>2018-11-11T09:44:51Z</time>
      </trkpt>
      <trkpt lat="45.94835" lon="4.74225">
        <ele>190</ele>
        <time>2018-11-11T09:44:52Z</time>
      </trkpt>
      <trkpt lat="45.94838" lon="4.7423">
        <ele>190</ele>
        <time>2018-11-11T09:44:53Z</time>
      </trkpt>
      <trkpt lat="45.94841" lon="4.74236">
        <ele>190</ele>
        <time>2018-11-11T09:44:54Z</time>
      </trkpt>
      <trkpt lat="45.94845" lon="4.74243">
        <ele>190</ele>
        <time>2018-11-11T09:44:55Z</time>
      </trkpt>
      <trkpt lat="45.94848" lon="4.74249">
        <ele>190</ele>
        <time>2018-11-11T09:44:56Z</time>
      </trkpt>
      <trkpt lat="45.94852" lon="4.74254">
        <ele>190</ele>
        <time>2018-11-11T09:44:57Z</time>
      </trkpt>
      <trkpt lat="45.94855" lon="4.7426">
        <ele>190</ele>
        <time>2018-11-11T09:44:58Z</time>
      </trkpt>
      <trkpt lat="45.94858" lon="4.74266">
        <ele>190</ele>
        <time>2018-11-11T09:44:59Z</time>
      </trkpt>
      <trkpt lat="45.94864" lon="4.74276">
        <ele>190</ele>
        <time>2018-11-11T09:45:01Z</time>
      </trkpt>
      <trkpt lat="45.94868" lon="4.74282">
        <ele>191</ele>
        <time>2018-11-11T09:45:02Z</time>
      </trkpt>
      <trkpt lat="45.94872" lon="4.74293">
        <ele>191</ele>
        <time>2018-11-11T09:45:04Z</time>
      </trkpt>
      <trkpt lat="45.94874" lon="4.74298">
        <ele>191</ele>
        <time>2018-11-11T09:45:05Z</time>
      </trkpt>
      <trkpt lat="45.94878" lon="4.74308">
        <ele>191</ele>
        <time>2018-11-11T09:45:07Z</time>
      </trkpt>
      <trkpt lat="45.94881" lon="4.74313">
        <ele>191</ele>
        <time>2018-11-11T09:45:08Z</time>
      </trkpt>
      <trkpt lat="45.94885" lon="4.74322">
        <ele>191</ele>
        <time>2018-11-11T09:45:10Z</time>
      </trkpt>
      <trkpt lat="45.94888" lon="4.74328">
        <ele>191</ele>
        <time>2018-11-11T09:45:11Z</time>
      </trkpt>
      <trkpt lat="45.94892" lon="4.74334">
        <ele>191</ele>
        <time>2018-11-11T09:45:12Z</time>
      </trkpt>
      <trkpt lat="45.94896" lon="4.74342">
        <ele>191</ele>
        <time>2018-11-11T09:45:13Z</time>
      </trkpt>
      <trkpt lat="45.94901" lon="4.7435">
        <ele>191</ele>
        <time>2018-11-11T09:45:15Z</time>
      </trkpt>
      <trkpt lat="45.94903" lon="4.74355">
        <ele>191</ele>
        <time>2018-11-11T09:45:16Z</time>
      </trkpt>
      <trkpt lat="45.94908" lon="4.74365">
        <ele>191</ele>
        <time>2018-11-11T09:45:18Z</time>
      </trkpt>
      <trkpt lat="45.9491" lon="4.74368">
        <ele>191</ele>
        <time>2018-11-11T09:45:19Z</time>
      </trkpt>
      <trkpt lat="45.94914" lon="4.74376">
        <ele>191</ele>
        <time>2018-11-11T09:45:21Z</time>
      </trkpt>
      <trkpt lat="45.94916" lon="4.7438">
        <ele>191</ele>
        <time>2018-11-11T09:45:22Z</time>
      </trkpt>
      <trkpt lat="45.94921" lon="4.7439">
        <ele>192</ele>
        <time>2018-11-11T09:45:24Z</time>
      </trkpt>
      <trkpt lat="45.94924" lon="4.74394">
        <ele>192</ele>
        <time>2018-11-11T09:45:25Z</time>
      </trkpt>
      <trkpt lat="45.94929" lon="4.74404">
        <ele>192</ele>
        <time>2018-11-11T09:45:27Z</time>
      </trkpt>
      <trkpt lat="45.94932" lon="4.7441">
        <ele>192</ele>
        <time>2018-11-11T09:45:28Z</time>
      </trkpt>
      <trkpt lat="45.94935" lon="4.74415">
        <ele>192</ele>
        <time>2018-11-11T09:45:29Z</time>
      </trkpt>
      <trkpt lat="45.94937" lon="4.74421">
        <ele>192</ele>
        <time>2018-11-11T09:45:30Z</time>
      </trkpt>
      <trkpt lat="45.94941" lon="4.74426">
        <ele>192</ele>
        <time>2018-11-11T09:45:31Z</time>
      </trkpt>
      <trkpt lat="45.94943" lon="4.74431">
        <ele>192</ele>
        <time>2018-11-11T09:45:32Z</time>
      </trkpt>
      <trkpt lat="45.94948" lon="4.7444">
        <ele>192</ele>
        <time>2018-11-11T09:45:34Z</time>
      </trkpt>
      <trkpt lat="45.94951" lon="4.74445">
        <ele>192</ele>
        <time>2018-11-11T09:45:35Z</time>
      </trkpt>
      <trkpt lat="45.94955" lon="4.74454">
        <ele>192</ele>
        <time>2018-11-11T09:45:37Z</time>
      </trkpt>
      <trkpt lat="45.94959" lon="4.74458">
        <ele>192</ele>
        <time>2018-11-11T09:45:38Z</time>
      </trkpt>
      <trkpt lat="45.94964" lon="4.74469">
        <ele>193</ele>
        <time>2018-11-11T09:45:40Z</time>
      </trkpt>
      <trkpt lat="45.94966" lon="4.74475">
        <ele>193</ele>
        <time>2018-11-11T09:45:41Z</time>
      </trkpt>
      <trkpt lat="45.94969" lon="4.74481">
        <ele>193</ele>
        <time>2018-11-11T09:45:42Z</time>
      </trkpt>
      <trkpt lat="45.94973" lon="4.74486">
        <ele>193</ele>
        <time>2018-11-11T09:45:43Z</time>
      </trkpt>
      <trkpt lat="45.94976" lon="4.74491">
        <ele>193</ele>
        <time>2018-11-11T09:45:44Z</time>
      </trkpt>
      <trkpt lat="45.94979" lon="4.74497">
        <ele>193</ele>
        <time>2018-11-11T09:45:45Z</time>
      </trkpt>
      <trkpt lat="45.94981" lon="4.74503">
        <ele>193</ele>
        <time>2018-11-11T09:45:46Z</time>
      </trkpt>
      <trkpt lat="45.94984" lon="4.74509">
        <ele>193</ele>
        <time>2018-11-11T09:45:47Z</time>
      </trkpt>
      <trkpt lat="45.94987" lon="4.74515">
        <ele>193</ele>
        <time>2018-11-11T09:45:48Z</time>
      </trkpt>
      <trkpt lat="45.94989" lon="4.7452">
        <ele>193</ele>
        <time>2018-11-11T09:45:49Z</time>
      </trkpt>
      <trkpt lat="45.94992" lon="4.74526">
        <ele>193</ele>
        <time>2018-11-11T09:45:50Z</time>
      </trkpt>
      <trkpt lat="45.94995" lon="4.74531">
        <ele>193</ele>
        <time>2018-11-11T09:45:51Z</time>
      </trkpt>
      <trkpt lat="45.94999" lon="4.7454">
        <ele>193</ele>
        <time>2018-11-11T09:45:53Z</time>
      </trkpt>
      <trkpt lat="45.95002" lon="4.74544">
        <ele>194</ele>
        <time>2018-11-11T09:45:54Z</time>
      </trkpt>
      <trkpt lat="45.95007" lon="4.74554">
        <ele>194</ele>
        <time>2018-11-11T09:45:56Z</time>
      </trkpt>
      <trkpt lat="45.9501" lon="4.74559">
        <ele>194</ele>
        <time>2018-11-11T09:45:57Z</time>
      </trkpt>
      <trkpt lat="45.95013" lon="4.74565">
        <ele>194</ele>
        <time>2018-11-11T09:45:58Z</time>
      </trkpt>
      <trkpt lat="45.95017" lon="4.74571">
        <ele>194</ele>
        <time>2018-11-11T09:45:59Z</time>
      </trkpt>
      <trkpt lat="45.9502" lon="4.74577">
        <ele>194</ele>
        <time>2018-11-11T09:46:00Z</time>
      </trkpt>
      <trkpt lat="45.95023" lon="4.74582">
        <ele>194</ele>
        <time>2018-11-11T09:46:01Z</time>
      </trkpt>
      <trkpt lat="45.95026" lon="4.74588">
        <ele>194</ele>
        <time>2018-11-11T09:46:02Z</time>
      </trkpt>
      <trkpt lat="45.95029" lon="4.74594">
        <ele>194</ele>
        <time>2018-11-11T09:46:03Z</time>
      </trkpt>
      <trkpt lat="45.95032" lon="4.74599">
        <ele>194</ele>
        <time>2018-11-11T09:46:04Z</time>
      </trkpt>
      <trkpt lat="45.95035" lon="4.74605">
        <ele>194</ele>
        <time>2018-11-11T09:46:05Z</time>
      </trkpt>
      <trkpt lat="45.95038" lon="4.74612">
        <ele>194</ele>
        <time>2018-11-11T09:46:06Z</time>
      </trkpt>
      <trkpt lat="45.95042" lon="4.74619">
        <ele>194</ele>
        <time>2018-11-11T09:46:07Z</time>
      </trkpt>
      <trkpt lat="45.95045" lon="4.74625">
        <ele>194</ele>
        <time>2018-11-11T09:46:08Z</time>
      </trkpt>
      <trkpt lat="45.95049" lon="4.74631">
        <ele>194</ele>
        <time>2018-11-11T09:46:09Z</time>
      </trkpt>
      <trkpt lat="45.95052" lon="4.74637">
        <ele>194</ele>
        <time>2018-11-11T09:46:10Z</time>
      </trkpt>
      <trkpt lat="45.95055" lon="4.74643">
        <ele>194</ele>
        <time>2018-11-11T09:46:11Z</time>
      </trkpt>
      <trkpt lat="45.95059" lon="4.74649">
        <ele>194</ele>
        <time>2018-11-11T09:46:12Z</time>
      </trkpt>
      <trkpt lat="45.95062" lon="4.74654">
        <ele>195</ele>
        <time>2018-11-11T09:46:13Z</time>
      </trkpt>
      <trkpt lat="45.95065" lon="4.74659">
        <ele>195</ele>
        <time>2018-11-11T09:46:14Z</time>
      </trkpt>
      <trkpt lat="45.95068" lon="4.74665">
        <ele>195</ele>
        <time>2018-11-11T09:46:15Z</time>
      </trkpt>
      <trkpt lat="45.95071" lon="4.74671">
        <ele>194</ele>
        <time>2018-11-11T09:46:16Z</time>
      </trkpt>
      <trkpt lat="45.95075" lon="4.74677">
        <ele>194</ele>
        <time>2018-11-11T09:46:17Z</time>
      </trkpt>
      <trkpt lat="45.95079" lon="4.74684">
        <ele>194</ele>
        <time>2018-11-11T09:46:18Z</time>
      </trkpt>
      <trkpt lat="45.95081" lon="4.7469">
        <ele>194</ele>
        <time>2018-11-11T09:46:19Z</time>
      </trkpt>
      <trkpt lat="45.95084" lon="4.74695">
        <ele>194</ele>
        <time>2018-11-11T09:46:20Z</time>
      </trkpt>
      <trkpt lat="45.95087" lon="4.74701">
        <ele>194</ele>
        <time>2018-11-11T09:46:21Z</time>
      </trkpt>
      <trkpt lat="45.95091" lon="4.74708">
        <ele>194</ele>
        <time>2018-11-11T09:46:22Z</time>
      </trkpt>
      <trkpt lat="45.95094" lon="4.74714">
        <ele>194</ele>
        <time>2018-11-11T09:46:23Z</time>
      </trkpt>
      <trkpt lat="45.95097" lon="4.74721">
        <ele>194</ele>
        <time>2018-11-11T09:46:24Z</time>
      </trkpt>
      <trkpt lat="45.951" lon="4.74727">
        <ele>194</ele>
        <time>2018-11-11T09:46:25Z</time>
      </trkpt>
      <trkpt lat="45.95103" lon="4.74733">
        <ele>194</ele>
        <time>2018-11-11T09:46:26Z</time>
      </trkpt>
      <trkpt lat="45.95107" lon="4.74738">
        <ele>194</ele>
        <time>2018-11-11T09:46:27Z</time>
      </trkpt>
      <trkpt lat="45.9511" lon="4.74744">
        <ele>194</ele>
        <time>2018-11-11T09:46:28Z</time>
      </trkpt>
      <trkpt lat="45.95113" lon="4.74749">
        <ele>194</ele>
        <time>2018-11-11T09:46:29Z</time>
      </trkpt>
      <trkpt lat="45.95117" lon="4.74754">
        <ele>194</ele>
        <time>2018-11-11T09:46:30Z</time>
      </trkpt>
      <trkpt lat="45.9512" lon="4.74759">
        <ele>194</ele>
        <time>2018-11-11T09:46:31Z</time>
      </trkpt>
      <trkpt lat="45.95123" lon="4.74764">
        <ele>194</ele>
        <time>2018-11-11T09:46:32Z</time>
      </trkpt>
      <trkpt lat="45.95127" lon="4.7477">
        <ele>194</ele>
        <time>2018-11-11T09:46:33Z</time>
      </trkpt>
      <trkpt lat="45.9513" lon="4.74776">
        <ele>194</ele>
        <time>2018-11-11T09:46:34Z</time>
      </trkpt>
      <trkpt lat="45.95133" lon="4.74783">
        <ele>194</ele>
        <time>2018-11-11T09:46:35Z</time>
      </trkpt>
      <trkpt lat="45.95136" lon="4.74789">
        <ele>194</ele>
        <time>2018-11-11T09:46:36Z</time>
      </trkpt>
      <trkpt lat="45.95139" lon="4.74794">
        <ele>194</ele>
        <time>2018-11-11T09:46:37Z</time>
      </trkpt>
      <trkpt lat="45.95143" lon="4.74799">
        <ele>194</ele>
        <time>2018-11-11T09:46:38Z</time>
      </trkpt>
      <trkpt lat="45.95146" lon="4.74803">
        <ele>194</ele>
        <time>2018-11-11T09:46:39Z</time>
      </trkpt>
      <trkpt lat="45.95149" lon="4.74809">
        <ele>194</ele>
        <time>2018-11-11T09:46:40Z</time>
      </trkpt>
      <trkpt lat="45.95151" lon="4.74813">
        <ele>194</ele>
        <time>2018-11-11T09:46:41Z</time>
      </trkpt>
      <trkpt lat="45.95157" lon="4.74822">
        <ele>194</ele>
        <time>2018-11-11T09:46:43Z</time>
      </trkpt>
      <trkpt lat="45.9516" lon="4.74827">
        <ele>194</ele>
        <time>2018-11-11T09:46:44Z</time>
      </trkpt>
      <trkpt lat="45.95165" lon="4.74837">
        <ele>194</ele>
        <time>2018-11-11T09:46:46Z</time>
      </trkpt>
      <trkpt lat="45.95168" lon="4.74841">
        <ele>194</ele>
        <time>2018-11-11T09:46:47Z</time>
      </trkpt>
      <trkpt lat="45.95171" lon="4.74846">
        <ele>194</ele>
        <time>2018-11-11T09:46:48Z</time>
      </trkpt>
      <trkpt lat="45.95175" lon="4.74851">
        <ele>194</ele>
        <time>2018-11-11T09:46:49Z</time>
      </trkpt>
      <trkpt lat="45.95178" lon="4.74856">
        <ele>194</ele>
        <time>2018-11-11T09:46:50Z</time>
      </trkpt>
      <trkpt lat="45.95182" lon="4.74862">
        <ele>194</ele>
        <time>2018-11-11T09:46:51Z</time>
      </trkpt>
      <trkpt lat="45.95186" lon="4.74869">
        <ele>194</ele>
        <time>2018-11-11T09:46:52Z</time>
      </trkpt>
      <trkpt lat="45.9519" lon="4.74874">
        <ele>194</ele>
        <time>2018-11-11T09:46:53Z</time>
      </trkpt>
      <trkpt lat="45.95193" lon="4.7488">
        <ele>194</ele>
        <time>2018-11-11T09:46:54Z</time>
      </trkpt>
      <trkpt lat="45.95197" lon="4.74885">
        <ele>194</ele>
        <time>2018-11-11T09:46:55Z</time>
      </trkpt>
      <trkpt lat="45.952" lon="4.74891">
        <ele>194</ele>
        <time>2018-11-11T09:46:56Z</time>
      </trkpt>
      <trkpt lat="45.95203" lon="4.74897">
        <ele>194</ele>
        <time>2018-11-11T09:46:57Z</time>
      </trkpt>
      <trkpt lat="45.95207" lon="4.74903">
        <ele>194</ele>
        <time>2018-11-11T09:46:58Z</time>
      </trkpt>
      <trkpt lat="45.95211" lon="4.74909">
        <ele>193</ele>
        <time>2018-11-11T09:46:59Z</time>
      </trkpt>
      <trkpt lat="45.95214" lon="4.74915">
        <ele>193</ele>
        <time>2018-11-11T09:47:00Z</time>
      </trkpt>
      <trkpt lat="45.95218" lon="4.7492">
        <ele>192</ele>
        <time>2018-11-11T09:47:01Z</time>
      </trkpt>
      <trkpt lat="45.95221" lon="4.74926">
        <ele>192</ele>
        <time>2018-11-11T09:47:02Z</time>
      </trkpt>
      <trkpt lat="45.95224" lon="4.74932">
        <ele>192</ele>
        <time>2018-11-11T09:47:03Z</time>
      </trkpt>
      <trkpt lat="45.95228" lon="4.74938">
        <ele>192</ele>
        <time>2018-11-11T09:47:04Z</time>
      </trkpt>
      <trkpt lat="45.95231" lon="4.74944">
        <ele>192</ele>
        <time>2018-11-11T09:47:05Z</time>
      </trkpt>
      <trkpt lat="45.95235" lon="4.7495">
        <ele>192</ele>
        <time>2018-11-11T09:47:06Z</time>
      </trkpt>
      <trkpt lat="45.95239" lon="4.74955">
        <ele>192</ele>
        <time>2018-11-11T09:47:07Z</time>
      </trkpt>
      <trkpt lat="45.95242" lon="4.74959">
        <ele>191</ele>
        <time>2018-11-11T09:47:08Z</time>
      </trkpt>
      <trkpt lat="45.95246" lon="4.74965">
        <ele>191</ele>
        <time>2018-11-11T09:47:09Z</time>
      </trkpt>
      <trkpt lat="45.95249" lon="4.74971">
        <ele>191</ele>
        <time>2018-11-11T09:47:10Z</time>
      </trkpt>
      <trkpt lat="45.95252" lon="4.74976">
        <ele>192</ele>
        <time>2018-11-11T09:47:11Z</time>
      </trkpt>
      <trkpt lat="45.95255" lon="4.74981">
        <ele>192</ele>
        <time>2018-11-11T09:47:12Z</time>
      </trkpt>
      <trkpt lat="45.95258" lon="4.74987">
        <ele>192</ele>
        <time>2018-11-11T09:47:13Z</time>
      </trkpt>
      <trkpt lat="45.95262" lon="4.74992">
        <ele>192</ele>
        <time>2018-11-11T09:47:14Z</time>
      </trkpt>
      <trkpt lat="45.95266" lon="4.74998">
        <ele>192</ele>
        <time>2018-11-11T09:47:15Z</time>
      </trkpt>
      <trkpt lat="45.9527" lon="4.75004">
        <ele>191</ele>
        <time>2018-11-11T09:47:16Z</time>
      </trkpt>
      <trkpt lat="45.95274" lon="4.7501">
        <ele>191</ele>
        <time>2018-11-11T09:47:17Z</time>
      </trkpt>
      <trkpt lat="45.95279" lon="4.75016">
        <ele>191</ele>
        <time>2018-11-11T09:47:18Z</time>
      </trkpt>
      <trkpt lat="45.95283" lon="4.75023">
        <ele>191</ele>
        <time>2018-11-11T09:47:19Z</time>
      </trkpt>
      <trkpt lat="45.95287" lon="4.75029">
        <ele>191</ele>
        <time>2018-11-11T09:47:20Z</time>
      </trkpt>
      <trkpt lat="45.95291" lon="4.75036">
        <ele>191</ele>
        <time>2018-11-11T09:47:21Z</time>
      </trkpt>
      <trkpt lat="45.95295" lon="4.75041">
        <ele>191</ele>
        <time>2018-11-11T09:47:22Z</time>
      </trkpt>
      <trkpt lat="45.953" lon="4.75048">
        <ele>191</ele>
        <time>2018-11-11T09:47:23Z</time>
      </trkpt>
      <trkpt lat="45.95304" lon="4.75053">
        <ele>191</ele>
        <time>2018-11-11T09:47:24Z</time>
      </trkpt>
      <trkpt lat="45.95307" lon="4.75059">
        <ele>192</ele>
        <time>2018-11-11T09:47:25Z</time>
      </trkpt>
      <trkpt lat="45.95311" lon="4.75064">
        <ele>192</ele>
        <time>2018-11-11T09:47:26Z</time>
      </trkpt>
      <trkpt lat="45.95316" lon="4.75071">
        <ele>192</ele>
        <time>2018-11-11T09:47:27Z</time>
      </trkpt>
      <trkpt lat="45.9532" lon="4.75078">
        <ele>192</ele>
        <time>2018-11-11T09:47:28Z</time>
      </trkpt>
      <trkpt lat="45.95324" lon="4.75083">
        <ele>192</ele>
        <time>2018-11-11T09:47:29Z</time>
      </trkpt>
      <trkpt lat="45.95328" lon="4.75088">
        <ele>192</ele>
        <time>2018-11-11T09:47:30Z</time>
      </trkpt>
      <trkpt lat="45.95332" lon="4.75092">
        <ele>191</ele>
        <time>2018-11-11T09:47:31Z</time>
      </trkpt>
      <trkpt lat="45.95336" lon="4.75098">
        <ele>192</ele>
        <time>2018-11-11T09:47:32Z</time>
      </trkpt>
      <trkpt lat="45.95339" lon="4.75103">
        <ele>192</ele>
        <time>2018-11-11T09:47:33Z</time>
      </trkpt>
      <trkpt lat="45.95343" lon="4.75109">
        <ele>192</ele>
        <time>2018-11-11T09:47:34Z</time>
      </trkpt>
      <trkpt lat="45.95348" lon="4.75117">
        <ele>192</ele>
        <time>2018-11-11T09:47:35Z</time>
      </trkpt>
      <trkpt lat="45.95353" lon="4.75123">
        <ele>191</ele>
        <time>2018-11-11T09:47:36Z</time>
      </trkpt>
      <trkpt lat="45.95356" lon="4.75129">
        <ele>191</ele>
        <time>2018-11-11T09:47:37Z</time>
      </trkpt>
      <trkpt lat="45.95361" lon="4.75136">
        <ele>191</ele>
        <time>2018-11-11T09:47:38Z</time>
      </trkpt>
      <trkpt lat="45.95365" lon="4.75142">
        <ele>191</ele>
        <time>2018-11-11T09:47:39Z</time>
      </trkpt>
      <trkpt lat="45.95369" lon="4.75149">
        <ele>191</ele>
        <time>2018-11-11T09:47:40Z</time>
      </trkpt>
      <trkpt lat="45.95373" lon="4.75155">
        <ele>191</ele>
        <time>2018-11-11T09:47:41Z</time>
      </trkpt>
      <trkpt lat="45.95377" lon="4.75162">
        <ele>191</ele>
        <time>2018-11-11T09:47:42Z</time>
      </trkpt>
      <trkpt lat="45.95382" lon="4.75167">
        <ele>189</ele>
        <time>2018-11-11T09:47:43Z</time>
      </trkpt>
      <trkpt lat="45.95385" lon="4.75174">
        <ele>189</ele>
        <time>2018-11-11T09:47:44Z</time>
      </trkpt>
      <trkpt lat="45.95389" lon="4.75181">
        <ele>189</ele>
        <time>2018-11-11T09:47:45Z</time>
      </trkpt>
      <trkpt lat="45.95393" lon="4.75188">
        <ele>189</ele>
        <time>2018-11-11T09:47:46Z</time>
      </trkpt>
      <trkpt lat="45.95397" lon="4.75196">
        <ele>189</ele>
        <time>2018-11-11T09:47:47Z</time>
      </trkpt>
      <trkpt lat="45.95401" lon="4.75203">
        <ele>189</ele>
        <time>2018-11-11T09:47:48Z</time>
      </trkpt>
      <trkpt lat="45.95405" lon="4.7521">
        <ele>189</ele>
        <time>2018-11-11T09:47:49Z</time>
      </trkpt>
      <trkpt lat="45.95409" lon="4.75216">
        <ele>189</ele>
        <time>2018-11-11T09:47:50Z</time>
      </trkpt>
      <trkpt lat="45.95412" lon="4.75223">
        <ele>189</ele>
        <time>2018-11-11T09:47:51Z</time>
      </trkpt>
      <trkpt lat="45.95416" lon="4.7523">
        <ele>189</ele>
        <time>2018-11-11T09:47:52Z</time>
      </trkpt>
      <trkpt lat="45.9542" lon="4.75237">
        <ele>190</ele>
        <time>2018-11-11T09:47:53Z</time>
      </trkpt>
      <trkpt lat="45.95423" lon="4.75245">
        <ele>190</ele>
        <time>2018-11-11T09:47:54Z</time>
      </trkpt>
      <trkpt lat="45.95427" lon="4.7525">
        <ele>189</ele>
        <time>2018-11-11T09:47:55Z</time>
      </trkpt>
      <trkpt lat="45.95431" lon="4.75257">
        <ele>189</ele>
        <time>2018-11-11T09:47:56Z</time>
      </trkpt>
      <trkpt lat="45.95435" lon="4.75265">
        <ele>189</ele>
        <time>2018-11-11T09:47:57Z</time>
      </trkpt>
      <trkpt lat="45.95439" lon="4.75272">
        <ele>189</ele>
        <time>2018-11-11T09:47:58Z</time>
      </trkpt>
      <trkpt lat="45.95443" lon="4.75279">
        <ele>188</ele>
        <time>2018-11-11T09:47:59Z</time>
      </trkpt>
      <trkpt lat="45.95447" lon="4.75286">
        <ele>188</ele>
        <time>2018-11-11T09:48:00Z</time>
      </trkpt>
      <trkpt lat="45.95451" lon="4.75293">
        <ele>188</ele>
        <time>2018-11-11T09:48:01Z</time>
      </trkpt>
      <trkpt lat="45.95454" lon="4.753">
        <ele>188</ele>
        <time>2018-11-11T09:48:02Z</time>
      </trkpt>
      <trkpt lat="45.95458" lon="4.75307">
        <ele>188</ele>
        <time>2018-11-11T09:48:03Z</time>
      </trkpt>
      <trkpt lat="45.95463" lon="4.75315">
        <ele>188</ele>
        <time>2018-11-11T09:48:04Z</time>
      </trkpt>
      <trkpt lat="45.95467" lon="4.75323">
        <ele>188</ele>
        <time>2018-11-11T09:48:05Z</time>
      </trkpt>
      <trkpt lat="45.9547" lon="4.75329">
        <ele>188</ele>
        <time>2018-11-11T09:48:06Z</time>
      </trkpt>
      <trkpt lat="45.95475" lon="4.75336">
        <ele>186</ele>
        <time>2018-11-11T09:48:07Z</time>
      </trkpt>
      <trkpt lat="45.95479" lon="4.75345">
        <ele>186</ele>
        <time>2018-11-11T09:48:08Z</time>
      </trkpt>
      <trkpt lat="45.95482" lon="4.75353">
        <ele>186</ele>
        <time>2018-11-11T09:48:09Z</time>
      </trkpt>
      <trkpt lat="45.95486" lon="4.75358">
        <ele>186</ele>
        <time>2018-11-11T09:48:10Z</time>
      </trkpt>
      <trkpt lat="45.9549" lon="4.75366">
        <ele>186</ele>
        <time>2018-11-11T09:48:11Z</time>
      </trkpt>
      <trkpt lat="45.95493" lon="4.75374">
        <ele>185</ele>
        <time>2018-11-11T09:48:12Z</time>
      </trkpt>
      <trkpt lat="45.95496" lon="4.75382">
        <ele>185</ele>
        <time>2018-11-11T09:48:13Z</time>
      </trkpt>
      <trkpt lat="45.955" lon="4.75391">
        <ele>185</ele>
        <time>2018-11-11T09:48:14Z</time>
      </trkpt>
      <trkpt lat="45.95503" lon="4.754">
        <ele>187</ele>
        <time>2018-11-11T09:48:15Z</time>
      </trkpt>
      <trkpt lat="45.95506" lon="4.75409">
        <ele>187</ele>
        <time>2018-11-11T09:48:16Z</time>
      </trkpt>
      <trkpt lat="45.95508" lon="4.75419">
        <ele>186</ele>
        <time>2018-11-11T09:48:17Z</time>
      </trkpt>
      <trkpt lat="45.95509" lon="4.75429">
        <ele>186</ele>
        <time>2018-11-11T09:48:18Z</time>
      </trkpt>
      <trkpt lat="45.9551" lon="4.75439">
        <ele>186</ele>
        <time>2018-11-11T09:48:19Z</time>
      </trkpt>
      <trkpt lat="45.9551" lon="4.75448">
        <ele>187</ele>
        <time>2018-11-11T09:48:20Z</time>
      </trkpt>
      <trkpt lat="45.9551" lon="4.75459">
        <ele>187</ele>
        <time>2018-11-11T09:48:21Z</time>
      </trkpt>
      <trkpt lat="45.95509" lon="4.75469">
        <ele>186</ele>
        <time>2018-11-11T09:48:22Z</time>
      </trkpt>
      <trkpt lat="45.95512" lon="4.75477">
        <ele>186</ele>
        <time>2018-11-11T09:48:23Z</time>
      </trkpt>
      <trkpt lat="45.95515" lon="4.75485">
        <ele>186</ele>
        <time>2018-11-11T09:48:24Z</time>
      </trkpt>
      <trkpt lat="45.95518" lon="4.75492">
        <ele>186</ele>
        <time>2018-11-11T09:48:25Z</time>
      </trkpt>
      <trkpt lat="45.95522" lon="4.75498">
        <ele>186</ele>
        <time>2018-11-11T09:48:26Z</time>
      </trkpt>
      <trkpt lat="45.95527" lon="4.75502">
        <ele>185</ele>
        <time>2018-11-11T09:48:27Z</time>
      </trkpt>
      <trkpt lat="45.95533" lon="4.75508">
        <ele>185</ele>
        <time>2018-11-11T09:48:28Z</time>
      </trkpt>
      <trkpt lat="45.95537" lon="4.75511">
        <ele>186</ele>
        <time>2018-11-11T09:48:29Z</time>
      </trkpt>
      <trkpt lat="45.95542" lon="4.75515">
        <ele>186</ele>
        <time>2018-11-11T09:48:30Z</time>
      </trkpt>
      <trkpt lat="45.95546" lon="4.75522">
        <ele>186</ele>
        <time>2018-11-11T09:48:31Z</time>
      </trkpt>
      <trkpt lat="45.95551" lon="4.75528">
        <ele>186</ele>
        <time>2018-11-11T09:48:32Z</time>
      </trkpt>
      <trkpt lat="45.95556" lon="4.75533">
        <ele>186</ele>
        <time>2018-11-11T09:48:33Z</time>
      </trkpt>
      <trkpt lat="45.95561" lon="4.75538">
        <ele>186</ele>
        <time>2018-11-11T09:48:34Z</time>
      </trkpt>
      <trkpt lat="45.95567" lon="4.75542">
        <ele>186</ele>
        <time>2018-11-11T09:48:35Z</time>
      </trkpt>
      <trkpt lat="45.95571" lon="4.75547">
        <ele>186</ele>
        <time>2018-11-11T09:48:36Z</time>
      </trkpt>
      <trkpt lat="45.95575" lon="4.75552">
        <ele>186</ele>
        <time>2018-11-11T09:48:37Z</time>
      </trkpt>
      <trkpt lat="45.95579" lon="4.75557">
        <ele>186</ele>
        <time>2018-11-11T09:48:38Z</time>
      </trkpt>
      <trkpt lat="45.95583" lon="4.75564">
        <ele>186</ele>
        <time>2018-11-11T09:48:39Z</time>
      </trkpt>
      <trkpt lat="45.95587" lon="4.7557">
        <ele>187</ele>
        <time>2018-11-11T09:48:40Z</time>
      </trkpt>
      <trkpt lat="45.9559" lon="4.75575">
        <ele>187</ele>
        <time>2018-11-11T09:48:41Z</time>
      </trkpt>
      <trkpt lat="45.95593" lon="4.7558">
        <ele>187</ele>
        <time>2018-11-11T09:48:42Z</time>
      </trkpt>
      <trkpt lat="45.95596" lon="4.75586">
        <ele>187</ele>
        <time>2018-11-11T09:48:43Z</time>
      </trkpt>
      <trkpt lat="45.95599" lon="4.75592">
        <ele>187</ele>
        <time>2018-11-11T09:48:44Z</time>
      </trkpt>
      <trkpt lat="45.95602" lon="4.75599">
        <ele>187</ele>
        <time>2018-11-11T09:48:45Z</time>
      </trkpt>
      <trkpt lat="45.95605" lon="4.75606">
        <ele>187</ele>
        <time>2018-11-11T09:48:46Z</time>
      </trkpt>
      <trkpt lat="45.95607" lon="4.75613">
        <ele>188</ele>
        <time>2018-11-11T09:48:47Z</time>
      </trkpt>
      <trkpt lat="45.9561" lon="4.7562">
        <ele>188</ele>
        <time>2018-11-11T09:48:48Z</time>
      </trkpt>
      <trkpt lat="45.95612" lon="4.75627">
        <ele>188</ele>
        <time>2018-11-11T09:48:49Z</time>
      </trkpt>
      <trkpt lat="45.95614" lon="4.75634">
        <ele>188</ele>
        <time>2018-11-11T09:48:50Z</time>
      </trkpt>
      <trkpt lat="45.95616" lon="4.75643">
        <ele>188</ele>
        <time>2018-11-11T09:48:51Z</time>
      </trkpt>
      <trkpt lat="45.95618" lon="4.75652">
        <ele>188</ele>
        <time>2018-11-11T09:48:52Z</time>
      </trkpt>
      <trkpt lat="45.9562" lon="4.75659">
        <ele>188</ele>
        <time>2018-11-11T09:48:53Z</time>
      </trkpt>
      <trkpt lat="45.95621" lon="4.75668">
        <ele>187</ele>
        <time>2018-11-11T09:48:54Z</time>
      </trkpt>
      <trkpt lat="45.95622" lon="4.75677">
        <ele>187</ele>
        <time>2018-11-11T09:48:55Z</time>
      </trkpt>
      <trkpt lat="45.95623" lon="4.75686">
        <ele>187</ele>
        <time>2018-11-11T09:48:56Z</time>
      </trkpt>
      <trkpt lat="45.95624" lon="4.75694">
        <ele>187</ele>
        <time>2018-11-11T09:48:57Z</time>
      </trkpt>
      <trkpt lat="45.95625" lon="4.75703">
        <ele>187</ele>
        <time>2018-11-11T09:48:58Z</time>
      </trkpt>
      <trkpt lat="45.95626" lon="4.75711">
        <ele>187</ele>
        <time>2018-11-11T09:48:59Z</time>
      </trkpt>
      <trkpt lat="45.95627" lon="4.75719">
        <ele>187</ele>
        <time>2018-11-11T09:49:00Z</time>
      </trkpt>
      <trkpt lat="45.95629" lon="4.75727">
        <ele>187</ele>
        <time>2018-11-11T09:49:01Z</time>
      </trkpt>
      <trkpt lat="45.9563" lon="4.75735">
        <ele>187</ele>
        <time>2018-11-11T09:49:02Z</time>
      </trkpt>
      <trkpt lat="45.95631" lon="4.75742">
        <ele>187</ele>
        <time>2018-11-11T09:49:03Z</time>
      </trkpt>
      <trkpt lat="45.95632" lon="4.7575">
        <ele>186</ele>
        <time>2018-11-11T09:49:04Z</time>
      </trkpt>
      <trkpt lat="45.95633" lon="4.75758">
        <ele>186</ele>
        <time>2018-11-11T09:49:05Z</time>
      </trkpt>
      <trkpt lat="45.95635" lon="4.75765">
        <ele>186</ele>
        <time>2018-11-11T09:49:06Z</time>
      </trkpt>
      <trkpt lat="45.95636" lon="4.75773">
        <ele>186</ele>
        <time>2018-11-11T09:49:07Z</time>
      </trkpt>
      <trkpt lat="45.95637" lon="4.7578">
        <ele>185</ele>
        <time>2018-11-11T09:49:08Z</time>
      </trkpt>
      <trkpt lat="45.95639" lon="4.75789">
        <ele>185</ele>
        <time>2018-11-11T09:49:09Z</time>
      </trkpt>
      <trkpt lat="45.95641" lon="4.75797">
        <ele>185</ele>
        <time>2018-11-11T09:49:10Z</time>
      </trkpt>
      <trkpt lat="45.95642" lon="4.75805">
        <ele>185</ele>
        <time>2018-11-11T09:49:11Z</time>
      </trkpt>
      <trkpt lat="45.95645" lon="4.75814">
        <ele>185</ele>
        <time>2018-11-11T09:49:12Z</time>
      </trkpt>
      <trkpt lat="45.95647" lon="4.75823">
        <ele>185</ele>
        <time>2018-11-11T09:49:13Z</time>
      </trkpt>
      <trkpt lat="45.95648" lon="4.75832">
        <ele>185</ele>
        <time>2018-11-11T09:49:14Z</time>
      </trkpt>
      <trkpt lat="45.9565" lon="4.75841">
        <ele>185</ele>
        <time>2018-11-11T09:49:15Z</time>
      </trkpt>
      <trkpt lat="45.95652" lon="4.75851">
        <ele>184</ele>
        <time>2018-11-11T09:49:16Z</time>
      </trkpt>
      <trkpt lat="45.95655" lon="4.7586">
        <ele>184</ele>
        <time>2018-11-11T09:49:17Z</time>
      </trkpt>
      <trkpt lat="45.95658" lon="4.75869">
        <ele>184</ele>
        <time>2018-11-11T09:49:18Z</time>
      </trkpt>
      <trkpt lat="45.95661" lon="4.75877">
        <ele>184</ele>
        <time>2018-11-11T09:49:19Z</time>
      </trkpt>
      <trkpt lat="45.95664" lon="4.75885">
        <ele>184</ele>
        <time>2018-11-11T09:49:20Z</time>
      </trkpt>
      <trkpt lat="45.95667" lon="4.75894">
        <ele>186</ele>
        <time>2018-11-11T09:49:21Z</time>
      </trkpt>
      <trkpt lat="45.95671" lon="4.75902">
        <ele>185</ele>
        <time>2018-11-11T09:49:22Z</time>
      </trkpt>
      <trkpt lat="45.95674" lon="4.7591">
        <ele>185</ele>
        <time>2018-11-11T09:49:23Z</time>
      </trkpt>
      <trkpt lat="45.95677" lon="4.75919">
        <ele>184</ele>
        <time>2018-11-11T09:49:24Z</time>
      </trkpt>
      <trkpt lat="45.9568" lon="4.75925">
        <ele>185</ele>
        <time>2018-11-11T09:49:25Z</time>
      </trkpt>
      <trkpt lat="45.95683" lon="4.75933">
        <ele>185</ele>
        <time>2018-11-11T09:49:26Z</time>
      </trkpt>
      <trkpt lat="45.95686" lon="4.75941">
        <ele>185</ele>
        <time>2018-11-11T09:49:27Z</time>
      </trkpt>
      <trkpt lat="45.9569" lon="4.75948">
        <ele>185</ele>
        <time>2018-11-11T09:49:28Z</time>
      </trkpt>
      <trkpt lat="45.95694" lon="4.75956">
        <ele>185</ele>
        <time>2018-11-11T09:49:29Z</time>
      </trkpt>
      <trkpt lat="45.95696" lon="4.75962">
        <ele>185</ele>
        <time>2018-11-11T09:49:30Z</time>
      </trkpt>
      <trkpt lat="45.95699" lon="4.75969">
        <ele>185</ele>
        <time>2018-11-11T09:49:31Z</time>
      </trkpt>
      <trkpt lat="45.95702" lon="4.75975">
        <ele>185</ele>
        <time>2018-11-11T09:49:32Z</time>
      </trkpt>
      <trkpt lat="45.95705" lon="4.75981">
        <ele>185</ele>
        <time>2018-11-11T09:49:33Z</time>
      </trkpt>
      <trkpt lat="45.95708" lon="4.75988">
        <ele>185</ele>
        <time>2018-11-11T09:49:34Z</time>
      </trkpt>
      <trkpt lat="45.95712" lon="4.75996">
        <ele>185</ele>
        <time>2018-11-11T09:49:35Z</time>
      </trkpt>
      <trkpt lat="45.95715" lon="4.76003">
        <ele>184</ele>
        <time>2018-11-11T09:49:36Z</time>
      </trkpt>
      <trkpt lat="45.95718" lon="4.7601">
        <ele>184</ele>
        <time>2018-11-11T09:49:37Z</time>
      </trkpt>
      <trkpt lat="45.9572" lon="4.76017">
        <ele>184</ele>
        <time>2018-11-11T09:49:38Z</time>
      </trkpt>
      <trkpt lat="45.95723" lon="4.76024">
        <ele>184</ele>
        <time>2018-11-11T09:49:39Z</time>
      </trkpt>
      <trkpt lat="45.95727" lon="4.76031">
        <ele>184</ele>
        <time>2018-11-11T09:49:40Z</time>
      </trkpt>
      <trkpt lat="45.9573" lon="4.76038">
        <ele>184</ele>
        <time>2018-11-11T09:49:41Z</time>
      </trkpt>
      <trkpt lat="45.95733" lon="4.76046">
        <ele>184</ele>
        <time>2018-11-11T09:49:42Z</time>
      </trkpt>
      <trkpt lat="45.95736" lon="4.76052">
        <ele>184</ele>
        <time>2018-11-11T09:49:43Z</time>
      </trkpt>
      <trkpt lat="45.95739" lon="4.76059">
        <ele>184</ele>
        <time>2018-11-11T09:49:44Z</time>
      </trkpt>
      <trkpt lat="45.95742" lon="4.76065">
        <ele>185</ele>
        <time>2018-11-11T09:49:45Z</time>
      </trkpt>
      <trkpt lat="45.95745" lon="4.76072">
        <ele>185</ele>
        <time>2018-11-11T09:49:46Z</time>
      </trkpt>
      <trkpt lat="45.95748" lon="4.76078">
        <ele>185</ele>
        <time>2018-11-11T09:49:47Z</time>
      </trkpt>
      <trkpt lat="45.9575" lon="4.76084">
        <ele>185</ele>
        <time>2018-11-11T09:49:48Z</time>
      </trkpt>
      <trkpt lat="45.95752" lon="4.7609">
        <ele>185</ele>
        <time>2018-11-11T09:49:49Z</time>
      </trkpt>
      <trkpt lat="45.95753" lon="4.76096">
        <ele>186</ele>
        <time>2018-11-11T09:49:50Z</time>
      </trkpt>
      <trkpt lat="45.95753" lon="4.76104">
        <ele>186</ele>
        <time>2018-11-11T09:49:51Z</time>
      </trkpt>
      <trkpt lat="45.95755" lon="4.76111">
        <ele>186</ele>
        <time>2018-11-11T09:49:52Z</time>
      </trkpt>
      <trkpt lat="45.95756" lon="4.76118">
        <ele>186</ele>
        <time>2018-11-11T09:49:53Z</time>
      </trkpt>
      <trkpt lat="45.95757" lon="4.76125">
        <ele>186</ele>
        <time>2018-11-11T09:49:54Z</time>
      </trkpt>
      <trkpt lat="45.95758" lon="4.76133">
        <ele>186</ele>
        <time>2018-11-11T09:49:55Z</time>
      </trkpt>
      <trkpt lat="45.95759" lon="4.76141">
        <ele>186</ele>
        <time>2018-11-11T09:49:56Z</time>
      </trkpt>
      <trkpt lat="45.9576" lon="4.76149">
        <ele>186</ele>
        <time>2018-11-11T09:49:57Z</time>
      </trkpt>
      <trkpt lat="45.95761" lon="4.76157">
        <ele>186</ele>
        <time>2018-11-11T09:49:58Z</time>
      </trkpt>
      <trkpt lat="45.95761" lon="4.76165">
        <ele>186</ele>
        <time>2018-11-11T09:49:59Z</time>
      </trkpt>
      <trkpt lat="45.95762" lon="4.76174">
        <ele>185</ele>
        <time>2018-11-11T09:50:00Z</time>
      </trkpt>
      <trkpt lat="45.95762" lon="4.76182">
        <ele>186</ele>
        <time>2018-11-11T09:50:01Z</time>
      </trkpt>
      <trkpt lat="45.95763" lon="4.76191">
        <ele>186</ele>
        <time>2018-11-11T09:50:02Z</time>
      </trkpt>
      <trkpt lat="45.95763" lon="4.76199">
        <ele>186</ele>
        <time>2018-11-11T09:50:03Z</time>
      </trkpt>
      <trkpt lat="45.95764" lon="4.76207">
        <ele>186</ele>
        <time>2018-11-11T09:50:04Z</time>
      </trkpt>
      <trkpt lat="45.95764" lon="4.76214">
        <ele>186</ele>
        <time>2018-11-11T09:50:05Z</time>
      </trkpt>
      <trkpt lat="45.95765" lon="4.76221">
        <ele>186</ele>
        <time>2018-11-11T09:50:06Z</time>
      </trkpt>
      <trkpt lat="45.95766" lon="4.76228">
        <ele>186</ele>
        <time>2018-11-11T09:50:07Z</time>
      </trkpt>
      <trkpt lat="45.95766" lon="4.76236">
        <ele>186</ele>
        <time>2018-11-11T09:50:08Z</time>
      </trkpt>
      <trkpt lat="45.95767" lon="4.76243">
        <ele>186</ele>
        <time>2018-11-11T09:50:09Z</time>
      </trkpt>
      <trkpt lat="45.95767" lon="4.76251">
        <ele>185</ele>
        <time>2018-11-11T09:50:10Z</time>
      </trkpt>
      <trkpt lat="45.95767" lon="4.76259">
        <ele>185</ele>
        <time>2018-11-11T09:50:11Z</time>
      </trkpt>
      <trkpt lat="45.95767" lon="4.76267">
        <ele>185</ele>
        <time>2018-11-11T09:50:12Z</time>
      </trkpt>
      <trkpt lat="45.95767" lon="4.76275">
        <ele>186</ele>
        <time>2018-11-11T09:50:13Z</time>
      </trkpt>
      <trkpt lat="45.95768" lon="4.76284">
        <ele>186</ele>
        <time>2018-11-11T09:50:14Z</time>
      </trkpt>
      <trkpt lat="45.95768" lon="4.76291">
        <ele>186</ele>
        <time>2018-11-11T09:50:15Z</time>
      </trkpt>
      <trkpt lat="45.95768" lon="4.76299">
        <ele>186</ele>
        <time>2018-11-11T09:50:16Z</time>
      </trkpt>
      <trkpt lat="45.95769" lon="4.76307">
        <ele>186</ele>
        <time>2018-11-11T09:50:17Z</time>
      </trkpt>
      <trkpt lat="45.95769" lon="4.76316">
        <ele>185</ele>
        <time>2018-11-11T09:50:18Z</time>
      </trkpt>
      <trkpt lat="45.95769" lon="4.76324">
        <ele>185</ele>
        <time>2018-11-11T09:50:19Z</time>
      </trkpt>
      <trkpt lat="45.95769" lon="4.76333">
        <ele>185</ele>
        <time>2018-11-11T09:50:20Z</time>
      </trkpt>
      <trkpt lat="45.9577" lon="4.76341">
        <ele>186</ele>
        <time>2018-11-11T09:50:21Z</time>
      </trkpt>
      <trkpt lat="45.95771" lon="4.7635">
        <ele>186</ele>
        <time>2018-11-11T09:50:22Z</time>
      </trkpt>
      <trkpt lat="45.95772" lon="4.76358">
        <ele>186</ele>
        <time>2018-11-11T09:50:23Z</time>
      </trkpt>
      <trkpt lat="45.95772" lon="4.76366">
        <ele>186</ele>
        <time>2018-11-11T09:50:24Z</time>
      </trkpt>
      <trkpt lat="45.95772" lon="4.76374">
        <ele>186</ele>
        <time>2018-11-11T09:50:25Z</time>
      </trkpt>
      <trkpt lat="45.95773" lon="4.76382">
        <ele>186</ele>
        <time>2018-11-11T09:50:26Z</time>
      </trkpt>
      <trkpt lat="45.95773" lon="4.76391">
        <ele>186</ele>
        <time>2018-11-11T09:50:27Z</time>
      </trkpt>
      <trkpt lat="45.95774" lon="4.76399">
        <ele>186</ele>
        <time>2018-11-11T09:50:28Z</time>
      </trkpt>
      <trkpt lat="45.95775" lon="4.76407">
        <ele>186</ele>
        <time>2018-11-11T09:50:29Z</time>
      </trkpt>
      <trkpt lat="45.95776" lon="4.76415">
        <ele>186</ele>
        <time>2018-11-11T09:50:30Z</time>
      </trkpt>
      <trkpt lat="45.95777" lon="4.76423">
        <ele>186</ele>
        <time>2018-11-11T09:50:31Z</time>
      </trkpt>
      <trkpt lat="45.95777" lon="4.76431">
        <ele>186</ele>
        <time>2018-11-11T09:50:32Z</time>
      </trkpt>
      <trkpt lat="45.95778" lon="4.76439">
        <ele>186</ele>
        <time>2018-11-11T09:50:33Z</time>
      </trkpt>
      <trkpt lat="45.9578" lon="4.76447">
        <ele>186</ele>
        <time>2018-11-11T09:50:34Z</time>
      </trkpt>
      <trkpt lat="45.9578" lon="4.76453">
        <ele>186</ele>
        <time>2018-11-11T09:50:35Z</time>
      </trkpt>
      <trkpt lat="45.95781" lon="4.7646">
        <ele>186</ele>
        <time>2018-11-11T09:50:36Z</time>
      </trkpt>
      <trkpt lat="45.95782" lon="4.76468">
        <ele>186</ele>
        <time>2018-11-11T09:50:37Z</time>
      </trkpt>
      <trkpt lat="45.95783" lon="4.76475">
        <ele>186</ele>
        <time>2018-11-11T09:50:38Z</time>
      </trkpt>
      <trkpt lat="45.95785" lon="4.76482">
        <ele>186</ele>
        <time>2018-11-11T09:50:39Z</time>
      </trkpt>
      <trkpt lat="45.95785" lon="4.76489">
        <ele>186</ele>
        <time>2018-11-11T09:50:40Z</time>
      </trkpt>
      <trkpt lat="45.95786" lon="4.76497">
        <ele>186</ele>
        <time>2018-11-11T09:50:41Z</time>
      </trkpt>
      <trkpt lat="45.95787" lon="4.76504">
        <ele>187</ele>
        <time>2018-11-11T09:50:42Z</time>
      </trkpt>
      <trkpt lat="45.95788" lon="4.76512">
        <ele>187</ele>
        <time>2018-11-11T09:50:43Z</time>
      </trkpt>
      <trkpt lat="45.95788" lon="4.7652">
        <ele>187</ele>
        <time>2018-11-11T09:50:44Z</time>
      </trkpt>
      <trkpt lat="45.9579" lon="4.76528">
        <ele>187</ele>
        <time>2018-11-11T09:50:45Z</time>
      </trkpt>
      <trkpt lat="45.95791" lon="4.76535">
        <ele>187</ele>
        <time>2018-11-11T09:50:46Z</time>
      </trkpt>
      <trkpt lat="45.95793" lon="4.76543">
        <ele>187</ele>
        <time>2018-11-11T09:50:47Z</time>
      </trkpt>
      <trkpt lat="45.95794" lon="4.7655">
        <ele>187</ele>
        <time>2018-11-11T09:50:48Z</time>
      </trkpt>
      <trkpt lat="45.95795" lon="4.76559">
        <ele>187</ele>
        <time>2018-11-11T09:50:49Z</time>
      </trkpt>
      <trkpt lat="45.95796" lon="4.76566">
        <ele>187</ele>
        <time>2018-11-11T09:50:50Z</time>
      </trkpt>
      <trkpt lat="45.95797" lon="4.76573">
        <ele>187</ele>
        <time>2018-11-11T09:50:51Z</time>
      </trkpt>
      <trkpt lat="45.95799" lon="4.76581">
        <ele>187</ele>
        <time>2018-11-11T09:50:52Z</time>
      </trkpt>
      <trkpt lat="45.958" lon="4.76589">
        <ele>187</ele>
        <time>2018-11-11T09:50:53Z</time>
      </trkpt>
      <trkpt lat="45.95801" lon="4.76597">
        <ele>187</ele>
        <time>2018-11-11T09:50:54Z</time>
      </trkpt>
      <trkpt lat="45.95803" lon="4.76605">
        <ele>188</ele>
        <time>2018-11-11T09:50:55Z</time>
      </trkpt>
      <trkpt lat="45.95804" lon="4.76613">
        <ele>188</ele>
        <time>2018-11-11T09:50:56Z</time>
      </trkpt>
      <trkpt lat="45.95805" lon="4.7662">
        <ele>188</ele>
        <time>2018-11-11T09:50:57Z</time>
      </trkpt>
      <trkpt lat="45.95806" lon="4.76628">
        <ele>188</ele>
        <time>2018-11-11T09:50:58Z</time>
      </trkpt>
      <trkpt lat="45.95806" lon="4.76635">
        <ele>188</ele>
        <time>2018-11-11T09:50:59Z</time>
      </trkpt>
      <trkpt lat="45.95807" lon="4.76642">
        <ele>188</ele>
        <time>2018-11-11T09:51:00Z</time>
      </trkpt>
      <trkpt lat="45.95808" lon="4.76649">
        <ele>188</ele>
        <time>2018-11-11T09:51:01Z</time>
      </trkpt>
      <trkpt lat="45.95809" lon="4.76655">
        <ele>188</ele>
        <time>2018-11-11T09:51:02Z</time>
      </trkpt>
      <trkpt lat="45.9581" lon="4.76662">
        <ele>188</ele>
        <time>2018-11-11T09:51:03Z</time>
      </trkpt>
      <trkpt lat="45.95811" lon="4.76669">
        <ele>189</ele>
        <time>2018-11-11T09:51:04Z</time>
      </trkpt>
      <trkpt lat="45.95812" lon="4.76676">
        <ele>189</ele>
        <time>2018-11-11T09:51:05Z</time>
      </trkpt>
      <trkpt lat="45.95813" lon="4.76683">
        <ele>189</ele>
        <time>2018-11-11T09:51:06Z</time>
      </trkpt>
      <trkpt lat="45.95814" lon="4.76691">
        <ele>189</ele>
        <time>2018-11-11T09:51:07Z</time>
      </trkpt>
      <trkpt lat="45.95815" lon="4.76698">
        <ele>189</ele>
        <time>2018-11-11T09:51:08Z</time>
      </trkpt>
      <trkpt lat="45.95816" lon="4.76704">
        <ele>189</ele>
        <time>2018-11-11T09:51:09Z</time>
      </trkpt>
      <trkpt lat="45.95817" lon="4.76712">
        <ele>189</ele>
        <time>2018-11-11T09:51:10Z</time>
      </trkpt>
      <trkpt lat="45.95818" lon="4.76719">
        <ele>189</ele>
        <time>2018-11-11T09:51:11Z</time>
      </trkpt>
      <trkpt lat="45.95819" lon="4.76727">
        <ele>190</ele>
        <time>2018-11-11T09:51:12Z</time>
      </trkpt>
      <trkpt lat="45.9582" lon="4.76735">
        <ele>190</ele>
        <time>2018-11-11T09:51:13Z</time>
      </trkpt>
      <trkpt lat="45.95821" lon="4.76743">
        <ele>190</ele>
        <time>2018-11-11T09:51:14Z</time>
      </trkpt>
      <trkpt lat="45.95822" lon="4.76749">
        <ele>190</ele>
        <time>2018-11-11T09:51:15Z</time>
      </trkpt>
      <trkpt lat="45.95824" lon="4.76761">
        <ele>190</ele>
        <time>2018-11-11T09:51:17Z</time>
      </trkpt>
      <trkpt lat="45.95826" lon="4.76766">
        <ele>190</ele>
        <time>2018-11-11T09:51:18Z</time>
      </trkpt>
      <trkpt lat="45.95827" lon="4.76775">
        <ele>190</ele>
        <time>2018-11-11T09:51:20Z</time>
      </trkpt>
      <trkpt lat="45.95827" lon="4.76781">
        <ele>190</ele>
        <time>2018-11-11T09:51:21Z</time>
      </trkpt>
      <trkpt lat="45.95828" lon="4.76792">
        <ele>190</ele>
        <time>2018-11-11T09:51:23Z</time>
      </trkpt>
      <trkpt lat="45.95829" lon="4.76799">
        <ele>190</ele>
        <time>2018-11-11T09:51:24Z</time>
      </trkpt>
      <trkpt lat="45.95829" lon="4.76806">
        <ele>190</ele>
        <time>2018-11-11T09:51:25Z</time>
      </trkpt>
      <trkpt lat="45.95828" lon="4.76813">
        <ele>190</ele>
        <time>2018-11-11T09:51:26Z</time>
      </trkpt>
      <trkpt lat="45.95827" lon="4.76821">
        <ele>190</ele>
        <time>2018-11-11T09:51:27Z</time>
      </trkpt>
      <trkpt lat="45.95826" lon="4.76828">
        <ele>190</ele>
        <time>2018-11-11T09:51:28Z</time>
      </trkpt>
      <trkpt lat="45.95824" lon="4.76836">
        <ele>190</ele>
        <time>2018-11-11T09:51:29Z</time>
      </trkpt>
      <trkpt lat="45.95823" lon="4.76844">
        <ele>190</ele>
        <time>2018-11-11T09:51:30Z</time>
      </trkpt>
      <trkpt lat="45.95822" lon="4.76852">
        <ele>189</ele>
        <time>2018-11-11T09:51:31Z</time>
      </trkpt>
      <trkpt lat="45.95821" lon="4.7686">
        <ele>189</ele>
        <time>2018-11-11T09:51:32Z</time>
      </trkpt>
      <trkpt lat="45.9582" lon="4.76867">
        <ele>189</ele>
        <time>2018-11-11T09:51:33Z</time>
      </trkpt>
      <trkpt lat="45.95818" lon="4.76874">
        <ele>189</ele>
        <time>2018-11-11T09:51:34Z</time>
      </trkpt>
      <trkpt lat="45.95817" lon="4.76881">
        <ele>189</ele>
        <time>2018-11-11T09:51:35Z</time>
      </trkpt>
      <trkpt lat="45.95816" lon="4.76887">
        <ele>189</ele>
        <time>2018-11-11T09:51:36Z</time>
      </trkpt>
      <trkpt lat="45.95814" lon="4.76894">
        <ele>189</ele>
        <time>2018-11-11T09:51:37Z</time>
      </trkpt>
      <trkpt lat="45.95813" lon="4.769">
        <ele>189</ele>
        <time>2018-11-11T09:51:38Z</time>
      </trkpt>
      <trkpt lat="45.95812" lon="4.76907">
        <ele>189</ele>
        <time>2018-11-11T09:51:39Z</time>
      </trkpt>
      <trkpt lat="45.95811" lon="4.76914">
        <ele>189</ele>
        <time>2018-11-11T09:51:40Z</time>
      </trkpt>
      <trkpt lat="45.95809" lon="4.76921">
        <ele>189</ele>
        <time>2018-11-11T09:51:41Z</time>
      </trkpt>
      <trkpt lat="45.95808" lon="4.76928">
        <ele>189</ele>
        <time>2018-11-11T09:51:42Z</time>
      </trkpt>
      <trkpt lat="45.95806" lon="4.76935">
        <ele>189</ele>
        <time>2018-11-11T09:51:43Z</time>
      </trkpt>
      <trkpt lat="45.95805" lon="4.76942">
        <ele>189</ele>
        <time>2018-11-11T09:51:44Z</time>
      </trkpt>
      <trkpt lat="45.95804" lon="4.76949">
        <ele>189</ele>
        <time>2018-11-11T09:51:45Z</time>
      </trkpt>
      <trkpt lat="45.95802" lon="4.76956">
        <ele>189</ele>
        <time>2018-11-11T09:51:46Z</time>
      </trkpt>
      <trkpt lat="45.95801" lon="4.76964">
        <ele>189</ele>
        <time>2018-11-11T09:51:47Z</time>
      </trkpt>
      <trkpt lat="45.95799" lon="4.76971">
        <ele>189</ele>
        <time>2018-11-11T09:51:48Z</time>
      </trkpt>
      <trkpt lat="45.95799" lon="4.76978">
        <ele>189</ele>
        <time>2018-11-11T09:51:49Z</time>
      </trkpt>
      <trkpt lat="45.95799" lon="4.76985">
        <ele>189</ele>
        <time>2018-11-11T09:51:50Z</time>
      </trkpt>
      <trkpt lat="45.95799" lon="4.76992">
        <ele>189</ele>
        <time>2018-11-11T09:51:51Z</time>
      </trkpt>
      <trkpt lat="45.95801" lon="4.76999">
        <ele>189</ele>
        <time>2018-11-11T09:51:52Z</time>
      </trkpt>
      <trkpt lat="45.95802" lon="4.77006">
        <ele>190</ele>
        <time>2018-11-11T09:51:53Z</time>
      </trkpt>
      <trkpt lat="45.95803" lon="4.77014">
        <ele>190</ele>
        <time>2018-11-11T09:51:54Z</time>
      </trkpt>
      <trkpt lat="45.95805" lon="4.77021">
        <ele>190</ele>
        <time>2018-11-11T09:51:55Z</time>
      </trkpt>
      <trkpt lat="45.95807" lon="4.77026">
        <ele>190</ele>
        <time>2018-11-11T09:51:56Z</time>
      </trkpt>
      <trkpt lat="45.95811" lon="4.77037">
        <ele>190</ele>
        <time>2018-11-11T09:51:58Z</time>
      </trkpt>
      <trkpt lat="45.95814" lon="4.77042">
        <ele>190</ele>
        <time>2018-11-11T09:51:59Z</time>
      </trkpt>
      <trkpt lat="45.95816" lon="4.77048">
        <ele>190</ele>
        <time>2018-11-11T09:52:00Z</time>
      </trkpt>
      <trkpt lat="45.95819" lon="4.77054">
        <ele>190</ele>
        <time>2018-11-11T09:52:01Z</time>
      </trkpt>
      <trkpt lat="45.95821" lon="4.7706">
        <ele>190</ele>
        <time>2018-11-11T09:52:02Z</time>
      </trkpt>
      <trkpt lat="45.95824" lon="4.77066">
        <ele>191</ele>
        <time>2018-11-11T09:52:03Z</time>
      </trkpt>
      <trkpt lat="45.95826" lon="4.77072">
        <ele>191</ele>
        <time>2018-11-11T09:52:04Z</time>
      </trkpt>
      <trkpt lat="45.95829" lon="4.77079">
        <ele>191</ele>
        <time>2018-11-11T09:52:05Z</time>
      </trkpt>
      <trkpt lat="45.95831" lon="4.77086">
        <ele>192</ele>
        <time>2018-11-11T09:52:06Z</time>
      </trkpt>
      <trkpt lat="45.95834" lon="4.77092">
        <ele>192</ele>
        <time>2018-11-11T09:52:07Z</time>
      </trkpt>
      <trkpt lat="45.95837" lon="4.77099">
        <ele>193</ele>
        <time>2018-11-11T09:52:08Z</time>
      </trkpt>
      <trkpt lat="45.95839" lon="4.77106">
        <ele>193</ele>
        <time>2018-11-11T09:52:09Z</time>
      </trkpt>
      <trkpt lat="45.95841" lon="4.77113">
        <ele>193</ele>
        <time>2018-11-11T09:52:10Z</time>
      </trkpt>
      <trkpt lat="45.95843" lon="4.77118">
        <ele>193</ele>
        <time>2018-11-11T09:52:11Z</time>
      </trkpt>
      <trkpt lat="45.95844" lon="4.77125">
        <ele>193</ele>
        <time>2018-11-11T09:52:12Z</time>
      </trkpt>
      <trkpt lat="45.95846" lon="4.77131">
        <ele>193</ele>
        <time>2018-11-11T09:52:13Z</time>
      </trkpt>
      <trkpt lat="45.95848" lon="4.77138">
        <ele>193</ele>
        <time>2018-11-11T09:52:14Z</time>
      </trkpt>
      <trkpt lat="45.9585" lon="4.77144">
        <ele>193</ele>
        <time>2018-11-11T09:52:15Z</time>
      </trkpt>
      <trkpt lat="45.95851" lon="4.77151">
        <ele>192</ele>
        <time>2018-11-11T09:52:16Z</time>
      </trkpt>
      <trkpt lat="45.95853" lon="4.77157">
        <ele>192</ele>
        <time>2018-11-11T09:52:17Z</time>
      </trkpt>
      <trkpt lat="45.95855" lon="4.77164">
        <ele>192</ele>
        <time>2018-11-11T09:52:18Z</time>
      </trkpt>
      <trkpt lat="45.95857" lon="4.77171">
        <ele>192</ele>
        <time>2018-11-11T09:52:19Z</time>
      </trkpt>
      <trkpt lat="45.95859" lon="4.77178">
        <ele>192</ele>
        <time>2018-11-11T09:52:20Z</time>
      </trkpt>
      <trkpt lat="45.9586" lon="4.77185">
        <ele>192</ele>
        <time>2018-11-11T09:52:21Z</time>
      </trkpt>
      <trkpt lat="45.95862" lon="4.77193">
        <ele>192</ele>
        <time>2018-11-11T09:52:22Z</time>
      </trkpt>
      <trkpt lat="45.95865" lon="4.77201">
        <ele>193</ele>
        <time>2018-11-11T09:52:23Z</time>
      </trkpt>
      <trkpt lat="45.95866" lon="4.77208">
        <ele>193</ele>
        <time>2018-11-11T09:52:24Z</time>
      </trkpt>
      <trkpt lat="45.95867" lon="4.77216">
        <ele>193</ele>
        <time>2018-11-11T09:52:25Z</time>
      </trkpt>
      <trkpt lat="45.95869" lon="4.77224">
        <ele>193</ele>
        <time>2018-11-11T09:52:26Z</time>
      </trkpt>
      <trkpt lat="45.95871" lon="4.77231">
        <ele>193</ele>
        <time>2018-11-11T09:52:27Z</time>
      </trkpt>
      <trkpt lat="45.95873" lon="4.77239">
        <ele>193</ele>
        <time>2018-11-11T09:52:28Z</time>
      </trkpt>
      <trkpt lat="45.95874" lon="4.77246">
        <ele>193</ele>
        <time>2018-11-11T09:52:29Z</time>
      </trkpt>
      <trkpt lat="45.95876" lon="4.77254">
        <ele>193</ele>
        <time>2018-11-11T09:52:30Z</time>
      </trkpt>
      <trkpt lat="45.95878" lon="4.77261">
        <ele>193</ele>
        <time>2018-11-11T09:52:31Z</time>
      </trkpt>
      <trkpt lat="45.95879" lon="4.77266">
        <ele>193</ele>
        <time>2018-11-11T09:52:32Z</time>
      </trkpt>
      <trkpt lat="45.95881" lon="4.77274">
        <ele>193</ele>
        <time>2018-11-11T09:52:33Z</time>
      </trkpt>
      <trkpt lat="45.95882" lon="4.7728">
        <ele>193</ele>
        <time>2018-11-11T09:52:34Z</time>
      </trkpt>
      <trkpt lat="45.95884" lon="4.77287">
        <ele>193</ele>
        <time>2018-11-11T09:52:35Z</time>
      </trkpt>
      <trkpt lat="45.95885" lon="4.77294">
        <ele>193</ele>
        <time>2018-11-11T09:52:36Z</time>
      </trkpt>
      <trkpt lat="45.95887" lon="4.773">
        <ele>193</ele>
        <time>2018-11-11T09:52:37Z</time>
      </trkpt>
      <trkpt lat="45.95888" lon="4.77306">
        <ele>193</ele>
        <time>2018-11-11T09:52:38Z</time>
      </trkpt>
      <trkpt lat="45.9589" lon="4.77313">
        <ele>193</ele>
        <time>2018-11-11T09:52:39Z</time>
      </trkpt>
      <trkpt lat="45.95893" lon="4.77319">
        <ele>193</ele>
        <time>2018-11-11T09:52:40Z</time>
      </trkpt>
      <trkpt lat="45.95894" lon="4.77326">
        <ele>193</ele>
        <time>2018-11-11T09:52:41Z</time>
      </trkpt>
      <trkpt lat="45.95896" lon="4.77333">
        <ele>193</ele>
        <time>2018-11-11T09:52:42Z</time>
      </trkpt>
      <trkpt lat="45.95897" lon="4.77339">
        <ele>193</ele>
        <time>2018-11-11T09:52:43Z</time>
      </trkpt>
      <trkpt lat="45.959" lon="4.77345">
        <ele>193</ele>
        <time>2018-11-11T09:52:44Z</time>
      </trkpt>
      <trkpt lat="45.95902" lon="4.77352">
        <ele>193</ele>
        <time>2018-11-11T09:52:45Z</time>
      </trkpt>
      <trkpt lat="45.95906" lon="4.77362">
        <ele>193</ele>
        <time>2018-11-11T09:52:47Z</time>
      </trkpt>
      <trkpt lat="45.95908" lon="4.77368">
        <ele>193</ele>
        <time>2018-11-11T09:52:48Z</time>
      </trkpt>
      <trkpt lat="45.95909" lon="4.77375">
        <ele>193</ele>
        <time>2018-11-11T09:52:49Z</time>
      </trkpt>
      <trkpt lat="45.95911" lon="4.77381">
        <ele>193</ele>
        <time>2018-11-11T09:52:50Z</time>
      </trkpt>
      <trkpt lat="45.95914" lon="4.77387">
        <ele>193</ele>
        <time>2018-11-11T09:52:51Z</time>
      </trkpt>
      <trkpt lat="45.95916" lon="4.77392">
        <ele>193</ele>
        <time>2018-11-11T09:52:52Z</time>
      </trkpt>
      <trkpt lat="45.95918" lon="4.77399">
        <ele>196</ele>
        <time>2018-11-11T09:52:53Z</time>
      </trkpt>
      <trkpt lat="45.9592" lon="4.77405">
        <ele>195</ele>
        <time>2018-11-11T09:52:54Z</time>
      </trkpt>
      <trkpt lat="45.95923" lon="4.77414">
        <ele>195</ele>
        <time>2018-11-11T09:52:56Z</time>
      </trkpt>
      <trkpt lat="45.95925" lon="4.7742">
        <ele>195</ele>
        <time>2018-11-11T09:52:57Z</time>
      </trkpt>
      <trkpt lat="45.95929" lon="4.77431">
        <ele>195</ele>
        <time>2018-11-11T09:52:59Z</time>
      </trkpt>
      <trkpt lat="45.95931" lon="4.77437">
        <ele>195</ele>
        <time>2018-11-11T09:53:00Z</time>
      </trkpt>
      <trkpt lat="45.95935" lon="4.77449">
        <ele>195</ele>
        <time>2018-11-11T09:53:02Z</time>
      </trkpt>
      <trkpt lat="45.95937" lon="4.77455">
        <ele>195</ele>
        <time>2018-11-11T09:53:03Z</time>
      </trkpt>
      <trkpt lat="45.9594" lon="4.77467">
        <ele>195</ele>
        <time>2018-11-11T09:53:05Z</time>
      </trkpt>
      <trkpt lat="45.95942" lon="4.77472">
        <ele>195</ele>
        <time>2018-11-11T09:53:06Z</time>
      </trkpt>
      <trkpt lat="45.95946" lon="4.77482">
        <ele>195</ele>
        <time>2018-11-11T09:53:08Z</time>
      </trkpt>
      <trkpt lat="45.95948" lon="4.77487">
        <ele>195</ele>
        <time>2018-11-11T09:53:09Z</time>
      </trkpt>
      <trkpt lat="45.95952" lon="4.77498">
        <ele>195</ele>
        <time>2018-11-11T09:53:11Z</time>
      </trkpt>
      <trkpt lat="45.95954" lon="4.77503">
        <ele>195</ele>
        <time>2018-11-11T09:53:12Z</time>
      </trkpt>
      <trkpt lat="45.95958" lon="4.77513">
        <ele>195</ele>
        <time>2018-11-11T09:53:14Z</time>
      </trkpt>
      <trkpt lat="45.9596" lon="4.77517">
        <ele>195</ele>
        <time>2018-11-11T09:53:15Z</time>
      </trkpt>
      <trkpt lat="45.95965" lon="4.77526">
        <ele>195</ele>
        <time>2018-11-11T09:53:17Z</time>
      </trkpt>
      <trkpt lat="45.95967" lon="4.77531">
        <ele>195</ele>
        <time>2018-11-11T09:53:18Z</time>
      </trkpt>
      <trkpt lat="45.95971" lon="4.77538">
        <ele>195</ele>
        <time>2018-11-11T09:53:20Z</time>
      </trkpt>
      <trkpt lat="45.95974" lon="4.77544">
        <ele>195</ele>
        <time>2018-11-11T09:53:21Z</time>
      </trkpt>
      <trkpt lat="45.95979" lon="4.77553">
        <ele>195</ele>
        <time>2018-11-11T09:53:23Z</time>
      </trkpt>
      <trkpt lat="45.95981" lon="4.7756">
        <ele>196</ele>
        <time>2018-11-11T09:53:24Z</time>
      </trkpt>
      <trkpt lat="45.95983" lon="4.77566">
        <ele>196</ele>
        <time>2018-11-11T09:53:25Z</time>
      </trkpt>
      <trkpt lat="45.95985" lon="4.77573">
        <ele>196</ele>
        <time>2018-11-11T09:53:26Z</time>
      </trkpt>
      <trkpt lat="45.95989" lon="4.77581">
        <ele>196</ele>
        <time>2018-11-11T09:53:27Z</time>
      </trkpt>
      <trkpt lat="45.95992" lon="4.77587">
        <ele>196</ele>
        <time>2018-11-11T09:53:28Z</time>
      </trkpt>
      <trkpt lat="45.95997" lon="4.77593">
        <ele>196</ele>
        <time>2018-11-11T09:53:29Z</time>
      </trkpt>
      <trkpt lat="45.96001" lon="4.77599">
        <ele>198</ele>
        <time>2018-11-11T09:53:30Z</time>
      </trkpt>
      <trkpt lat="45.96005" lon="4.77603">
        <ele>198</ele>
        <time>2018-11-11T09:53:31Z</time>
      </trkpt>
      <trkpt lat="45.96008" lon="4.77607">
        <ele>199</ele>
        <time>2018-11-11T09:53:32Z</time>
      </trkpt>
      <trkpt lat="45.96013" lon="4.77611">
        <ele>199</ele>
        <time>2018-11-11T09:53:33Z</time>
      </trkpt>
      <trkpt lat="45.96016" lon="4.77615">
        <ele>199</ele>
        <time>2018-11-11T09:53:34Z</time>
      </trkpt>
      <trkpt lat="45.9602" lon="4.77619">
        <ele>199</ele>
        <time>2018-11-11T09:53:35Z</time>
      </trkpt>
      <trkpt lat="45.96023" lon="4.77624">
        <ele>199</ele>
        <time>2018-11-11T09:53:36Z</time>
      </trkpt>
      <trkpt lat="45.96027" lon="4.77628">
        <ele>199</ele>
        <time>2018-11-11T09:53:37Z</time>
      </trkpt>
      <trkpt lat="45.9603" lon="4.77632">
        <ele>199</ele>
        <time>2018-11-11T09:53:38Z</time>
      </trkpt>
      <trkpt lat="45.96036" lon="4.77641">
        <ele>199</ele>
        <time>2018-11-11T09:53:40Z</time>
      </trkpt>
      <trkpt lat="45.96039" lon="4.77644">
        <ele>199</ele>
        <time>2018-11-11T09:53:41Z</time>
      </trkpt>
      <trkpt lat="45.96045" lon="4.77652">
        <ele>199</ele>
        <time>2018-11-11T09:53:43Z</time>
      </trkpt>
      <trkpt lat="45.96048" lon="4.77656">
        <ele>199</ele>
        <time>2018-11-11T09:53:44Z</time>
      </trkpt>
      <trkpt lat="45.96052" lon="4.77661">
        <ele>200</ele>
        <time>2018-11-11T09:53:45Z</time>
      </trkpt>
      <trkpt lat="45.96055" lon="4.77665">
        <ele>200</ele>
        <time>2018-11-11T09:53:46Z</time>
      </trkpt>
      <trkpt lat="45.96058" lon="4.77671">
        <ele>198</ele>
        <time>2018-11-11T09:53:47Z</time>
      </trkpt>
      <trkpt lat="45.96062" lon="4.77676">
        <ele>198</ele>
        <time>2018-11-11T09:53:48Z</time>
      </trkpt>
      <trkpt lat="45.96069" lon="4.77683">
        <ele>198</ele>
        <time>2018-11-11T09:53:50Z</time>
      </trkpt>
      <trkpt lat="45.96072" lon="4.77687">
        <ele>198</ele>
        <time>2018-11-11T09:53:51Z</time>
      </trkpt>
      <trkpt lat="45.96075" lon="4.7769">
        <ele>198</ele>
        <time>2018-11-11T09:53:52Z</time>
      </trkpt>
      <trkpt lat="45.96079" lon="4.77696">
        <ele>197</ele>
        <time>2018-11-11T09:53:53Z</time>
      </trkpt>
      <trkpt lat="45.96084" lon="4.77705">
        <ele>200</ele>
        <time>2018-11-11T09:53:55Z</time>
      </trkpt>
      <trkpt lat="45.96088" lon="4.7771">
        <ele>200</ele>
        <time>2018-11-11T09:53:56Z</time>
      </trkpt>
      <trkpt lat="45.96091" lon="4.77715">
        <ele>199</ele>
        <time>2018-11-11T09:53:57Z</time>
      </trkpt>
      <trkpt lat="45.96094" lon="4.7772">
        <ele>199</ele>
        <time>2018-11-11T09:53:58Z</time>
      </trkpt>
      <trkpt lat="45.96098" lon="4.77728">
        <ele>199</ele>
        <time>2018-11-11T09:54:00Z</time>
      </trkpt>
      <trkpt lat="45.96101" lon="4.77733">
        <ele>199</ele>
        <time>2018-11-11T09:54:01Z</time>
      </trkpt>
      <trkpt lat="45.96106" lon="4.77742">
        <ele>199</ele>
        <time>2018-11-11T09:54:03Z</time>
      </trkpt>
      <trkpt lat="45.96109" lon="4.77746">
        <ele>199</ele>
        <time>2018-11-11T09:54:04Z</time>
      </trkpt>
      <trkpt lat="45.96114" lon="4.77754">
        <ele>197</ele>
        <time>2018-11-11T09:54:06Z</time>
      </trkpt>
      <trkpt lat="45.96116" lon="4.77759">
        <ele>197</ele>
        <time>2018-11-11T09:54:07Z</time>
      </trkpt>
      <trkpt lat="45.96121" lon="4.77767">
        <ele>197</ele>
        <time>2018-11-11T09:54:09Z</time>
      </trkpt>
      <trkpt lat="45.96124" lon="4.77772">
        <ele>197</ele>
        <time>2018-11-11T09:54:10Z</time>
      </trkpt>
      <trkpt lat="45.96129" lon="4.77781">
        <ele>198</ele>
        <time>2018-11-11T09:54:12Z</time>
      </trkpt>
      <trkpt lat="45.96132" lon="4.77786">
        <ele>198</ele>
        <time>2018-11-11T09:54:13Z</time>
      </trkpt>
      <trkpt lat="45.96135" lon="4.7779">
        <ele>198</ele>
        <time>2018-11-11T09:54:14Z</time>
      </trkpt>
      <trkpt lat="45.96137" lon="4.77796">
        <ele>198</ele>
        <time>2018-11-11T09:54:15Z</time>
      </trkpt>
      <trkpt lat="45.9614" lon="4.77802">
        <ele>198</ele>
        <time>2018-11-11T09:54:16Z</time>
      </trkpt>
      <trkpt lat="45.96143" lon="4.77807">
        <ele>198</ele>
        <time>2018-11-11T09:54:17Z</time>
      </trkpt>
      <trkpt lat="45.96147" lon="4.77818">
        <ele>198</ele>
        <time>2018-11-11T09:54:19Z</time>
      </trkpt>
      <trkpt lat="45.96149" lon="4.77824">
        <ele>198</ele>
        <time>2018-11-11T09:54:20Z</time>
      </trkpt>
      <trkpt lat="45.96155" lon="4.77833">
        <ele>198</ele>
        <time>2018-11-11T09:54:22Z</time>
      </trkpt>
      <trkpt lat="45.96158" lon="4.77838">
        <ele>197</ele>
        <time>2018-11-11T09:54:23Z</time>
      </trkpt>
      <trkpt lat="45.96161" lon="4.77843">
        <ele>197</ele>
        <time>2018-11-11T09:54:24Z</time>
      </trkpt>
      <trkpt lat="45.96164" lon="4.77848">
        <ele>197</ele>
        <time>2018-11-11T09:54:25Z</time>
      </trkpt>
      <trkpt lat="45.96167" lon="4.77852">
        <ele>201</ele>
        <time>2018-11-11T09:54:26Z</time>
      </trkpt>
      <trkpt lat="45.96171" lon="4.77857">
        <ele>201</ele>
        <time>2018-11-11T09:54:27Z</time>
      </trkpt>
      <trkpt lat="45.96174" lon="4.77862">
        <ele>201</ele>
        <time>2018-11-11T09:54:28Z</time>
      </trkpt>
      <trkpt lat="45.96177" lon="4.77867">
        <ele>201</ele>
        <time>2018-11-11T09:54:29Z</time>
      </trkpt>
      <trkpt lat="45.9618" lon="4.77871">
        <ele>201</ele>
        <time>2018-11-11T09:54:30Z</time>
      </trkpt>
      <trkpt lat="45.96183" lon="4.77877">
        <ele>201</ele>
        <time>2018-11-11T09:54:31Z</time>
      </trkpt>
      <trkpt lat="45.96187" lon="4.77883">
        <ele>201</ele>
        <time>2018-11-11T09:54:32Z</time>
      </trkpt>
      <trkpt lat="45.9619" lon="4.77888">
        <ele>201</ele>
        <time>2018-11-11T09:54:33Z</time>
      </trkpt>
      <trkpt lat="45.96193" lon="4.77894">
        <ele>201</ele>
        <time>2018-11-11T09:54:34Z</time>
      </trkpt>
      <trkpt lat="45.96196" lon="4.77899">
        <ele>201</ele>
        <time>2018-11-11T09:54:35Z</time>
      </trkpt>
      <trkpt lat="45.96199" lon="4.77905">
        <ele>201</ele>
        <time>2018-11-11T09:54:36Z</time>
      </trkpt>
      <trkpt lat="45.96203" lon="4.7791">
        <ele>202</ele>
        <time>2018-11-11T09:54:37Z</time>
      </trkpt>
      <trkpt lat="45.96206" lon="4.77915">
        <ele>202</ele>
        <time>2018-11-11T09:54:38Z</time>
      </trkpt>
      <trkpt lat="45.9621" lon="4.7792">
        <ele>199</ele>
        <time>2018-11-11T09:54:39Z</time>
      </trkpt>
      <trkpt lat="45.96213" lon="4.77925">
        <ele>199</ele>
        <time>2018-11-11T09:54:40Z</time>
      </trkpt>
      <trkpt lat="45.96216" lon="4.7793">
        <ele>200</ele>
        <time>2018-11-11T09:54:41Z</time>
      </trkpt>
      <trkpt lat="45.96219" lon="4.77935">
        <ele>200</ele>
        <time>2018-11-11T09:54:42Z</time>
      </trkpt>
      <trkpt lat="45.96222" lon="4.7794">
        <ele>200</ele>
        <time>2018-11-11T09:54:43Z</time>
      </trkpt>
      <trkpt lat="45.96225" lon="4.77945">
        <ele>200</ele>
        <time>2018-11-11T09:54:44Z</time>
      </trkpt>
      <trkpt lat="45.96229" lon="4.7795">
        <ele>199</ele>
        <time>2018-11-11T09:54:45Z</time>
      </trkpt>
      <trkpt lat="45.96233" lon="4.77955">
        <ele>199</ele>
        <time>2018-11-11T09:54:46Z</time>
      </trkpt>
      <trkpt lat="45.96238" lon="4.7796">
        <ele>199</ele>
        <time>2018-11-11T09:54:47Z</time>
      </trkpt>
      <trkpt lat="45.96244" lon="4.77966">
        <ele>199</ele>
        <time>2018-11-11T09:54:48Z</time>
      </trkpt>
      <trkpt lat="45.96249" lon="4.77971">
        <ele>198</ele>
        <time>2018-11-11T09:54:49Z</time>
      </trkpt>
      <trkpt lat="45.96254" lon="4.77975">
        <ele>203</ele>
        <time>2018-11-11T09:54:50Z</time>
      </trkpt>
      <trkpt lat="45.9626" lon="4.77979">
        <ele>202</ele>
        <time>2018-11-11T09:54:51Z</time>
      </trkpt>
      <trkpt lat="45.96265" lon="4.77984">
        <ele>202</ele>
        <time>2018-11-11T09:54:52Z</time>
      </trkpt>
      <trkpt lat="45.96269" lon="4.77988">
        <ele>202</ele>
        <time>2018-11-11T09:54:53Z</time>
      </trkpt>
      <trkpt lat="45.96274" lon="4.77992">
        <ele>202</ele>
        <time>2018-11-11T09:54:54Z</time>
      </trkpt>
      <trkpt lat="45.96279" lon="4.77997">
        <ele>203</ele>
        <time>2018-11-11T09:54:55Z</time>
      </trkpt>
      <trkpt lat="45.96284" lon="4.78001">
        <ele>199</ele>
        <time>2018-11-11T09:54:56Z</time>
      </trkpt>
      <trkpt lat="45.96289" lon="4.78004">
        <ele>199</ele>
        <time>2018-11-11T09:54:57Z</time>
      </trkpt>
      <trkpt lat="45.96295" lon="4.7801">
        <ele>199</ele>
        <time>2018-11-11T09:54:58Z</time>
      </trkpt>
      <trkpt lat="45.96299" lon="4.78015">
        <ele>199</ele>
        <time>2018-11-11T09:54:59Z</time>
      </trkpt>
      <trkpt lat="45.96304" lon="4.7802">
        <ele>200</ele>
        <time>2018-11-11T09:55:00Z</time>
      </trkpt>
      <trkpt lat="45.96308" lon="4.78025">
        <ele>200</ele>
        <time>2018-11-11T09:55:01Z</time>
      </trkpt>
      <trkpt lat="45.96312" lon="4.78029">
        <ele>200</ele>
        <time>2018-11-11T09:55:02Z</time>
      </trkpt>
      <trkpt lat="45.96317" lon="4.78034">
        <ele>200</ele>
        <time>2018-11-11T09:55:03Z</time>
      </trkpt>
      <trkpt lat="45.96323" lon="4.78042">
        <ele>199</ele>
        <time>2018-11-11T09:55:05Z</time>
      </trkpt>
      <trkpt lat="45.96327" lon="4.78045">
        <ele>199</ele>
        <time>2018-11-11T09:55:06Z</time>
      </trkpt>
      <trkpt lat="45.96331" lon="4.78049">
        <ele>199</ele>
        <time>2018-11-11T09:55:07Z</time>
      </trkpt>
      <trkpt lat="45.96335" lon="4.78052">
        <ele>202</ele>
        <time>2018-11-11T09:55:08Z</time>
      </trkpt>
      <trkpt lat="45.96339" lon="4.78057">
        <ele>202</ele>
        <time>2018-11-11T09:55:09Z</time>
      </trkpt>
      <trkpt lat="45.96342" lon="4.78062">
        <ele>202</ele>
        <time>2018-11-11T09:55:10Z</time>
      </trkpt>
      <trkpt lat="45.96346" lon="4.78067">
        <ele>201</ele>
        <time>2018-11-11T09:55:11Z</time>
      </trkpt>
      <trkpt lat="45.96349" lon="4.78072">
        <ele>201</ele>
        <time>2018-11-11T09:55:12Z</time>
      </trkpt>
      <trkpt lat="45.96355" lon="4.78077">
        <ele>202</ele>
        <time>2018-11-11T09:55:13Z</time>
      </trkpt>
      <trkpt lat="45.96359" lon="4.78082">
        <ele>202</ele>
        <time>2018-11-11T09:55:14Z</time>
      </trkpt>
      <trkpt lat="45.96363" lon="4.78086">
        <ele>199</ele>
        <time>2018-11-11T09:55:15Z</time>
      </trkpt>
      <trkpt lat="45.96367" lon="4.7809">
        <ele>199</ele>
        <time>2018-11-11T09:55:16Z</time>
      </trkpt>
      <trkpt lat="45.96371" lon="4.78094">
        <ele>199</ele>
        <time>2018-11-11T09:55:17Z</time>
      </trkpt>
      <trkpt lat="45.96376" lon="4.78099">
        <ele>200</ele>
        <time>2018-11-11T09:55:18Z</time>
      </trkpt>
      <trkpt lat="45.9638" lon="4.78105">
        <ele>200</ele>
        <time>2018-11-11T09:55:19Z</time>
      </trkpt>
      <trkpt lat="45.96385" lon="4.78109">
        <ele>200</ele>
        <time>2018-11-11T09:55:20Z</time>
      </trkpt>
      <trkpt lat="45.96389" lon="4.78114">
        <ele>200</ele>
        <time>2018-11-11T09:55:21Z</time>
      </trkpt>
      <trkpt lat="45.96394" lon="4.78118">
        <ele>200</ele>
        <time>2018-11-11T09:55:22Z</time>
      </trkpt>
      <trkpt lat="45.96398" lon="4.78122">
        <ele>200</ele>
        <time>2018-11-11T09:55:23Z</time>
      </trkpt>
      <trkpt lat="45.96403" lon="4.78126">
        <ele>200</ele>
        <time>2018-11-11T09:55:24Z</time>
      </trkpt>
      <trkpt lat="45.96408" lon="4.7813">
        <ele>199</ele>
        <time>2018-11-11T09:55:25Z</time>
      </trkpt>
      <trkpt lat="45.96412" lon="4.78133">
        <ele>199</ele>
        <time>2018-11-11T09:55:26Z</time>
      </trkpt>
      <trkpt lat="45.96417" lon="4.78137">
        <ele>203</ele>
        <time>2018-11-11T09:55:27Z</time>
      </trkpt>
      <trkpt lat="45.96422" lon="4.78141">
        <ele>203</ele>
        <time>2018-11-11T09:55:28Z</time>
      </trkpt>
      <trkpt lat="45.96426" lon="4.78146">
        <ele>202</ele>
        <time>2018-11-11T09:55:29Z</time>
      </trkpt>
      <trkpt lat="45.9643" lon="4.78151">
        <ele>202</ele>
        <time>2018-11-11T09:55:30Z</time>
      </trkpt>
      <trkpt lat="45.96434" lon="4.78155">
        <ele>202</ele>
        <time>2018-11-11T09:55:31Z</time>
      </trkpt>
      <trkpt lat="45.96438" lon="4.78159">
        <ele>202</ele>
        <time>2018-11-11T09:55:32Z</time>
      </trkpt>
      <trkpt lat="45.96442" lon="4.78163">
        <ele>203</ele>
        <time>2018-11-11T09:55:33Z</time>
      </trkpt>
      <trkpt lat="45.96445" lon="4.78166">
        <ele>203</ele>
        <time>2018-11-11T09:55:34Z</time>
      </trkpt>
      <trkpt lat="45.9645" lon="4.7817">
        <ele>199</ele>
        <time>2018-11-11T09:55:35Z</time>
      </trkpt>
      <trkpt lat="45.96454" lon="4.78174">
        <ele>200</ele>
        <time>2018-11-11T09:55:36Z</time>
      </trkpt>
      <trkpt lat="45.96459" lon="4.78178">
        <ele>200</ele>
        <time>2018-11-11T09:55:37Z</time>
      </trkpt>
      <trkpt lat="45.96463" lon="4.78181">
        <ele>200</ele>
        <time>2018-11-11T09:55:38Z</time>
      </trkpt>
      <trkpt lat="45.96468" lon="4.78184">
        <ele>200</ele>
        <time>2018-11-11T09:55:39Z</time>
      </trkpt>
      <trkpt lat="45.96473" lon="4.78187">
        <ele>200</ele>
        <time>2018-11-11T09:55:40Z</time>
      </trkpt>
      <trkpt lat="45.96478" lon="4.7819">
        <ele>200</ele>
        <time>2018-11-11T09:55:41Z</time>
      </trkpt>
      <trkpt lat="45.96483" lon="4.78191">
        <ele>201</ele>
        <time>2018-11-11T09:55:42Z</time>
      </trkpt>
      <trkpt lat="45.96488" lon="4.78195">
        <ele>201</ele>
        <time>2018-11-11T09:55:43Z</time>
      </trkpt>
      <trkpt lat="45.96493" lon="4.78198">
        <ele>201</ele>
        <time>2018-11-11T09:55:44Z</time>
      </trkpt>
      <trkpt lat="45.96497" lon="4.78203">
        <ele>200</ele>
        <time>2018-11-11T09:55:45Z</time>
      </trkpt>
      <trkpt lat="45.96501" lon="4.78208">
        <ele>205</ele>
        <time>2018-11-11T09:55:46Z</time>
      </trkpt>
      <trkpt lat="45.96505" lon="4.78213">
        <ele>205</ele>
        <time>2018-11-11T09:55:47Z</time>
      </trkpt>
      <trkpt lat="45.96508" lon="4.78217">
        <ele>204</ele>
        <time>2018-11-11T09:55:48Z</time>
      </trkpt>
      <trkpt lat="45.96511" lon="4.78223">
        <ele>204</ele>
        <time>2018-11-11T09:55:49Z</time>
      </trkpt>
      <trkpt lat="45.96515" lon="4.78228">
        <ele>204</ele>
        <time>2018-11-11T09:55:50Z</time>
      </trkpt>
      <trkpt lat="45.96521" lon="4.78238">
        <ele>203</ele>
        <time>2018-11-11T09:55:52Z</time>
      </trkpt>
      <trkpt lat="45.96524" lon="4.78243">
        <ele>203</ele>
        <time>2018-11-11T09:55:53Z</time>
      </trkpt>
      <trkpt lat="45.96527" lon="4.78249">
        <ele>204</ele>
        <time>2018-11-11T09:55:54Z</time>
      </trkpt>
      <trkpt lat="45.9653" lon="4.78255">
        <ele>200</ele>
        <time>2018-11-11T09:55:55Z</time>
      </trkpt>
      <trkpt lat="45.96533" lon="4.7826">
        <ele>200</ele>
        <time>2018-11-11T09:55:56Z</time>
      </trkpt>
      <trkpt lat="45.96536" lon="4.78265">
        <ele>200</ele>
        <time>2018-11-11T09:55:57Z</time>
      </trkpt>
      <trkpt lat="45.9654" lon="4.7827">
        <ele>200</ele>
        <time>2018-11-11T09:55:58Z</time>
      </trkpt>
      <trkpt lat="45.96543" lon="4.78275">
        <ele>200</ele>
        <time>2018-11-11T09:55:59Z</time>
      </trkpt>
      <trkpt lat="45.96546" lon="4.78279">
        <ele>200</ele>
        <time>2018-11-11T09:56:00Z</time>
      </trkpt>
      <trkpt lat="45.96551" lon="4.78284">
        <ele>200</ele>
        <time>2018-11-11T09:56:01Z</time>
      </trkpt>
      <trkpt lat="45.96555" lon="4.78289">
        <ele>200</ele>
        <time>2018-11-11T09:56:02Z</time>
      </trkpt>
      <trkpt lat="45.96559" lon="4.78293">
        <ele>200</ele>
        <time>2018-11-11T09:56:03Z</time>
      </trkpt>
      <trkpt lat="45.96564" lon="4.78299">
        <ele>200</ele>
        <time>2018-11-11T09:56:04Z</time>
      </trkpt>
      <trkpt lat="45.96568" lon="4.78303">
        <ele>200</ele>
        <time>2018-11-11T09:56:05Z</time>
      </trkpt>
      <trkpt lat="45.96571" lon="4.78307">
        <ele>200</ele>
        <time>2018-11-11T09:56:06Z</time>
      </trkpt>
      <trkpt lat="45.96575" lon="4.7831">
        <ele>199</ele>
        <time>2018-11-11T09:56:07Z</time>
      </trkpt>
      <trkpt lat="45.96579" lon="4.78313">
        <ele>199</ele>
        <time>2018-11-11T09:56:08Z</time>
      </trkpt>
      <trkpt lat="45.96583" lon="4.78317">
        <ele>199</ele>
        <time>2018-11-11T09:56:09Z</time>
      </trkpt>
      <trkpt lat="45.96587" lon="4.7832">
        <ele>202</ele>
        <time>2018-11-11T09:56:10Z</time>
      </trkpt>
      <trkpt lat="45.96591" lon="4.78324">
        <ele>201</ele>
        <time>2018-11-11T09:56:11Z</time>
      </trkpt>
      <trkpt lat="45.96595" lon="4.78328">
        <ele>201</ele>
        <time>2018-11-11T09:56:12Z</time>
      </trkpt>
      <trkpt lat="45.96599" lon="4.78333">
        <ele>202</ele>
        <time>2018-11-11T09:56:13Z</time>
      </trkpt>
      <trkpt lat="45.96603" lon="4.78337">
        <ele>200</ele>
        <time>2018-11-11T09:56:14Z</time>
      </trkpt>
      <trkpt lat="45.96608" lon="4.7834">
        <ele>200</ele>
        <time>2018-11-11T09:56:15Z</time>
      </trkpt>
      <trkpt lat="45.96613" lon="4.78344">
        <ele>200</ele>
        <time>2018-11-11T09:56:16Z</time>
      </trkpt>
      <trkpt lat="45.96617" lon="4.78347">
        <ele>201</ele>
        <time>2018-11-11T09:56:17Z</time>
      </trkpt>
      <trkpt lat="45.96621" lon="4.78351">
        <ele>201</ele>
        <time>2018-11-11T09:56:18Z</time>
      </trkpt>
      <trkpt lat="45.96625" lon="4.78354">
        <ele>201</ele>
        <time>2018-11-11T09:56:19Z</time>
      </trkpt>
      <trkpt lat="45.9663" lon="4.78359">
        <ele>201</ele>
        <time>2018-11-11T09:56:20Z</time>
      </trkpt>
      <trkpt lat="45.96634" lon="4.78363">
        <ele>201</ele>
        <time>2018-11-11T09:56:21Z</time>
      </trkpt>
      <trkpt lat="45.96638" lon="4.78368">
        <ele>201</ele>
        <time>2018-11-11T09:56:22Z</time>
      </trkpt>
      <trkpt lat="45.96643" lon="4.78373">
        <ele>201</ele>
        <time>2018-11-11T09:56:23Z</time>
      </trkpt>
      <trkpt lat="45.96648" lon="4.78377">
        <ele>201</ele>
        <time>2018-11-11T09:56:24Z</time>
      </trkpt>
      <trkpt lat="45.96653" lon="4.78381">
        <ele>201</ele>
        <time>2018-11-11T09:56:25Z</time>
      </trkpt>
      <trkpt lat="45.96657" lon="4.78386">
        <ele>201</ele>
        <time>2018-11-11T09:56:26Z</time>
      </trkpt>
      <trkpt lat="45.96662" lon="4.7839">
        <ele>201</ele>
        <time>2018-11-11T09:56:27Z</time>
      </trkpt>
      <trkpt lat="45.96666" lon="4.78394">
        <ele>201</ele>
        <time>2018-11-11T09:56:28Z</time>
      </trkpt>
      <trkpt lat="45.96669" lon="4.78399">
        <ele>204</ele>
        <time>2018-11-11T09:56:29Z</time>
      </trkpt>
      <trkpt lat="45.96673" lon="4.78404">
        <ele>203</ele>
        <time>2018-11-11T09:56:30Z</time>
      </trkpt>
      <trkpt lat="45.96677" lon="4.78408">
        <ele>203</ele>
        <time>2018-11-11T09:56:31Z</time>
      </trkpt>
      <trkpt lat="45.96684" lon="4.78415">
        <ele>204</ele>
        <time>2018-11-11T09:56:33Z</time>
      </trkpt>
      <trkpt lat="45.96687" lon="4.78419">
        <ele>202</ele>
        <time>2018-11-11T09:56:34Z</time>
      </trkpt>
      <trkpt lat="45.96692" lon="4.78423">
        <ele>202</ele>
        <time>2018-11-11T09:56:35Z</time>
      </trkpt>
      <trkpt lat="45.96695" lon="4.78426">
        <ele>202</ele>
        <time>2018-11-11T09:56:36Z</time>
      </trkpt>
      <trkpt lat="45.96702" lon="4.78435">
        <ele>203</ele>
        <time>2018-11-11T09:56:38Z</time>
      </trkpt>
      <trkpt lat="45.96705" lon="4.78439">
        <ele>203</ele>
        <time>2018-11-11T09:56:39Z</time>
      </trkpt>
      <trkpt lat="45.9671" lon="4.78443">
        <ele>203</ele>
        <time>2018-11-11T09:56:40Z</time>
      </trkpt>
      <trkpt lat="45.96714" lon="4.78447">
        <ele>203</ele>
        <time>2018-11-11T09:56:41Z</time>
      </trkpt>
      <trkpt lat="45.96719" lon="4.78451">
        <ele>203</ele>
        <time>2018-11-11T09:56:42Z</time>
      </trkpt>
      <trkpt lat="45.96723" lon="4.78454">
        <ele>203</ele>
        <time>2018-11-11T09:56:43Z</time>
      </trkpt>
      <trkpt lat="45.96728" lon="4.78459">
        <ele>203</ele>
        <time>2018-11-11T09:56:44Z</time>
      </trkpt>
      <trkpt lat="45.96733" lon="4.78462">
        <ele>203</ele>
        <time>2018-11-11T09:56:45Z</time>
      </trkpt>
      <trkpt lat="45.96738" lon="4.78467">
        <ele>203</ele>
        <time>2018-11-11T09:56:46Z</time>
      </trkpt>
      <trkpt lat="45.96743" lon="4.78471">
        <ele>203</ele>
        <time>2018-11-11T09:56:47Z</time>
      </trkpt>
      <trkpt lat="45.96748" lon="4.78476">
        <ele>203</ele>
        <time>2018-11-11T09:56:48Z</time>
      </trkpt>
      <trkpt lat="45.96753" lon="4.7848">
        <ele>205</ele>
        <time>2018-11-11T09:56:49Z</time>
      </trkpt>
      <trkpt lat="45.96757" lon="4.78485">
        <ele>205</ele>
        <time>2018-11-11T09:56:50Z</time>
      </trkpt>
      <trkpt lat="45.96761" lon="4.7849">
        <ele>204</ele>
        <time>2018-11-11T09:56:51Z</time>
      </trkpt>
      <trkpt lat="45.96765" lon="4.78495">
        <ele>205</ele>
        <time>2018-11-11T09:56:52Z</time>
      </trkpt>
      <trkpt lat="45.96768" lon="4.78501">
        <ele>203</ele>
        <time>2018-11-11T09:56:53Z</time>
      </trkpt>
      <trkpt lat="45.96772" lon="4.78507">
        <ele>203</ele>
        <time>2018-11-11T09:56:54Z</time>
      </trkpt>
      <trkpt lat="45.96775" lon="4.78511">
        <ele>203</ele>
        <time>2018-11-11T09:56:55Z</time>
      </trkpt>
      <trkpt lat="45.96779" lon="4.78516">
        <ele>203</ele>
        <time>2018-11-11T09:56:56Z</time>
      </trkpt>
      <trkpt lat="45.96782" lon="4.78521">
        <ele>203</ele>
        <time>2018-11-11T09:56:57Z</time>
      </trkpt>
      <trkpt lat="45.96785" lon="4.78526">
        <ele>203</ele>
        <time>2018-11-11T09:56:58Z</time>
      </trkpt>
      <trkpt lat="45.96788" lon="4.78531">
        <ele>203</ele>
        <time>2018-11-11T09:56:59Z</time>
      </trkpt>
      <trkpt lat="45.96792" lon="4.78534">
        <ele>203</ele>
        <time>2018-11-11T09:57:00Z</time>
      </trkpt>
      <trkpt lat="45.96795" lon="4.78539">
        <ele>203</ele>
        <time>2018-11-11T09:57:01Z</time>
      </trkpt>
      <trkpt lat="45.96799" lon="4.78544">
        <ele>203</ele>
        <time>2018-11-11T09:57:02Z</time>
      </trkpt>
      <trkpt lat="45.96802" lon="4.7855">
        <ele>203</ele>
        <time>2018-11-11T09:57:03Z</time>
      </trkpt>
      <trkpt lat="45.96805" lon="4.78556">
        <ele>203</ele>
        <time>2018-11-11T09:57:04Z</time>
      </trkpt>
      <trkpt lat="45.96808" lon="4.7856">
        <ele>203</ele>
        <time>2018-11-11T09:57:05Z</time>
      </trkpt>
      <trkpt lat="45.96811" lon="4.78566">
        <ele>203</ele>
        <time>2018-11-11T09:57:06Z</time>
      </trkpt>
      <trkpt lat="45.96813" lon="4.78571">
        <ele>203</ele>
        <time>2018-11-11T09:57:07Z</time>
      </trkpt>
      <trkpt lat="45.9682" lon="4.7858">
        <ele>203</ele>
        <time>2018-11-11T09:57:09Z</time>
      </trkpt>
      <trkpt lat="45.96822" lon="4.78585">
        <ele>202</ele>
        <time>2018-11-11T09:57:10Z</time>
      </trkpt>
      <trkpt lat="45.96824" lon="4.78591">
        <ele>202</ele>
        <time>2018-11-11T09:57:11Z</time>
      </trkpt>
      <trkpt lat="45.96826" lon="4.78597">
        <ele>202</ele>
        <time>2018-11-11T09:57:12Z</time>
      </trkpt>
      <trkpt lat="45.96827" lon="4.78603">
        <ele>202</ele>
        <time>2018-11-11T09:57:13Z</time>
      </trkpt>
      <trkpt lat="45.9683" lon="4.78609">
        <ele>202</ele>
        <time>2018-11-11T09:57:14Z</time>
      </trkpt>
      <trkpt lat="45.96832" lon="4.78615">
        <ele>202</ele>
        <time>2018-11-11T09:57:15Z</time>
      </trkpt>
      <trkpt lat="45.96834" lon="4.78621">
        <ele>203</ele>
        <time>2018-11-11T09:57:16Z</time>
      </trkpt>
      <trkpt lat="45.96838" lon="4.78632">
        <ele>203</ele>
        <time>2018-11-11T09:57:18Z</time>
      </trkpt>
      <trkpt lat="45.9684" lon="4.78638">
        <ele>203</ele>
        <time>2018-11-11T09:57:19Z</time>
      </trkpt>
      <trkpt lat="45.96844" lon="4.78647">
        <ele>203</ele>
        <time>2018-11-11T09:57:21Z</time>
      </trkpt>
      <trkpt lat="45.96847" lon="4.78651">
        <ele>203</ele>
        <time>2018-11-11T09:57:22Z</time>
      </trkpt>
      <trkpt lat="45.96852" lon="4.78661">
        <ele>203</ele>
        <time>2018-11-11T09:57:24Z</time>
      </trkpt>
      <trkpt lat="45.96854" lon="4.78667">
        <ele>202</ele>
        <time>2018-11-11T09:57:25Z</time>
      </trkpt>
      <trkpt lat="45.96862" lon="4.78671">
        <ele>202</ele>
        <time>2018-11-11T09:57:26Z</time>
      </trkpt>
      <trkpt lat="45.96864" lon="4.78676">
        <ele>202</ele>
        <time>2018-11-11T09:57:27Z</time>
      </trkpt>
      <trkpt lat="45.96866" lon="4.78682">
        <ele>202</ele>
        <time>2018-11-11T09:57:28Z</time>
      </trkpt>
      <trkpt lat="45.96868" lon="4.78688">
        <ele>202</ele>
        <time>2018-11-11T09:57:29Z</time>
      </trkpt>
      <trkpt lat="45.9687" lon="4.78695">
        <ele>202</ele>
        <time>2018-11-11T09:57:30Z</time>
      </trkpt>
      <trkpt lat="45.96873" lon="4.78701">
        <ele>202</ele>
        <time>2018-11-11T09:57:31Z</time>
      </trkpt>
      <trkpt lat="45.96876" lon="4.78711">
        <ele>202</ele>
        <time>2018-11-11T09:57:33Z</time>
      </trkpt>
      <trkpt lat="45.96879" lon="4.78717">
        <ele>202</ele>
        <time>2018-11-11T09:57:34Z</time>
      </trkpt>
      <trkpt lat="45.96883" lon="4.78728">
        <ele>202</ele>
        <time>2018-11-11T09:57:36Z</time>
      </trkpt>
      <trkpt lat="45.96885" lon="4.78733">
        <ele>202</ele>
        <time>2018-11-11T09:57:37Z</time>
      </trkpt>
      <trkpt lat="45.96889" lon="4.78741">
        <ele>202</ele>
        <time>2018-11-11T09:57:38Z</time>
      </trkpt>
      <trkpt lat="45.96891" lon="4.78746">
        <ele>202</ele>
        <time>2018-11-11T09:57:39Z</time>
      </trkpt>
      <trkpt lat="45.96893" lon="4.78752">
        <ele>201</ele>
        <time>2018-11-11T09:57:40Z</time>
      </trkpt>
      <trkpt lat="45.96895" lon="4.78758">
        <ele>201</ele>
        <time>2018-11-11T09:57:41Z</time>
      </trkpt>
      <trkpt lat="45.96901" lon="4.78768">
        <ele>201</ele>
        <time>2018-11-11T09:57:43Z</time>
      </trkpt>
      <trkpt lat="45.96903" lon="4.78774">
        <ele>201</ele>
        <time>2018-11-11T09:57:44Z</time>
      </trkpt>
      <trkpt lat="45.96908" lon="4.78784">
        <ele>201</ele>
        <time>2018-11-11T09:57:46Z</time>
      </trkpt>
      <trkpt lat="45.96911" lon="4.78789">
        <ele>201</ele>
        <time>2018-11-11T09:57:47Z</time>
      </trkpt>
      <trkpt lat="45.96914" lon="4.78795">
        <ele>201</ele>
        <time>2018-11-11T09:57:48Z</time>
      </trkpt>
      <trkpt lat="45.96917" lon="4.78799">
        <ele>203</ele>
        <time>2018-11-11T09:57:49Z</time>
      </trkpt>
      <trkpt lat="45.9692" lon="4.78805">
        <ele>203</ele>
        <time>2018-11-11T09:57:50Z</time>
      </trkpt>
      <trkpt lat="45.96924" lon="4.7881">
        <ele>202</ele>
        <time>2018-11-11T09:57:51Z</time>
      </trkpt>
      <trkpt lat="45.96927" lon="4.78814">
        <ele>202</ele>
        <time>2018-11-11T09:57:52Z</time>
      </trkpt>
      <trkpt lat="45.9693" lon="4.78819">
        <ele>202</ele>
        <time>2018-11-11T09:57:53Z</time>
      </trkpt>
      <trkpt lat="45.96936" lon="4.78826">
        <ele>202</ele>
        <time>2018-11-11T09:57:55Z</time>
      </trkpt>
      <trkpt lat="45.9694" lon="4.78831">
        <ele>203</ele>
        <time>2018-11-11T09:57:56Z</time>
      </trkpt>
      <trkpt lat="45.96943" lon="4.78835">
        <ele>202</ele>
        <time>2018-11-11T09:57:57Z</time>
      </trkpt>
      <trkpt lat="45.96947" lon="4.78839">
        <ele>202</ele>
        <time>2018-11-11T09:57:58Z</time>
      </trkpt>
      <trkpt lat="45.9695" lon="4.78844">
        <ele>202</ele>
        <time>2018-11-11T09:57:59Z</time>
      </trkpt>
      <trkpt lat="45.96954" lon="4.78849">
        <ele>203</ele>
        <time>2018-11-11T09:58:00Z</time>
      </trkpt>
      <trkpt lat="45.96961" lon="4.78856">
        <ele>203</ele>
        <time>2018-11-11T09:58:02Z</time>
      </trkpt>
      <trkpt lat="45.96964" lon="4.78859">
        <ele>203</ele>
        <time>2018-11-11T09:58:03Z</time>
      </trkpt>
      <trkpt lat="45.96971" lon="4.78867">
        <ele>203</ele>
        <time>2018-11-11T09:58:05Z</time>
      </trkpt>
      <trkpt lat="45.96974" lon="4.78871">
        <ele>203</ele>
        <time>2018-11-11T09:58:06Z</time>
      </trkpt>
      <trkpt lat="45.9698" lon="4.78879">
        <ele>203</ele>
        <time>2018-11-11T09:58:08Z</time>
      </trkpt>
      <trkpt lat="45.96983" lon="4.78882">
        <ele>203</ele>
        <time>2018-11-11T09:58:09Z</time>
      </trkpt>
      <trkpt lat="45.96989" lon="4.78889">
        <ele>203</ele>
        <time>2018-11-11T09:58:11Z</time>
      </trkpt>
      <trkpt lat="45.96993" lon="4.78893">
        <ele>203</ele>
        <time>2018-11-11T09:58:12Z</time>
      </trkpt>
      <trkpt lat="45.96999" lon="4.78901">
        <ele>204</ele>
        <time>2018-11-11T09:58:14Z</time>
      </trkpt>
      <trkpt lat="45.97002" lon="4.78907">
        <ele>205</ele>
        <time>2018-11-11T09:58:15Z</time>
      </trkpt>
      <trkpt lat="45.97005" lon="4.78911">
        <ele>205</ele>
        <time>2018-11-11T09:58:16Z</time>
      </trkpt>
      <trkpt lat="45.97009" lon="4.78915">
        <ele>205</ele>
        <time>2018-11-11T09:58:17Z</time>
      </trkpt>
      <trkpt lat="45.97015" lon="4.78923">
        <ele>205</ele>
        <time>2018-11-11T09:58:19Z</time>
      </trkpt>
      <trkpt lat="45.97018" lon="4.78928">
        <ele>205</ele>
        <time>2018-11-11T09:58:20Z</time>
      </trkpt>
      <trkpt lat="45.97023" lon="4.78938">
        <ele>205</ele>
        <time>2018-11-11T09:58:22Z</time>
      </trkpt>
      <trkpt lat="45.97026" lon="4.78943">
        <ele>205</ele>
        <time>2018-11-11T09:58:23Z</time>
      </trkpt>
      <trkpt lat="45.97031" lon="4.78952">
        <ele>205</ele>
        <time>2018-11-11T09:58:25Z</time>
      </trkpt>
      <trkpt lat="45.97034" lon="4.78956">
        <ele>205</ele>
        <time>2018-11-11T09:58:26Z</time>
      </trkpt>
      <trkpt lat="45.97038" lon="4.78964">
        <ele>205</ele>
        <time>2018-11-11T09:58:28Z</time>
      </trkpt>
      <trkpt lat="45.97041" lon="4.78969">
        <ele>205</ele>
        <time>2018-11-11T09:58:29Z</time>
      </trkpt>
      <trkpt lat="45.97045" lon="4.78979">
        <ele>205</ele>
        <time>2018-11-11T09:58:31Z</time>
      </trkpt>
      <trkpt lat="45.97047" lon="4.78984">
        <ele>205</ele>
        <time>2018-11-11T09:58:32Z</time>
      </trkpt>
      <trkpt lat="45.97051" lon="4.78994">
        <ele>205</ele>
        <time>2018-11-11T09:58:34Z</time>
      </trkpt>
      <trkpt lat="45.97053" lon="4.79">
        <ele>205</ele>
        <time>2018-11-11T09:58:35Z</time>
      </trkpt>
      <trkpt lat="45.97054" lon="4.79006">
        <ele>203</ele>
        <time>2018-11-11T09:58:36Z</time>
      </trkpt>
      <trkpt lat="45.97056" lon="4.79013">
        <ele>203</ele>
        <time>2018-11-11T09:58:37Z</time>
      </trkpt>
      <trkpt lat="45.97059" lon="4.79019">
        <ele>203</ele>
        <time>2018-11-11T09:58:38Z</time>
      </trkpt>
      <trkpt lat="45.9706" lon="4.79025">
        <ele>203</ele>
        <time>2018-11-11T09:58:39Z</time>
      </trkpt>
      <trkpt lat="45.97064" lon="4.79036">
        <ele>203</ele>
        <time>2018-11-11T09:58:41Z</time>
      </trkpt>
      <trkpt lat="45.97065" lon="4.79042">
        <ele>203</ele>
        <time>2018-11-11T09:58:42Z</time>
      </trkpt>
      <trkpt lat="45.97067" lon="4.79049">
        <ele>203</ele>
        <time>2018-11-11T09:58:43Z</time>
      </trkpt>
      <trkpt lat="45.97069" lon="4.79055">
        <ele>203</ele>
        <time>2018-11-11T09:58:44Z</time>
      </trkpt>
      <trkpt lat="45.9707" lon="4.79061">
        <ele>203</ele>
        <time>2018-11-11T09:58:45Z</time>
      </trkpt>
      <trkpt lat="45.97072" lon="4.79067">
        <ele>204</ele>
        <time>2018-11-11T09:58:46Z</time>
      </trkpt>
      <trkpt lat="45.97073" lon="4.79073">
        <ele>204</ele>
        <time>2018-11-11T09:58:47Z</time>
      </trkpt>
      <trkpt lat="45.97074" lon="4.7908">
        <ele>204</ele>
        <time>2018-11-11T09:58:48Z</time>
      </trkpt>
      <trkpt lat="45.97076" lon="4.79087">
        <ele>204</ele>
        <time>2018-11-11T09:58:49Z</time>
      </trkpt>
      <trkpt lat="45.97078" lon="4.79094">
        <ele>204</ele>
        <time>2018-11-11T09:58:50Z</time>
      </trkpt>
      <trkpt lat="45.9708" lon="4.791">
        <ele>204</ele>
        <time>2018-11-11T09:58:51Z</time>
      </trkpt>
      <trkpt lat="45.97081" lon="4.79106">
        <ele>204</ele>
        <time>2018-11-11T09:58:52Z</time>
      </trkpt>
      <trkpt lat="45.97083" lon="4.79112">
        <ele>204</ele>
        <time>2018-11-11T09:58:53Z</time>
      </trkpt>
      <trkpt lat="45.97085" lon="4.79118">
        <ele>206</ele>
        <time>2018-11-11T09:58:54Z</time>
      </trkpt>
      <trkpt lat="45.97088" lon="4.79124">
        <ele>206</ele>
        <time>2018-11-11T09:58:55Z</time>
      </trkpt>
      <trkpt lat="45.97092" lon="4.79129">
        <ele>206</ele>
        <time>2018-11-11T09:58:56Z</time>
      </trkpt>
      <trkpt lat="45.97095" lon="4.79136">
        <ele>206</ele>
        <time>2018-11-11T09:58:57Z</time>
      </trkpt>
      <trkpt lat="45.97099" lon="4.79142">
        <ele>206</ele>
        <time>2018-11-11T09:58:58Z</time>
      </trkpt>
      <trkpt lat="45.97102" lon="4.79149">
        <ele>206</ele>
        <time>2018-11-11T09:58:59Z</time>
      </trkpt>
      <trkpt lat="45.97105" lon="4.79155">
        <ele>206</ele>
        <time>2018-11-11T09:59:00Z</time>
      </trkpt>
      <trkpt lat="45.97108" lon="4.79161">
        <ele>206</ele>
        <time>2018-11-11T09:59:01Z</time>
      </trkpt>
      <trkpt lat="45.97112" lon="4.79169">
        <ele>205</ele>
        <time>2018-11-11T09:59:02Z</time>
      </trkpt>
      <trkpt lat="45.97114" lon="4.79175">
        <ele>206</ele>
        <time>2018-11-11T09:59:03Z</time>
      </trkpt>
      <trkpt lat="45.97117" lon="4.7918">
        <ele>206</ele>
        <time>2018-11-11T09:59:04Z</time>
      </trkpt>
      <trkpt lat="45.97118" lon="4.79186">
        <ele>206</ele>
        <time>2018-11-11T09:59:05Z</time>
      </trkpt>
      <trkpt lat="45.97122" lon="4.79191">
        <ele>206</ele>
        <time>2018-11-11T09:59:06Z</time>
      </trkpt>
      <trkpt lat="45.97125" lon="4.79198">
        <ele>206</ele>
        <time>2018-11-11T09:59:07Z</time>
      </trkpt>
      <trkpt lat="45.97127" lon="4.79204">
        <ele>206</ele>
        <time>2018-11-11T09:59:08Z</time>
      </trkpt>
      <trkpt lat="45.9713" lon="4.7921">
        <ele>206</ele>
        <time>2018-11-11T09:59:09Z</time>
      </trkpt>
      <trkpt lat="45.97133" lon="4.79217">
        <ele>206</ele>
        <time>2018-11-11T09:59:10Z</time>
      </trkpt>
      <trkpt lat="45.97136" lon="4.79223">
        <ele>205</ele>
        <time>2018-11-11T09:59:11Z</time>
      </trkpt>
      <trkpt lat="45.97139" lon="4.79229">
        <ele>205</ele>
        <time>2018-11-11T09:59:12Z</time>
      </trkpt>
      <trkpt lat="45.97141" lon="4.79236">
        <ele>205</ele>
        <time>2018-11-11T09:59:13Z</time>
      </trkpt>
      <trkpt lat="45.97144" lon="4.79242">
        <ele>205</ele>
        <time>2018-11-11T09:59:14Z</time>
      </trkpt>
      <trkpt lat="45.97147" lon="4.79248">
        <ele>205</ele>
        <time>2018-11-11T09:59:15Z</time>
      </trkpt>
      <trkpt lat="45.97149" lon="4.79253">
        <ele>204</ele>
        <time>2018-11-11T09:59:16Z</time>
      </trkpt>
      <trkpt lat="45.97154" lon="4.79264">
        <ele>204</ele>
        <time>2018-11-11T09:59:18Z</time>
      </trkpt>
      <trkpt lat="45.97156" lon="4.79267">
        <ele>204</ele>
        <time>2018-11-11T09:59:19Z</time>
      </trkpt>
      <trkpt lat="45.9716" lon="4.79278">
        <ele>204</ele>
        <time>2018-11-11T09:59:21Z</time>
      </trkpt>
      <trkpt lat="45.97162" lon="4.79284">
        <ele>204</ele>
        <time>2018-11-11T09:59:22Z</time>
      </trkpt>
      <trkpt lat="45.97163" lon="4.79291">
        <ele>204</ele>
        <time>2018-11-11T09:59:23Z</time>
      </trkpt>
      <trkpt lat="45.97165" lon="4.79297">
        <ele>204</ele>
        <time>2018-11-11T09:59:24Z</time>
      </trkpt>
      <trkpt lat="45.97168" lon="4.79303">
        <ele>207</ele>
        <time>2018-11-11T09:59:25Z</time>
      </trkpt>
      <trkpt lat="45.9717" lon="4.79309">
        <ele>207</ele>
        <time>2018-11-11T09:59:26Z</time>
      </trkpt>
      <trkpt lat="45.97175" lon="4.79319">
        <ele>207</ele>
        <time>2018-11-11T09:59:28Z</time>
      </trkpt>
      <trkpt lat="45.97178" lon="4.79325">
        <ele>206</ele>
        <time>2018-11-11T09:59:29Z</time>
      </trkpt>
      <trkpt lat="45.97181" lon="4.7933">
        <ele>207</ele>
        <time>2018-11-11T09:59:30Z</time>
      </trkpt>
      <trkpt lat="45.97183" lon="4.79336">
        <ele>206</ele>
        <time>2018-11-11T09:59:31Z</time>
      </trkpt>
      <trkpt lat="45.97186" lon="4.79344">
        <ele>207</ele>
        <time>2018-11-11T09:59:33Z</time>
      </trkpt>
      <trkpt lat="45.97188" lon="4.79349">
        <ele>207</ele>
        <time>2018-11-11T09:59:34Z</time>
      </trkpt>
      <trkpt lat="45.97192" lon="4.7936">
        <ele>207</ele>
        <time>2018-11-11T09:59:36Z</time>
      </trkpt>
      <trkpt lat="45.97194" lon="4.79364">
        <ele>207</ele>
        <time>2018-11-11T09:59:37Z</time>
      </trkpt>
      <trkpt lat="45.97198" lon="4.79375">
        <ele>207</ele>
        <time>2018-11-11T09:59:39Z</time>
      </trkpt>
      <trkpt lat="45.97201" lon="4.7938">
        <ele>207</ele>
        <time>2018-11-11T09:59:40Z</time>
      </trkpt>
      <trkpt lat="45.97205" lon="4.7939">
        <ele>208</ele>
        <time>2018-11-11T09:59:42Z</time>
      </trkpt>
      <trkpt lat="45.97207" lon="4.79395">
        <ele>208</ele>
        <time>2018-11-11T09:59:43Z</time>
      </trkpt>
      <trkpt lat="45.97211" lon="4.79405">
        <ele>208</ele>
        <time>2018-11-11T09:59:45Z</time>
      </trkpt>
      <trkpt lat="45.97213" lon="4.79408">
        <ele>208</ele>
        <time>2018-11-11T09:59:46Z</time>
      </trkpt>
      <trkpt lat="45.97217" lon="4.79419">
        <ele>208</ele>
        <time>2018-11-11T09:59:48Z</time>
      </trkpt>
      <trkpt lat="45.97219" lon="4.79424">
        <ele>208</ele>
        <time>2018-11-11T09:59:49Z</time>
      </trkpt>
      <trkpt lat="45.97224" lon="4.79434">
        <ele>209</ele>
        <time>2018-11-11T09:59:51Z</time>
      </trkpt>
      <trkpt lat="45.97226" lon="4.79439">
        <ele>209</ele>
        <time>2018-11-11T09:59:52Z</time>
      </trkpt>
      <trkpt lat="45.9723" lon="4.7945">
        <ele>209</ele>
        <time>2018-11-11T09:59:54Z</time>
      </trkpt>
      <trkpt lat="45.97231" lon="4.79455">
        <ele>209</ele>
        <time>2018-11-11T09:59:55Z</time>
      </trkpt>
      <trkpt lat="45.97233" lon="4.79466">
        <ele>209</ele>
        <time>2018-11-11T09:59:57Z</time>
      </trkpt>
      <trkpt lat="45.97235" lon="4.79471">
        <ele>209</ele>
        <time>2018-11-11T09:59:58Z</time>
      </trkpt>
      <trkpt lat="45.97238" lon="4.79481">
        <ele>209</ele>
        <time>2018-11-11T10:00:00Z</time>
      </trkpt>
      <trkpt lat="45.9724" lon="4.79487">
        <ele>210</ele>
        <time>2018-11-11T10:00:01Z</time>
      </trkpt>
      <trkpt lat="45.97242" lon="4.79498">
        <ele>210</ele>
        <time>2018-11-11T10:00:03Z</time>
      </trkpt>
      <trkpt lat="45.97247" lon="4.79528">
        <ele>210</ele>
        <time>2018-11-11T10:00:08Z</time>
      </trkpt>
      <trkpt lat="45.97249" lon="4.7954">
        <ele>210</ele>
        <time>2018-11-11T10:00:10Z</time>
      </trkpt>
      <trkpt lat="45.9725" lon="4.79546">
        <ele>214</ele>
        <time>2018-11-11T10:00:11Z</time>
      </trkpt>
      <trkpt lat="45.97253" lon="4.79557">
        <ele>213</ele>
        <time>2018-11-11T10:00:13Z</time>
      </trkpt>
      <trkpt lat="45.97253" lon="4.79563">
        <ele>213</ele>
        <time>2018-11-11T10:00:14Z</time>
      </trkpt>
      <trkpt lat="45.97254" lon="4.79575">
        <ele>212</ele>
        <time>2018-11-11T10:00:16Z</time>
      </trkpt>
      <trkpt lat="45.97253" lon="4.79582">
        <ele>211</ele>
        <time>2018-11-11T10:00:17Z</time>
      </trkpt>
      <trkpt lat="45.97253" lon="4.79594">
        <ele>212</ele>
        <time>2018-11-11T10:00:19Z</time>
      </trkpt>
      <trkpt lat="45.97254" lon="4.796">
        <ele>212</ele>
        <time>2018-11-11T10:00:20Z</time>
      </trkpt>
      <trkpt lat="45.97254" lon="4.79612">
        <ele>213</ele>
        <time>2018-11-11T10:00:22Z</time>
      </trkpt>
      <trkpt lat="45.97254" lon="4.79617">
        <ele>213</ele>
        <time>2018-11-11T10:00:23Z</time>
      </trkpt>
      <trkpt lat="45.97255" lon="4.79623">
        <ele>213</ele>
        <time>2018-11-11T10:00:24Z</time>
      </trkpt>
      <trkpt lat="45.97255" lon="4.79634">
        <ele>213</ele>
        <time>2018-11-11T10:00:26Z</time>
      </trkpt>
      <trkpt lat="45.97255" lon="4.79647">
        <ele>212</ele>
        <time>2018-11-11T10:00:28Z</time>
      </trkpt>
      <trkpt lat="45.97253" lon="4.79652">
        <ele>211</ele>
        <time>2018-11-11T10:00:29Z</time>
      </trkpt>
      <trkpt lat="45.97252" lon="4.79665">
        <ele>209</ele>
        <time>2018-11-11T10:00:31Z</time>
      </trkpt>
      <trkpt lat="45.97251" lon="4.79671">
        <ele>209</ele>
        <time>2018-11-11T10:00:32Z</time>
      </trkpt>
      <trkpt lat="45.97248" lon="4.79684">
        <ele>208</ele>
        <time>2018-11-11T10:00:34Z</time>
      </trkpt>
      <trkpt lat="45.97247" lon="4.79689">
        <ele>208</ele>
        <time>2018-11-11T10:00:35Z</time>
      </trkpt>
      <trkpt lat="45.97245" lon="4.79701">
        <ele>208</ele>
        <time>2018-11-11T10:00:37Z</time>
      </trkpt>
      <trkpt lat="45.97244" lon="4.79707">
        <ele>208</ele>
        <time>2018-11-11T10:00:38Z</time>
      </trkpt>
      <trkpt lat="45.97244" lon="4.79713">
        <ele>209</ele>
        <time>2018-11-11T10:00:39Z</time>
      </trkpt>
      <trkpt lat="45.97243" lon="4.79721">
        <ele>209</ele>
        <time>2018-11-11T10:00:40Z</time>
      </trkpt>
      <trkpt lat="45.97242" lon="4.79728">
        <ele>209</ele>
        <time>2018-11-11T10:00:41Z</time>
      </trkpt>
      <trkpt lat="45.97241" lon="4.79735">
        <ele>209</ele>
        <time>2018-11-11T10:00:42Z</time>
      </trkpt>
      <trkpt lat="45.9724" lon="4.79743">
        <ele>209</ele>
        <time>2018-11-11T10:00:43Z</time>
      </trkpt>
      <trkpt lat="45.9724" lon="4.7975">
        <ele>209</ele>
        <time>2018-11-11T10:00:44Z</time>
      </trkpt>
      <trkpt lat="45.97238" lon="4.79762">
        <ele>209</ele>
        <time>2018-11-11T10:00:46Z</time>
      </trkpt>
      <trkpt lat="45.97238" lon="4.79768">
        <ele>210</ele>
        <time>2018-11-11T10:00:47Z</time>
      </trkpt>
      <trkpt lat="45.97237" lon="4.7978">
        <ele>210</ele>
        <time>2018-11-11T10:00:49Z</time>
      </trkpt>
      <trkpt lat="45.97237" lon="4.79787">
        <ele>210</ele>
        <time>2018-11-11T10:00:50Z</time>
      </trkpt>
      <trkpt lat="45.97236" lon="4.79794">
        <ele>210</ele>
        <time>2018-11-11T10:00:51Z</time>
      </trkpt>
      <trkpt lat="45.97236" lon="4.79801">
        <ele>210</ele>
        <time>2018-11-11T10:00:52Z</time>
      </trkpt>
      <trkpt lat="45.97236" lon="4.79808">
        <ele>210</ele>
        <time>2018-11-11T10:00:53Z</time>
      </trkpt>
      <trkpt lat="45.97236" lon="4.79814">
        <ele>211</ele>
        <time>2018-11-11T10:00:54Z</time>
      </trkpt>
      <trkpt lat="45.97236" lon="4.79827">
        <ele>211</ele>
        <time>2018-11-11T10:00:56Z</time>
      </trkpt>
      <trkpt lat="45.97236" lon="4.79834">
        <ele>211</ele>
        <time>2018-11-11T10:00:57Z</time>
      </trkpt>
      <trkpt lat="45.97236" lon="4.7984">
        <ele>211</ele>
        <time>2018-11-11T10:00:58Z</time>
      </trkpt>
      <trkpt lat="45.97237" lon="4.79847">
        <ele>211</ele>
        <time>2018-11-11T10:00:59Z</time>
      </trkpt>
      <trkpt lat="45.97239" lon="4.79858">
        <ele>211</ele>
        <time>2018-11-11T10:01:01Z</time>
      </trkpt>
      <trkpt lat="45.97241" lon="4.79864">
        <ele>211</ele>
        <time>2018-11-11T10:01:02Z</time>
      </trkpt>
      <trkpt lat="45.97242" lon="4.7987">
        <ele>211</ele>
        <time>2018-11-11T10:01:03Z</time>
      </trkpt>
      <trkpt lat="45.97244" lon="4.79876">
        <ele>211</ele>
        <time>2018-11-11T10:01:04Z</time>
      </trkpt>
      <trkpt lat="45.97247" lon="4.79886">
        <ele>211</ele>
        <time>2018-11-11T10:01:06Z</time>
      </trkpt>
      <trkpt lat="45.97248" lon="4.7989">
        <ele>211</ele>
        <time>2018-11-11T10:01:07Z</time>
      </trkpt>
      <trkpt lat="45.97251" lon="4.79898">
        <ele>213</ele>
        <time>2018-11-11T10:01:10Z</time>
      </trkpt>
      <trkpt lat="45.97251" lon="4.79902">
        <ele>213</ele>
        <time>2018-11-11T10:01:11Z</time>
      </trkpt>
      <trkpt lat="45.97256" lon="4.79912">
        <ele>212</ele>
        <time>2018-11-11T10:01:26Z</time>
      </trkpt>
      <trkpt lat="45.97258" lon="4.79914">
        <ele>212</ele>
        <time>2018-11-11T10:01:27Z</time>
      </trkpt>
      <trkpt lat="45.97264" lon="4.79914">
        <ele>213</ele>
        <time>2018-11-11T10:01:30Z</time>
      </trkpt>
      <trkpt lat="45.97267" lon="4.79913">
        <ele>213</ele>
        <time>2018-11-11T10:01:31Z</time>
      </trkpt>
      <trkpt lat="45.97275" lon="4.79911">
        <ele>213</ele>
        <time>2018-11-11T10:01:34Z</time>
      </trkpt>
      <trkpt lat="45.97279" lon="4.79911">
        <ele>213</ele>
        <time>2018-11-11T10:01:35Z</time>
      </trkpt>
      <trkpt lat="45.97283" lon="4.7991">
        <ele>213</ele>
        <time>2018-11-11T10:01:36Z</time>
      </trkpt>
      <trkpt lat="45.97289" lon="4.79909">
        <ele>213</ele>
        <time>2018-11-11T10:01:37Z</time>
      </trkpt>
      <trkpt lat="45.97298" lon="4.79909">
        <ele>213</ele>
        <time>2018-11-11T10:01:40Z</time>
      </trkpt>
      <trkpt lat="45.97301" lon="4.79909">
        <ele>213</ele>
        <time>2018-11-11T10:01:41Z</time>
      </trkpt>
      <trkpt lat="45.97307" lon="4.79908">
        <ele>213</ele>
        <time>2018-11-11T10:01:43Z</time>
      </trkpt>
      <trkpt lat="45.97315" lon="4.79907">
        <ele>213</ele>
        <time>2018-11-11T10:01:44Z</time>
      </trkpt>
      <trkpt lat="45.97323" lon="4.79907">
        <ele>213</ele>
        <time>2018-11-11T10:01:46Z</time>
      </trkpt>
      <trkpt lat="45.97327" lon="4.79907">
        <ele>213</ele>
        <time>2018-11-11T10:01:47Z</time>
      </trkpt>
      <trkpt lat="45.97335" lon="4.79906">
        <ele>215</ele>
        <time>2018-11-11T10:01:49Z</time>
      </trkpt>
      <trkpt lat="45.97339" lon="4.79905">
        <ele>215</ele>
        <time>2018-11-11T10:01:50Z</time>
      </trkpt>
      <trkpt lat="45.97347" lon="4.79904">
        <ele>215</ele>
        <time>2018-11-11T10:01:52Z</time>
      </trkpt>
      <trkpt lat="45.97351" lon="4.79903">
        <ele>216</ele>
        <time>2018-11-11T10:01:53Z</time>
      </trkpt>
      <trkpt lat="45.97359" lon="4.79902">
        <ele>216</ele>
        <time>2018-11-11T10:01:55Z</time>
      </trkpt>
      <trkpt lat="45.97363" lon="4.79901">
        <ele>216</ele>
        <time>2018-11-11T10:01:56Z</time>
      </trkpt>
      <trkpt lat="45.97371" lon="4.79899">
        <ele>217</ele>
        <time>2018-11-11T10:01:59Z</time>
      </trkpt>
      <trkpt lat="45.97375" lon="4.79899">
        <ele>217</ele>
        <time>2018-11-11T10:02:00Z</time>
      </trkpt>
      <trkpt lat="45.9738" lon="4.79898">
        <ele>217</ele>
        <time>2018-11-11T10:02:02Z</time>
      </trkpt>
      <trkpt lat="45.97384" lon="4.79897">
        <ele>217</ele>
        <time>2018-11-11T10:02:03Z</time>
      </trkpt>
      <trkpt lat="45.97391" lon="4.79896">
        <ele>217</ele>
        <time>2018-11-11T10:02:05Z</time>
      </trkpt>
      <trkpt lat="45.97397" lon="4.79895">
        <ele>217</ele>
        <time>2018-11-11T10:02:06Z</time>
      </trkpt>
      <trkpt lat="45.97404" lon="4.79895">
        <ele>217</ele>
        <time>2018-11-11T10:02:09Z</time>
      </trkpt>
      <trkpt lat="45.9741" lon="4.79894">
        <ele>217</ele>
        <time>2018-11-11T10:02:10Z</time>
      </trkpt>
      <trkpt lat="45.97418" lon="4.79893">
        <ele>219</ele>
        <time>2018-11-11T10:02:12Z</time>
      </trkpt>
      <trkpt lat="45.97421" lon="4.79893">
        <ele>219</ele>
        <time>2018-11-11T10:02:13Z</time>
      </trkpt>
      <trkpt lat="45.97429" lon="4.79893">
        <ele>220</ele>
        <time>2018-11-11T10:02:15Z</time>
      </trkpt>
      <trkpt lat="45.97432" lon="4.79893">
        <ele>220</ele>
        <time>2018-11-11T10:02:16Z</time>
      </trkpt>
      <trkpt lat="45.9744" lon="4.79892">
        <ele>220</ele>
        <time>2018-11-11T10:02:18Z</time>
      </trkpt>
      <trkpt lat="45.97444" lon="4.79892">
        <ele>220</ele>
        <time>2018-11-11T10:02:19Z</time>
      </trkpt>
      <trkpt lat="45.97452" lon="4.79892">
        <ele>220</ele>
        <time>2018-11-11T10:02:21Z</time>
      </trkpt>
      <trkpt lat="45.97456" lon="4.79891">
        <ele>220</ele>
        <time>2018-11-11T10:02:22Z</time>
      </trkpt>
      <trkpt lat="45.97464" lon="4.79891">
        <ele>221</ele>
        <time>2018-11-11T10:02:24Z</time>
      </trkpt>
      <trkpt lat="45.97468" lon="4.7989">
        <ele>221</ele>
        <time>2018-11-11T10:02:25Z</time>
      </trkpt>
      <trkpt lat="45.97476" lon="4.79889">
        <ele>221</ele>
        <time>2018-11-11T10:02:27Z</time>
      </trkpt>
      <trkpt lat="45.9748" lon="4.79889">
        <ele>221</ele>
        <time>2018-11-11T10:02:28Z</time>
      </trkpt>
      <trkpt lat="45.97487" lon="4.79888">
        <ele>221</ele>
        <time>2018-11-11T10:02:30Z</time>
      </trkpt>
      <trkpt lat="45.97491" lon="4.79887">
        <ele>221</ele>
        <time>2018-11-11T10:02:31Z</time>
      </trkpt>
      <trkpt lat="45.97498" lon="4.79887">
        <ele>221</ele>
        <time>2018-11-11T10:02:33Z</time>
      </trkpt>
      <trkpt lat="45.97501" lon="4.79886">
        <ele>221</ele>
        <time>2018-11-11T10:02:34Z</time>
      </trkpt>
      <trkpt lat="45.97508" lon="4.79886">
        <ele>221</ele>
        <time>2018-11-11T10:02:37Z</time>
      </trkpt>
      <trkpt lat="45.9751" lon="4.79885">
        <ele>221</ele>
        <time>2018-11-11T10:02:38Z</time>
      </trkpt>
      <trkpt lat="45.97516" lon="4.79885">
        <ele>221</ele>
        <time>2018-11-11T10:02:40Z</time>
      </trkpt>
      <trkpt lat="45.97519" lon="4.79884">
        <ele>222</ele>
        <time>2018-11-11T10:02:41Z</time>
      </trkpt>
      <trkpt lat="45.97525" lon="4.79883">
        <ele>222</ele>
        <time>2018-11-11T10:02:43Z</time>
      </trkpt>
      <trkpt lat="45.97528" lon="4.79883">
        <ele>222</ele>
        <time>2018-11-11T10:02:44Z</time>
      </trkpt>
      <trkpt lat="45.97534" lon="4.79882">
        <ele>222</ele>
        <time>2018-11-11T10:02:46Z</time>
      </trkpt>
      <trkpt lat="45.97538" lon="4.79881">
        <ele>222</ele>
        <time>2018-11-11T10:02:47Z</time>
      </trkpt>
      <trkpt lat="45.97546" lon="4.79879">
        <ele>222</ele>
        <time>2018-11-11T10:02:50Z</time>
      </trkpt>
      <trkpt lat="45.97549" lon="4.79879">
        <ele>222</ele>
        <time>2018-11-11T10:02:51Z</time>
      </trkpt>
      <trkpt lat="45.97556" lon="4.79877">
        <ele>222</ele>
        <time>2018-11-11T10:02:53Z</time>
      </trkpt>
      <trkpt lat="45.97559" lon="4.79876">
        <ele>222</ele>
        <time>2018-11-11T10:02:54Z</time>
      </trkpt>
      <trkpt lat="45.97566" lon="4.79875">
        <ele>222</ele>
        <time>2018-11-11T10:02:55Z</time>
      </trkpt>
      <trkpt lat="45.97568" lon="4.79874">
        <ele>222</ele>
        <time>2018-11-11T10:02:56Z</time>
      </trkpt>
      <trkpt lat="45.97577" lon="4.79871">
        <ele>222</ele>
        <time>2018-11-11T10:02:58Z</time>
      </trkpt>
      <trkpt lat="45.97581" lon="4.7987">
        <ele>222</ele>
        <time>2018-11-11T10:02:59Z</time>
      </trkpt>
      <trkpt lat="45.97589" lon="4.79867">
        <ele>221</ele>
        <time>2018-11-11T10:03:01Z</time>
      </trkpt>
      <trkpt lat="45.97593" lon="4.79866">
        <ele>221</ele>
        <time>2018-11-11T10:03:02Z</time>
      </trkpt>
      <trkpt lat="45.97601" lon="4.79865">
        <ele>221</ele>
        <time>2018-11-11T10:03:04Z</time>
      </trkpt>
      <trkpt lat="45.97605" lon="4.79864">
        <ele>221</ele>
        <time>2018-11-11T10:03:05Z</time>
      </trkpt>
      <trkpt lat="45.97613" lon="4.79862">
        <ele>221</ele>
        <time>2018-11-11T10:03:07Z</time>
      </trkpt>
      <trkpt lat="45.97617" lon="4.7986">
        <ele>221</ele>
        <time>2018-11-11T10:03:08Z</time>
      </trkpt>
      <trkpt lat="45.97625" lon="4.79857">
        <ele>221</ele>
        <time>2018-11-11T10:03:10Z</time>
      </trkpt>
      <trkpt lat="45.97629" lon="4.79856">
        <ele>221</ele>
        <time>2018-11-11T10:03:11Z</time>
      </trkpt>
      <trkpt lat="45.97637" lon="4.79853">
        <ele>221</ele>
        <time>2018-11-11T10:03:13Z</time>
      </trkpt>
      <trkpt lat="45.97639" lon="4.79852">
        <ele>221</ele>
        <time>2018-11-11T10:03:14Z</time>
      </trkpt>
      <trkpt lat="45.97647" lon="4.79849">
        <ele>221</ele>
        <time>2018-11-11T10:03:16Z</time>
      </trkpt>
      <trkpt lat="45.9765" lon="4.79847">
        <ele>221</ele>
        <time>2018-11-11T10:03:17Z</time>
      </trkpt>
      <trkpt lat="45.97658" lon="4.79844">
        <ele>221</ele>
        <time>2018-11-11T10:03:19Z</time>
      </trkpt>
      <trkpt lat="45.97662" lon="4.79843">
        <ele>221</ele>
        <time>2018-11-11T10:03:20Z</time>
      </trkpt>
      <trkpt lat="45.97671" lon="4.7984">
        <ele>221</ele>
        <time>2018-11-11T10:03:22Z</time>
      </trkpt>
      <trkpt lat="45.97675" lon="4.79839">
        <ele>221</ele>
        <time>2018-11-11T10:03:23Z</time>
      </trkpt>
      <trkpt lat="45.97683" lon="4.79836">
        <ele>221</ele>
        <time>2018-11-11T10:03:25Z</time>
      </trkpt>
      <trkpt lat="45.97687" lon="4.79836">
        <ele>221</ele>
        <time>2018-11-11T10:03:26Z</time>
      </trkpt>
      <trkpt lat="45.97695" lon="4.79834">
        <ele>220</ele>
        <time>2018-11-11T10:03:28Z</time>
      </trkpt>
      <trkpt lat="45.97699" lon="4.79833">
        <ele>223</ele>
        <time>2018-11-11T10:03:29Z</time>
      </trkpt>
      <trkpt lat="45.97707" lon="4.79831">
        <ele>223</ele>
        <time>2018-11-11T10:03:31Z</time>
      </trkpt>
      <trkpt lat="45.97711" lon="4.7983">
        <ele>223</ele>
        <time>2018-11-11T10:03:32Z</time>
      </trkpt>
      <trkpt lat="45.97715" lon="4.79829">
        <ele>223</ele>
        <time>2018-11-11T10:03:33Z</time>
      </trkpt>
      <trkpt lat="45.9772" lon="4.79827">
        <ele>223</ele>
        <time>2018-11-11T10:03:34Z</time>
      </trkpt>
      <trkpt lat="45.97725" lon="4.79826">
        <ele>223</ele>
        <time>2018-11-11T10:03:35Z</time>
      </trkpt>
      <trkpt lat="45.97731" lon="4.79826">
        <ele>223</ele>
        <time>2018-11-11T10:03:36Z</time>
      </trkpt>
      <trkpt lat="45.97736" lon="4.79825">
        <ele>223</ele>
        <time>2018-11-11T10:03:37Z</time>
      </trkpt>
      <trkpt lat="45.9774" lon="4.79824">
        <ele>223</ele>
        <time>2018-11-11T10:03:38Z</time>
      </trkpt>
      <trkpt lat="45.97745" lon="4.79823">
        <ele>223</ele>
        <time>2018-11-11T10:03:39Z</time>
      </trkpt>
      <trkpt lat="45.9775" lon="4.79823">
        <ele>222</ele>
        <time>2018-11-11T10:03:40Z</time>
      </trkpt>
      <trkpt lat="45.97756" lon="4.79823">
        <ele>222</ele>
        <time>2018-11-11T10:03:41Z</time>
      </trkpt>
      <trkpt lat="45.97761" lon="4.79822">
        <ele>223</ele>
        <time>2018-11-11T10:03:42Z</time>
      </trkpt>
      <trkpt lat="45.97766" lon="4.79821">
        <ele>223</ele>
        <time>2018-11-11T10:03:43Z</time>
      </trkpt>
      <trkpt lat="45.9777" lon="4.7982">
        <ele>223</ele>
        <time>2018-11-11T10:03:44Z</time>
      </trkpt>
      <trkpt lat="45.97775" lon="4.7982">
        <ele>223</ele>
        <time>2018-11-11T10:03:45Z</time>
      </trkpt>
      <trkpt lat="45.9778" lon="4.79819">
        <ele>223</ele>
        <time>2018-11-11T10:03:46Z</time>
      </trkpt>
      <trkpt lat="45.97784" lon="4.79817">
        <ele>223</ele>
        <time>2018-11-11T10:03:47Z</time>
      </trkpt>
      <trkpt lat="45.97789" lon="4.79816">
        <ele>223</ele>
        <time>2018-11-11T10:03:48Z</time>
      </trkpt>
      <trkpt lat="45.97793" lon="4.79815">
        <ele>223</ele>
        <time>2018-11-11T10:03:49Z</time>
      </trkpt>
      <trkpt lat="45.97798" lon="4.79814">
        <ele>223</ele>
        <time>2018-11-11T10:03:50Z</time>
      </trkpt>
      <trkpt lat="45.97803" lon="4.79814">
        <ele>223</ele>
        <time>2018-11-11T10:03:51Z</time>
      </trkpt>
      <trkpt lat="45.97808" lon="4.79814">
        <ele>223</ele>
        <time>2018-11-11T10:03:52Z</time>
      </trkpt>
      <trkpt lat="45.97817" lon="4.79812">
        <ele>223</ele>
        <time>2018-11-11T10:03:54Z</time>
      </trkpt>
      <trkpt lat="45.97821" lon="4.79811">
        <ele>223</ele>
        <time>2018-11-11T10:03:55Z</time>
      </trkpt>
      <trkpt lat="45.97826" lon="4.79809">
        <ele>223</ele>
        <time>2018-11-11T10:03:56Z</time>
      </trkpt>
      <trkpt lat="45.97832" lon="4.79809">
        <ele>223</ele>
        <time>2018-11-11T10:03:57Z</time>
      </trkpt>
      <trkpt lat="45.97836" lon="4.79808">
        <ele>224</ele>
        <time>2018-11-11T10:03:58Z</time>
      </trkpt>
      <trkpt lat="45.97841" lon="4.79808">
        <ele>224</ele>
        <time>2018-11-11T10:03:59Z</time>
      </trkpt>
      <trkpt lat="45.97846" lon="4.79807">
        <ele>224</ele>
        <time>2018-11-11T10:04:00Z</time>
      </trkpt>
      <trkpt lat="45.9785" lon="4.79806">
        <ele>224</ele>
        <time>2018-11-11T10:04:01Z</time>
      </trkpt>
      <trkpt lat="45.97855" lon="4.79805">
        <ele>224</ele>
        <time>2018-11-11T10:04:02Z</time>
      </trkpt>
      <trkpt lat="45.97859" lon="4.79804">
        <ele>224</ele>
        <time>2018-11-11T10:04:03Z</time>
      </trkpt>
      <trkpt lat="45.97868" lon="4.79803">
        <ele>224</ele>
        <time>2018-11-11T10:04:05Z</time>
      </trkpt>
      <trkpt lat="45.97873" lon="4.79802">
        <ele>224</ele>
        <time>2018-11-11T10:04:06Z</time>
      </trkpt>
      <trkpt lat="45.97878" lon="4.79801">
        <ele>224</ele>
        <time>2018-11-11T10:04:07Z</time>
      </trkpt>
      <trkpt lat="45.97883" lon="4.798">
        <ele>224</ele>
        <time>2018-11-11T10:04:08Z</time>
      </trkpt>
      <trkpt lat="45.97888" lon="4.79798">
        <ele>224</ele>
        <time>2018-11-11T10:04:09Z</time>
      </trkpt>
      <trkpt lat="45.97893" lon="4.79797">
        <ele>224</ele>
        <time>2018-11-11T10:04:10Z</time>
      </trkpt>
      <trkpt lat="45.97898" lon="4.79796">
        <ele>224</ele>
        <time>2018-11-11T10:04:11Z</time>
      </trkpt>
      <trkpt lat="45.97903" lon="4.79795">
        <ele>224</ele>
        <time>2018-11-11T10:04:12Z</time>
      </trkpt>
      <trkpt lat="45.97908" lon="4.79794">
        <ele>224</ele>
        <time>2018-11-11T10:04:13Z</time>
      </trkpt>
      <trkpt lat="45.97913" lon="4.79793">
        <ele>224</ele>
        <time>2018-11-11T10:04:14Z</time>
      </trkpt>
      <trkpt lat="45.97917" lon="4.79793">
        <ele>224</ele>
        <time>2018-11-11T10:04:15Z</time>
      </trkpt>
      <trkpt lat="45.97922" lon="4.79792">
        <ele>224</ele>
        <time>2018-11-11T10:04:16Z</time>
      </trkpt>
      <trkpt lat="45.97927" lon="4.79791">
        <ele>224</ele>
        <time>2018-11-11T10:04:17Z</time>
      </trkpt>
      <trkpt lat="45.97932" lon="4.79791">
        <ele>224</ele>
        <time>2018-11-11T10:04:18Z</time>
      </trkpt>
      <trkpt lat="45.9794" lon="4.79789">
        <ele>224</ele>
        <time>2018-11-11T10:04:20Z</time>
      </trkpt>
      <trkpt lat="45.97945" lon="4.79788">
        <ele>224</ele>
        <time>2018-11-11T10:04:21Z</time>
      </trkpt>
      <trkpt lat="45.97949" lon="4.79787">
        <ele>224</ele>
        <time>2018-11-11T10:04:22Z</time>
      </trkpt>
      <trkpt lat="45.97954" lon="4.79787">
        <ele>224</ele>
        <time>2018-11-11T10:04:23Z</time>
      </trkpt>
      <trkpt lat="45.97959" lon="4.79785">
        <ele>224</ele>
        <time>2018-11-11T10:04:24Z</time>
      </trkpt>
      <trkpt lat="45.97963" lon="4.79783">
        <ele>224</ele>
        <time>2018-11-11T10:04:25Z</time>
      </trkpt>
      <trkpt lat="45.97968" lon="4.79782">
        <ele>224</ele>
        <time>2018-11-11T10:04:26Z</time>
      </trkpt>
      <trkpt lat="45.97973" lon="4.79782">
        <ele>224</ele>
        <time>2018-11-11T10:04:27Z</time>
      </trkpt>
      <trkpt lat="45.97978" lon="4.79781">
        <ele>224</ele>
        <time>2018-11-11T10:04:28Z</time>
      </trkpt>
      <trkpt lat="45.97984" lon="4.79781">
        <ele>224</ele>
        <time>2018-11-11T10:04:29Z</time>
      </trkpt>
      <trkpt lat="45.97989" lon="4.7978">
        <ele>224</ele>
        <time>2018-11-11T10:04:30Z</time>
      </trkpt>
      <trkpt lat="45.97995" lon="4.7978">
        <ele>224</ele>
        <time>2018-11-11T10:04:31Z</time>
      </trkpt>
      <trkpt lat="45.98" lon="4.79779">
        <ele>224</ele>
        <time>2018-11-11T10:04:32Z</time>
      </trkpt>
      <trkpt lat="45.98006" lon="4.79778">
        <ele>223</ele>
        <time>2018-11-11T10:04:33Z</time>
      </trkpt>
      <trkpt lat="45.98011" lon="4.79776">
        <ele>223</ele>
        <time>2018-11-11T10:04:34Z</time>
      </trkpt>
      <trkpt lat="45.98017" lon="4.79775">
        <ele>223</ele>
        <time>2018-11-11T10:04:35Z</time>
      </trkpt>
      <trkpt lat="45.98023" lon="4.79774">
        <ele>223</ele>
        <time>2018-11-11T10:04:36Z</time>
      </trkpt>
      <trkpt lat="45.98028" lon="4.79772">
        <ele>223</ele>
        <time>2018-11-11T10:04:37Z</time>
      </trkpt>
      <trkpt lat="45.98034" lon="4.79772">
        <ele>223</ele>
        <time>2018-11-11T10:04:38Z</time>
      </trkpt>
      <trkpt lat="45.9804" lon="4.79772">
        <ele>223</ele>
        <time>2018-11-11T10:04:39Z</time>
      </trkpt>
      <trkpt lat="45.98045" lon="4.79772">
        <ele>223</ele>
        <time>2018-11-11T10:04:40Z</time>
      </trkpt>
      <trkpt lat="45.9805" lon="4.79772">
        <ele>223</ele>
        <time>2018-11-11T10:04:41Z</time>
      </trkpt>
      <trkpt lat="45.98055" lon="4.79771">
        <ele>223</ele>
        <time>2018-11-11T10:04:42Z</time>
      </trkpt>
      <trkpt lat="45.9806" lon="4.79771">
        <ele>223</ele>
        <time>2018-11-11T10:04:43Z</time>
      </trkpt>
      <trkpt lat="45.98065" lon="4.7977">
        <ele>223</ele>
        <time>2018-11-11T10:04:44Z</time>
      </trkpt>
      <trkpt lat="45.9807" lon="4.7977">
        <ele>223</ele>
        <time>2018-11-11T10:04:45Z</time>
      </trkpt>
      <trkpt lat="45.98078" lon="4.79767">
        <ele>223</ele>
        <time>2018-11-11T10:04:47Z</time>
      </trkpt>
      <trkpt lat="45.98083" lon="4.79766">
        <ele>223</ele>
        <time>2018-11-11T10:04:48Z</time>
      </trkpt>
      <trkpt lat="45.98088" lon="4.79766">
        <ele>223</ele>
        <time>2018-11-11T10:04:49Z</time>
      </trkpt>
      <trkpt lat="45.98093" lon="4.79765">
        <ele>223</ele>
        <time>2018-11-11T10:04:50Z</time>
      </trkpt>
      <trkpt lat="45.98097" lon="4.79765">
        <ele>223</ele>
        <time>2018-11-11T10:04:51Z</time>
      </trkpt>
      <trkpt lat="45.98102" lon="4.79765">
        <ele>224</ele>
        <time>2018-11-11T10:04:52Z</time>
      </trkpt>
      <trkpt lat="45.98107" lon="4.79765">
        <ele>224</ele>
        <time>2018-11-11T10:04:53Z</time>
      </trkpt>
      <trkpt lat="45.98111" lon="4.79766">
        <ele>224</ele>
        <time>2018-11-11T10:04:54Z</time>
      </trkpt>
      <trkpt lat="45.9812" lon="4.79765">
        <ele>224</ele>
        <time>2018-11-11T10:04:56Z</time>
      </trkpt>
      <trkpt lat="45.98124" lon="4.79765">
        <ele>224</ele>
        <time>2018-11-11T10:04:57Z</time>
      </trkpt>
      <trkpt lat="45.98133" lon="4.79764">
        <ele>224</ele>
        <time>2018-11-11T10:04:59Z</time>
      </trkpt>
      <trkpt lat="45.98138" lon="4.79762">
        <ele>224</ele>
        <time>2018-11-11T10:05:00Z</time>
      </trkpt>
      <trkpt lat="45.98147" lon="4.79762">
        <ele>225</ele>
        <time>2018-11-11T10:05:02Z</time>
      </trkpt>
      <trkpt lat="45.9815" lon="4.79762">
        <ele>225</ele>
        <time>2018-11-11T10:05:03Z</time>
      </trkpt>
      <trkpt lat="45.98159" lon="4.79762">
        <ele>225</ele>
        <time>2018-11-11T10:05:06Z</time>
      </trkpt>
      <trkpt lat="45.98164" lon="4.79764">
        <ele>225</ele>
        <time>2018-11-11T10:05:07Z</time>
      </trkpt>
      <trkpt lat="45.98171" lon="4.7977">
        <ele>226</ele>
        <time>2018-11-11T10:05:09Z</time>
      </trkpt>
      <trkpt lat="45.98174" lon="4.79775">
        <ele>226</ele>
        <time>2018-11-11T10:05:10Z</time>
      </trkpt>
      <trkpt lat="45.98176" lon="4.7978">
        <ele>226</ele>
        <time>2018-11-11T10:05:11Z</time>
      </trkpt>
      <trkpt lat="45.98177" lon="4.79789">
        <ele>226</ele>
        <time>2018-11-11T10:05:12Z</time>
      </trkpt>
      <trkpt lat="45.98179" lon="4.79795">
        <ele>226</ele>
        <time>2018-11-11T10:05:13Z</time>
      </trkpt>
      <trkpt lat="45.98181" lon="4.79801">
        <ele>226</ele>
        <time>2018-11-11T10:05:14Z</time>
      </trkpt>
      <trkpt lat="45.98183" lon="4.79808">
        <ele>225</ele>
        <time>2018-11-11T10:05:15Z</time>
      </trkpt>
      <trkpt lat="45.98186" lon="4.79815">
        <ele>225</ele>
        <time>2018-11-11T10:05:16Z</time>
      </trkpt>
      <trkpt lat="45.98188" lon="4.7982">
        <ele>225</ele>
        <time>2018-11-11T10:05:17Z</time>
      </trkpt>
      <trkpt lat="45.9819" lon="4.79827">
        <ele>225</ele>
        <time>2018-11-11T10:05:18Z</time>
      </trkpt>
      <trkpt lat="45.98193" lon="4.79835">
        <ele>225</ele>
        <time>2018-11-11T10:05:19Z</time>
      </trkpt>
      <trkpt lat="45.98196" lon="4.79842">
        <ele>225</ele>
        <time>2018-11-11T10:05:20Z</time>
      </trkpt>
      <trkpt lat="45.98198" lon="4.7985">
        <ele>225</ele>
        <time>2018-11-11T10:05:21Z</time>
      </trkpt>
      <trkpt lat="45.98201" lon="4.79858">
        <ele>225</ele>
        <time>2018-11-11T10:05:22Z</time>
      </trkpt>
      <trkpt lat="45.98204" lon="4.79866">
        <ele>225</ele>
        <time>2018-11-11T10:05:23Z</time>
      </trkpt>
      <trkpt lat="45.98207" lon="4.79873">
        <ele>225</ele>
        <time>2018-11-11T10:05:24Z</time>
      </trkpt>
      <trkpt lat="45.9821" lon="4.79881">
        <ele>225</ele>
        <time>2018-11-11T10:05:25Z</time>
      </trkpt>
      <trkpt lat="45.98212" lon="4.79889">
        <ele>225</ele>
        <time>2018-11-11T10:05:26Z</time>
      </trkpt>
      <trkpt lat="45.98214" lon="4.79896">
        <ele>225</ele>
        <time>2018-11-11T10:05:27Z</time>
      </trkpt>
      <trkpt lat="45.98216" lon="4.79903">
        <ele>225</ele>
        <time>2018-11-11T10:05:28Z</time>
      </trkpt>
      <trkpt lat="45.98219" lon="4.7991">
        <ele>225</ele>
        <time>2018-11-11T10:05:29Z</time>
      </trkpt>
      <trkpt lat="45.98222" lon="4.79918">
        <ele>225</ele>
        <time>2018-11-11T10:05:30Z</time>
      </trkpt>
      <trkpt lat="45.98226" lon="4.79924">
        <ele>225</ele>
        <time>2018-11-11T10:05:31Z</time>
      </trkpt>
      <trkpt lat="45.98228" lon="4.79931">
        <ele>225</ele>
        <time>2018-11-11T10:05:32Z</time>
      </trkpt>
      <trkpt lat="45.98231" lon="4.79938">
        <ele>225</ele>
        <time>2018-11-11T10:05:33Z</time>
      </trkpt>
      <trkpt lat="45.98233" lon="4.79943">
        <ele>225</ele>
        <time>2018-11-11T10:05:34Z</time>
      </trkpt>
      <trkpt lat="45.98234" lon="4.7995">
        <ele>225</ele>
        <time>2018-11-11T10:05:35Z</time>
      </trkpt>
      <trkpt lat="45.98237" lon="4.79957">
        <ele>225</ele>
        <time>2018-11-11T10:05:36Z</time>
      </trkpt>
      <trkpt lat="45.98238" lon="4.79964">
        <ele>225</ele>
        <time>2018-11-11T10:05:37Z</time>
      </trkpt>
      <trkpt lat="45.98241" lon="4.7997">
        <ele>225</ele>
        <time>2018-11-11T10:05:38Z</time>
      </trkpt>
      <trkpt lat="45.98243" lon="4.79975">
        <ele>225</ele>
        <time>2018-11-11T10:05:39Z</time>
      </trkpt>
      <trkpt lat="45.98245" lon="4.79981">
        <ele>225</ele>
        <time>2018-11-11T10:05:40Z</time>
      </trkpt>
      <trkpt lat="45.98247" lon="4.79987">
        <ele>226</ele>
        <time>2018-11-11T10:05:41Z</time>
      </trkpt>
      <trkpt lat="45.98249" lon="4.79994">
        <ele>226</ele>
        <time>2018-11-11T10:05:42Z</time>
      </trkpt>
      <trkpt lat="45.98251" lon="4.80001">
        <ele>226</ele>
        <time>2018-11-11T10:05:43Z</time>
      </trkpt>
      <trkpt lat="45.98253" lon="4.80007">
        <ele>227</ele>
        <time>2018-11-11T10:05:44Z</time>
      </trkpt>
      <trkpt lat="45.98256" lon="4.80014">
        <ele>228</ele>
        <time>2018-11-11T10:05:45Z</time>
      </trkpt>
      <trkpt lat="45.98258" lon="4.80021">
        <ele>228</ele>
        <time>2018-11-11T10:05:46Z</time>
      </trkpt>
      <trkpt lat="45.9826" lon="4.80027">
        <ele>228</ele>
        <time>2018-11-11T10:05:47Z</time>
      </trkpt>
      <trkpt lat="45.98261" lon="4.80034">
        <ele>228</ele>
        <time>2018-11-11T10:05:48Z</time>
      </trkpt>
      <trkpt lat="45.98264" lon="4.8004">
        <ele>228</ele>
        <time>2018-11-11T10:05:49Z</time>
      </trkpt>
      <trkpt lat="45.98266" lon="4.80047">
        <ele>228</ele>
        <time>2018-11-11T10:05:50Z</time>
      </trkpt>
      <trkpt lat="45.98269" lon="4.80053">
        <ele>228</ele>
        <time>2018-11-11T10:05:51Z</time>
      </trkpt>
      <trkpt lat="45.98272" lon="4.80061">
        <ele>228</ele>
        <time>2018-11-11T10:05:52Z</time>
      </trkpt>
      <trkpt lat="45.98275" lon="4.80068">
        <ele>229</ele>
        <time>2018-11-11T10:05:53Z</time>
      </trkpt>
      <trkpt lat="45.98277" lon="4.80075">
        <ele>229</ele>
        <time>2018-11-11T10:05:54Z</time>
      </trkpt>
      <trkpt lat="45.9828" lon="4.8008">
        <ele>229</ele>
        <time>2018-11-11T10:05:55Z</time>
      </trkpt>
      <trkpt lat="45.98282" lon="4.80086">
        <ele>228</ele>
        <time>2018-11-11T10:05:56Z</time>
      </trkpt>
      <trkpt lat="45.98284" lon="4.80092">
        <ele>228</ele>
        <time>2018-11-11T10:05:57Z</time>
      </trkpt>
      <trkpt lat="45.98286" lon="4.80098">
        <ele>228</ele>
        <time>2018-11-11T10:05:58Z</time>
      </trkpt>
      <trkpt lat="45.98289" lon="4.80104">
        <ele>228</ele>
        <time>2018-11-11T10:05:59Z</time>
      </trkpt>
      <trkpt lat="45.98291" lon="4.8011">
        <ele>228</ele>
        <time>2018-11-11T10:06:00Z</time>
      </trkpt>
      <trkpt lat="45.98293" lon="4.80115">
        <ele>228</ele>
        <time>2018-11-11T10:06:01Z</time>
      </trkpt>
      <trkpt lat="45.98296" lon="4.80122">
        <ele>228</ele>
        <time>2018-11-11T10:06:02Z</time>
      </trkpt>
      <trkpt lat="45.98298" lon="4.80128">
        <ele>228</ele>
        <time>2018-11-11T10:06:03Z</time>
      </trkpt>
      <trkpt lat="45.983" lon="4.80134">
        <ele>228</ele>
        <time>2018-11-11T10:06:04Z</time>
      </trkpt>
      <trkpt lat="45.98304" lon="4.80145">
        <ele>228</ele>
        <time>2018-11-11T10:06:06Z</time>
      </trkpt>
      <trkpt lat="45.98305" lon="4.80151">
        <ele>228</ele>
        <time>2018-11-11T10:06:07Z</time>
      </trkpt>
      <trkpt lat="45.98308" lon="4.80157">
        <ele>228</ele>
        <time>2018-11-11T10:06:08Z</time>
      </trkpt>
      <trkpt lat="45.9831" lon="4.80163">
        <ele>228</ele>
        <time>2018-11-11T10:06:09Z</time>
      </trkpt>
      <trkpt lat="45.98313" lon="4.80169">
        <ele>227</ele>
        <time>2018-11-11T10:06:10Z</time>
      </trkpt>
      <trkpt lat="45.98315" lon="4.80174">
        <ele>227</ele>
        <time>2018-11-11T10:06:11Z</time>
      </trkpt>
      <trkpt lat="45.98319" lon="4.80186">
        <ele>227</ele>
        <time>2018-11-11T10:06:13Z</time>
      </trkpt>
      <trkpt lat="45.98321" lon="4.80191">
        <ele>227</ele>
        <time>2018-11-11T10:06:14Z</time>
      </trkpt>
      <trkpt lat="45.98325" lon="4.80202">
        <ele>227</ele>
        <time>2018-11-11T10:06:16Z</time>
      </trkpt>
      <trkpt lat="45.98327" lon="4.80207">
        <ele>227</ele>
        <time>2018-11-11T10:06:17Z</time>
      </trkpt>
      <trkpt lat="45.98329" lon="4.80212">
        <ele>227</ele>
        <time>2018-11-11T10:06:18Z</time>
      </trkpt>
      <trkpt lat="45.9833" lon="4.8022">
        <ele>227</ele>
        <time>2018-11-11T10:06:19Z</time>
      </trkpt>
      <trkpt lat="45.98329" lon="4.80228">
        <ele>228</ele>
        <time>2018-11-11T10:06:20Z</time>
      </trkpt>
      <trkpt lat="45.98328" lon="4.80236">
        <ele>228</ele>
        <time>2018-11-11T10:06:21Z</time>
      </trkpt>
      <trkpt lat="45.98327" lon="4.80242">
        <ele>229</ele>
        <time>2018-11-11T10:06:22Z</time>
      </trkpt>
      <trkpt lat="45.98325" lon="4.80249">
        <ele>229</ele>
        <time>2018-11-11T10:06:23Z</time>
      </trkpt>
      <trkpt lat="45.98324" lon="4.80257">
        <ele>228</ele>
        <time>2018-11-11T10:06:24Z</time>
      </trkpt>
      <trkpt lat="45.98323" lon="4.80265">
        <ele>228</ele>
        <time>2018-11-11T10:06:25Z</time>
      </trkpt>
      <trkpt lat="45.98321" lon="4.80272">
        <ele>227</ele>
        <time>2018-11-11T10:06:26Z</time>
      </trkpt>
      <trkpt lat="45.98319" lon="4.80281">
        <ele>227</ele>
        <time>2018-11-11T10:06:27Z</time>
      </trkpt>
      <trkpt lat="45.98318" lon="4.80288">
        <ele>226</ele>
        <time>2018-11-11T10:06:28Z</time>
      </trkpt>
      <trkpt lat="45.98316" lon="4.80297">
        <ele>226</ele>
        <time>2018-11-11T10:06:29Z</time>
      </trkpt>
      <trkpt lat="45.98314" lon="4.80305">
        <ele>226</ele>
        <time>2018-11-11T10:06:30Z</time>
      </trkpt>
      <trkpt lat="45.98313" lon="4.80313">
        <ele>226</ele>
        <time>2018-11-11T10:06:31Z</time>
      </trkpt>
      <trkpt lat="45.98311" lon="4.80322">
        <ele>227</ele>
        <time>2018-11-11T10:06:32Z</time>
      </trkpt>
      <trkpt lat="45.98309" lon="4.8033">
        <ele>227</ele>
        <time>2018-11-11T10:06:33Z</time>
      </trkpt>
      <trkpt lat="45.98307" lon="4.80338">
        <ele>226</ele>
        <time>2018-11-11T10:06:34Z</time>
      </trkpt>
      <trkpt lat="45.98305" lon="4.80346">
        <ele>226</ele>
        <time>2018-11-11T10:06:35Z</time>
      </trkpt>
      <trkpt lat="45.98304" lon="4.80354">
        <ele>225</ele>
        <time>2018-11-11T10:06:36Z</time>
      </trkpt>
      <trkpt lat="45.98302" lon="4.80362">
        <ele>225</ele>
        <time>2018-11-11T10:06:37Z</time>
      </trkpt>
      <trkpt lat="45.98301" lon="4.80369">
        <ele>225</ele>
        <time>2018-11-11T10:06:38Z</time>
      </trkpt>
      <trkpt lat="45.983" lon="4.80377">
        <ele>225</ele>
        <time>2018-11-11T10:06:39Z</time>
      </trkpt>
      <trkpt lat="45.98297" lon="4.80384">
        <ele>225</ele>
        <time>2018-11-11T10:06:40Z</time>
      </trkpt>
      <trkpt lat="45.98295" lon="4.80392">
        <ele>224</ele>
        <time>2018-11-11T10:06:41Z</time>
      </trkpt>
      <trkpt lat="45.98293" lon="4.80399">
        <ele>224</ele>
        <time>2018-11-11T10:06:42Z</time>
      </trkpt>
      <trkpt lat="45.98291" lon="4.80407">
        <ele>224</ele>
        <time>2018-11-11T10:06:43Z</time>
      </trkpt>
      <trkpt lat="45.98289" lon="4.80414">
        <ele>224</ele>
        <time>2018-11-11T10:06:44Z</time>
      </trkpt>
      <trkpt lat="45.98288" lon="4.80422">
        <ele>224</ele>
        <time>2018-11-11T10:06:45Z</time>
      </trkpt>
      <trkpt lat="45.98286" lon="4.80428">
        <ele>223</ele>
        <time>2018-11-11T10:06:46Z</time>
      </trkpt>
      <trkpt lat="45.98284" lon="4.80437">
        <ele>223</ele>
        <time>2018-11-11T10:06:47Z</time>
      </trkpt>
      <trkpt lat="45.98283" lon="4.80445">
        <ele>223</ele>
        <time>2018-11-11T10:06:48Z</time>
      </trkpt>
      <trkpt lat="45.98281" lon="4.80453">
        <ele>223</ele>
        <time>2018-11-11T10:06:49Z</time>
      </trkpt>
      <trkpt lat="45.98279" lon="4.8046">
        <ele>223</ele>
        <time>2018-11-11T10:06:50Z</time>
      </trkpt>
      <trkpt lat="45.98277" lon="4.80467">
        <ele>223</ele>
        <time>2018-11-11T10:06:51Z</time>
      </trkpt>
      <trkpt lat="45.98276" lon="4.80474">
        <ele>223</ele>
        <time>2018-11-11T10:06:52Z</time>
      </trkpt>
      <trkpt lat="45.98275" lon="4.80481">
        <ele>223</ele>
        <time>2018-11-11T10:06:53Z</time>
      </trkpt>
      <trkpt lat="45.98276" lon="4.80488">
        <ele>223</ele>
        <time>2018-11-11T10:06:54Z</time>
      </trkpt>
      <trkpt lat="45.98274" lon="4.80496">
        <ele>223</ele>
        <time>2018-11-11T10:06:55Z</time>
      </trkpt>
      <trkpt lat="45.98273" lon="4.80503">
        <ele>223</ele>
        <time>2018-11-11T10:06:56Z</time>
      </trkpt>
      <trkpt lat="45.98271" lon="4.80511">
        <ele>223</ele>
        <time>2018-11-11T10:06:57Z</time>
      </trkpt>
      <trkpt lat="45.98269" lon="4.80517">
        <ele>223</ele>
        <time>2018-11-11T10:06:58Z</time>
      </trkpt>
      <trkpt lat="45.98267" lon="4.80523">
        <ele>224</ele>
        <time>2018-11-11T10:06:59Z</time>
      </trkpt>
      <trkpt lat="45.98265" lon="4.80531">
        <ele>224</ele>
        <time>2018-11-11T10:07:00Z</time>
      </trkpt>
      <trkpt lat="45.98263" lon="4.80538">
        <ele>224</ele>
        <time>2018-11-11T10:07:01Z</time>
      </trkpt>
      <trkpt lat="45.98261" lon="4.80544">
        <ele>224</ele>
        <time>2018-11-11T10:07:02Z</time>
      </trkpt>
      <trkpt lat="45.98258" lon="4.80551">
        <ele>224</ele>
        <time>2018-11-11T10:07:03Z</time>
      </trkpt>
      <trkpt lat="45.98256" lon="4.80557">
        <ele>224</ele>
        <time>2018-11-11T10:07:04Z</time>
      </trkpt>
      <trkpt lat="45.98253" lon="4.80564">
        <ele>224</ele>
        <time>2018-11-11T10:07:05Z</time>
      </trkpt>
      <trkpt lat="45.98251" lon="4.80571">
        <ele>224</ele>
        <time>2018-11-11T10:07:06Z</time>
      </trkpt>
      <trkpt lat="45.98248" lon="4.80578">
        <ele>224</ele>
        <time>2018-11-11T10:07:07Z</time>
      </trkpt>
      <trkpt lat="45.98246" lon="4.80585">
        <ele>224</ele>
        <time>2018-11-11T10:07:08Z</time>
      </trkpt>
      <trkpt lat="45.98244" lon="4.80591">
        <ele>224</ele>
        <time>2018-11-11T10:07:09Z</time>
      </trkpt>
      <trkpt lat="45.98242" lon="4.80599">
        <ele>224</ele>
        <time>2018-11-11T10:07:10Z</time>
      </trkpt>
      <trkpt lat="45.9824" lon="4.80606">
        <ele>224</ele>
        <time>2018-11-11T10:07:11Z</time>
      </trkpt>
      <trkpt lat="45.98237" lon="4.80613">
        <ele>224</ele>
        <time>2018-11-11T10:07:12Z</time>
      </trkpt>
      <trkpt lat="45.98235" lon="4.8062">
        <ele>224</ele>
        <time>2018-11-11T10:07:13Z</time>
      </trkpt>
      <trkpt lat="45.98233" lon="4.80626">
        <ele>224</ele>
        <time>2018-11-11T10:07:14Z</time>
      </trkpt>
      <trkpt lat="45.98231" lon="4.80633">
        <ele>224</ele>
        <time>2018-11-11T10:07:15Z</time>
      </trkpt>
      <trkpt lat="45.98228" lon="4.80639">
        <ele>224</ele>
        <time>2018-11-11T10:07:16Z</time>
      </trkpt>
      <trkpt lat="45.98226" lon="4.80645">
        <ele>224</ele>
        <time>2018-11-11T10:07:17Z</time>
      </trkpt>
      <trkpt lat="45.98222" lon="4.80656">
        <ele>224</ele>
        <time>2018-11-11T10:07:19Z</time>
      </trkpt>
      <trkpt lat="45.98219" lon="4.80661">
        <ele>224</ele>
        <time>2018-11-11T10:07:20Z</time>
      </trkpt>
      <trkpt lat="45.98213" lon="4.80667">
        <ele>224</ele>
        <time>2018-11-11T10:07:22Z</time>
      </trkpt>
      <trkpt lat="45.9821" lon="4.80667">
        <ele>224</ele>
        <time>2018-11-11T10:07:23Z</time>
      </trkpt>
      <trkpt lat="45.98205" lon="4.80669">
        <ele>224</ele>
        <time>2018-11-11T10:07:24Z</time>
      </trkpt>
      <trkpt lat="45.98201" lon="4.80672">
        <ele>225</ele>
        <time>2018-11-11T10:07:25Z</time>
      </trkpt>
      <trkpt lat="45.98193" lon="4.80676">
        <ele>225</ele>
        <time>2018-11-11T10:07:28Z</time>
      </trkpt>
      <trkpt lat="45.98187" lon="4.80678">
        <ele>225</ele>
        <time>2018-11-11T10:07:29Z</time>
      </trkpt>
      <trkpt lat="45.9818" lon="4.80681">
        <ele>225</ele>
        <time>2018-11-11T10:07:31Z</time>
      </trkpt>
      <trkpt lat="45.98177" lon="4.80682">
        <ele>225</ele>
        <time>2018-11-11T10:07:32Z</time>
      </trkpt>
      <trkpt lat="45.98169" lon="4.80684">
        <ele>225</ele>
        <time>2018-11-11T10:07:34Z</time>
      </trkpt>
      <trkpt lat="45.98165" lon="4.80684">
        <ele>227</ele>
        <time>2018-11-11T10:07:35Z</time>
      </trkpt>
      <trkpt lat="45.98158" lon="4.80685">
        <ele>227</ele>
        <time>2018-11-11T10:07:37Z</time>
      </trkpt>
      <trkpt lat="45.98156" lon="4.80685">
        <ele>227</ele>
        <time>2018-11-11T10:07:38Z</time>
      </trkpt>
      <trkpt lat="45.98147" lon="4.80685">
        <ele>227</ele>
        <time>2018-11-11T10:07:40Z</time>
      </trkpt>
      <trkpt lat="45.98143" lon="4.80685">
        <ele>228</ele>
        <time>2018-11-11T10:07:41Z</time>
      </trkpt>
      <trkpt lat="45.98136" lon="4.80686">
        <ele>228</ele>
        <time>2018-11-11T10:07:43Z</time>
      </trkpt>
      <trkpt lat="45.98134" lon="4.80687">
        <ele>228</ele>
        <time>2018-11-11T10:07:44Z</time>
      </trkpt>
      <trkpt lat="45.98125" lon="4.80688">
        <ele>228</ele>
        <time>2018-11-11T10:07:46Z</time>
      </trkpt>
      <trkpt lat="45.98123" lon="4.80688">
        <ele>228</ele>
        <time>2018-11-11T10:07:47Z</time>
      </trkpt>
      <trkpt lat="45.98114" lon="4.80687">
        <ele>228</ele>
        <time>2018-11-11T10:07:50Z</time>
      </trkpt>
      <trkpt lat="45.9811" lon="4.80687">
        <ele>228</ele>
        <time>2018-11-11T10:07:51Z</time>
      </trkpt>
      <trkpt lat="45.98104" lon="4.80688">
        <ele>228</ele>
        <time>2018-11-11T10:07:53Z</time>
      </trkpt>
      <trkpt lat="45.98101" lon="4.80688">
        <ele>228</ele>
        <time>2018-11-11T10:07:54Z</time>
      </trkpt>
      <trkpt lat="45.98095" lon="4.80688">
        <ele>228</ele>
        <time>2018-11-11T10:07:56Z</time>
      </trkpt>
      <trkpt lat="45.98091" lon="4.80687">
        <ele>228</ele>
        <time>2018-11-11T10:07:57Z</time>
      </trkpt>
      <trkpt lat="45.98085" lon="4.80687">
        <ele>228</ele>
        <time>2018-11-11T10:07:59Z</time>
      </trkpt>
      <trkpt lat="45.98081" lon="4.80687">
        <ele>229</ele>
        <time>2018-11-11T10:08:00Z</time>
      </trkpt>
      <trkpt lat="45.98073" lon="4.80688">
        <ele>230</ele>
        <time>2018-11-11T10:08:03Z</time>
      </trkpt>
      <trkpt lat="45.9807" lon="4.80688">
        <ele>230</ele>
        <time>2018-11-11T10:08:04Z</time>
      </trkpt>
      <trkpt lat="45.98061" lon="4.80688">
        <ele>230</ele>
        <time>2018-11-11T10:08:07Z</time>
      </trkpt>
      <trkpt lat="45.98059" lon="4.80688">
        <ele>230</ele>
        <time>2018-11-11T10:08:08Z</time>
      </trkpt>
      <trkpt lat="45.9805" lon="4.80689">
        <ele>230</ele>
        <time>2018-11-11T10:08:11Z</time>
      </trkpt>
      <trkpt lat="45.98046" lon="4.80689">
        <ele>230</ele>
        <time>2018-11-11T10:08:12Z</time>
      </trkpt>
      <trkpt lat="45.98038" lon="4.80691">
        <ele>230</ele>
        <time>2018-11-11T10:08:15Z</time>
      </trkpt>
      <trkpt lat="45.98035" lon="4.80692">
        <ele>230</ele>
        <time>2018-11-11T10:08:16Z</time>
      </trkpt>
      <trkpt lat="45.98028" lon="4.80698">
        <ele>230</ele>
        <time>2018-11-11T10:08:19Z</time>
      </trkpt>
      <trkpt lat="45.98026" lon="4.80701">
        <ele>231</ele>
        <time>2018-11-11T10:08:20Z</time>
      </trkpt>
      <trkpt lat="45.98026" lon="4.80711">
        <ele>231</ele>
        <time>2018-11-11T10:08:23Z</time>
      </trkpt>
      <trkpt lat="45.98027" lon="4.80715">
        <ele>231</ele>
        <time>2018-11-11T10:08:24Z</time>
      </trkpt>
      <trkpt lat="45.98031" lon="4.80724">
        <ele>231</ele>
        <time>2018-11-11T10:08:27Z</time>
      </trkpt>
      <trkpt lat="45.98032" lon="4.80727">
        <ele>231</ele>
        <time>2018-11-11T10:08:28Z</time>
      </trkpt>
      <trkpt lat="45.98034" lon="4.80739">
        <ele>231</ele>
        <time>2018-11-11T10:08:32Z</time>
      </trkpt>
      <trkpt lat="45.98035" lon="4.80742">
        <ele>231</ele>
        <time>2018-11-11T10:08:33Z</time>
      </trkpt>
      <trkpt lat="45.98038" lon="4.80754">
        <ele>233</ele>
        <time>2018-11-11T10:08:36Z</time>
      </trkpt>
      <trkpt lat="45.98039" lon="4.80759">
        <ele>233</ele>
        <time>2018-11-11T10:08:37Z</time>
      </trkpt>
      <trkpt lat="45.98042" lon="4.80771">
        <ele>233</ele>
        <time>2018-11-11T10:08:40Z</time>
      </trkpt>
      <trkpt lat="45.98042" lon="4.80774">
        <ele>233</ele>
        <time>2018-11-11T10:08:41Z</time>
      </trkpt>
      <trkpt lat="45.98045" lon="4.80786">
        <ele>233</ele>
        <time>2018-11-11T10:08:44Z</time>
      </trkpt>
      <trkpt lat="45.98046" lon="4.8079">
        <ele>233</ele>
        <time>2018-11-11T10:08:45Z</time>
      </trkpt>
      <trkpt lat="45.98048" lon="4.80802">
        <ele>234</ele>
        <time>2018-11-11T10:08:48Z</time>
      </trkpt>
      <trkpt lat="45.98049" lon="4.80805">
        <ele>234</ele>
        <time>2018-11-11T10:08:49Z</time>
      </trkpt>
      <trkpt lat="45.98052" lon="4.80817">
        <ele>234</ele>
        <time>2018-11-11T10:08:52Z</time>
      </trkpt>
      <trkpt lat="45.98053" lon="4.80821">
        <ele>234</ele>
        <time>2018-11-11T10:08:53Z</time>
      </trkpt>
      <trkpt lat="45.98056" lon="4.80831">
        <ele>234</ele>
        <time>2018-11-11T10:08:56Z</time>
      </trkpt>
      <trkpt lat="45.98057" lon="4.80834">
        <ele>236</ele>
        <time>2018-11-11T10:08:57Z</time>
      </trkpt>
      <trkpt lat="45.9806" lon="4.80845">
        <ele>236</ele>
        <time>2018-11-11T10:09:00Z</time>
      </trkpt>
      <trkpt lat="45.9806" lon="4.80848">
        <ele>236</ele>
        <time>2018-11-11T10:09:01Z</time>
      </trkpt>
      <trkpt lat="45.98062" lon="4.80859">
        <ele>236</ele>
        <time>2018-11-11T10:09:04Z</time>
      </trkpt>
      <trkpt lat="45.98063" lon="4.80863">
        <ele>237</ele>
        <time>2018-11-11T10:09:05Z</time>
      </trkpt>
      <trkpt lat="45.98065" lon="4.80873">
        <ele>237</ele>
        <time>2018-11-11T10:09:08Z</time>
      </trkpt>
      <trkpt lat="45.98066" lon="4.80876">
        <ele>237</ele>
        <time>2018-11-11T10:09:09Z</time>
      </trkpt>
      <trkpt lat="45.98068" lon="4.80885">
        <ele>237</ele>
        <time>2018-11-11T10:09:12Z</time>
      </trkpt>
      <trkpt lat="45.9807" lon="4.80889">
        <ele>238</ele>
        <time>2018-11-11T10:09:13Z</time>
      </trkpt>
      <trkpt lat="45.98072" lon="4.80898">
        <ele>238</ele>
        <time>2018-11-11T10:09:16Z</time>
      </trkpt>
      <trkpt lat="45.98073" lon="4.80902">
        <ele>238</ele>
        <time>2018-11-11T10:09:17Z</time>
      </trkpt>
      <trkpt lat="45.98075" lon="4.80912">
        <ele>238</ele>
        <time>2018-11-11T10:09:20Z</time>
      </trkpt>
      <trkpt lat="45.98076" lon="4.80914">
        <ele>239</ele>
        <time>2018-11-11T10:09:21Z</time>
      </trkpt>
      <trkpt lat="45.9808" lon="4.80926">
        <ele>240</ele>
        <time>2018-11-11T10:09:25Z</time>
      </trkpt>
      <trkpt lat="45.98081" lon="4.80929">
        <ele>240</ele>
        <time>2018-11-11T10:09:26Z</time>
      </trkpt>
      <trkpt lat="45.98084" lon="4.8094">
        <ele>238</ele>
        <time>2018-11-11T10:09:30Z</time>
      </trkpt>
      <trkpt lat="45.98084" lon="4.80943">
        <ele>238</ele>
        <time>2018-11-11T10:09:31Z</time>
      </trkpt>
      <trkpt lat="45.98087" lon="4.80954">
        <ele>238</ele>
        <time>2018-11-11T10:09:35Z</time>
      </trkpt>
      <trkpt lat="45.98087" lon="4.80956">
        <ele>239</ele>
        <time>2018-11-11T10:09:36Z</time>
      </trkpt>
      <trkpt lat="45.98089" lon="4.80966">
        <ele>239</ele>
        <time>2018-11-11T10:09:40Z</time>
      </trkpt>
      <trkpt lat="45.9809" lon="4.80968">
        <ele>239</ele>
        <time>2018-11-11T10:09:41Z</time>
      </trkpt>
      <trkpt lat="45.98094" lon="4.80979">
        <ele>239</ele>
        <time>2018-11-11T10:09:46Z</time>
      </trkpt>
      <trkpt lat="45.98094" lon="4.80981">
        <ele>240</ele>
        <time>2018-11-11T10:09:47Z</time>
      </trkpt>
      <trkpt lat="45.98097" lon="4.8099">
        <ele>240</ele>
        <time>2018-11-11T10:09:50Z</time>
      </trkpt>
      <trkpt lat="45.98099" lon="4.80999">
        <ele>240</ele>
        <time>2018-11-11T10:09:51Z</time>
      </trkpt>
      <trkpt lat="45.98103" lon="4.81009">
        <ele>242</ele>
        <time>2018-11-11T10:09:53Z</time>
      </trkpt>
      <trkpt lat="45.98105" lon="4.81014">
        <ele>242</ele>
        <time>2018-11-11T10:09:54Z</time>
      </trkpt>
      <trkpt lat="45.98108" lon="4.81025">
        <ele>242</ele>
        <time>2018-11-11T10:09:56Z</time>
      </trkpt>
      <trkpt lat="45.9811" lon="4.8103">
        <ele>242</ele>
        <time>2018-11-11T10:09:57Z</time>
      </trkpt>
      <trkpt lat="45.98114" lon="4.8104">
        <ele>242</ele>
        <time>2018-11-11T10:09:59Z</time>
      </trkpt>
      <trkpt lat="45.98116" lon="4.81046">
        <ele>242</ele>
        <time>2018-11-11T10:10:00Z</time>
      </trkpt>
      <trkpt lat="45.98119" lon="4.81055">
        <ele>243</ele>
        <time>2018-11-11T10:10:02Z</time>
      </trkpt>
      <trkpt lat="45.9812" lon="4.81058">
        <ele>243</ele>
        <time>2018-11-11T10:10:03Z</time>
      </trkpt>
      <trkpt lat="45.98124" lon="4.81068">
        <ele>243</ele>
        <time>2018-11-11T10:10:06Z</time>
      </trkpt>
      <trkpt lat="45.98125" lon="4.81072">
        <ele>243</ele>
        <time>2018-11-11T10:10:07Z</time>
      </trkpt>
      <trkpt lat="45.98129" lon="4.81082">
        <ele>243</ele>
        <time>2018-11-11T10:10:10Z</time>
      </trkpt>
      <trkpt lat="45.98131" lon="4.81086">
        <ele>245</ele>
        <time>2018-11-11T10:10:11Z</time>
      </trkpt>
      <trkpt lat="45.98134" lon="4.81096">
        <ele>245</ele>
        <time>2018-11-11T10:10:12Z</time>
      </trkpt>
      <trkpt lat="45.98136" lon="4.81101">
        <ele>245</ele>
        <time>2018-11-11T10:10:13Z</time>
      </trkpt>
      <trkpt lat="45.9814" lon="4.8111">
        <ele>245</ele>
        <time>2018-11-11T10:10:15Z</time>
      </trkpt>
      <trkpt lat="45.98141" lon="4.81113">
        <ele>245</ele>
        <time>2018-11-11T10:10:16Z</time>
      </trkpt>
      <trkpt lat="45.98145" lon="4.81121">
        <ele>245</ele>
        <time>2018-11-11T10:10:18Z</time>
      </trkpt>
      <trkpt lat="45.98147" lon="4.81124">
        <ele>245</ele>
        <time>2018-11-11T10:10:19Z</time>
      </trkpt>
      <trkpt lat="45.9815" lon="4.81131">
        <ele>245</ele>
        <time>2018-11-11T10:10:21Z</time>
      </trkpt>
      <trkpt lat="45.98151" lon="4.81136">
        <ele>245</ele>
        <time>2018-11-11T10:10:22Z</time>
      </trkpt>
      <trkpt lat="45.98154" lon="4.81145">
        <ele>245</ele>
        <time>2018-11-11T10:10:24Z</time>
      </trkpt>
      <trkpt lat="45.98155" lon="4.81149">
        <ele>245</ele>
        <time>2018-11-11T10:10:25Z</time>
      </trkpt>
      <trkpt lat="45.98156" lon="4.81153">
        <ele>245</ele>
        <time>2018-11-11T10:10:26Z</time>
      </trkpt>
      <trkpt lat="45.98159" lon="4.81161">
        <ele>245</ele>
        <time>2018-11-11T10:10:27Z</time>
      </trkpt>
      <trkpt lat="45.98163" lon="4.81173">
        <ele>245</ele>
        <time>2018-11-11T10:10:30Z</time>
      </trkpt>
      <trkpt lat="45.98163" lon="4.81176">
        <ele>246</ele>
        <time>2018-11-11T10:10:31Z</time>
      </trkpt>
      <trkpt lat="45.98165" lon="4.81185">
        <ele>246</ele>
        <time>2018-11-11T10:10:32Z</time>
      </trkpt>
      <trkpt lat="45.98165" lon="4.81189">
        <ele>246</ele>
        <time>2018-11-11T10:10:33Z</time>
      </trkpt>
      <trkpt lat="45.98166" lon="4.81201">
        <ele>246</ele>
        <time>2018-11-11T10:10:35Z</time>
      </trkpt>
      <trkpt lat="45.98167" lon="4.81207">
        <ele>247</ele>
        <time>2018-11-11T10:10:36Z</time>
      </trkpt>
      <trkpt lat="45.98168" lon="4.81219">
        <ele>246</ele>
        <time>2018-11-11T10:10:38Z</time>
      </trkpt>
      <trkpt lat="45.98169" lon="4.81224">
        <ele>246</ele>
        <time>2018-11-11T10:10:39Z</time>
      </trkpt>
      <trkpt lat="45.98171" lon="4.81236">
        <ele>247</ele>
        <time>2018-11-11T10:10:41Z</time>
      </trkpt>
      <trkpt lat="45.98172" lon="4.81241">
        <ele>247</ele>
        <time>2018-11-11T10:10:42Z</time>
      </trkpt>
      <trkpt lat="45.98173" lon="4.81252">
        <ele>248</ele>
        <time>2018-11-11T10:10:44Z</time>
      </trkpt>
      <trkpt lat="45.98174" lon="4.81257">
        <ele>247</ele>
        <time>2018-11-11T10:10:45Z</time>
      </trkpt>
      <trkpt lat="45.98175" lon="4.81267">
        <ele>247</ele>
        <time>2018-11-11T10:10:47Z</time>
      </trkpt>
      <trkpt lat="45.98176" lon="4.81271">
        <ele>247</ele>
        <time>2018-11-11T10:10:48Z</time>
      </trkpt>
      <trkpt lat="45.98178" lon="4.81282">
        <ele>247</ele>
        <time>2018-11-11T10:10:51Z</time>
      </trkpt>
      <trkpt lat="45.98179" lon="4.81287">
        <ele>247</ele>
        <time>2018-11-11T10:10:52Z</time>
      </trkpt>
      <trkpt lat="45.98181" lon="4.813">
        <ele>247</ele>
        <time>2018-11-11T10:10:54Z</time>
      </trkpt>
      <trkpt lat="45.98183" lon="4.81307">
        <ele>247</ele>
        <time>2018-11-11T10:10:55Z</time>
      </trkpt>
      <trkpt lat="45.98185" lon="4.81318">
        <ele>247</ele>
        <time>2018-11-11T10:10:58Z</time>
      </trkpt>
      <trkpt lat="45.98186" lon="4.81323">
        <ele>247</ele>
        <time>2018-11-11T10:10:59Z</time>
      </trkpt>
      <trkpt lat="45.98188" lon="4.81333">
        <ele>247</ele>
        <time>2018-11-11T10:11:01Z</time>
      </trkpt>
      <trkpt lat="45.98189" lon="4.81337">
        <ele>248</ele>
        <time>2018-11-11T10:11:02Z</time>
      </trkpt>
      <trkpt lat="45.98191" lon="4.81346">
        <ele>248</ele>
        <time>2018-11-11T10:11:04Z</time>
      </trkpt>
      <trkpt lat="45.98192" lon="4.81351">
        <ele>248</ele>
        <time>2018-11-11T10:11:05Z</time>
      </trkpt>
      <trkpt lat="45.98194" lon="4.8136">
        <ele>248</ele>
        <time>2018-11-11T10:11:07Z</time>
      </trkpt>
      <trkpt lat="45.98195" lon="4.81365">
        <ele>248</ele>
        <time>2018-11-11T10:11:08Z</time>
      </trkpt>
      <trkpt lat="45.98197" lon="4.81375">
        <ele>248</ele>
        <time>2018-11-11T10:11:10Z</time>
      </trkpt>
      <trkpt lat="45.98199" lon="4.81379">
        <ele>248</ele>
        <time>2018-11-11T10:11:11Z</time>
      </trkpt>
      <trkpt lat="45.98201" lon="4.81388">
        <ele>248</ele>
        <time>2018-11-11T10:11:13Z</time>
      </trkpt>
      <trkpt lat="45.98205" lon="4.81399">
        <ele>248</ele>
        <time>2018-11-11T10:11:14Z</time>
      </trkpt>
      <trkpt lat="45.98209" lon="4.81409">
        <ele>248</ele>
        <time>2018-11-11T10:11:17Z</time>
      </trkpt>
      <trkpt lat="45.9821" lon="4.81413">
        <ele>248</ele>
        <time>2018-11-11T10:11:18Z</time>
      </trkpt>
      <trkpt lat="45.98214" lon="4.81422">
        <ele>249</ele>
        <time>2018-11-11T10:11:19Z</time>
      </trkpt>
      <trkpt lat="45.98215" lon="4.81427">
        <ele>249</ele>
        <time>2018-11-11T10:11:20Z</time>
      </trkpt>
      <trkpt lat="45.98219" lon="4.81436">
        <ele>249</ele>
        <time>2018-11-11T10:11:22Z</time>
      </trkpt>
      <trkpt lat="45.9822" lon="4.8144">
        <ele>249</ele>
        <time>2018-11-11T10:11:23Z</time>
      </trkpt>
      <trkpt lat="45.98224" lon="4.8145">
        <ele>249</ele>
        <time>2018-11-11T10:11:25Z</time>
      </trkpt>
      <trkpt lat="45.98226" lon="4.81455">
        <ele>249</ele>
        <time>2018-11-11T10:11:26Z</time>
      </trkpt>
      <trkpt lat="45.98229" lon="4.81465">
        <ele>249</ele>
        <time>2018-11-11T10:11:28Z</time>
      </trkpt>
      <trkpt lat="45.9823" lon="4.8147">
        <ele>249</ele>
        <time>2018-11-11T10:11:29Z</time>
      </trkpt>
      <trkpt lat="45.98234" lon="4.8148">
        <ele>249</ele>
        <time>2018-11-11T10:11:31Z</time>
      </trkpt>
      <trkpt lat="45.98235" lon="4.81486">
        <ele>249</ele>
        <time>2018-11-11T10:11:32Z</time>
      </trkpt>
      <trkpt lat="45.98238" lon="4.81498">
        <ele>249</ele>
        <time>2018-11-11T10:11:34Z</time>
      </trkpt>
      <trkpt lat="45.9824" lon="4.81503">
        <ele>249</ele>
        <time>2018-11-11T10:11:35Z</time>
      </trkpt>
      <trkpt lat="45.98243" lon="4.8151">
        <ele>249</ele>
        <time>2018-11-11T10:11:36Z</time>
      </trkpt>
      <trkpt lat="45.98245" lon="4.81516">
        <ele>249</ele>
        <time>2018-11-11T10:11:37Z</time>
      </trkpt>
      <trkpt lat="45.98247" lon="4.81522">
        <ele>249</ele>
        <time>2018-11-11T10:11:38Z</time>
      </trkpt>
      <trkpt lat="45.98249" lon="4.81528">
        <ele>249</ele>
        <time>2018-11-11T10:11:39Z</time>
      </trkpt>
      <trkpt lat="45.98253" lon="4.81537">
        <ele>247</ele>
        <time>2018-11-11T10:11:41Z</time>
      </trkpt>
      <trkpt lat="45.98255" lon="4.81542">
        <ele>247</ele>
        <time>2018-11-11T10:11:42Z</time>
      </trkpt>
      <trkpt lat="45.98259" lon="4.81553">
        <ele>247</ele>
        <time>2018-11-11T10:11:44Z</time>
      </trkpt>
      <trkpt lat="45.98261" lon="4.81558">
        <ele>247</ele>
        <time>2018-11-11T10:11:45Z</time>
      </trkpt>
      <trkpt lat="45.98265" lon="4.81569">
        <ele>247</ele>
        <time>2018-11-11T10:11:47Z</time>
      </trkpt>
      <trkpt lat="45.98267" lon="4.81574">
        <ele>247</ele>
        <time>2018-11-11T10:11:48Z</time>
      </trkpt>
      <trkpt lat="45.98269" lon="4.8158">
        <ele>247</ele>
        <time>2018-11-11T10:11:49Z</time>
      </trkpt>
      <trkpt lat="45.98271" lon="4.81586">
        <ele>247</ele>
        <time>2018-11-11T10:11:50Z</time>
      </trkpt>
      <trkpt lat="45.98273" lon="4.81593">
        <ele>247</ele>
        <time>2018-11-11T10:11:51Z</time>
      </trkpt>
      <trkpt lat="45.98275" lon="4.81598">
        <ele>247</ele>
        <time>2018-11-11T10:11:52Z</time>
      </trkpt>
      <trkpt lat="45.98278" lon="4.81603">
        <ele>247</ele>
        <time>2018-11-11T10:11:53Z</time>
      </trkpt>
      <trkpt lat="45.98282" lon="4.81608">
        <ele>247</ele>
        <time>2018-11-11T10:11:54Z</time>
      </trkpt>
      <trkpt lat="45.98285" lon="4.81614">
        <ele>247</ele>
        <time>2018-11-11T10:11:55Z</time>
      </trkpt>
      <trkpt lat="45.9829" lon="4.8162">
        <ele>246</ele>
        <time>2018-11-11T10:11:56Z</time>
      </trkpt>
      <trkpt lat="45.98293" lon="4.81624">
        <ele>246</ele>
        <time>2018-11-11T10:11:57Z</time>
      </trkpt>
      <trkpt lat="45.98297" lon="4.8163">
        <ele>246</ele>
        <time>2018-11-11T10:11:58Z</time>
      </trkpt>
      <trkpt lat="45.98301" lon="4.81634">
        <ele>246</ele>
        <time>2018-11-11T10:11:59Z</time>
      </trkpt>
      <trkpt lat="45.98305" lon="4.8164">
        <ele>246</ele>
        <time>2018-11-11T10:12:00Z</time>
      </trkpt>
      <trkpt lat="45.9831" lon="4.81643">
        <ele>246</ele>
        <time>2018-11-11T10:12:01Z</time>
      </trkpt>
      <trkpt lat="45.98314" lon="4.81648">
        <ele>246</ele>
        <time>2018-11-11T10:12:02Z</time>
      </trkpt>
      <trkpt lat="45.98318" lon="4.81651">
        <ele>246</ele>
        <time>2018-11-11T10:12:03Z</time>
      </trkpt>
      <trkpt lat="45.98323" lon="4.81656">
        <ele>246</ele>
        <time>2018-11-11T10:12:04Z</time>
      </trkpt>
      <trkpt lat="45.98328" lon="4.81659">
        <ele>246</ele>
        <time>2018-11-11T10:12:05Z</time>
      </trkpt>
      <trkpt lat="45.98333" lon="4.81663">
        <ele>246</ele>
        <time>2018-11-11T10:12:06Z</time>
      </trkpt>
      <trkpt lat="45.98339" lon="4.81666">
        <ele>245</ele>
        <time>2018-11-11T10:12:07Z</time>
      </trkpt>
      <trkpt lat="45.98344" lon="4.81669">
        <ele>245</ele>
        <time>2018-11-11T10:12:08Z</time>
      </trkpt>
      <trkpt lat="45.9835" lon="4.81671">
        <ele>245</ele>
        <time>2018-11-11T10:12:09Z</time>
      </trkpt>
      <trkpt lat="45.98356" lon="4.81671">
        <ele>245</ele>
        <time>2018-11-11T10:12:10Z</time>
      </trkpt>
      <trkpt lat="45.98362" lon="4.81671">
        <ele>244</ele>
        <time>2018-11-11T10:12:11Z</time>
      </trkpt>
      <trkpt lat="45.98368" lon="4.81669">
        <ele>244</ele>
        <time>2018-11-11T10:12:12Z</time>
      </trkpt>
      <trkpt lat="45.98375" lon="4.81668">
        <ele>244</ele>
        <time>2018-11-11T10:12:13Z</time>
      </trkpt>
      <trkpt lat="45.98381" lon="4.81667">
        <ele>244</ele>
        <time>2018-11-11T10:12:14Z</time>
      </trkpt>
      <trkpt lat="45.98387" lon="4.81666">
        <ele>242</ele>
        <time>2018-11-11T10:12:15Z</time>
      </trkpt>
      <trkpt lat="45.98393" lon="4.81664">
        <ele>242</ele>
        <time>2018-11-11T10:12:16Z</time>
      </trkpt>
      <trkpt lat="45.984" lon="4.81663">
        <ele>242</ele>
        <time>2018-11-11T10:12:17Z</time>
      </trkpt>
      <trkpt lat="45.98406" lon="4.81662">
        <ele>241</ele>
        <time>2018-11-11T10:12:18Z</time>
      </trkpt>
      <trkpt lat="45.98412" lon="4.81661">
        <ele>241</ele>
        <time>2018-11-11T10:12:19Z</time>
      </trkpt>
      <trkpt lat="45.98418" lon="4.81661">
        <ele>240</ele>
        <time>2018-11-11T10:12:20Z</time>
      </trkpt>
      <trkpt lat="45.98424" lon="4.81662">
        <ele>240</ele>
        <time>2018-11-11T10:12:21Z</time>
      </trkpt>
      <trkpt lat="45.9843" lon="4.81664">
        <ele>239</ele>
        <time>2018-11-11T10:12:22Z</time>
      </trkpt>
      <trkpt lat="45.98435" lon="4.81668">
        <ele>240</ele>
        <time>2018-11-11T10:12:23Z</time>
      </trkpt>
      <trkpt lat="45.9844" lon="4.81673">
        <ele>240</ele>
        <time>2018-11-11T10:12:24Z</time>
      </trkpt>
      <trkpt lat="45.98444" lon="4.8168">
        <ele>239</ele>
        <time>2018-11-11T10:12:25Z</time>
      </trkpt>
      <trkpt lat="45.98449" lon="4.81685">
        <ele>239</ele>
        <time>2018-11-11T10:12:26Z</time>
      </trkpt>
      <trkpt lat="45.98453" lon="4.81692">
        <ele>239</ele>
        <time>2018-11-11T10:12:27Z</time>
      </trkpt>
      <trkpt lat="45.98457" lon="4.81699">
        <ele>239</ele>
        <time>2018-11-11T10:12:28Z</time>
      </trkpt>
      <trkpt lat="45.98462" lon="4.81706">
        <ele>239</ele>
        <time>2018-11-11T10:12:29Z</time>
      </trkpt>
      <trkpt lat="45.98467" lon="4.81713">
        <ele>239</ele>
        <time>2018-11-11T10:12:30Z</time>
      </trkpt>
      <trkpt lat="45.98472" lon="4.81721">
        <ele>239</ele>
        <time>2018-11-11T10:12:31Z</time>
      </trkpt>
      <trkpt lat="45.98479" lon="4.81728">
        <ele>238</ele>
        <time>2018-11-11T10:12:32Z</time>
      </trkpt>
      <trkpt lat="45.98486" lon="4.81735">
        <ele>238</ele>
        <time>2018-11-11T10:12:33Z</time>
      </trkpt>
      <trkpt lat="45.98492" lon="4.81742">
        <ele>238</ele>
        <time>2018-11-11T10:12:34Z</time>
      </trkpt>
      <trkpt lat="45.985" lon="4.8175">
        <ele>237</ele>
        <time>2018-11-11T10:12:35Z</time>
      </trkpt>
      <trkpt lat="45.98506" lon="4.81759">
        <ele>237</ele>
        <time>2018-11-11T10:12:36Z</time>
      </trkpt>
      <trkpt lat="45.98512" lon="4.81767">
        <ele>237</ele>
        <time>2018-11-11T10:12:37Z</time>
      </trkpt>
      <trkpt lat="45.98518" lon="4.81775">
        <ele>238</ele>
        <time>2018-11-11T10:12:38Z</time>
      </trkpt>
      <trkpt lat="45.98523" lon="4.81782">
        <ele>238</ele>
        <time>2018-11-11T10:12:39Z</time>
      </trkpt>
      <trkpt lat="45.98528" lon="4.81789">
        <ele>238</ele>
        <time>2018-11-11T10:12:40Z</time>
      </trkpt>
      <trkpt lat="45.98532" lon="4.81795">
        <ele>238</ele>
        <time>2018-11-11T10:12:41Z</time>
      </trkpt>
      <trkpt lat="45.98537" lon="4.818">
        <ele>238</ele>
        <time>2018-11-11T10:12:42Z</time>
      </trkpt>
      <trkpt lat="45.98542" lon="4.81804">
        <ele>238</ele>
        <time>2018-11-11T10:12:43Z</time>
      </trkpt>
      <trkpt lat="45.98547" lon="4.81806">
        <ele>238</ele>
        <time>2018-11-11T10:12:44Z</time>
      </trkpt>
      <trkpt lat="45.98552" lon="4.81805">
        <ele>238</ele>
        <time>2018-11-11T10:12:45Z</time>
      </trkpt>
      <trkpt lat="45.98557" lon="4.81802">
        <ele>238</ele>
        <time>2018-11-11T10:12:46Z</time>
      </trkpt>
      <trkpt lat="45.98562" lon="4.81798">
        <ele>238</ele>
        <time>2018-11-11T10:12:47Z</time>
      </trkpt>
      <trkpt lat="45.98566" lon="4.81794">
        <ele>238</ele>
        <time>2018-11-11T10:12:48Z</time>
      </trkpt>
      <trkpt lat="45.9857" lon="4.81789">
        <ele>238</ele>
        <time>2018-11-11T10:12:49Z</time>
      </trkpt>
      <trkpt lat="45.98573" lon="4.81784">
        <ele>238</ele>
        <time>2018-11-11T10:12:50Z</time>
      </trkpt>
      <trkpt lat="45.98577" lon="4.81779">
        <ele>238</ele>
        <time>2018-11-11T10:12:51Z</time>
      </trkpt>
      <trkpt lat="45.98581" lon="4.81775">
        <ele>237</ele>
        <time>2018-11-11T10:12:52Z</time>
      </trkpt>
      <trkpt lat="45.98585" lon="4.81771">
        <ele>238</ele>
        <time>2018-11-11T10:12:53Z</time>
      </trkpt>
      <trkpt lat="45.9859" lon="4.81767">
        <ele>238</ele>
        <time>2018-11-11T10:12:54Z</time>
      </trkpt>
      <trkpt lat="45.98594" lon="4.81764">
        <ele>238</ele>
        <time>2018-11-11T10:12:55Z</time>
      </trkpt>
      <trkpt lat="45.98599" lon="4.81762">
        <ele>238</ele>
        <time>2018-11-11T10:12:56Z</time>
      </trkpt>
      <trkpt lat="45.98604" lon="4.81759">
        <ele>238</ele>
        <time>2018-11-11T10:12:57Z</time>
      </trkpt>
      <trkpt lat="45.98609" lon="4.81756">
        <ele>238</ele>
        <time>2018-11-11T10:12:58Z</time>
      </trkpt>
      <trkpt lat="45.98614" lon="4.81755">
        <ele>238</ele>
        <time>2018-11-11T10:12:59Z</time>
      </trkpt>
      <trkpt lat="45.98619" lon="4.81753">
        <ele>238</ele>
        <time>2018-11-11T10:13:00Z</time>
      </trkpt>
      <trkpt lat="45.98624" lon="4.81752">
        <ele>238</ele>
        <time>2018-11-11T10:13:01Z</time>
      </trkpt>
      <trkpt lat="45.98629" lon="4.8175">
        <ele>237</ele>
        <time>2018-11-11T10:13:02Z</time>
      </trkpt>
      <trkpt lat="45.98635" lon="4.81748">
        <ele>237</ele>
        <time>2018-11-11T10:13:03Z</time>
      </trkpt>
      <trkpt lat="45.98639" lon="4.81746">
        <ele>237</ele>
        <time>2018-11-11T10:13:04Z</time>
      </trkpt>
      <trkpt lat="45.98644" lon="4.81745">
        <ele>237</ele>
        <time>2018-11-11T10:13:05Z</time>
      </trkpt>
      <trkpt lat="45.98652" lon="4.81742">
        <ele>237</ele>
        <time>2018-11-11T10:13:07Z</time>
      </trkpt>
      <trkpt lat="45.98657" lon="4.81741">
        <ele>237</ele>
        <time>2018-11-11T10:13:08Z</time>
      </trkpt>
      <trkpt lat="45.98662" lon="4.8174">
        <ele>237</ele>
        <time>2018-11-11T10:13:09Z</time>
      </trkpt>
      <trkpt lat="45.98666" lon="4.81739">
        <ele>237</ele>
        <time>2018-11-11T10:13:10Z</time>
      </trkpt>
      <trkpt lat="45.98671" lon="4.81737">
        <ele>238</ele>
        <time>2018-11-11T10:13:11Z</time>
      </trkpt>
      <trkpt lat="45.98675" lon="4.81736">
        <ele>238</ele>
        <time>2018-11-11T10:13:12Z</time>
      </trkpt>
      <trkpt lat="45.98684" lon="4.81734">
        <ele>238</ele>
        <time>2018-11-11T10:13:14Z</time>
      </trkpt>
      <trkpt lat="45.98688" lon="4.81733">
        <ele>238</ele>
        <time>2018-11-11T10:13:15Z</time>
      </trkpt>
      <trkpt lat="45.98693" lon="4.81732">
        <ele>238</ele>
        <time>2018-11-11T10:13:16Z</time>
      </trkpt>
      <trkpt lat="45.98697" lon="4.8173">
        <ele>239</ele>
        <time>2018-11-11T10:13:17Z</time>
      </trkpt>
      <trkpt lat="45.98706" lon="4.81727">
        <ele>239</ele>
        <time>2018-11-11T10:13:19Z</time>
      </trkpt>
      <trkpt lat="45.9871" lon="4.81727">
        <ele>239</ele>
        <time>2018-11-11T10:13:20Z</time>
      </trkpt>
      <trkpt lat="45.98718" lon="4.81726">
        <ele>239</ele>
        <time>2018-11-11T10:13:22Z</time>
      </trkpt>
      <trkpt lat="45.98721" lon="4.81726">
        <ele>239</ele>
        <time>2018-11-11T10:13:23Z</time>
      </trkpt>
      <trkpt lat="45.98728" lon="4.8173">
        <ele>239</ele>
        <time>2018-11-11T10:13:26Z</time>
      </trkpt>
      <trkpt lat="45.9873" lon="4.81732">
        <ele>239</ele>
        <time>2018-11-11T10:13:27Z</time>
      </trkpt>
      <trkpt lat="45.98728" lon="4.81725">
        <ele>239</ele>
        <time>2018-11-11T10:13:36Z</time>
      </trkpt>
      <trkpt lat="45.98721" lon="4.81724">
        <ele>239</ele>
        <time>2018-11-11T10:13:37Z</time>
      </trkpt>
      <trkpt lat="45.98717" lon="4.81724">
        <ele>239</ele>
        <time>2018-11-11T10:13:38Z</time>
      </trkpt>
      <trkpt lat="45.9871" lon="4.81727">
        <ele>239</ele>
        <time>2018-11-11T10:13:39Z</time>
      </trkpt>
      <trkpt lat="45.98706" lon="4.81727">
        <ele>239</ele>
        <time>2018-11-11T10:13:40Z</time>
      </trkpt>
      <trkpt lat="45.98701" lon="4.81729">
        <ele>239</ele>
        <time>2018-11-11T10:13:41Z</time>
      </trkpt>
      <trkpt lat="45.98697" lon="4.8173">
        <ele>239</ele>
        <time>2018-11-11T10:13:42Z</time>
      </trkpt>
      <trkpt lat="45.98692" lon="4.81732">
        <ele>238</ele>
        <time>2018-11-11T10:13:43Z</time>
      </trkpt>
      <trkpt lat="45.98687" lon="4.81734">
        <ele>238</ele>
        <time>2018-11-11T10:13:44Z</time>
      </trkpt>
      <trkpt lat="45.98681" lon="4.81735">
        <ele>238</ele>
        <time>2018-11-11T10:13:45Z</time>
      </trkpt>
      <trkpt lat="45.98675" lon="4.81736">
        <ele>238</ele>
        <time>2018-11-11T10:13:46Z</time>
      </trkpt>
      <trkpt lat="45.9867" lon="4.81736">
        <ele>238</ele>
        <time>2018-11-11T10:13:47Z</time>
      </trkpt>
      <trkpt lat="45.98665" lon="4.81738">
        <ele>237</ele>
        <time>2018-11-11T10:13:48Z</time>
      </trkpt>
      <trkpt lat="45.98661" lon="4.81738">
        <ele>237</ele>
        <time>2018-11-11T10:13:49Z</time>
      </trkpt>
      <trkpt lat="45.98653" lon="4.81738">
        <ele>237</ele>
        <time>2018-11-11T10:13:52Z</time>
      </trkpt>
      <trkpt lat="45.98652" lon="4.81738">
        <ele>237</ele>
        <time>2018-11-11T10:13:53Z</time>
      </trkpt>
      <trkpt lat="45.98659" lon="4.81739">
        <ele>237</ele>
        <time>2018-11-11T10:14:48Z</time>
      </trkpt>
      <trkpt lat="45.98659" lon="4.81739">
        <ele>237</ele>
        <time>2018-11-11T10:14:49Z</time>
      </trkpt>
      <trkpt lat="45.98658" lon="4.81739">
        <ele>237</ele>
        <time>2018-11-11T10:15:12Z</time>
      </trkpt>
      <trkpt lat="45.98658" lon="4.81739">
        <ele>237</ele>
        <time>2018-11-11T10:15:13Z</time>
      </trkpt>
      <trkpt lat="45.98666" lon="4.81736">
        <ele>237</ele>
        <time>2018-11-11T10:15:28Z</time>
      </trkpt>
      <trkpt lat="45.98668" lon="4.81736">
        <ele>238</ele>
        <time>2018-11-11T10:15:29Z</time>
      </trkpt>
      <trkpt lat="45.98674" lon="4.81735">
        <ele>238</ele>
        <time>2018-11-11T10:15:33Z</time>
      </trkpt>
      <trkpt lat="45.98677" lon="4.81734">
        <ele>238</ele>
        <time>2018-11-11T10:15:34Z</time>
      </trkpt>
      <trkpt lat="45.9868" lon="4.81734">
        <ele>238</ele>
        <time>2018-11-11T10:15:35Z</time>
      </trkpt>
      <trkpt lat="45.98686" lon="4.81732">
        <ele>238</ele>
        <time>2018-11-11T10:15:36Z</time>
      </trkpt>
      <trkpt lat="45.98693" lon="4.81729">
        <ele>238</ele>
        <time>2018-11-11T10:15:38Z</time>
      </trkpt>
      <trkpt lat="45.98697" lon="4.81728">
        <ele>239</ele>
        <time>2018-11-11T10:15:39Z</time>
      </trkpt>
      <trkpt lat="45.98705" lon="4.81726">
        <ele>239</ele>
        <time>2018-11-11T10:15:41Z</time>
      </trkpt>
      <trkpt lat="45.98707" lon="4.81726">
        <ele>239</ele>
        <time>2018-11-11T10:15:42Z</time>
      </trkpt>
      <trkpt lat="45.98713" lon="4.81724">
        <ele>239</ele>
        <time>2018-11-11T10:15:44Z</time>
      </trkpt>
      <trkpt lat="45.98719" lon="4.81724">
        <ele>239</ele>
        <time>2018-11-11T10:15:45Z</time>
      </trkpt>
      <trkpt lat="45.98727" lon="4.81727">
        <ele>239</ele>
        <time>2018-11-11T10:15:47Z</time>
      </trkpt>
      <trkpt lat="45.98731" lon="4.8173">
        <ele>239</ele>
        <time>2018-11-11T10:15:48Z</time>
      </trkpt>
      <trkpt lat="45.98738" lon="4.81738">
        <ele>240</ele>
        <time>2018-11-11T10:15:50Z</time>
      </trkpt>
      <trkpt lat="45.9874" lon="4.81743">
        <ele>240</ele>
        <time>2018-11-11T10:15:51Z</time>
      </trkpt>
      <trkpt lat="45.98742" lon="4.81753">
        <ele>240</ele>
        <time>2018-11-11T10:15:52Z</time>
      </trkpt>
      <trkpt lat="45.98745" lon="4.8176">
        <ele>240</ele>
        <time>2018-11-11T10:15:53Z</time>
      </trkpt>
      <trkpt lat="45.98748" lon="4.81765">
        <ele>240</ele>
        <time>2018-11-11T10:15:54Z</time>
      </trkpt>
      <trkpt lat="45.98751" lon="4.81771">
        <ele>241</ele>
        <time>2018-11-11T10:15:55Z</time>
      </trkpt>
      <trkpt lat="45.98754" lon="4.81778">
        <ele>241</ele>
        <time>2018-11-11T10:15:56Z</time>
      </trkpt>
      <trkpt lat="45.98757" lon="4.81784">
        <ele>241</ele>
        <time>2018-11-11T10:15:57Z</time>
      </trkpt>
      <trkpt lat="45.9876" lon="4.8179">
        <ele>241</ele>
        <time>2018-11-11T10:15:58Z</time>
      </trkpt>
      <trkpt lat="45.98763" lon="4.81796">
        <ele>240</ele>
        <time>2018-11-11T10:15:59Z</time>
      </trkpt>
      <trkpt lat="45.98767" lon="4.81802">
        <ele>240</ele>
        <time>2018-11-11T10:16:00Z</time>
      </trkpt>
      <trkpt lat="45.9877" lon="4.8181">
        <ele>240</ele>
        <time>2018-11-11T10:16:01Z</time>
      </trkpt>
      <trkpt lat="45.98773" lon="4.81817">
        <ele>240</ele>
        <time>2018-11-11T10:16:02Z</time>
      </trkpt>
      <trkpt lat="45.98777" lon="4.81825">
        <ele>240</ele>
        <time>2018-11-11T10:16:03Z</time>
      </trkpt>
      <trkpt lat="45.9878" lon="4.81833">
        <ele>240</ele>
        <time>2018-11-11T10:16:04Z</time>
      </trkpt>
      <trkpt lat="45.98783" lon="4.81841">
        <ele>239</ele>
        <time>2018-11-11T10:16:05Z</time>
      </trkpt>
      <trkpt lat="45.98786" lon="4.81849">
        <ele>239</ele>
        <time>2018-11-11T10:16:06Z</time>
      </trkpt>
      <trkpt lat="45.98789" lon="4.81857">
        <ele>239</ele>
        <time>2018-11-11T10:16:07Z</time>
      </trkpt>
      <trkpt lat="45.98793" lon="4.81864">
        <ele>239</ele>
        <time>2018-11-11T10:16:08Z</time>
      </trkpt>
      <trkpt lat="45.98796" lon="4.81872">
        <ele>239</ele>
        <time>2018-11-11T10:16:09Z</time>
      </trkpt>
      <trkpt lat="45.98799" lon="4.8188">
        <ele>239</ele>
        <time>2018-11-11T10:16:10Z</time>
      </trkpt>
      <trkpt lat="45.98802" lon="4.81888">
        <ele>239</ele>
        <time>2018-11-11T10:16:11Z</time>
      </trkpt>
      <trkpt lat="45.98804" lon="4.81897">
        <ele>239</ele>
        <time>2018-11-11T10:16:12Z</time>
      </trkpt>
      <trkpt lat="45.98806" lon="4.81904">
        <ele>239</ele>
        <time>2018-11-11T10:16:13Z</time>
      </trkpt>
      <trkpt lat="45.98808" lon="4.81913">
        <ele>239</ele>
        <time>2018-11-11T10:16:14Z</time>
      </trkpt>
      <trkpt lat="45.98809" lon="4.81922">
        <ele>239</ele>
        <time>2018-11-11T10:16:15Z</time>
      </trkpt>
      <trkpt lat="45.9881" lon="4.8193">
        <ele>239</ele>
        <time>2018-11-11T10:16:16Z</time>
      </trkpt>
      <trkpt lat="45.98812" lon="4.81938">
        <ele>239</ele>
        <time>2018-11-11T10:16:17Z</time>
      </trkpt>
      <trkpt lat="45.98813" lon="4.81946">
        <ele>239</ele>
        <time>2018-11-11T10:16:18Z</time>
      </trkpt>
      <trkpt lat="45.98815" lon="4.81954">
        <ele>239</ele>
        <time>2018-11-11T10:16:19Z</time>
      </trkpt>
      <trkpt lat="45.98816" lon="4.81961">
        <ele>239</ele>
        <time>2018-11-11T10:16:20Z</time>
      </trkpt>
      <trkpt lat="45.98817" lon="4.81969">
        <ele>239</ele>
        <time>2018-11-11T10:16:21Z</time>
      </trkpt>
      <trkpt lat="45.98818" lon="4.81977">
        <ele>239</ele>
        <time>2018-11-11T10:16:22Z</time>
      </trkpt>
      <trkpt lat="45.98819" lon="4.81985">
        <ele>238</ele>
        <time>2018-11-11T10:16:23Z</time>
      </trkpt>
      <trkpt lat="45.98821" lon="4.81993">
        <ele>238</ele>
        <time>2018-11-11T10:16:24Z</time>
      </trkpt>
      <trkpt lat="45.98822" lon="4.82001">
        <ele>238</ele>
        <time>2018-11-11T10:16:25Z</time>
      </trkpt>
      <trkpt lat="45.98823" lon="4.82011">
        <ele>238</ele>
        <time>2018-11-11T10:16:26Z</time>
      </trkpt>
      <trkpt lat="45.98824" lon="4.8202">
        <ele>238</ele>
        <time>2018-11-11T10:16:27Z</time>
      </trkpt>
      <trkpt lat="45.98825" lon="4.82029">
        <ele>238</ele>
        <time>2018-11-11T10:16:28Z</time>
      </trkpt>
      <trkpt lat="45.98826" lon="4.82039">
        <ele>238</ele>
        <time>2018-11-11T10:16:29Z</time>
      </trkpt>
      <trkpt lat="45.98827" lon="4.82047">
        <ele>238</ele>
        <time>2018-11-11T10:16:30Z</time>
      </trkpt>
      <trkpt lat="45.98828" lon="4.82056">
        <ele>237</ele>
        <time>2018-11-11T10:16:31Z</time>
      </trkpt>
      <trkpt lat="45.98829" lon="4.82063">
        <ele>237</ele>
        <time>2018-11-11T10:16:32Z</time>
      </trkpt>
      <trkpt lat="45.9883" lon="4.82071">
        <ele>237</ele>
        <time>2018-11-11T10:16:33Z</time>
      </trkpt>
      <trkpt lat="45.98832" lon="4.82079">
        <ele>236</ele>
        <time>2018-11-11T10:16:34Z</time>
      </trkpt>
      <trkpt lat="45.98833" lon="4.82087">
        <ele>236</ele>
        <time>2018-11-11T10:16:35Z</time>
      </trkpt>
      <trkpt lat="45.98834" lon="4.82095">
        <ele>236</ele>
        <time>2018-11-11T10:16:36Z</time>
      </trkpt>
      <trkpt lat="45.98836" lon="4.82103">
        <ele>236</ele>
        <time>2018-11-11T10:16:37Z</time>
      </trkpt>
      <trkpt lat="45.98837" lon="4.8211">
        <ele>235</ele>
        <time>2018-11-11T10:16:38Z</time>
      </trkpt>
      <trkpt lat="45.98838" lon="4.82117">
        <ele>235</ele>
        <time>2018-11-11T10:16:39Z</time>
      </trkpt>
      <trkpt lat="45.98839" lon="4.82123">
        <ele>236</ele>
        <time>2018-11-11T10:16:40Z</time>
      </trkpt>
      <trkpt lat="45.98841" lon="4.82131">
        <ele>236</ele>
        <time>2018-11-11T10:16:41Z</time>
      </trkpt>
      <trkpt lat="45.98843" lon="4.82137">
        <ele>236</ele>
        <time>2018-11-11T10:16:42Z</time>
      </trkpt>
      <trkpt lat="45.98845" lon="4.82146">
        <ele>236</ele>
        <time>2018-11-11T10:16:43Z</time>
      </trkpt>
      <trkpt lat="45.98847" lon="4.82153">
        <ele>236</ele>
        <time>2018-11-11T10:16:44Z</time>
      </trkpt>
      <trkpt lat="45.98848" lon="4.82159">
        <ele>236</ele>
        <time>2018-11-11T10:16:45Z</time>
      </trkpt>
      <trkpt lat="45.9885" lon="4.82167">
        <ele>236</ele>
        <time>2018-11-11T10:16:46Z</time>
      </trkpt>
      <trkpt lat="45.98852" lon="4.82174">
        <ele>236</ele>
        <time>2018-11-11T10:16:47Z</time>
      </trkpt>
      <trkpt lat="45.98855" lon="4.82181">
        <ele>236</ele>
        <time>2018-11-11T10:16:48Z</time>
      </trkpt>
      <trkpt lat="45.98857" lon="4.82188">
        <ele>236</ele>
        <time>2018-11-11T10:16:49Z</time>
      </trkpt>
      <trkpt lat="45.98859" lon="4.82195">
        <ele>236</ele>
        <time>2018-11-11T10:16:50Z</time>
      </trkpt>
      <trkpt lat="45.98862" lon="4.82202">
        <ele>236</ele>
        <time>2018-11-11T10:16:51Z</time>
      </trkpt>
      <trkpt lat="45.98865" lon="4.82209">
        <ele>236</ele>
        <time>2018-11-11T10:16:52Z</time>
      </trkpt>
      <trkpt lat="45.98868" lon="4.82215">
        <ele>236</ele>
        <time>2018-11-11T10:16:53Z</time>
      </trkpt>
      <trkpt lat="45.98871" lon="4.82222">
        <ele>236</ele>
        <time>2018-11-11T10:16:54Z</time>
      </trkpt>
      <trkpt lat="45.98874" lon="4.82229">
        <ele>236</ele>
        <time>2018-11-11T10:16:55Z</time>
      </trkpt>
      <trkpt lat="45.98877" lon="4.82234">
        <ele>236</ele>
        <time>2018-11-11T10:16:56Z</time>
      </trkpt>
      <trkpt lat="45.9888" lon="4.8224">
        <ele>236</ele>
        <time>2018-11-11T10:16:57Z</time>
      </trkpt>
      <trkpt lat="45.98883" lon="4.82246">
        <ele>236</ele>
        <time>2018-11-11T10:16:58Z</time>
      </trkpt>
      <trkpt lat="45.98886" lon="4.82251">
        <ele>236</ele>
        <time>2018-11-11T10:16:59Z</time>
      </trkpt>
      <trkpt lat="45.98889" lon="4.82257">
        <ele>236</ele>
        <time>2018-11-11T10:17:00Z</time>
      </trkpt>
      <trkpt lat="45.98893" lon="4.82263">
        <ele>236</ele>
        <time>2018-11-11T10:17:01Z</time>
      </trkpt>
      <trkpt lat="45.98896" lon="4.82268">
        <ele>236</ele>
        <time>2018-11-11T10:17:02Z</time>
      </trkpt>
      <trkpt lat="45.989" lon="4.82274">
        <ele>236</ele>
        <time>2018-11-11T10:17:03Z</time>
      </trkpt>
      <trkpt lat="45.98904" lon="4.82279">
        <ele>236</ele>
        <time>2018-11-11T10:17:04Z</time>
      </trkpt>
      <trkpt lat="45.98907" lon="4.82285">
        <ele>236</ele>
        <time>2018-11-11T10:17:05Z</time>
      </trkpt>
      <trkpt lat="45.98911" lon="4.8229">
        <ele>236</ele>
        <time>2018-11-11T10:17:06Z</time>
      </trkpt>
      <trkpt lat="45.98916" lon="4.82295">
        <ele>236</ele>
        <time>2018-11-11T10:17:07Z</time>
      </trkpt>
      <trkpt lat="45.98922" lon="4.82301">
        <ele>234</ele>
        <time>2018-11-11T10:17:08Z</time>
      </trkpt>
      <trkpt lat="45.98927" lon="4.82306">
        <ele>234</ele>
        <time>2018-11-11T10:17:09Z</time>
      </trkpt>
      <trkpt lat="45.98932" lon="4.82312">
        <ele>234</ele>
        <time>2018-11-11T10:17:10Z</time>
      </trkpt>
      <trkpt lat="45.98937" lon="4.82317">
        <ele>234</ele>
        <time>2018-11-11T10:17:11Z</time>
      </trkpt>
      <trkpt lat="45.98942" lon="4.82323">
        <ele>234</ele>
        <time>2018-11-11T10:17:12Z</time>
      </trkpt>
      <trkpt lat="45.98946" lon="4.82329">
        <ele>234</ele>
        <time>2018-11-11T10:17:13Z</time>
      </trkpt>
      <trkpt lat="45.9895" lon="4.82336">
        <ele>235</ele>
        <time>2018-11-11T10:17:14Z</time>
      </trkpt>
      <trkpt lat="45.98953" lon="4.82342">
        <ele>235</ele>
        <time>2018-11-11T10:17:15Z</time>
      </trkpt>
      <trkpt lat="45.98956" lon="4.82348">
        <ele>235</ele>
        <time>2018-11-11T10:17:16Z</time>
      </trkpt>
      <trkpt lat="45.98958" lon="4.82356">
        <ele>235</ele>
        <time>2018-11-11T10:17:17Z</time>
      </trkpt>
      <trkpt lat="45.98961" lon="4.82363">
        <ele>235</ele>
        <time>2018-11-11T10:17:18Z</time>
      </trkpt>
      <trkpt lat="45.98963" lon="4.82371">
        <ele>235</ele>
        <time>2018-11-11T10:17:19Z</time>
      </trkpt>
      <trkpt lat="45.98965" lon="4.82378">
        <ele>235</ele>
        <time>2018-11-11T10:17:20Z</time>
      </trkpt>
      <trkpt lat="45.98966" lon="4.82385">
        <ele>235</ele>
        <time>2018-11-11T10:17:21Z</time>
      </trkpt>
      <trkpt lat="45.98968" lon="4.82392">
        <ele>235</ele>
        <time>2018-11-11T10:17:22Z</time>
      </trkpt>
      <trkpt lat="45.9897" lon="4.82399">
        <ele>235</ele>
        <time>2018-11-11T10:17:23Z</time>
      </trkpt>
      <trkpt lat="45.98971" lon="4.82406">
        <ele>235</ele>
        <time>2018-11-11T10:17:24Z</time>
      </trkpt>
      <trkpt lat="45.98973" lon="4.82412">
        <ele>235</ele>
        <time>2018-11-11T10:17:25Z</time>
      </trkpt>
      <trkpt lat="45.98974" lon="4.82419">
        <ele>236</ele>
        <time>2018-11-11T10:17:26Z</time>
      </trkpt>
      <trkpt lat="45.98976" lon="4.82426">
        <ele>236</ele>
        <time>2018-11-11T10:17:27Z</time>
      </trkpt>
      <trkpt lat="45.98978" lon="4.82433">
        <ele>236</ele>
        <time>2018-11-11T10:17:28Z</time>
      </trkpt>
      <trkpt lat="45.9898" lon="4.8244">
        <ele>236</ele>
        <time>2018-11-11T10:17:29Z</time>
      </trkpt>
      <trkpt lat="45.98982" lon="4.82447">
        <ele>236</ele>
        <time>2018-11-11T10:17:30Z</time>
      </trkpt>
      <trkpt lat="45.98984" lon="4.82456">
        <ele>236</ele>
        <time>2018-11-11T10:17:31Z</time>
      </trkpt>
      <trkpt lat="45.98987" lon="4.82463">
        <ele>236</ele>
        <time>2018-11-11T10:17:32Z</time>
      </trkpt>
      <trkpt lat="45.98989" lon="4.82472">
        <ele>236</ele>
        <time>2018-11-11T10:17:33Z</time>
      </trkpt>
      <trkpt lat="45.98991" lon="4.82479">
        <ele>236</ele>
        <time>2018-11-11T10:17:34Z</time>
      </trkpt>
      <trkpt lat="45.98993" lon="4.82486">
        <ele>236</ele>
        <time>2018-11-11T10:17:35Z</time>
      </trkpt>
      <trkpt lat="45.98996" lon="4.82494">
        <ele>235</ele>
        <time>2018-11-11T10:17:36Z</time>
      </trkpt>
      <trkpt lat="45.98999" lon="4.82501">
        <ele>235</ele>
        <time>2018-11-11T10:17:37Z</time>
      </trkpt>
      <trkpt lat="45.99001" lon="4.82507">
        <ele>235</ele>
        <time>2018-11-11T10:17:38Z</time>
      </trkpt>
      <trkpt lat="45.99005" lon="4.82512">
        <ele>235</ele>
        <time>2018-11-11T10:17:39Z</time>
      </trkpt>
      <trkpt lat="45.99008" lon="4.82518">
        <ele>235</ele>
        <time>2018-11-11T10:17:40Z</time>
      </trkpt>
      <trkpt lat="45.99011" lon="4.82524">
        <ele>235</ele>
        <time>2018-11-11T10:17:41Z</time>
      </trkpt>
      <trkpt lat="45.99015" lon="4.8253">
        <ele>235</ele>
        <time>2018-11-11T10:17:42Z</time>
      </trkpt>
      <trkpt lat="45.99019" lon="4.82535">
        <ele>235</ele>
        <time>2018-11-11T10:17:43Z</time>
      </trkpt>
      <trkpt lat="45.99023" lon="4.82541">
        <ele>235</ele>
        <time>2018-11-11T10:17:44Z</time>
      </trkpt>
      <trkpt lat="45.99028" lon="4.82546">
        <ele>235</ele>
        <time>2018-11-11T10:17:45Z</time>
      </trkpt>
      <trkpt lat="45.99034" lon="4.8255">
        <ele>235</ele>
        <time>2018-11-11T10:17:46Z</time>
      </trkpt>
      <trkpt lat="45.99039" lon="4.82555">
        <ele>235</ele>
        <time>2018-11-11T10:17:47Z</time>
      </trkpt>
      <trkpt lat="45.99044" lon="4.82559">
        <ele>235</ele>
        <time>2018-11-11T10:17:48Z</time>
      </trkpt>
      <trkpt lat="45.99049" lon="4.8256">
        <ele>235</ele>
        <time>2018-11-11T10:17:49Z</time>
      </trkpt>
      <trkpt lat="45.99054" lon="4.82563">
        <ele>235</ele>
        <time>2018-11-11T10:17:50Z</time>
      </trkpt>
      <trkpt lat="45.99058" lon="4.82564">
        <ele>235</ele>
        <time>2018-11-11T10:17:51Z</time>
      </trkpt>
      <trkpt lat="45.99067" lon="4.82567">
        <ele>235</ele>
        <time>2018-11-11T10:18:01Z</time>
      </trkpt>
      <trkpt lat="45.99067" lon="4.82568">
        <ele>235</ele>
        <time>2018-11-11T10:18:02Z</time>
      </trkpt>
      <trkpt lat="45.99067" lon="4.82573">
        <ele>235</ele>
        <time>2018-11-11T10:18:25Z</time>
      </trkpt>
      <trkpt lat="45.99066" lon="4.82574">
        <ele>235</ele>
        <time>2018-11-11T10:18:26Z</time>
      </trkpt>
      <trkpt lat="45.99065" lon="4.82575">
        <ele>235</ele>
        <time>2018-11-11T10:20:08Z</time>
      </trkpt>
      <trkpt lat="45.99065" lon="4.82575">
        <ele>235</ele>
        <time>2018-11-11T10:20:09Z</time>
      </trkpt>
      <trkpt lat="45.99073" lon="4.82571">
        <ele>235</ele>
        <time>2018-11-11T10:21:12Z</time>
      </trkpt>
      <trkpt lat="45.99075" lon="4.82572">
        <ele>235</ele>
        <time>2018-11-11T10:21:13Z</time>
      </trkpt>
      <trkpt lat="45.99075" lon="4.82584">
        <ele>235</ele>
        <time>2018-11-11T10:21:19Z</time>
      </trkpt>
      <trkpt lat="45.99075" lon="4.82587">
        <ele>235</ele>
        <time>2018-11-11T10:21:20Z</time>
      </trkpt>
      <trkpt lat="45.99071" lon="4.82599">
        <ele>235</ele>
        <time>2018-11-11T10:21:24Z</time>
      </trkpt>
      <trkpt lat="45.99069" lon="4.82601">
        <ele>236</ele>
        <time>2018-11-11T10:21:25Z</time>
      </trkpt>
      <trkpt lat="45.99065" lon="4.82612">
        <ele>236</ele>
        <time>2018-11-11T10:21:29Z</time>
      </trkpt>
      <trkpt lat="45.99063" lon="4.82615">
        <ele>236</ele>
        <time>2018-11-11T10:21:30Z</time>
      </trkpt>
      <trkpt lat="45.99059" lon="4.82623">
        <ele>236</ele>
        <time>2018-11-11T10:21:33Z</time>
      </trkpt>
      <trkpt lat="45.99057" lon="4.82626">
        <ele>236</ele>
        <time>2018-11-11T10:21:34Z</time>
      </trkpt>
      <trkpt lat="45.99053" lon="4.82636">
        <ele>236</ele>
        <time>2018-11-11T10:21:37Z</time>
      </trkpt>
      <trkpt lat="45.99051" lon="4.8264">
        <ele>236</ele>
        <time>2018-11-11T10:21:38Z</time>
      </trkpt>
      <trkpt lat="45.99047" lon="4.82649">
        <ele>236</ele>
        <time>2018-11-11T10:21:41Z</time>
      </trkpt>
      <trkpt lat="45.99046" lon="4.82652">
        <ele>236</ele>
        <time>2018-11-11T10:21:42Z</time>
      </trkpt>
      <trkpt lat="45.99043" lon="4.82662">
        <ele>236</ele>
        <time>2018-11-11T10:21:45Z</time>
      </trkpt>
      <trkpt lat="45.99042" lon="4.82665">
        <ele>236</ele>
        <time>2018-11-11T10:21:46Z</time>
      </trkpt>
      <trkpt lat="45.99038" lon="4.82674">
        <ele>238</ele>
        <time>2018-11-11T10:21:49Z</time>
      </trkpt>
      <trkpt lat="45.99036" lon="4.82677">
        <ele>238</ele>
        <time>2018-11-11T10:21:50Z</time>
      </trkpt>
      <trkpt lat="45.99032" lon="4.82685">
        <ele>238</ele>
        <time>2018-11-11T10:21:53Z</time>
      </trkpt>
      <trkpt lat="45.99031" lon="4.82688">
        <ele>238</ele>
        <time>2018-11-11T10:21:54Z</time>
      </trkpt>
      <trkpt lat="45.99027" lon="4.82696">
        <ele>238</ele>
        <time>2018-11-11T10:21:57Z</time>
      </trkpt>
      <trkpt lat="45.99026" lon="4.82699">
        <ele>238</ele>
        <time>2018-11-11T10:21:58Z</time>
      </trkpt>
      <trkpt lat="45.99022" lon="4.82709">
        <ele>238</ele>
        <time>2018-11-11T10:22:01Z</time>
      </trkpt>
      <trkpt lat="45.99021" lon="4.82711">
        <ele>239</ele>
        <time>2018-11-11T10:22:02Z</time>
      </trkpt>
      <trkpt lat="45.99017" lon="4.82719">
        <ele>239</ele>
        <time>2018-11-11T10:22:05Z</time>
      </trkpt>
      <trkpt lat="45.99016" lon="4.82722">
        <ele>239</ele>
        <time>2018-11-11T10:22:06Z</time>
      </trkpt>
      <trkpt lat="45.99012" lon="4.8273">
        <ele>239</ele>
        <time>2018-11-11T10:22:09Z</time>
      </trkpt>
      <trkpt lat="45.9901" lon="4.82732">
        <ele>239</ele>
        <time>2018-11-11T10:22:10Z</time>
      </trkpt>
      <trkpt lat="45.99006" lon="4.82743">
        <ele>240</ele>
        <time>2018-11-11T10:22:14Z</time>
      </trkpt>
      <trkpt lat="45.99005" lon="4.82745">
        <ele>240</ele>
        <time>2018-11-11T10:22:15Z</time>
      </trkpt>
      <trkpt lat="45.99001" lon="4.82755">
        <ele>241</ele>
        <time>2018-11-11T10:22:19Z</time>
      </trkpt>
      <trkpt lat="45.99" lon="4.82758">
        <ele>243</ele>
        <time>2018-11-11T10:22:20Z</time>
      </trkpt>
      <trkpt lat="45.98996" lon="4.82766">
        <ele>245</ele>
        <time>2018-11-11T10:22:23Z</time>
      </trkpt>
      <trkpt lat="45.98994" lon="4.82769">
        <ele>245</ele>
        <time>2018-11-11T10:22:24Z</time>
      </trkpt>
      <trkpt lat="45.9899" lon="4.82776">
        <ele>246</ele>
        <time>2018-11-11T10:22:27Z</time>
      </trkpt>
      <trkpt lat="45.98988" lon="4.82778">
        <ele>246</ele>
        <time>2018-11-11T10:22:28Z</time>
      </trkpt>
      <trkpt lat="45.98985" lon="4.82787">
        <ele>247</ele>
        <time>2018-11-11T10:22:31Z</time>
      </trkpt>
      <trkpt lat="45.98983" lon="4.82791">
        <ele>247</ele>
        <time>2018-11-11T10:22:32Z</time>
      </trkpt>
      <trkpt lat="45.9898" lon="4.82799">
        <ele>248</ele>
        <time>2018-11-11T10:22:35Z</time>
      </trkpt>
      <trkpt lat="45.98978" lon="4.82802">
        <ele>248</ele>
        <time>2018-11-11T10:22:36Z</time>
      </trkpt>
      <trkpt lat="45.98974" lon="4.82811">
        <ele>248</ele>
        <time>2018-11-11T10:22:39Z</time>
      </trkpt>
      <trkpt lat="45.98973" lon="4.82814">
        <ele>248</ele>
        <time>2018-11-11T10:22:40Z</time>
      </trkpt>
      <trkpt lat="45.98969" lon="4.82823">
        <ele>249</ele>
        <time>2018-11-11T10:22:43Z</time>
      </trkpt>
      <trkpt lat="45.98968" lon="4.82826">
        <ele>249</ele>
        <time>2018-11-11T10:22:44Z</time>
      </trkpt>
      <trkpt lat="45.98964" lon="4.82834">
        <ele>252</ele>
        <time>2018-11-11T10:22:47Z</time>
      </trkpt>
      <trkpt lat="45.98962" lon="4.82836">
        <ele>252</ele>
        <time>2018-11-11T10:22:48Z</time>
      </trkpt>
      <trkpt lat="45.98958" lon="4.82845">
        <ele>252</ele>
        <time>2018-11-11T10:22:51Z</time>
      </trkpt>
      <trkpt lat="45.98957" lon="4.82847">
        <ele>252</ele>
        <time>2018-11-11T10:22:52Z</time>
      </trkpt>
      <trkpt lat="45.98953" lon="4.82856">
        <ele>252</ele>
        <time>2018-11-11T10:22:55Z</time>
      </trkpt>
      <trkpt lat="45.98952" lon="4.82859">
        <ele>252</ele>
        <time>2018-11-11T10:22:56Z</time>
      </trkpt>
      <trkpt lat="45.98948" lon="4.82867">
        <ele>253</ele>
        <time>2018-11-11T10:22:59Z</time>
      </trkpt>
      <trkpt lat="45.98946" lon="4.8287">
        <ele>253</ele>
        <time>2018-11-11T10:23:00Z</time>
      </trkpt>
      <trkpt lat="45.98942" lon="4.8288">
        <ele>253</ele>
        <time>2018-11-11T10:23:04Z</time>
      </trkpt>
      <trkpt lat="45.98941" lon="4.82883">
        <ele>253</ele>
        <time>2018-11-11T10:23:05Z</time>
      </trkpt>
      <trkpt lat="45.98937" lon="4.82891">
        <ele>253</ele>
        <time>2018-11-11T10:23:08Z</time>
      </trkpt>
      <trkpt lat="45.98935" lon="4.82894">
        <ele>253</ele>
        <time>2018-11-11T10:23:09Z</time>
      </trkpt>
      <trkpt lat="45.98932" lon="4.82902">
        <ele>254</ele>
        <time>2018-11-11T10:23:12Z</time>
      </trkpt>
      <trkpt lat="45.98931" lon="4.82905">
        <ele>254</ele>
        <time>2018-11-11T10:23:13Z</time>
      </trkpt>
      <trkpt lat="45.98928" lon="4.82914">
        <ele>254</ele>
        <time>2018-11-11T10:23:16Z</time>
      </trkpt>
      <trkpt lat="45.98927" lon="4.82917">
        <ele>255</ele>
        <time>2018-11-11T10:23:17Z</time>
      </trkpt>
      <trkpt lat="45.98924" lon="4.82925">
        <ele>255</ele>
        <time>2018-11-11T10:23:20Z</time>
      </trkpt>
      <trkpt lat="45.98922" lon="4.82928">
        <ele>255</ele>
        <time>2018-11-11T10:23:21Z</time>
      </trkpt>
      <trkpt lat="45.98917" lon="4.82939">
        <ele>255</ele>
        <time>2018-11-11T10:23:25Z</time>
      </trkpt>
      <trkpt lat="45.98916" lon="4.82941">
        <ele>258</ele>
        <time>2018-11-11T10:23:26Z</time>
      </trkpt>
      <trkpt lat="45.98912" lon="4.8295">
        <ele>258</ele>
        <time>2018-11-11T10:23:29Z</time>
      </trkpt>
      <trkpt lat="45.98911" lon="4.82952">
        <ele>258</ele>
        <time>2018-11-11T10:23:30Z</time>
      </trkpt>
      <trkpt lat="45.98906" lon="4.8296">
        <ele>259</ele>
        <time>2018-11-11T10:23:33Z</time>
      </trkpt>
      <trkpt lat="45.98905" lon="4.82962">
        <ele>259</ele>
        <time>2018-11-11T10:23:34Z</time>
      </trkpt>
      <trkpt lat="45.98899" lon="4.82968">
        <ele>259</ele>
        <time>2018-11-11T10:23:37Z</time>
      </trkpt>
      <trkpt lat="45.98898" lon="4.8297">
        <ele>259</ele>
        <time>2018-11-11T10:23:38Z</time>
      </trkpt>
      <trkpt lat="45.9889" lon="4.82977">
        <ele>259</ele>
        <time>2018-11-11T10:23:42Z</time>
      </trkpt>
      <trkpt lat="45.98888" lon="4.82979">
        <ele>259</ele>
        <time>2018-11-11T10:23:43Z</time>
      </trkpt>
      <trkpt lat="45.9888" lon="4.82984">
        <ele>260</ele>
        <time>2018-11-11T10:23:47Z</time>
      </trkpt>
      <trkpt lat="45.98878" lon="4.82986">
        <ele>260</ele>
        <time>2018-11-11T10:23:48Z</time>
      </trkpt>
      <trkpt lat="45.98872" lon="4.8299">
        <ele>260</ele>
        <time>2018-11-11T10:23:51Z</time>
      </trkpt>
      <trkpt lat="45.9887" lon="4.82992">
        <ele>260</ele>
        <time>2018-11-11T10:23:52Z</time>
      </trkpt>
      <trkpt lat="45.98864" lon="4.82997">
        <ele>260</ele>
        <time>2018-11-11T10:23:55Z</time>
      </trkpt>
      <trkpt lat="45.98862" lon="4.82998">
        <ele>261</ele>
        <time>2018-11-11T10:23:56Z</time>
      </trkpt>
      <trkpt lat="45.98855" lon="4.83001">
        <ele>261</ele>
        <time>2018-11-11T10:23:59Z</time>
      </trkpt>
      <trkpt lat="45.98853" lon="4.83002">
        <ele>261</ele>
        <time>2018-11-11T10:24:00Z</time>
      </trkpt>
      <trkpt lat="45.98847" lon="4.83007">
        <ele>261</ele>
        <time>2018-11-11T10:24:03Z</time>
      </trkpt>
      <trkpt lat="45.98844" lon="4.83008">
        <ele>261</ele>
        <time>2018-11-11T10:24:04Z</time>
      </trkpt>
      <trkpt lat="45.98838" lon="4.83013">
        <ele>262</ele>
        <time>2018-11-11T10:24:07Z</time>
      </trkpt>
      <trkpt lat="45.98836" lon="4.83015">
        <ele>261</ele>
        <time>2018-11-11T10:24:08Z</time>
      </trkpt>
      <trkpt lat="45.9883" lon="4.83021">
        <ele>264</ele>
        <time>2018-11-11T10:24:11Z</time>
      </trkpt>
      <trkpt lat="45.98828" lon="4.83022">
        <ele>264</ele>
        <time>2018-11-11T10:24:12Z</time>
      </trkpt>
      <trkpt lat="45.98821" lon="4.83026">
        <ele>264</ele>
        <time>2018-11-11T10:24:15Z</time>
      </trkpt>
      <trkpt lat="45.98819" lon="4.83027">
        <ele>264</ele>
        <time>2018-11-11T10:24:16Z</time>
      </trkpt>
      <trkpt lat="45.98812" lon="4.83034">
        <ele>264</ele>
        <time>2018-11-11T10:24:20Z</time>
      </trkpt>
      <trkpt lat="45.9881" lon="4.83036">
        <ele>264</ele>
        <time>2018-11-11T10:24:21Z</time>
      </trkpt>
      <trkpt lat="45.98804" lon="4.83041">
        <ele>264</ele>
        <time>2018-11-11T10:24:24Z</time>
      </trkpt>
      <trkpt lat="45.98802" lon="4.83043">
        <ele>264</ele>
        <time>2018-11-11T10:24:25Z</time>
      </trkpt>
      <trkpt lat="45.98796" lon="4.83048">
        <ele>265</ele>
        <time>2018-11-11T10:24:28Z</time>
      </trkpt>
      <trkpt lat="45.98794" lon="4.8305">
        <ele>265</ele>
        <time>2018-11-11T10:24:29Z</time>
      </trkpt>
      <trkpt lat="45.98787" lon="4.83057">
        <ele>265</ele>
        <time>2018-11-11T10:24:33Z</time>
      </trkpt>
      <trkpt lat="45.98785" lon="4.83059">
        <ele>265</ele>
        <time>2018-11-11T10:24:34Z</time>
      </trkpt>
      <trkpt lat="45.98779" lon="4.83064">
        <ele>265</ele>
        <time>2018-11-11T10:24:37Z</time>
      </trkpt>
      <trkpt lat="45.98777" lon="4.83066">
        <ele>265</ele>
        <time>2018-11-11T10:24:38Z</time>
      </trkpt>
      <trkpt lat="45.9877" lon="4.8307">
        <ele>265</ele>
        <time>2018-11-11T10:24:41Z</time>
      </trkpt>
      <trkpt lat="45.98768" lon="4.83072">
        <ele>266</ele>
        <time>2018-11-11T10:24:42Z</time>
      </trkpt>
      <trkpt lat="45.98761" lon="4.83077">
        <ele>266</ele>
        <time>2018-11-11T10:24:45Z</time>
      </trkpt>
      <trkpt lat="45.98759" lon="4.83078">
        <ele>266</ele>
        <time>2018-11-11T10:24:46Z</time>
      </trkpt>
      <trkpt lat="45.98752" lon="4.83084">
        <ele>267</ele>
        <time>2018-11-11T10:24:49Z</time>
      </trkpt>
      <trkpt lat="45.9875" lon="4.83086">
        <ele>267</ele>
        <time>2018-11-11T10:24:50Z</time>
      </trkpt>
      <trkpt lat="45.98743" lon="4.83092">
        <ele>267</ele>
        <time>2018-11-11T10:24:53Z</time>
      </trkpt>
      <trkpt lat="45.98741" lon="4.83094">
        <ele>267</ele>
        <time>2018-11-11T10:24:54Z</time>
      </trkpt>
      <trkpt lat="45.98734" lon="4.831">
        <ele>267</ele>
        <time>2018-11-11T10:24:57Z</time>
      </trkpt>
      <trkpt lat="45.98732" lon="4.83103">
        <ele>267</ele>
        <time>2018-11-11T10:24:58Z</time>
      </trkpt>
      <trkpt lat="45.98725" lon="4.8311">
        <ele>267</ele>
        <time>2018-11-11T10:25:01Z</time>
      </trkpt>
      <trkpt lat="45.98722" lon="4.83113">
        <ele>267</ele>
        <time>2018-11-11T10:25:02Z</time>
      </trkpt>
      <trkpt lat="45.98715" lon="4.83119">
        <ele>267</ele>
        <time>2018-11-11T10:25:05Z</time>
      </trkpt>
      <trkpt lat="45.98712" lon="4.83121">
        <ele>267</ele>
        <time>2018-11-11T10:25:06Z</time>
      </trkpt>
      <trkpt lat="45.98706" lon="4.83125">
        <ele>267</ele>
        <time>2018-11-11T10:25:08Z</time>
      </trkpt>
      <trkpt lat="45.98703" lon="4.83128">
        <ele>266</ele>
        <time>2018-11-11T10:25:09Z</time>
      </trkpt>
      <trkpt lat="45.98697" lon="4.83132">
        <ele>266</ele>
        <time>2018-11-11T10:25:11Z</time>
      </trkpt>
      <trkpt lat="45.98695" lon="4.83135">
        <ele>266</ele>
        <time>2018-11-11T10:25:12Z</time>
      </trkpt>
      <trkpt lat="45.98688" lon="4.8314">
        <ele>266</ele>
        <time>2018-11-11T10:25:14Z</time>
      </trkpt>
      <trkpt lat="45.98686" lon="4.83142">
        <ele>266</ele>
        <time>2018-11-11T10:25:15Z</time>
      </trkpt>
      <trkpt lat="45.9868" lon="4.83146">
        <ele>266</ele>
        <time>2018-11-11T10:25:17Z</time>
      </trkpt>
      <trkpt lat="45.98677" lon="4.83148">
        <ele>266</ele>
        <time>2018-11-11T10:25:18Z</time>
      </trkpt>
      <trkpt lat="45.98671" lon="4.83152">
        <ele>266</ele>
        <time>2018-11-11T10:25:20Z</time>
      </trkpt>
      <trkpt lat="45.98668" lon="4.83154">
        <ele>266</ele>
        <time>2018-11-11T10:25:21Z</time>
      </trkpt>
      <trkpt lat="45.98662" lon="4.83158">
        <ele>267</ele>
        <time>2018-11-11T10:25:23Z</time>
      </trkpt>
      <trkpt lat="45.98659" lon="4.8316">
        <ele>267</ele>
        <time>2018-11-11T10:25:24Z</time>
      </trkpt>
      <trkpt lat="45.98653" lon="4.83165">
        <ele>267</ele>
        <time>2018-11-11T10:25:26Z</time>
      </trkpt>
      <trkpt lat="45.9865" lon="4.83168">
        <ele>267</ele>
        <time>2018-11-11T10:25:27Z</time>
      </trkpt>
      <trkpt lat="45.98645" lon="4.83172">
        <ele>267</ele>
        <time>2018-11-11T10:25:29Z</time>
      </trkpt>
      <trkpt lat="45.98642" lon="4.83175">
        <ele>267</ele>
        <time>2018-11-11T10:25:30Z</time>
      </trkpt>
      <trkpt lat="45.98637" lon="4.8318">
        <ele>267</ele>
        <time>2018-11-11T10:25:32Z</time>
      </trkpt>
      <trkpt lat="45.98634" lon="4.83182">
        <ele>267</ele>
        <time>2018-11-11T10:25:33Z</time>
      </trkpt>
      <trkpt lat="45.98627" lon="4.83191">
        <ele>267</ele>
        <time>2018-11-11T10:25:36Z</time>
      </trkpt>
      <trkpt lat="45.98625" lon="4.83193">
        <ele>267</ele>
        <time>2018-11-11T10:25:37Z</time>
      </trkpt>
      <trkpt lat="45.98621" lon="4.83199">
        <ele>267</ele>
        <time>2018-11-11T10:25:39Z</time>
      </trkpt>
      <trkpt lat="45.98618" lon="4.83202">
        <ele>267</ele>
        <time>2018-11-11T10:25:40Z</time>
      </trkpt>
      <trkpt lat="45.98614" lon="4.83208">
        <ele>267</ele>
        <time>2018-11-11T10:25:42Z</time>
      </trkpt>
      <trkpt lat="45.98611" lon="4.83211">
        <ele>267</ele>
        <time>2018-11-11T10:25:43Z</time>
      </trkpt>
      <trkpt lat="45.98605" lon="4.83219">
        <ele>267</ele>
        <time>2018-11-11T10:25:46Z</time>
      </trkpt>
      <trkpt lat="45.98603" lon="4.83222">
        <ele>267</ele>
        <time>2018-11-11T10:25:47Z</time>
      </trkpt>
      <trkpt lat="45.98596" lon="4.83229">
        <ele>268</ele>
        <time>2018-11-11T10:25:50Z</time>
      </trkpt>
      <trkpt lat="45.98594" lon="4.83232">
        <ele>268</ele>
        <time>2018-11-11T10:25:51Z</time>
      </trkpt>
      <trkpt lat="45.98589" lon="4.8324">
        <ele>268</ele>
        <time>2018-11-11T10:25:54Z</time>
      </trkpt>
      <trkpt lat="45.98586" lon="4.83242">
        <ele>268</ele>
        <time>2018-11-11T10:25:55Z</time>
      </trkpt>
      <trkpt lat="45.9858" lon="4.83251">
        <ele>268</ele>
        <time>2018-11-11T10:25:58Z</time>
      </trkpt>
      <trkpt lat="45.98578" lon="4.83254">
        <ele>268</ele>
        <time>2018-11-11T10:25:59Z</time>
      </trkpt>
      <trkpt lat="45.98574" lon="4.83261">
        <ele>269</ele>
        <time>2018-11-11T10:26:01Z</time>
      </trkpt>
      <trkpt lat="45.98572" lon="4.83264">
        <ele>269</ele>
        <time>2018-11-11T10:26:02Z</time>
      </trkpt>
      <trkpt lat="45.98566" lon="4.83272">
        <ele>269</ele>
        <time>2018-11-11T10:26:05Z</time>
      </trkpt>
      <trkpt lat="45.98563" lon="4.83275">
        <ele>269</ele>
        <time>2018-11-11T10:26:06Z</time>
      </trkpt>
      <trkpt lat="45.98559" lon="4.83281">
        <ele>269</ele>
        <time>2018-11-11T10:26:08Z</time>
      </trkpt>
      <trkpt lat="45.98556" lon="4.83284">
        <ele>269</ele>
        <time>2018-11-11T10:26:09Z</time>
      </trkpt>
      <trkpt lat="45.98552" lon="4.8329">
        <ele>269</ele>
        <time>2018-11-11T10:26:11Z</time>
      </trkpt>
      <trkpt lat="45.98549" lon="4.83294">
        <ele>269</ele>
        <time>2018-11-11T10:26:12Z</time>
      </trkpt>
      <trkpt lat="45.98545" lon="4.83299">
        <ele>269</ele>
        <time>2018-11-11T10:26:14Z</time>
      </trkpt>
      <trkpt lat="45.98542" lon="4.83303">
        <ele>269</ele>
        <time>2018-11-11T10:26:15Z</time>
      </trkpt>
      <trkpt lat="45.98537" lon="4.83308">
        <ele>269</ele>
        <time>2018-11-11T10:26:17Z</time>
      </trkpt>
      <trkpt lat="45.98535" lon="4.83312">
        <ele>269</ele>
        <time>2018-11-11T10:26:18Z</time>
      </trkpt>
      <trkpt lat="45.9853" lon="4.83318">
        <ele>269</ele>
        <time>2018-11-11T10:26:20Z</time>
      </trkpt>
      <trkpt lat="45.98527" lon="4.83322">
        <ele>269</ele>
        <time>2018-11-11T10:26:21Z</time>
      </trkpt>
      <trkpt lat="45.98522" lon="4.83328">
        <ele>270</ele>
        <time>2018-11-11T10:26:23Z</time>
      </trkpt>
      <trkpt lat="45.98519" lon="4.83332">
        <ele>270</ele>
        <time>2018-11-11T10:26:24Z</time>
      </trkpt>
      <trkpt lat="45.98515" lon="4.83339">
        <ele>270</ele>
        <time>2018-11-11T10:26:26Z</time>
      </trkpt>
      <trkpt lat="45.98512" lon="4.83342">
        <ele>270</ele>
        <time>2018-11-11T10:26:27Z</time>
      </trkpt>
      <trkpt lat="45.98507" lon="4.8335">
        <ele>270</ele>
        <time>2018-11-11T10:26:29Z</time>
      </trkpt>
      <trkpt lat="45.98505" lon="4.83353">
        <ele>270</ele>
        <time>2018-11-11T10:26:30Z</time>
      </trkpt>
      <trkpt lat="45.98499" lon="4.8336">
        <ele>270</ele>
        <time>2018-11-11T10:26:32Z</time>
      </trkpt>
      <trkpt lat="45.98494" lon="4.83367">
        <ele>270</ele>
        <time>2018-11-11T10:26:33Z</time>
      </trkpt>
      <trkpt lat="45.98488" lon="4.83375">
        <ele>269</ele>
        <time>2018-11-11T10:26:35Z</time>
      </trkpt>
      <trkpt lat="45.98485" lon="4.83379">
        <ele>269</ele>
        <time>2018-11-11T10:26:36Z</time>
      </trkpt>
      <trkpt lat="45.98479" lon="4.83388">
        <ele>269</ele>
        <time>2018-11-11T10:26:38Z</time>
      </trkpt>
      <trkpt lat="45.98476" lon="4.83392">
        <ele>269</ele>
        <time>2018-11-11T10:26:39Z</time>
      </trkpt>
      <trkpt lat="45.98471" lon="4.83398">
        <ele>269</ele>
        <time>2018-11-11T10:26:41Z</time>
      </trkpt>
      <trkpt lat="45.98469" lon="4.83401">
        <ele>269</ele>
        <time>2018-11-11T10:26:42Z</time>
      </trkpt>
      <trkpt lat="45.98465" lon="4.83406">
        <ele>269</ele>
        <time>2018-11-11T10:26:44Z</time>
      </trkpt>
      <trkpt lat="45.9846" lon="4.83413">
        <ele>269</ele>
        <time>2018-11-11T10:26:45Z</time>
      </trkpt>
      <trkpt lat="45.98455" lon="4.83421">
        <ele>269</ele>
        <time>2018-11-11T10:26:47Z</time>
      </trkpt>
      <trkpt lat="45.98452" lon="4.83424">
        <ele>269</ele>
        <time>2018-11-11T10:26:48Z</time>
      </trkpt>
      <trkpt lat="45.98446" lon="4.83432">
        <ele>269</ele>
        <time>2018-11-11T10:26:50Z</time>
      </trkpt>
      <trkpt lat="45.98443" lon="4.83436">
        <ele>268</ele>
        <time>2018-11-11T10:26:51Z</time>
      </trkpt>
      <trkpt lat="45.98438" lon="4.83443">
        <ele>268</ele>
        <time>2018-11-11T10:26:53Z</time>
      </trkpt>
      <trkpt lat="45.98435" lon="4.83447">
        <ele>268</ele>
        <time>2018-11-11T10:26:54Z</time>
      </trkpt>
      <trkpt lat="45.98429" lon="4.83455">
        <ele>268</ele>
        <time>2018-11-11T10:26:56Z</time>
      </trkpt>
      <trkpt lat="45.98426" lon="4.83458">
        <ele>268</ele>
        <time>2018-11-11T10:26:57Z</time>
      </trkpt>
      <trkpt lat="45.98421" lon="4.83465">
        <ele>268</ele>
        <time>2018-11-11T10:26:59Z</time>
      </trkpt>
      <trkpt lat="45.98418" lon="4.83469">
        <ele>268</ele>
        <time>2018-11-11T10:27:00Z</time>
      </trkpt>
      <trkpt lat="45.98413" lon="4.83476">
        <ele>269</ele>
        <time>2018-11-11T10:27:02Z</time>
      </trkpt>
      <trkpt lat="45.9841" lon="4.8348">
        <ele>269</ele>
        <time>2018-11-11T10:27:03Z</time>
      </trkpt>
      <trkpt lat="45.98406" lon="4.83486">
        <ele>269</ele>
        <time>2018-11-11T10:27:05Z</time>
      </trkpt>
      <trkpt lat="45.98402" lon="4.83491">
        <ele>269</ele>
        <time>2018-11-11T10:27:06Z</time>
      </trkpt>
      <trkpt lat="45.98397" lon="4.83498">
        <ele>269</ele>
        <time>2018-11-11T10:27:08Z</time>
      </trkpt>
      <trkpt lat="45.98394" lon="4.83502">
        <ele>269</ele>
        <time>2018-11-11T10:27:09Z</time>
      </trkpt>
      <trkpt lat="45.98389" lon="4.83509">
        <ele>269</ele>
        <time>2018-11-11T10:27:11Z</time>
      </trkpt>
      <trkpt lat="45.98386" lon="4.83513">
        <ele>269</ele>
        <time>2018-11-11T10:27:12Z</time>
      </trkpt>
      <trkpt lat="45.98381" lon="4.83521">
        <ele>269</ele>
        <time>2018-11-11T10:27:14Z</time>
      </trkpt>
      <trkpt lat="45.98378" lon="4.83525">
        <ele>269</ele>
        <time>2018-11-11T10:27:15Z</time>
      </trkpt>
      <trkpt lat="45.98373" lon="4.83533">
        <ele>269</ele>
        <time>2018-11-11T10:27:17Z</time>
      </trkpt>
      <trkpt lat="45.9837" lon="4.83537">
        <ele>269</ele>
        <time>2018-11-11T10:27:18Z</time>
      </trkpt>
      <trkpt lat="45.98364" lon="4.83545">
        <ele>269</ele>
        <time>2018-11-11T10:27:20Z</time>
      </trkpt>
      <trkpt lat="45.98361" lon="4.83549">
        <ele>269</ele>
        <time>2018-11-11T10:27:21Z</time>
      </trkpt>
      <trkpt lat="45.98355" lon="4.83556">
        <ele>269</ele>
        <time>2018-11-11T10:27:23Z</time>
      </trkpt>
      <trkpt lat="45.98352" lon="4.83559">
        <ele>269</ele>
        <time>2018-11-11T10:27:24Z</time>
      </trkpt>
      <trkpt lat="45.98346" lon="4.83567">
        <ele>269</ele>
        <time>2018-11-11T10:27:26Z</time>
      </trkpt>
      <trkpt lat="45.98344" lon="4.83571">
        <ele>270</ele>
        <time>2018-11-11T10:27:27Z</time>
      </trkpt>
      <trkpt lat="45.98338" lon="4.83578">
        <ele>270</ele>
        <time>2018-11-11T10:27:29Z</time>
      </trkpt>
      <trkpt lat="45.98336" lon="4.83582">
        <ele>270</ele>
        <time>2018-11-11T10:27:30Z</time>
      </trkpt>
      <trkpt lat="45.9833" lon="4.8359">
        <ele>270</ele>
        <time>2018-11-11T10:27:33Z</time>
      </trkpt>
      <trkpt lat="45.98327" lon="4.83593">
        <ele>270</ele>
        <time>2018-11-11T10:27:34Z</time>
      </trkpt>
      <trkpt lat="45.98323" lon="4.83599">
        <ele>271</ele>
        <time>2018-11-11T10:27:36Z</time>
      </trkpt>
      <trkpt lat="45.98321" lon="4.83603">
        <ele>271</ele>
        <time>2018-11-11T10:27:37Z</time>
      </trkpt>
      <trkpt lat="45.98316" lon="4.8361">
        <ele>271</ele>
        <time>2018-11-11T10:27:38Z</time>
      </trkpt>
      <trkpt lat="45.98314" lon="4.83615">
        <ele>271</ele>
        <time>2018-11-11T10:27:39Z</time>
      </trkpt>
      <trkpt lat="45.98309" lon="4.83624">
        <ele>271</ele>
        <time>2018-11-11T10:27:42Z</time>
      </trkpt>
      <trkpt lat="45.98307" lon="4.83627">
        <ele>271</ele>
        <time>2018-11-11T10:27:43Z</time>
      </trkpt>
      <trkpt lat="45.98303" lon="4.83636">
        <ele>271</ele>
        <time>2018-11-11T10:27:45Z</time>
      </trkpt>
      <trkpt lat="45.98299" lon="4.83643">
        <ele>271</ele>
        <time>2018-11-11T10:27:46Z</time>
      </trkpt>
      <trkpt lat="45.98295" lon="4.83652">
        <ele>271</ele>
        <time>2018-11-11T10:27:48Z</time>
      </trkpt>
      <trkpt lat="45.98294" lon="4.83655">
        <ele>271</ele>
        <time>2018-11-11T10:27:49Z</time>
      </trkpt>
      <trkpt lat="45.9829" lon="4.83665">
        <ele>272</ele>
        <time>2018-11-11T10:27:51Z</time>
      </trkpt>
      <trkpt lat="45.98288" lon="4.8367">
        <ele>272</ele>
        <time>2018-11-11T10:27:52Z</time>
      </trkpt>
      <trkpt lat="45.98284" lon="4.8368">
        <ele>272</ele>
        <time>2018-11-11T10:27:54Z</time>
      </trkpt>
      <trkpt lat="45.98283" lon="4.83685">
        <ele>272</ele>
        <time>2018-11-11T10:27:55Z</time>
      </trkpt>
      <trkpt lat="45.98279" lon="4.83696">
        <ele>272</ele>
        <time>2018-11-11T10:27:57Z</time>
      </trkpt>
      <trkpt lat="45.98278" lon="4.83701">
        <ele>272</ele>
        <time>2018-11-11T10:27:58Z</time>
      </trkpt>
      <trkpt lat="45.98274" lon="4.83711">
        <ele>272</ele>
        <time>2018-11-11T10:28:00Z</time>
      </trkpt>
      <trkpt lat="45.98272" lon="4.83717">
        <ele>272</ele>
        <time>2018-11-11T10:28:01Z</time>
      </trkpt>
      <trkpt lat="45.98269" lon="4.83727">
        <ele>272</ele>
        <time>2018-11-11T10:28:03Z</time>
      </trkpt>
      <trkpt lat="45.98268" lon="4.83732">
        <ele>272</ele>
        <time>2018-11-11T10:28:04Z</time>
      </trkpt>
      <trkpt lat="45.98264" lon="4.83741">
        <ele>272</ele>
        <time>2018-11-11T10:28:06Z</time>
      </trkpt>
      <trkpt lat="45.98263" lon="4.83746">
        <ele>272</ele>
        <time>2018-11-11T10:28:07Z</time>
      </trkpt>
      <trkpt lat="45.98259" lon="4.83756">
        <ele>272</ele>
        <time>2018-11-11T10:28:09Z</time>
      </trkpt>
      <trkpt lat="45.98257" lon="4.83761">
        <ele>272</ele>
        <time>2018-11-11T10:28:10Z</time>
      </trkpt>
      <trkpt lat="45.98253" lon="4.83771">
        <ele>272</ele>
        <time>2018-11-11T10:28:12Z</time>
      </trkpt>
      <trkpt lat="45.98251" lon="4.83776">
        <ele>272</ele>
        <time>2018-11-11T10:28:13Z</time>
      </trkpt>
      <trkpt lat="45.98248" lon="4.83786">
        <ele>272</ele>
        <time>2018-11-11T10:28:15Z</time>
      </trkpt>
      <trkpt lat="45.98247" lon="4.83791">
        <ele>272</ele>
        <time>2018-11-11T10:28:16Z</time>
      </trkpt>
      <trkpt lat="45.98243" lon="4.83801">
        <ele>272</ele>
        <time>2018-11-11T10:28:18Z</time>
      </trkpt>
      <trkpt lat="45.98242" lon="4.83806">
        <ele>272</ele>
        <time>2018-11-11T10:28:19Z</time>
      </trkpt>
      <trkpt lat="45.98238" lon="4.83817">
        <ele>272</ele>
        <time>2018-11-11T10:28:21Z</time>
      </trkpt>
      <trkpt lat="45.98236" lon="4.83822">
        <ele>272</ele>
        <time>2018-11-11T10:28:22Z</time>
      </trkpt>
      <trkpt lat="45.98233" lon="4.83833">
        <ele>272</ele>
        <time>2018-11-11T10:28:24Z</time>
      </trkpt>
      <trkpt lat="45.98231" lon="4.83839">
        <ele>272</ele>
        <time>2018-11-11T10:28:25Z</time>
      </trkpt>
      <trkpt lat="45.98227" lon="4.8385">
        <ele>272</ele>
        <time>2018-11-11T10:28:27Z</time>
      </trkpt>
      <trkpt lat="45.98225" lon="4.83855">
        <ele>272</ele>
        <time>2018-11-11T10:28:28Z</time>
      </trkpt>
      <trkpt lat="45.98221" lon="4.83867">
        <ele>272</ele>
        <time>2018-11-11T10:28:30Z</time>
      </trkpt>
      <trkpt lat="45.98219" lon="4.83872">
        <ele>272</ele>
        <time>2018-11-11T10:28:31Z</time>
      </trkpt>
      <trkpt lat="45.98215" lon="4.83884">
        <ele>272</ele>
        <time>2018-11-11T10:28:33Z</time>
      </trkpt>
      <trkpt lat="45.98214" lon="4.83889">
        <ele>273</ele>
        <time>2018-11-11T10:28:34Z</time>
      </trkpt>
      <trkpt lat="45.9821" lon="4.839">
        <ele>273</ele>
        <time>2018-11-11T10:28:36Z</time>
      </trkpt>
      <trkpt lat="45.98208" lon="4.83906">
        <ele>273</ele>
        <time>2018-11-11T10:28:37Z</time>
      </trkpt>
      <trkpt lat="45.98204" lon="4.83917">
        <ele>273</ele>
        <time>2018-11-11T10:28:39Z</time>
      </trkpt>
      <trkpt lat="45.98202" lon="4.83923">
        <ele>273</ele>
        <time>2018-11-11T10:28:40Z</time>
      </trkpt>
      <trkpt lat="45.98199" lon="4.83934">
        <ele>273</ele>
        <time>2018-11-11T10:28:42Z</time>
      </trkpt>
      <trkpt lat="45.98197" lon="4.83939">
        <ele>273</ele>
        <time>2018-11-11T10:28:43Z</time>
      </trkpt>
      <trkpt lat="45.98193" lon="4.8395">
        <ele>273</ele>
        <time>2018-11-11T10:28:45Z</time>
      </trkpt>
      <trkpt lat="45.98191" lon="4.83955">
        <ele>273</ele>
        <time>2018-11-11T10:28:46Z</time>
      </trkpt>
      <trkpt lat="45.98188" lon="4.83965">
        <ele>273</ele>
        <time>2018-11-11T10:28:48Z</time>
      </trkpt>
      <trkpt lat="45.98186" lon="4.8397">
        <ele>273</ele>
        <time>2018-11-11T10:28:49Z</time>
      </trkpt>
      <trkpt lat="45.98182" lon="4.83979">
        <ele>273</ele>
        <time>2018-11-11T10:28:51Z</time>
      </trkpt>
      <trkpt lat="45.98181" lon="4.83984">
        <ele>273</ele>
        <time>2018-11-11T10:28:52Z</time>
      </trkpt>
      <trkpt lat="45.98176" lon="4.83993">
        <ele>273</ele>
        <time>2018-11-11T10:28:54Z</time>
      </trkpt>
      <trkpt lat="45.98174" lon="4.83998">
        <ele>273</ele>
        <time>2018-11-11T10:28:55Z</time>
      </trkpt>
      <trkpt lat="45.98171" lon="4.84007">
        <ele>273</ele>
        <time>2018-11-11T10:28:57Z</time>
      </trkpt>
      <trkpt lat="45.98169" lon="4.84011">
        <ele>273</ele>
        <time>2018-11-11T10:28:58Z</time>
      </trkpt>
      <trkpt lat="45.98164" lon="4.84021">
        <ele>273</ele>
        <time>2018-11-11T10:29:00Z</time>
      </trkpt>
      <trkpt lat="45.98162" lon="4.84025">
        <ele>273</ele>
        <time>2018-11-11T10:29:01Z</time>
      </trkpt>
      <trkpt lat="45.98156" lon="4.84033">
        <ele>273</ele>
        <time>2018-11-11T10:29:03Z</time>
      </trkpt>
      <trkpt lat="45.98154" lon="4.84037">
        <ele>273</ele>
        <time>2018-11-11T10:29:04Z</time>
      </trkpt>
      <trkpt lat="45.9815" lon="4.84044">
        <ele>273</ele>
        <time>2018-11-11T10:29:06Z</time>
      </trkpt>
      <trkpt lat="45.98147" lon="4.84047">
        <ele>273</ele>
        <time>2018-11-11T10:29:07Z</time>
      </trkpt>
      <trkpt lat="45.98141" lon="4.84055">
        <ele>273</ele>
        <time>2018-11-11T10:29:09Z</time>
      </trkpt>
      <trkpt lat="45.98138" lon="4.84059">
        <ele>273</ele>
        <time>2018-11-11T10:29:10Z</time>
      </trkpt>
      <trkpt lat="45.98133" lon="4.84065">
        <ele>273</ele>
        <time>2018-11-11T10:29:12Z</time>
      </trkpt>
      <trkpt lat="45.98131" lon="4.84067">
        <ele>273</ele>
        <time>2018-11-11T10:29:13Z</time>
      </trkpt>
      <trkpt lat="45.98124" lon="4.84076">
        <ele>273</ele>
        <time>2018-11-11T10:29:16Z</time>
      </trkpt>
      <trkpt lat="45.98121" lon="4.84078">
        <ele>273</ele>
        <time>2018-11-11T10:29:17Z</time>
      </trkpt>
      <trkpt lat="45.98116" lon="4.84083">
        <ele>273</ele>
        <time>2018-11-11T10:29:19Z</time>
      </trkpt>
      <trkpt lat="45.98112" lon="4.84086">
        <ele>273</ele>
        <time>2018-11-11T10:29:20Z</time>
      </trkpt>
      <trkpt lat="45.98107" lon="4.84091">
        <ele>273</ele>
        <time>2018-11-11T10:29:22Z</time>
      </trkpt>
      <trkpt lat="45.98104" lon="4.84093">
        <ele>273</ele>
        <time>2018-11-11T10:29:23Z</time>
      </trkpt>
      <trkpt lat="45.98099" lon="4.84098">
        <ele>273</ele>
        <time>2018-11-11T10:29:25Z</time>
      </trkpt>
      <trkpt lat="45.98096" lon="4.84101">
        <ele>273</ele>
        <time>2018-11-11T10:29:26Z</time>
      </trkpt>
      <trkpt lat="45.98091" lon="4.84107">
        <ele>273</ele>
        <time>2018-11-11T10:29:28Z</time>
      </trkpt>
      <trkpt lat="45.98088" lon="4.8411">
        <ele>273</ele>
        <time>2018-11-11T10:29:29Z</time>
      </trkpt>
      <trkpt lat="45.9808" lon="4.84116">
        <ele>273</ele>
        <time>2018-11-11T10:29:32Z</time>
      </trkpt>
      <trkpt lat="45.98077" lon="4.84119">
        <ele>273</ele>
        <time>2018-11-11T10:29:33Z</time>
      </trkpt>
      <trkpt lat="45.98072" lon="4.84124">
        <ele>273</ele>
        <time>2018-11-11T10:29:35Z</time>
      </trkpt>
      <trkpt lat="45.98069" lon="4.84126">
        <ele>273</ele>
        <time>2018-11-11T10:29:36Z</time>
      </trkpt>
      <trkpt lat="45.98063" lon="4.84131">
        <ele>273</ele>
        <time>2018-11-11T10:29:38Z</time>
      </trkpt>
      <trkpt lat="45.9806" lon="4.84134">
        <ele>273</ele>
        <time>2018-11-11T10:29:39Z</time>
      </trkpt>
      <trkpt lat="45.98054" lon="4.84139">
        <ele>273</ele>
        <time>2018-11-11T10:29:41Z</time>
      </trkpt>
      <trkpt lat="45.98052" lon="4.84142">
        <ele>273</ele>
        <time>2018-11-11T10:29:42Z</time>
      </trkpt>
      <trkpt lat="45.98046" lon="4.84148">
        <ele>273</ele>
        <time>2018-11-11T10:29:44Z</time>
      </trkpt>
      <trkpt lat="45.98041" lon="4.84154">
        <ele>273</ele>
        <time>2018-11-11T10:29:45Z</time>
      </trkpt>
      <trkpt lat="45.98035" lon="4.8416">
        <ele>273</ele>
        <time>2018-11-11T10:29:47Z</time>
      </trkpt>
      <trkpt lat="45.98033" lon="4.84162">
        <ele>273</ele>
        <time>2018-11-11T10:29:48Z</time>
      </trkpt>
      <trkpt lat="45.98026" lon="4.84168">
        <ele>274</ele>
        <time>2018-11-11T10:29:50Z</time>
      </trkpt>
      <trkpt lat="45.98023" lon="4.8417">
        <ele>274</ele>
        <time>2018-11-11T10:29:51Z</time>
      </trkpt>
      <trkpt lat="45.98017" lon="4.84176">
        <ele>274</ele>
        <time>2018-11-11T10:29:53Z</time>
      </trkpt>
      <trkpt lat="45.98015" lon="4.84178">
        <ele>274</ele>
        <time>2018-11-11T10:29:54Z</time>
      </trkpt>
      <trkpt lat="45.98008" lon="4.84184">
        <ele>274</ele>
        <time>2018-11-11T10:29:56Z</time>
      </trkpt>
      <trkpt lat="45.98005" lon="4.84187">
        <ele>274</ele>
        <time>2018-11-11T10:29:57Z</time>
      </trkpt>
      <trkpt lat="45.97999" lon="4.84193">
        <ele>274</ele>
        <time>2018-11-11T10:29:59Z</time>
      </trkpt>
      <trkpt lat="45.97996" lon="4.84196">
        <ele>274</ele>
        <time>2018-11-11T10:30:00Z</time>
      </trkpt>
      <trkpt lat="45.9799" lon="4.84202">
        <ele>274</ele>
        <time>2018-11-11T10:30:02Z</time>
      </trkpt>
      <trkpt lat="45.97987" lon="4.84205">
        <ele>274</ele>
        <time>2018-11-11T10:30:03Z</time>
      </trkpt>
      <trkpt lat="45.97981" lon="4.84211">
        <ele>274</ele>
        <time>2018-11-11T10:30:05Z</time>
      </trkpt>
      <trkpt lat="45.97978" lon="4.84214">
        <ele>274</ele>
        <time>2018-11-11T10:30:06Z</time>
      </trkpt>
      <trkpt lat="45.97971" lon="4.8422">
        <ele>274</ele>
        <time>2018-11-11T10:30:08Z</time>
      </trkpt>
      <trkpt lat="45.97968" lon="4.84222">
        <ele>274</ele>
        <time>2018-11-11T10:30:09Z</time>
      </trkpt>
      <trkpt lat="45.97961" lon="4.84228">
        <ele>274</ele>
        <time>2018-11-11T10:30:11Z</time>
      </trkpt>
      <trkpt lat="45.97958" lon="4.8423">
        <ele>275</ele>
        <time>2018-11-11T10:30:12Z</time>
      </trkpt>
      <trkpt lat="45.9795" lon="4.84237">
        <ele>275</ele>
        <time>2018-11-11T10:30:15Z</time>
      </trkpt>
      <trkpt lat="45.97948" lon="4.84239">
        <ele>275</ele>
        <time>2018-11-11T10:30:16Z</time>
      </trkpt>
      <trkpt lat="45.97943" lon="4.84244">
        <ele>275</ele>
        <time>2018-11-11T10:30:17Z</time>
      </trkpt>
      <trkpt lat="45.97939" lon="4.84247">
        <ele>275</ele>
        <time>2018-11-11T10:30:18Z</time>
      </trkpt>
      <trkpt lat="45.97933" lon="4.84252">
        <ele>275</ele>
        <time>2018-11-11T10:30:20Z</time>
      </trkpt>
      <trkpt lat="45.9793" lon="4.84256">
        <ele>275</ele>
        <time>2018-11-11T10:30:21Z</time>
      </trkpt>
      <trkpt lat="45.97924" lon="4.84263">
        <ele>275</ele>
        <time>2018-11-11T10:30:23Z</time>
      </trkpt>
      <trkpt lat="45.97921" lon="4.84266">
        <ele>275</ele>
        <time>2018-11-11T10:30:24Z</time>
      </trkpt>
      <trkpt lat="45.97915" lon="4.84273">
        <ele>275</ele>
        <time>2018-11-11T10:30:26Z</time>
      </trkpt>
      <trkpt lat="45.97912" lon="4.84276">
        <ele>275</ele>
        <time>2018-11-11T10:30:27Z</time>
      </trkpt>
      <trkpt lat="45.97907" lon="4.84284">
        <ele>275</ele>
        <time>2018-11-11T10:30:29Z</time>
      </trkpt>
      <trkpt lat="45.97904" lon="4.84288">
        <ele>275</ele>
        <time>2018-11-11T10:30:30Z</time>
      </trkpt>
      <trkpt lat="45.97898" lon="4.84296">
        <ele>275</ele>
        <time>2018-11-11T10:30:32Z</time>
      </trkpt>
      <trkpt lat="45.97896" lon="4.843">
        <ele>275</ele>
        <time>2018-11-11T10:30:33Z</time>
      </trkpt>
      <trkpt lat="45.97891" lon="4.84308">
        <ele>275</ele>
        <time>2018-11-11T10:30:35Z</time>
      </trkpt>
      <trkpt lat="45.97888" lon="4.84312">
        <ele>275</ele>
        <time>2018-11-11T10:30:36Z</time>
      </trkpt>
      <trkpt lat="45.97883" lon="4.8432">
        <ele>275</ele>
        <time>2018-11-11T10:30:38Z</time>
      </trkpt>
      <trkpt lat="45.9788" lon="4.84324">
        <ele>275</ele>
        <time>2018-11-11T10:30:39Z</time>
      </trkpt>
      <trkpt lat="45.97875" lon="4.84332">
        <ele>275</ele>
        <time>2018-11-11T10:30:41Z</time>
      </trkpt>
      <trkpt lat="45.97873" lon="4.84336">
        <ele>276</ele>
        <time>2018-11-11T10:30:42Z</time>
      </trkpt>
      <trkpt lat="45.97867" lon="4.84345">
        <ele>276</ele>
        <time>2018-11-11T10:30:44Z</time>
      </trkpt>
      <trkpt lat="45.97864" lon="4.84349">
        <ele>276</ele>
        <time>2018-11-11T10:30:45Z</time>
      </trkpt>
      <trkpt lat="45.97859" lon="4.84357">
        <ele>276</ele>
        <time>2018-11-11T10:30:47Z</time>
      </trkpt>
      <trkpt lat="45.97856" lon="4.84361">
        <ele>276</ele>
        <time>2018-11-11T10:30:48Z</time>
      </trkpt>
      <trkpt lat="45.97851" lon="4.84368">
        <ele>276</ele>
        <time>2018-11-11T10:30:50Z</time>
      </trkpt>
      <trkpt lat="45.97848" lon="4.84371">
        <ele>276</ele>
        <time>2018-11-11T10:30:51Z</time>
      </trkpt>
      <trkpt lat="45.97842" lon="4.84377">
        <ele>276</ele>
        <time>2018-11-11T10:30:53Z</time>
      </trkpt>
      <trkpt lat="45.97839" lon="4.8438">
        <ele>276</ele>
        <time>2018-11-11T10:30:54Z</time>
      </trkpt>
      <trkpt lat="45.97833" lon="4.84387">
        <ele>276</ele>
        <time>2018-11-11T10:30:56Z</time>
      </trkpt>
      <trkpt lat="45.9783" lon="4.8439">
        <ele>276</ele>
        <time>2018-11-11T10:30:57Z</time>
      </trkpt>
      <trkpt lat="45.97823" lon="4.84396">
        <ele>276</ele>
        <time>2018-11-11T10:30:59Z</time>
      </trkpt>
      <trkpt lat="45.9782" lon="4.84399">
        <ele>276</ele>
        <time>2018-11-11T10:31:00Z</time>
      </trkpt>
      <trkpt lat="45.97814" lon="4.84405">
        <ele>277</ele>
        <time>2018-11-11T10:31:02Z</time>
      </trkpt>
      <trkpt lat="45.9781" lon="4.84408">
        <ele>277</ele>
        <time>2018-11-11T10:31:03Z</time>
      </trkpt>
      <trkpt lat="45.97804" lon="4.84413">
        <ele>277</ele>
        <time>2018-11-11T10:31:05Z</time>
      </trkpt>
      <trkpt lat="45.97801" lon="4.84414">
        <ele>277</ele>
        <time>2018-11-11T10:31:06Z</time>
      </trkpt>
      <trkpt lat="45.97793" lon="4.84418">
        <ele>277</ele>
        <time>2018-11-11T10:31:08Z</time>
      </trkpt>
      <trkpt lat="45.97791" lon="4.8442">
        <ele>277</ele>
        <time>2018-11-11T10:31:09Z</time>
      </trkpt>
      <trkpt lat="45.97783" lon="4.84423">
        <ele>277</ele>
        <time>2018-11-11T10:31:11Z</time>
      </trkpt>
      <trkpt lat="45.9778" lon="4.84424">
        <ele>277</ele>
        <time>2018-11-11T10:31:12Z</time>
      </trkpt>
      <trkpt lat="45.97772" lon="4.84428">
        <ele>277</ele>
        <time>2018-11-11T10:31:14Z</time>
      </trkpt>
      <trkpt lat="45.9777" lon="4.84429">
        <ele>277</ele>
        <time>2018-11-11T10:31:15Z</time>
      </trkpt>
      <trkpt lat="45.97762" lon="4.84433">
        <ele>277</ele>
        <time>2018-11-11T10:31:18Z</time>
      </trkpt>
      <trkpt lat="45.97759" lon="4.84434">
        <ele>277</ele>
        <time>2018-11-11T10:31:19Z</time>
      </trkpt>
      <trkpt lat="45.97753" lon="4.84437">
        <ele>277</ele>
        <time>2018-11-11T10:31:21Z</time>
      </trkpt>
      <trkpt lat="45.9775" lon="4.84439">
        <ele>277</ele>
        <time>2018-11-11T10:31:22Z</time>
      </trkpt>
      <trkpt lat="45.97743" lon="4.84441">
        <ele>277</ele>
        <time>2018-11-11T10:31:24Z</time>
      </trkpt>
      <trkpt lat="45.97737" lon="4.84443">
        <ele>277</ele>
        <time>2018-11-11T10:31:25Z</time>
      </trkpt>
      <trkpt lat="45.97729" lon="4.84446">
        <ele>277</ele>
        <time>2018-11-11T10:31:28Z</time>
      </trkpt>
      <trkpt lat="45.97726" lon="4.84447">
        <ele>277</ele>
        <time>2018-11-11T10:31:29Z</time>
      </trkpt>
      <trkpt lat="45.9772" lon="4.8445">
        <ele>277</ele>
        <time>2018-11-11T10:31:31Z</time>
      </trkpt>
      <trkpt lat="45.97713" lon="4.84453">
        <ele>277</ele>
        <time>2018-11-11T10:31:32Z</time>
      </trkpt>
      <trkpt lat="45.97704" lon="4.84456">
        <ele>277</ele>
        <time>2018-11-11T10:31:35Z</time>
      </trkpt>
      <trkpt lat="45.97698" lon="4.84458">
        <ele>277</ele>
        <time>2018-11-11T10:31:36Z</time>
      </trkpt>
      <trkpt lat="45.9769" lon="4.84461">
        <ele>277</ele>
        <time>2018-11-11T10:31:39Z</time>
      </trkpt>
      <trkpt lat="45.97687" lon="4.84463">
        <ele>277</ele>
        <time>2018-11-11T10:31:40Z</time>
      </trkpt>
      <trkpt lat="45.97682" lon="4.84465">
        <ele>277</ele>
        <time>2018-11-11T10:31:41Z</time>
      </trkpt>
      <trkpt lat="45.97678" lon="4.84467">
        <ele>277</ele>
        <time>2018-11-11T10:31:42Z</time>
      </trkpt>
      <trkpt lat="45.97672" lon="4.84472">
        <ele>276</ele>
        <time>2018-11-11T10:31:44Z</time>
      </trkpt>
      <trkpt lat="45.97669" lon="4.84475">
        <ele>276</ele>
        <time>2018-11-11T10:31:45Z</time>
      </trkpt>
      <trkpt lat="45.97662" lon="4.8448">
        <ele>276</ele>
        <time>2018-11-11T10:31:47Z</time>
      </trkpt>
      <trkpt lat="45.97659" lon="4.84482">
        <ele>276</ele>
        <time>2018-11-11T10:31:48Z</time>
      </trkpt>
      <trkpt lat="45.97652" lon="4.84487">
        <ele>275</ele>
        <time>2018-11-11T10:31:50Z</time>
      </trkpt>
      <trkpt lat="45.97649" lon="4.84489">
        <ele>275</ele>
        <time>2018-11-11T10:31:51Z</time>
      </trkpt>
      <trkpt lat="45.97642" lon="4.84495">
        <ele>275</ele>
        <time>2018-11-11T10:31:53Z</time>
      </trkpt>
      <trkpt lat="45.97639" lon="4.84498">
        <ele>275</ele>
        <time>2018-11-11T10:31:54Z</time>
      </trkpt>
      <trkpt lat="45.97633" lon="4.84505">
        <ele>275</ele>
        <time>2018-11-11T10:31:56Z</time>
      </trkpt>
      <trkpt lat="45.97631" lon="4.84508">
        <ele>275</ele>
        <time>2018-11-11T10:31:57Z</time>
      </trkpt>
      <trkpt lat="45.97625" lon="4.84515">
        <ele>275</ele>
        <time>2018-11-11T10:31:59Z</time>
      </trkpt>
      <trkpt lat="45.97622" lon="4.84518">
        <ele>275</ele>
        <time>2018-11-11T10:32:00Z</time>
      </trkpt>
      <trkpt lat="45.97616" lon="4.84525">
        <ele>275</ele>
        <time>2018-11-11T10:32:02Z</time>
      </trkpt>
      <trkpt lat="45.97614" lon="4.84528">
        <ele>275</ele>
        <time>2018-11-11T10:32:03Z</time>
      </trkpt>
      <trkpt lat="45.97608" lon="4.84535">
        <ele>275</ele>
        <time>2018-11-11T10:32:05Z</time>
      </trkpt>
      <trkpt lat="45.97605" lon="4.84539">
        <ele>275</ele>
        <time>2018-11-11T10:32:06Z</time>
      </trkpt>
      <trkpt lat="45.97599" lon="4.84546">
        <ele>275</ele>
        <time>2018-11-11T10:32:08Z</time>
      </trkpt>
      <trkpt lat="45.97596" lon="4.8455">
        <ele>275</ele>
        <time>2018-11-11T10:32:09Z</time>
      </trkpt>
      <trkpt lat="45.97591" lon="4.84557">
        <ele>275</ele>
        <time>2018-11-11T10:32:11Z</time>
      </trkpt>
      <trkpt lat="45.97588" lon="4.8456">
        <ele>274</ele>
        <time>2018-11-11T10:32:12Z</time>
      </trkpt>
      <trkpt lat="45.97584" lon="4.84566">
        <ele>274</ele>
        <time>2018-11-11T10:32:14Z</time>
      </trkpt>
      <trkpt lat="45.9758" lon="4.8457">
        <ele>274</ele>
        <time>2018-11-11T10:32:15Z</time>
      </trkpt>
      <trkpt lat="45.97574" lon="4.84577">
        <ele>274</ele>
        <time>2018-11-11T10:32:17Z</time>
      </trkpt>
      <trkpt lat="45.97571" lon="4.8458">
        <ele>274</ele>
        <time>2018-11-11T10:32:18Z</time>
      </trkpt>
      <trkpt lat="45.97566" lon="4.84587">
        <ele>274</ele>
        <time>2018-11-11T10:32:20Z</time>
      </trkpt>
      <trkpt lat="45.97564" lon="4.84589">
        <ele>274</ele>
        <time>2018-11-11T10:32:21Z</time>
      </trkpt>
      <trkpt lat="45.97557" lon="4.84597">
        <ele>274</ele>
        <time>2018-11-11T10:32:23Z</time>
      </trkpt>
      <trkpt lat="45.97554" lon="4.846">
        <ele>274</ele>
        <time>2018-11-11T10:32:24Z</time>
      </trkpt>
      <trkpt lat="45.97548" lon="4.84606">
        <ele>274</ele>
        <time>2018-11-11T10:32:26Z</time>
      </trkpt>
      <trkpt lat="45.97545" lon="4.8461">
        <ele>274</ele>
        <time>2018-11-11T10:32:27Z</time>
      </trkpt>
      <trkpt lat="45.97539" lon="4.84616">
        <ele>275</ele>
        <time>2018-11-11T10:32:29Z</time>
      </trkpt>
      <trkpt lat="45.97536" lon="4.84619">
        <ele>275</ele>
        <time>2018-11-11T10:32:30Z</time>
      </trkpt>
      <trkpt lat="45.97529" lon="4.84624">
        <ele>275</ele>
        <time>2018-11-11T10:32:32Z</time>
      </trkpt>
      <trkpt lat="45.97526" lon="4.84626">
        <ele>275</ele>
        <time>2018-11-11T10:32:33Z</time>
      </trkpt>
      <trkpt lat="45.97518" lon="4.84632">
        <ele>275</ele>
        <time>2018-11-11T10:32:36Z</time>
      </trkpt>
      <trkpt lat="45.97516" lon="4.84634">
        <ele>275</ele>
        <time>2018-11-11T10:32:37Z</time>
      </trkpt>
      <trkpt lat="45.9751" lon="4.84638">
        <ele>275</ele>
        <time>2018-11-11T10:32:39Z</time>
      </trkpt>
      <trkpt lat="45.97507" lon="4.84641">
        <ele>275</ele>
        <time>2018-11-11T10:32:40Z</time>
      </trkpt>
      <trkpt lat="45.97501" lon="4.84645">
        <ele>275</ele>
        <time>2018-11-11T10:32:42Z</time>
      </trkpt>
      <trkpt lat="45.97497" lon="4.84648">
        <ele>275</ele>
        <time>2018-11-11T10:32:43Z</time>
      </trkpt>
      <trkpt lat="45.97491" lon="4.84652">
        <ele>275</ele>
        <time>2018-11-11T10:32:45Z</time>
      </trkpt>
      <trkpt lat="45.97488" lon="4.84654">
        <ele>275</ele>
        <time>2018-11-11T10:32:46Z</time>
      </trkpt>
      <trkpt lat="45.97482" lon="4.84659">
        <ele>276</ele>
        <time>2018-11-11T10:32:48Z</time>
      </trkpt>
      <trkpt lat="45.97479" lon="4.84661">
        <ele>276</ele>
        <time>2018-11-11T10:32:49Z</time>
      </trkpt>
      <trkpt lat="45.97473" lon="4.84666">
        <ele>276</ele>
        <time>2018-11-11T10:32:51Z</time>
      </trkpt>
      <trkpt lat="45.97467" lon="4.8467">
        <ele>276</ele>
        <time>2018-11-11T10:32:52Z</time>
      </trkpt>
      <trkpt lat="45.97461" lon="4.84675">
        <ele>276</ele>
        <time>2018-11-11T10:32:54Z</time>
      </trkpt>
      <trkpt lat="45.97458" lon="4.84678">
        <ele>276</ele>
        <time>2018-11-11T10:32:55Z</time>
      </trkpt>
      <trkpt lat="45.97451" lon="4.84683">
        <ele>276</ele>
        <time>2018-11-11T10:32:57Z</time>
      </trkpt>
      <trkpt lat="45.97448" lon="4.84685">
        <ele>276</ele>
        <time>2018-11-11T10:32:58Z</time>
      </trkpt>
      <trkpt lat="45.97441" lon="4.8469">
        <ele>276</ele>
        <time>2018-11-11T10:33:00Z</time>
      </trkpt>
      <trkpt lat="45.97437" lon="4.84692">
        <ele>276</ele>
        <time>2018-11-11T10:33:01Z</time>
      </trkpt>
      <trkpt lat="45.9743" lon="4.84697">
        <ele>276</ele>
        <time>2018-11-11T10:33:03Z</time>
      </trkpt>
      <trkpt lat="45.97426" lon="4.84699">
        <ele>276</ele>
        <time>2018-11-11T10:33:04Z</time>
      </trkpt>
      <trkpt lat="45.9742" lon="4.84704">
        <ele>276</ele>
        <time>2018-11-11T10:33:06Z</time>
      </trkpt>
      <trkpt lat="45.97416" lon="4.84706">
        <ele>278</ele>
        <time>2018-11-11T10:33:07Z</time>
      </trkpt>
      <trkpt lat="45.97409" lon="4.84711">
        <ele>278</ele>
        <time>2018-11-11T10:33:09Z</time>
      </trkpt>
      <trkpt lat="45.97406" lon="4.84714">
        <ele>278</ele>
        <time>2018-11-11T10:33:10Z</time>
      </trkpt>
      <trkpt lat="45.97399" lon="4.84718">
        <ele>278</ele>
        <time>2018-11-11T10:33:12Z</time>
      </trkpt>
      <trkpt lat="45.97395" lon="4.84719">
        <ele>278</ele>
        <time>2018-11-11T10:33:13Z</time>
      </trkpt>
      <trkpt lat="45.97388" lon="4.84721">
        <ele>278</ele>
        <time>2018-11-11T10:33:15Z</time>
      </trkpt>
      <trkpt lat="45.97385" lon="4.84723">
        <ele>278</ele>
        <time>2018-11-11T10:33:16Z</time>
      </trkpt>
      <trkpt lat="45.97381" lon="4.84732">
        <ele>278</ele>
        <time>2018-11-11T10:33:18Z</time>
      </trkpt>
      <trkpt lat="45.97379" lon="4.84737">
        <ele>278</ele>
        <time>2018-11-11T10:33:19Z</time>
      </trkpt>
      <trkpt lat="45.97376" lon="4.84747">
        <ele>278</ele>
        <time>2018-11-11T10:33:21Z</time>
      </trkpt>
      <trkpt lat="45.97374" lon="4.84752">
        <ele>278</ele>
        <time>2018-11-11T10:33:22Z</time>
      </trkpt>
      <trkpt lat="45.97371" lon="4.84762">
        <ele>278</ele>
        <time>2018-11-11T10:33:24Z</time>
      </trkpt>
      <trkpt lat="45.97369" lon="4.84767">
        <ele>278</ele>
        <time>2018-11-11T10:33:25Z</time>
      </trkpt>
      <trkpt lat="45.97364" lon="4.84777">
        <ele>278</ele>
        <time>2018-11-11T10:33:27Z</time>
      </trkpt>
      <trkpt lat="45.97363" lon="4.84781">
        <ele>278</ele>
        <time>2018-11-11T10:33:28Z</time>
      </trkpt>
      <trkpt lat="45.97359" lon="4.8479">
        <ele>278</ele>
        <time>2018-11-11T10:33:30Z</time>
      </trkpt>
      <trkpt lat="45.97357" lon="4.84795">
        <ele>278</ele>
        <time>2018-11-11T10:33:31Z</time>
      </trkpt>
      <trkpt lat="45.97353" lon="4.84805">
        <ele>278</ele>
        <time>2018-11-11T10:33:33Z</time>
      </trkpt>
      <trkpt lat="45.97351" lon="4.84809">
        <ele>278</ele>
        <time>2018-11-11T10:33:34Z</time>
      </trkpt>
      <trkpt lat="45.97347" lon="4.84819">
        <ele>278</ele>
        <time>2018-11-11T10:33:36Z</time>
      </trkpt>
      <trkpt lat="45.97344" lon="4.84824">
        <ele>278</ele>
        <time>2018-11-11T10:33:37Z</time>
      </trkpt>
      <trkpt lat="45.9734" lon="4.84834">
        <ele>278</ele>
        <time>2018-11-11T10:33:39Z</time>
      </trkpt>
      <trkpt lat="45.97338" lon="4.84839">
        <ele>278</ele>
        <time>2018-11-11T10:33:40Z</time>
      </trkpt>
      <trkpt lat="45.97334" lon="4.84849">
        <ele>277</ele>
        <time>2018-11-11T10:33:42Z</time>
      </trkpt>
      <trkpt lat="45.97332" lon="4.84853">
        <ele>278</ele>
        <time>2018-11-11T10:33:43Z</time>
      </trkpt>
      <trkpt lat="45.97327" lon="4.84863">
        <ele>278</ele>
        <time>2018-11-11T10:33:45Z</time>
      </trkpt>
      <trkpt lat="45.97325" lon="4.84867">
        <ele>278</ele>
        <time>2018-11-11T10:33:46Z</time>
      </trkpt>
      <trkpt lat="45.9732" lon="4.84876">
        <ele>278</ele>
        <time>2018-11-11T10:33:48Z</time>
      </trkpt>
      <trkpt lat="45.97317" lon="4.8488">
        <ele>278</ele>
        <time>2018-11-11T10:33:49Z</time>
      </trkpt>
      <trkpt lat="45.97312" lon="4.84888">
        <ele>278</ele>
        <time>2018-11-11T10:33:51Z</time>
      </trkpt>
      <trkpt lat="45.9731" lon="4.84892">
        <ele>278</ele>
        <time>2018-11-11T10:33:52Z</time>
      </trkpt>
      <trkpt lat="45.97305" lon="4.84901">
        <ele>278</ele>
        <time>2018-11-11T10:33:54Z</time>
      </trkpt>
      <trkpt lat="45.97302" lon="4.84905">
        <ele>278</ele>
        <time>2018-11-11T10:33:55Z</time>
      </trkpt>
      <trkpt lat="45.97297" lon="4.84913">
        <ele>279</ele>
        <time>2018-11-11T10:33:57Z</time>
      </trkpt>
      <trkpt lat="45.97294" lon="4.84917">
        <ele>278</ele>
        <time>2018-11-11T10:33:58Z</time>
      </trkpt>
      <trkpt lat="45.97289" lon="4.84925">
        <ele>278</ele>
        <time>2018-11-11T10:34:00Z</time>
      </trkpt>
      <trkpt lat="45.97286" lon="4.84929">
        <ele>278</ele>
        <time>2018-11-11T10:34:01Z</time>
      </trkpt>
      <trkpt lat="45.97281" lon="4.84937">
        <ele>279</ele>
        <time>2018-11-11T10:34:03Z</time>
      </trkpt>
      <trkpt lat="45.97279" lon="4.84941">
        <ele>279</ele>
        <time>2018-11-11T10:34:04Z</time>
      </trkpt>
      <trkpt lat="45.97274" lon="4.84949">
        <ele>279</ele>
        <time>2018-11-11T10:34:06Z</time>
      </trkpt>
      <trkpt lat="45.97271" lon="4.84953">
        <ele>279</ele>
        <time>2018-11-11T10:34:07Z</time>
      </trkpt>
      <trkpt lat="45.97267" lon="4.84962">
        <ele>279</ele>
        <time>2018-11-11T10:34:09Z</time>
      </trkpt>
      <trkpt lat="45.97264" lon="4.84966">
        <ele>279</ele>
        <time>2018-11-11T10:34:10Z</time>
      </trkpt>
      <trkpt lat="45.9726" lon="4.84975">
        <ele>279</ele>
        <time>2018-11-11T10:34:12Z</time>
      </trkpt>
      <trkpt lat="45.97258" lon="4.84979">
        <ele>279</ele>
        <time>2018-11-11T10:34:13Z</time>
      </trkpt>
      <trkpt lat="45.97254" lon="4.84988">
        <ele>279</ele>
        <time>2018-11-11T10:34:15Z</time>
      </trkpt>
      <trkpt lat="45.97252" lon="4.84992">
        <ele>279</ele>
        <time>2018-11-11T10:34:16Z</time>
      </trkpt>
      <trkpt lat="45.97248" lon="4.85001">
        <ele>279</ele>
        <time>2018-11-11T10:34:18Z</time>
      </trkpt>
      <trkpt lat="45.97246" lon="4.85006">
        <ele>279</ele>
        <time>2018-11-11T10:34:19Z</time>
      </trkpt>
      <trkpt lat="45.97241" lon="4.85016">
        <ele>279</ele>
        <time>2018-11-11T10:34:21Z</time>
      </trkpt>
      <trkpt lat="45.97239" lon="4.85021">
        <ele>279</ele>
        <time>2018-11-11T10:34:22Z</time>
      </trkpt>
      <trkpt lat="45.97234" lon="4.8503">
        <ele>279</ele>
        <time>2018-11-11T10:34:24Z</time>
      </trkpt>
      <trkpt lat="45.97232" lon="4.85035">
        <ele>279</ele>
        <time>2018-11-11T10:34:25Z</time>
      </trkpt>
      <trkpt lat="45.97228" lon="4.85045">
        <ele>279</ele>
        <time>2018-11-11T10:34:27Z</time>
      </trkpt>
      <trkpt lat="45.97226" lon="4.8505">
        <ele>279</ele>
        <time>2018-11-11T10:34:28Z</time>
      </trkpt>
      <trkpt lat="45.97222" lon="4.8506">
        <ele>279</ele>
        <time>2018-11-11T10:34:30Z</time>
      </trkpt>
      <trkpt lat="45.9722" lon="4.85064">
        <ele>279</ele>
        <time>2018-11-11T10:34:31Z</time>
      </trkpt>
      <trkpt lat="45.97216" lon="4.85074">
        <ele>278</ele>
        <time>2018-11-11T10:34:33Z</time>
      </trkpt>
      <trkpt lat="45.97214" lon="4.85078">
        <ele>278</ele>
        <time>2018-11-11T10:34:34Z</time>
      </trkpt>
      <trkpt lat="45.9721" lon="4.85088">
        <ele>278</ele>
        <time>2018-11-11T10:34:36Z</time>
      </trkpt>
      <trkpt lat="45.97207" lon="4.85093">
        <ele>278</ele>
        <time>2018-11-11T10:34:37Z</time>
      </trkpt>
      <trkpt lat="45.97203" lon="4.85103">
        <ele>278</ele>
        <time>2018-11-11T10:34:39Z</time>
      </trkpt>
      <trkpt lat="45.97201" lon="4.85108">
        <ele>278</ele>
        <time>2018-11-11T10:34:40Z</time>
      </trkpt>
      <trkpt lat="45.97197" lon="4.85117">
        <ele>278</ele>
        <time>2018-11-11T10:34:42Z</time>
      </trkpt>
      <trkpt lat="45.97194" lon="4.85122">
        <ele>278</ele>
        <time>2018-11-11T10:34:43Z</time>
      </trkpt>
      <trkpt lat="45.9719" lon="4.85132">
        <ele>278</ele>
        <time>2018-11-11T10:34:45Z</time>
      </trkpt>
      <trkpt lat="45.97188" lon="4.85137">
        <ele>278</ele>
        <time>2018-11-11T10:34:46Z</time>
      </trkpt>
      <trkpt lat="45.97183" lon="4.85146">
        <ele>278</ele>
        <time>2018-11-11T10:34:48Z</time>
      </trkpt>
      <trkpt lat="45.97181" lon="4.85151">
        <ele>278</ele>
        <time>2018-11-11T10:34:49Z</time>
      </trkpt>
      <trkpt lat="45.97176" lon="4.85161">
        <ele>278</ele>
        <time>2018-11-11T10:34:51Z</time>
      </trkpt>
      <trkpt lat="45.97174" lon="4.85165">
        <ele>278</ele>
        <time>2018-11-11T10:34:52Z</time>
      </trkpt>
      <trkpt lat="45.97169" lon="4.85175">
        <ele>278</ele>
        <time>2018-11-11T10:34:54Z</time>
      </trkpt>
      <trkpt lat="45.97167" lon="4.85179">
        <ele>278</ele>
        <time>2018-11-11T10:34:55Z</time>
      </trkpt>
      <trkpt lat="45.97164" lon="4.85186">
        <ele>279</ele>
        <time>2018-11-11T10:34:57Z</time>
      </trkpt>
      <trkpt lat="45.97161" lon="4.85192">
        <ele>279</ele>
        <time>2018-11-11T10:34:58Z</time>
      </trkpt>
      <trkpt lat="45.97157" lon="4.85201">
        <ele>279</ele>
        <time>2018-11-11T10:35:00Z</time>
      </trkpt>
      <trkpt lat="45.97155" lon="4.85206">
        <ele>279</ele>
        <time>2018-11-11T10:35:01Z</time>
      </trkpt>
      <trkpt lat="45.9715" lon="4.85215">
        <ele>279</ele>
        <time>2018-11-11T10:35:03Z</time>
      </trkpt>
      <trkpt lat="45.97148" lon="4.8522">
        <ele>279</ele>
        <time>2018-11-11T10:35:04Z</time>
      </trkpt>
      <trkpt lat="45.97143" lon="4.85229">
        <ele>279</ele>
        <time>2018-11-11T10:35:06Z</time>
      </trkpt>
      <trkpt lat="45.97141" lon="4.85234">
        <ele>279</ele>
        <time>2018-11-11T10:35:07Z</time>
      </trkpt>
      <trkpt lat="45.97137" lon="4.85243">
        <ele>279</ele>
        <time>2018-11-11T10:35:09Z</time>
      </trkpt>
      <trkpt lat="45.97135" lon="4.85247">
        <ele>279</ele>
        <time>2018-11-11T10:35:10Z</time>
      </trkpt>
      <trkpt lat="45.9713" lon="4.85256">
        <ele>279</ele>
        <time>2018-11-11T10:35:12Z</time>
      </trkpt>
      <trkpt lat="45.97128" lon="4.85261">
        <ele>279</ele>
        <time>2018-11-11T10:35:13Z</time>
      </trkpt>
      <trkpt lat="45.97123" lon="4.85272">
        <ele>280</ele>
        <time>2018-11-11T10:35:16Z</time>
      </trkpt>
      <trkpt lat="45.9712" lon="4.85279">
        <ele>280</ele>
        <time>2018-11-11T10:35:17Z</time>
      </trkpt>
      <trkpt lat="45.97116" lon="4.85287">
        <ele>280</ele>
        <time>2018-11-11T10:35:19Z</time>
      </trkpt>
      <trkpt lat="45.97114" lon="4.85292">
        <ele>280</ele>
        <time>2018-11-11T10:35:20Z</time>
      </trkpt>
      <trkpt lat="45.9711" lon="4.85301">
        <ele>280</ele>
        <time>2018-11-11T10:35:22Z</time>
      </trkpt>
      <trkpt lat="45.97108" lon="4.85306">
        <ele>280</ele>
        <time>2018-11-11T10:35:23Z</time>
      </trkpt>
      <trkpt lat="45.97104" lon="4.85315">
        <ele>280</ele>
        <time>2018-11-11T10:35:25Z</time>
      </trkpt>
      <trkpt lat="45.97102" lon="4.8532">
        <ele>280</ele>
        <time>2018-11-11T10:35:26Z</time>
      </trkpt>
      <trkpt lat="45.97099" lon="4.8533">
        <ele>280</ele>
        <time>2018-11-11T10:35:28Z</time>
      </trkpt>
      <trkpt lat="45.97097" lon="4.85334">
        <ele>280</ele>
        <time>2018-11-11T10:35:29Z</time>
      </trkpt>
      <trkpt lat="45.97094" lon="4.85344">
        <ele>280</ele>
        <time>2018-11-11T10:35:31Z</time>
      </trkpt>
      <trkpt lat="45.97092" lon="4.85348">
        <ele>280</ele>
        <time>2018-11-11T10:35:32Z</time>
      </trkpt>
      <trkpt lat="45.97089" lon="4.85358">
        <ele>280</ele>
        <time>2018-11-11T10:35:34Z</time>
      </trkpt>
      <trkpt lat="45.97087" lon="4.85363">
        <ele>280</ele>
        <time>2018-11-11T10:35:35Z</time>
      </trkpt>
      <trkpt lat="45.97084" lon="4.85373">
        <ele>280</ele>
        <time>2018-11-11T10:35:37Z</time>
      </trkpt>
      <trkpt lat="45.97083" lon="4.85378">
        <ele>281</ele>
        <time>2018-11-11T10:35:38Z</time>
      </trkpt>
      <trkpt lat="45.97079" lon="4.85388">
        <ele>281</ele>
        <time>2018-11-11T10:35:40Z</time>
      </trkpt>
      <trkpt lat="45.97078" lon="4.85393">
        <ele>281</ele>
        <time>2018-11-11T10:35:41Z</time>
      </trkpt>
      <trkpt lat="45.97075" lon="4.85403">
        <ele>281</ele>
        <time>2018-11-11T10:35:43Z</time>
      </trkpt>
      <trkpt lat="45.97074" lon="4.85408">
        <ele>281</ele>
        <time>2018-11-11T10:35:44Z</time>
      </trkpt>
      <trkpt lat="45.97071" lon="4.85418">
        <ele>281</ele>
        <time>2018-11-11T10:35:46Z</time>
      </trkpt>
      <trkpt lat="45.97069" lon="4.85423">
        <ele>281</ele>
        <time>2018-11-11T10:35:47Z</time>
      </trkpt>
      <trkpt lat="45.97067" lon="4.85432">
        <ele>281</ele>
        <time>2018-11-11T10:35:49Z</time>
      </trkpt>
      <trkpt lat="45.97065" lon="4.85438">
        <ele>281</ele>
        <time>2018-11-11T10:35:50Z</time>
      </trkpt>
      <trkpt lat="45.97062" lon="4.85448">
        <ele>281</ele>
        <time>2018-11-11T10:35:52Z</time>
      </trkpt>
      <trkpt lat="45.97061" lon="4.85453">
        <ele>281</ele>
        <time>2018-11-11T10:35:53Z</time>
      </trkpt>
      <trkpt lat="45.97058" lon="4.85463">
        <ele>281</ele>
        <time>2018-11-11T10:35:55Z</time>
      </trkpt>
      <trkpt lat="45.97056" lon="4.85469">
        <ele>281</ele>
        <time>2018-11-11T10:35:56Z</time>
      </trkpt>
      <trkpt lat="45.97053" lon="4.85479">
        <ele>281</ele>
        <time>2018-11-11T10:35:58Z</time>
      </trkpt>
      <trkpt lat="45.97051" lon="4.85484">
        <ele>281</ele>
        <time>2018-11-11T10:35:59Z</time>
      </trkpt>
      <trkpt lat="45.97048" lon="4.85492">
        <ele>281</ele>
        <time>2018-11-11T10:36:01Z</time>
      </trkpt>
      <trkpt lat="45.97046" lon="4.85496">
        <ele>281</ele>
        <time>2018-11-11T10:36:02Z</time>
      </trkpt>
      <trkpt lat="45.97043" lon="4.85507">
        <ele>282</ele>
        <time>2018-11-11T10:36:04Z</time>
      </trkpt>
      <trkpt lat="45.97042" lon="4.8551">
        <ele>282</ele>
        <time>2018-11-11T10:36:05Z</time>
      </trkpt>
      <trkpt lat="45.9704" lon="4.85518">
        <ele>282</ele>
        <time>2018-11-11T10:36:07Z</time>
      </trkpt>
      <trkpt lat="45.97038" lon="4.85522">
        <ele>282</ele>
        <time>2018-11-11T10:36:08Z</time>
      </trkpt>
      <trkpt lat="45.97035" lon="4.85531">
        <ele>282</ele>
        <time>2018-11-11T10:36:10Z</time>
      </trkpt>
      <trkpt lat="45.97032" lon="4.8554">
        <ele>282</ele>
        <time>2018-11-11T10:36:11Z</time>
      </trkpt>
      <trkpt lat="45.97029" lon="4.8555">
        <ele>283</ele>
        <time>2018-11-11T10:36:13Z</time>
      </trkpt>
      <trkpt lat="45.97028" lon="4.85555">
        <ele>283</ele>
        <time>2018-11-11T10:36:14Z</time>
      </trkpt>
      <trkpt lat="45.97025" lon="4.85565">
        <ele>283</ele>
        <time>2018-11-11T10:36:16Z</time>
      </trkpt>
      <trkpt lat="45.97023" lon="4.8557">
        <ele>283</ele>
        <time>2018-11-11T10:36:17Z</time>
      </trkpt>
      <trkpt lat="45.9702" lon="4.8558">
        <ele>283</ele>
        <time>2018-11-11T10:36:19Z</time>
      </trkpt>
      <trkpt lat="45.97019" lon="4.85585">
        <ele>284</ele>
        <time>2018-11-11T10:36:20Z</time>
      </trkpt>
      <trkpt lat="45.97016" lon="4.85595">
        <ele>284</ele>
        <time>2018-11-11T10:36:22Z</time>
      </trkpt>
      <trkpt lat="45.97015" lon="4.856">
        <ele>284</ele>
        <time>2018-11-11T10:36:23Z</time>
      </trkpt>
      <trkpt lat="45.97013" lon="4.8561">
        <ele>284</ele>
        <time>2018-11-11T10:36:25Z</time>
      </trkpt>
      <trkpt lat="45.97012" lon="4.85614">
        <ele>284</ele>
        <time>2018-11-11T10:36:26Z</time>
      </trkpt>
      <trkpt lat="45.97009" lon="4.85624">
        <ele>284</ele>
        <time>2018-11-11T10:36:28Z</time>
      </trkpt>
      <trkpt lat="45.97008" lon="4.85629">
        <ele>284</ele>
        <time>2018-11-11T10:36:29Z</time>
      </trkpt>
      <trkpt lat="45.97005" lon="4.85639">
        <ele>284</ele>
        <time>2018-11-11T10:36:31Z</time>
      </trkpt>
      <trkpt lat="45.97003" lon="4.85644">
        <ele>284</ele>
        <time>2018-11-11T10:36:32Z</time>
      </trkpt>
      <trkpt lat="45.97001" lon="4.85655">
        <ele>285</ele>
        <time>2018-11-11T10:36:34Z</time>
      </trkpt>
      <trkpt lat="45.97" lon="4.8566">
        <ele>286</ele>
        <time>2018-11-11T10:36:35Z</time>
      </trkpt>
      <trkpt lat="45.96997" lon="4.85671">
        <ele>286</ele>
        <time>2018-11-11T10:36:37Z</time>
      </trkpt>
      <trkpt lat="45.96996" lon="4.85676">
        <ele>286</ele>
        <time>2018-11-11T10:36:38Z</time>
      </trkpt>
      <trkpt lat="45.96993" lon="4.85687">
        <ele>285</ele>
        <time>2018-11-11T10:36:40Z</time>
      </trkpt>
      <trkpt lat="45.96991" lon="4.85692">
        <ele>285</ele>
        <time>2018-11-11T10:36:41Z</time>
      </trkpt>
      <trkpt lat="45.96989" lon="4.85703">
        <ele>285</ele>
        <time>2018-11-11T10:36:43Z</time>
      </trkpt>
      <trkpt lat="45.96987" lon="4.85708">
        <ele>285</ele>
        <time>2018-11-11T10:36:44Z</time>
      </trkpt>
      <trkpt lat="45.96984" lon="4.8572">
        <ele>285</ele>
        <time>2018-11-11T10:36:46Z</time>
      </trkpt>
      <trkpt lat="45.96982" lon="4.85726">
        <ele>285</ele>
        <time>2018-11-11T10:36:47Z</time>
      </trkpt>
      <trkpt lat="45.9698" lon="4.85732">
        <ele>285</ele>
        <time>2018-11-11T10:36:48Z</time>
      </trkpt>
      <trkpt lat="45.96979" lon="4.85739">
        <ele>285</ele>
        <time>2018-11-11T10:36:49Z</time>
      </trkpt>
      <trkpt lat="45.96977" lon="4.85745">
        <ele>285</ele>
        <time>2018-11-11T10:36:50Z</time>
      </trkpt>
      <trkpt lat="45.96975" lon="4.85751">
        <ele>285</ele>
        <time>2018-11-11T10:36:51Z</time>
      </trkpt>
      <trkpt lat="45.96973" lon="4.85762">
        <ele>285</ele>
        <time>2018-11-11T10:36:53Z</time>
      </trkpt>
      <trkpt lat="45.96971" lon="4.85767">
        <ele>285</ele>
        <time>2018-11-11T10:36:54Z</time>
      </trkpt>
      <trkpt lat="45.96968" lon="4.85777">
        <ele>285</ele>
        <time>2018-11-11T10:36:56Z</time>
      </trkpt>
      <trkpt lat="45.96966" lon="4.85782">
        <ele>285</ele>
        <time>2018-11-11T10:36:57Z</time>
      </trkpt>
      <trkpt lat="45.96964" lon="4.85792">
        <ele>285</ele>
        <time>2018-11-11T10:36:59Z</time>
      </trkpt>
      <trkpt lat="45.96962" lon="4.85797">
        <ele>285</ele>
        <time>2018-11-11T10:37:00Z</time>
      </trkpt>
      <trkpt lat="45.9696" lon="4.85808">
        <ele>285</ele>
        <time>2018-11-11T10:37:02Z</time>
      </trkpt>
      <trkpt lat="45.96959" lon="4.85813">
        <ele>285</ele>
        <time>2018-11-11T10:37:03Z</time>
      </trkpt>
      <trkpt lat="45.96956" lon="4.85824">
        <ele>285</ele>
        <time>2018-11-11T10:37:05Z</time>
      </trkpt>
      <trkpt lat="45.96954" lon="4.8583">
        <ele>285</ele>
        <time>2018-11-11T10:37:06Z</time>
      </trkpt>
      <trkpt lat="45.96951" lon="4.85841">
        <ele>285</ele>
        <time>2018-11-11T10:37:08Z</time>
      </trkpt>
      <trkpt lat="45.9695" lon="4.85847">
        <ele>285</ele>
        <time>2018-11-11T10:37:09Z</time>
      </trkpt>
      <trkpt lat="45.96948" lon="4.85857">
        <ele>285</ele>
        <time>2018-11-11T10:37:11Z</time>
      </trkpt>
      <trkpt lat="45.96947" lon="4.85862">
        <ele>285</ele>
        <time>2018-11-11T10:37:12Z</time>
      </trkpt>
      <trkpt lat="45.96944" lon="4.85871">
        <ele>285</ele>
        <time>2018-11-11T10:37:14Z</time>
      </trkpt>
      <trkpt lat="45.96943" lon="4.85876">
        <ele>285</ele>
        <time>2018-11-11T10:37:15Z</time>
      </trkpt>
      <trkpt lat="45.96941" lon="4.85883">
        <ele>285</ele>
        <time>2018-11-11T10:37:17Z</time>
      </trkpt>
      <trkpt lat="45.96939" lon="4.85891">
        <ele>285</ele>
        <time>2018-11-11T10:37:18Z</time>
      </trkpt>
      <trkpt lat="45.96937" lon="4.85901">
        <ele>285</ele>
        <time>2018-11-11T10:37:21Z</time>
      </trkpt>
      <trkpt lat="45.96935" lon="4.85905">
        <ele>286</ele>
        <time>2018-11-11T10:37:22Z</time>
      </trkpt>
      <trkpt lat="45.96933" lon="4.85915">
        <ele>286</ele>
        <time>2018-11-11T10:37:24Z</time>
      </trkpt>
      <trkpt lat="45.96931" lon="4.8592">
        <ele>286</ele>
        <time>2018-11-11T10:37:25Z</time>
      </trkpt>
      <trkpt lat="45.96929" lon="4.85929">
        <ele>286</ele>
        <time>2018-11-11T10:37:27Z</time>
      </trkpt>
      <trkpt lat="45.96928" lon="4.85933">
        <ele>286</ele>
        <time>2018-11-11T10:37:28Z</time>
      </trkpt>
      <trkpt lat="45.96926" lon="4.85942">
        <ele>286</ele>
        <time>2018-11-11T10:37:29Z</time>
      </trkpt>
      <trkpt lat="45.96924" lon="4.85948">
        <ele>286</ele>
        <time>2018-11-11T10:37:30Z</time>
      </trkpt>
      <trkpt lat="45.96922" lon="4.85958">
        <ele>287</ele>
        <time>2018-11-11T10:37:32Z</time>
      </trkpt>
      <trkpt lat="45.9692" lon="4.85963">
        <ele>287</ele>
        <time>2018-11-11T10:37:33Z</time>
      </trkpt>
      <trkpt lat="45.96919" lon="4.8597">
        <ele>287</ele>
        <time>2018-11-11T10:37:35Z</time>
      </trkpt>
      <trkpt lat="45.96917" lon="4.85978">
        <ele>287</ele>
        <time>2018-11-11T10:37:36Z</time>
      </trkpt>
      <trkpt lat="45.96915" lon="4.85986">
        <ele>288</ele>
        <time>2018-11-11T10:37:38Z</time>
      </trkpt>
      <trkpt lat="45.96914" lon="4.85993">
        <ele>288</ele>
        <time>2018-11-11T10:37:39Z</time>
      </trkpt>
      <trkpt lat="45.96912" lon="4.86002">
        <ele>288</ele>
        <time>2018-11-11T10:37:41Z</time>
      </trkpt>
      <trkpt lat="45.9691" lon="4.86007">
        <ele>288</ele>
        <time>2018-11-11T10:37:42Z</time>
      </trkpt>
      <trkpt lat="45.96908" lon="4.86018">
        <ele>289</ele>
        <time>2018-11-11T10:37:44Z</time>
      </trkpt>
      <trkpt lat="45.96908" lon="4.86024">
        <ele>289</ele>
        <time>2018-11-11T10:37:45Z</time>
      </trkpt>
      <trkpt lat="45.96906" lon="4.86035">
        <ele>289</ele>
        <time>2018-11-11T10:37:47Z</time>
      </trkpt>
      <trkpt lat="45.96905" lon="4.86041">
        <ele>289</ele>
        <time>2018-11-11T10:37:48Z</time>
      </trkpt>
      <trkpt lat="45.96904" lon="4.86053">
        <ele>289</ele>
        <time>2018-11-11T10:37:50Z</time>
      </trkpt>
      <trkpt lat="45.96903" lon="4.8606">
        <ele>288</ele>
        <time>2018-11-11T10:37:51Z</time>
      </trkpt>
      <trkpt lat="45.96902" lon="4.86071">
        <ele>288</ele>
        <time>2018-11-11T10:37:53Z</time>
      </trkpt>
      <trkpt lat="45.96901" lon="4.86077">
        <ele>288</ele>
        <time>2018-11-11T10:37:54Z</time>
      </trkpt>
      <trkpt lat="45.969" lon="4.86089">
        <ele>288</ele>
        <time>2018-11-11T10:37:56Z</time>
      </trkpt>
      <trkpt lat="45.96899" lon="4.86095">
        <ele>288</ele>
        <time>2018-11-11T10:37:57Z</time>
      </trkpt>
      <trkpt lat="45.96897" lon="4.86108">
        <ele>289</ele>
        <time>2018-11-11T10:37:59Z</time>
      </trkpt>
      <trkpt lat="45.96897" lon="4.86114">
        <ele>289</ele>
        <time>2018-11-11T10:38:00Z</time>
      </trkpt>
      <trkpt lat="45.96895" lon="4.86126">
        <ele>289</ele>
        <time>2018-11-11T10:38:02Z</time>
      </trkpt>
      <trkpt lat="45.96895" lon="4.86132">
        <ele>289</ele>
        <time>2018-11-11T10:38:03Z</time>
      </trkpt>
      <trkpt lat="45.96894" lon="4.86143">
        <ele>289</ele>
        <time>2018-11-11T10:38:05Z</time>
      </trkpt>
      <trkpt lat="45.96893" lon="4.86149">
        <ele>289</ele>
        <time>2018-11-11T10:38:06Z</time>
      </trkpt>
      <trkpt lat="45.96891" lon="4.8616">
        <ele>289</ele>
        <time>2018-11-11T10:38:08Z</time>
      </trkpt>
      <trkpt lat="45.96891" lon="4.86166">
        <ele>289</ele>
        <time>2018-11-11T10:38:09Z</time>
      </trkpt>
      <trkpt lat="45.9689" lon="4.86175">
        <ele>289</ele>
        <time>2018-11-11T10:38:11Z</time>
      </trkpt>
      <trkpt lat="45.96889" lon="4.86182">
        <ele>289</ele>
        <time>2018-11-11T10:38:12Z</time>
      </trkpt>
      <trkpt lat="45.96888" lon="4.86192">
        <ele>289</ele>
        <time>2018-11-11T10:38:14Z</time>
      </trkpt>
      <trkpt lat="45.96888" lon="4.86197">
        <ele>289</ele>
        <time>2018-11-11T10:38:15Z</time>
      </trkpt>
      <trkpt lat="45.96887" lon="4.86204">
        <ele>289</ele>
        <time>2018-11-11T10:38:17Z</time>
      </trkpt>
      <trkpt lat="45.96886" lon="4.86212">
        <ele>289</ele>
        <time>2018-11-11T10:38:18Z</time>
      </trkpt>
      <trkpt lat="45.96885" lon="4.8622">
        <ele>289</ele>
        <time>2018-11-11T10:38:20Z</time>
      </trkpt>
      <trkpt lat="45.96885" lon="4.86227">
        <ele>289</ele>
        <time>2018-11-11T10:38:21Z</time>
      </trkpt>
      <trkpt lat="45.96882" lon="4.86238">
        <ele>289</ele>
        <time>2018-11-11T10:38:23Z</time>
      </trkpt>
      <trkpt lat="45.96881" lon="4.86243">
        <ele>289</ele>
        <time>2018-11-11T10:38:24Z</time>
      </trkpt>
      <trkpt lat="45.96879" lon="4.86254">
        <ele>288</ele>
        <time>2018-11-11T10:38:26Z</time>
      </trkpt>
      <trkpt lat="45.96879" lon="4.8626">
        <ele>288</ele>
        <time>2018-11-11T10:38:27Z</time>
      </trkpt>
      <trkpt lat="45.96878" lon="4.86272">
        <ele>289</ele>
        <time>2018-11-11T10:38:29Z</time>
      </trkpt>
      <trkpt lat="45.96877" lon="4.86278">
        <ele>289</ele>
        <time>2018-11-11T10:38:30Z</time>
      </trkpt>
      <trkpt lat="45.96876" lon="4.8629">
        <ele>289</ele>
        <time>2018-11-11T10:38:32Z</time>
      </trkpt>
      <trkpt lat="45.96875" lon="4.86296">
        <ele>289</ele>
        <time>2018-11-11T10:38:33Z</time>
      </trkpt>
      <trkpt lat="45.96874" lon="4.86303">
        <ele>289</ele>
        <time>2018-11-11T10:38:34Z</time>
      </trkpt>
      <trkpt lat="45.96873" lon="4.86309">
        <ele>289</ele>
        <time>2018-11-11T10:38:35Z</time>
      </trkpt>
      <trkpt lat="45.96871" lon="4.86322">
        <ele>289</ele>
        <time>2018-11-11T10:38:37Z</time>
      </trkpt>
      <trkpt lat="45.9687" lon="4.86328">
        <ele>289</ele>
        <time>2018-11-11T10:38:38Z</time>
      </trkpt>
      <trkpt lat="45.96868" lon="4.8634">
        <ele>290</ele>
        <time>2018-11-11T10:38:40Z</time>
      </trkpt>
      <trkpt lat="45.96868" lon="4.86346">
        <ele>290</ele>
        <time>2018-11-11T10:38:41Z</time>
      </trkpt>
      <trkpt lat="45.96866" lon="4.86357">
        <ele>290</ele>
        <time>2018-11-11T10:38:43Z</time>
      </trkpt>
      <trkpt lat="45.96865" lon="4.86363">
        <ele>290</ele>
        <time>2018-11-11T10:38:44Z</time>
      </trkpt>
      <trkpt lat="45.96863" lon="4.86375">
        <ele>290</ele>
        <time>2018-11-11T10:38:46Z</time>
      </trkpt>
      <trkpt lat="45.96862" lon="4.86381">
        <ele>290</ele>
        <time>2018-11-11T10:38:47Z</time>
      </trkpt>
      <trkpt lat="45.96861" lon="4.86387">
        <ele>290</ele>
        <time>2018-11-11T10:38:48Z</time>
      </trkpt>
      <trkpt lat="45.9686" lon="4.86394">
        <ele>290</ele>
        <time>2018-11-11T10:38:49Z</time>
      </trkpt>
      <trkpt lat="45.96859" lon="4.864">
        <ele>290</ele>
        <time>2018-11-11T10:38:50Z</time>
      </trkpt>
      <trkpt lat="45.96858" lon="4.86407">
        <ele>290</ele>
        <time>2018-11-11T10:38:51Z</time>
      </trkpt>
      <trkpt lat="45.96857" lon="4.86414">
        <ele>291</ele>
        <time>2018-11-11T10:38:52Z</time>
      </trkpt>
      <trkpt lat="45.96856" lon="4.86421">
        <ele>290</ele>
        <time>2018-11-11T10:38:53Z</time>
      </trkpt>
      <trkpt lat="45.96853" lon="4.86433">
        <ele>290</ele>
        <time>2018-11-11T10:38:55Z</time>
      </trkpt>
      <trkpt lat="45.96852" lon="4.8644">
        <ele>290</ele>
        <time>2018-11-11T10:38:56Z</time>
      </trkpt>
      <trkpt lat="45.9685" lon="4.8645">
        <ele>289</ele>
        <time>2018-11-11T10:38:58Z</time>
      </trkpt>
      <trkpt lat="45.96848" lon="4.86456">
        <ele>289</ele>
        <time>2018-11-11T10:38:59Z</time>
      </trkpt>
      <trkpt lat="45.96845" lon="4.86467">
        <ele>289</ele>
        <time>2018-11-11T10:39:01Z</time>
      </trkpt>
      <trkpt lat="45.96843" lon="4.86473">
        <ele>289</ele>
        <time>2018-11-11T10:39:02Z</time>
      </trkpt>
      <trkpt lat="45.96841" lon="4.86479">
        <ele>289</ele>
        <time>2018-11-11T10:39:03Z</time>
      </trkpt>
      <trkpt lat="45.96839" lon="4.86485">
        <ele>289</ele>
        <time>2018-11-11T10:39:04Z</time>
      </trkpt>
      <trkpt lat="45.96836" lon="4.8649">
        <ele>289</ele>
        <time>2018-11-11T10:39:05Z</time>
      </trkpt>
      <trkpt lat="45.96834" lon="4.86496">
        <ele>289</ele>
        <time>2018-11-11T10:39:06Z</time>
      </trkpt>
      <trkpt lat="45.96831" lon="4.86501">
        <ele>289</ele>
        <time>2018-11-11T10:39:07Z</time>
      </trkpt>
      <trkpt lat="45.96828" lon="4.86506">
        <ele>289</ele>
        <time>2018-11-11T10:39:08Z</time>
      </trkpt>
      <trkpt lat="45.96825" lon="4.86513">
        <ele>289</ele>
        <time>2018-11-11T10:39:09Z</time>
      </trkpt>
      <trkpt lat="45.96823" lon="4.86518">
        <ele>289</ele>
        <time>2018-11-11T10:39:10Z</time>
      </trkpt>
      <trkpt lat="45.9682" lon="4.86524">
        <ele>289</ele>
        <time>2018-11-11T10:39:11Z</time>
      </trkpt>
      <trkpt lat="45.96817" lon="4.86529">
        <ele>290</ele>
        <time>2018-11-11T10:39:12Z</time>
      </trkpt>
      <trkpt lat="45.96813" lon="4.86535">
        <ele>290</ele>
        <time>2018-11-11T10:39:13Z</time>
      </trkpt>
      <trkpt lat="45.9681" lon="4.86541">
        <ele>290</ele>
        <time>2018-11-11T10:39:14Z</time>
      </trkpt>
      <trkpt lat="45.96807" lon="4.86546">
        <ele>290</ele>
        <time>2018-11-11T10:39:15Z</time>
      </trkpt>
      <trkpt lat="45.96804" lon="4.86551">
        <ele>290</ele>
        <time>2018-11-11T10:39:16Z</time>
      </trkpt>
      <trkpt lat="45.968" lon="4.86555">
        <ele>290</ele>
        <time>2018-11-11T10:39:17Z</time>
      </trkpt>
      <trkpt lat="45.96797" lon="4.8656">
        <ele>290</ele>
        <time>2018-11-11T10:39:18Z</time>
      </trkpt>
      <trkpt lat="45.96792" lon="4.86569">
        <ele>290</ele>
        <time>2018-11-11T10:39:20Z</time>
      </trkpt>
      <trkpt lat="45.96789" lon="4.86573">
        <ele>290</ele>
        <time>2018-11-11T10:39:21Z</time>
      </trkpt>
      <trkpt lat="45.96783" lon="4.86582">
        <ele>290</ele>
        <time>2018-11-11T10:39:23Z</time>
      </trkpt>
      <trkpt lat="45.9678" lon="4.86587">
        <ele>289</ele>
        <time>2018-11-11T10:39:24Z</time>
      </trkpt>
      <trkpt lat="45.96777" lon="4.86592">
        <ele>289</ele>
        <time>2018-11-11T10:39:25Z</time>
      </trkpt>
      <trkpt lat="45.96774" lon="4.86597">
        <ele>290</ele>
        <time>2018-11-11T10:39:26Z</time>
      </trkpt>
      <trkpt lat="45.96771" lon="4.86603">
        <ele>290</ele>
        <time>2018-11-11T10:39:27Z</time>
      </trkpt>
      <trkpt lat="45.96768" lon="4.86608">
        <ele>290</ele>
        <time>2018-11-11T10:39:28Z</time>
      </trkpt>
      <trkpt lat="45.96762" lon="4.86617">
        <ele>290</ele>
        <time>2018-11-11T10:39:30Z</time>
      </trkpt>
      <trkpt lat="45.9676" lon="4.86621">
        <ele>290</ele>
        <time>2018-11-11T10:39:31Z</time>
      </trkpt>
      <trkpt lat="45.96754" lon="4.86629">
        <ele>290</ele>
        <time>2018-11-11T10:39:33Z</time>
      </trkpt>
      <trkpt lat="45.96752" lon="4.86634">
        <ele>290</ele>
        <time>2018-11-11T10:39:34Z</time>
      </trkpt>
      <trkpt lat="45.96747" lon="4.86642">
        <ele>290</ele>
        <time>2018-11-11T10:39:36Z</time>
      </trkpt>
      <trkpt lat="45.96745" lon="4.86647">
        <ele>290</ele>
        <time>2018-11-11T10:39:37Z</time>
      </trkpt>
      <trkpt lat="45.96739" lon="4.86657">
        <ele>290</ele>
        <time>2018-11-11T10:39:39Z</time>
      </trkpt>
      <trkpt lat="45.96736" lon="4.86662">
        <ele>290</ele>
        <time>2018-11-11T10:39:40Z</time>
      </trkpt>
      <trkpt lat="45.96731" lon="4.86671">
        <ele>290</ele>
        <time>2018-11-11T10:39:42Z</time>
      </trkpt>
      <trkpt lat="45.96728" lon="4.86675">
        <ele>289</ele>
        <time>2018-11-11T10:39:43Z</time>
      </trkpt>
      <trkpt lat="45.96723" lon="4.86684">
        <ele>289</ele>
        <time>2018-11-11T10:39:45Z</time>
      </trkpt>
      <trkpt lat="45.96721" lon="4.86688">
        <ele>289</ele>
        <time>2018-11-11T10:39:46Z</time>
      </trkpt>
      <trkpt lat="45.96716" lon="4.86696">
        <ele>289</ele>
        <time>2018-11-11T10:39:48Z</time>
      </trkpt>
      <trkpt lat="45.96713" lon="4.867">
        <ele>289</ele>
        <time>2018-11-11T10:39:49Z</time>
      </trkpt>
      <trkpt lat="45.96707" lon="4.86709">
        <ele>289</ele>
        <time>2018-11-11T10:39:51Z</time>
      </trkpt>
      <trkpt lat="45.96703" lon="4.86713">
        <ele>289</ele>
        <time>2018-11-11T10:39:52Z</time>
      </trkpt>
      <trkpt lat="45.96699" lon="4.86718">
        <ele>289</ele>
        <time>2018-11-11T10:39:53Z</time>
      </trkpt>
      <trkpt lat="45.96697" lon="4.86724">
        <ele>289</ele>
        <time>2018-11-11T10:39:54Z</time>
      </trkpt>
      <trkpt lat="45.96691" lon="4.86734">
        <ele>289</ele>
        <time>2018-11-11T10:39:56Z</time>
      </trkpt>
      <trkpt lat="45.96689" lon="4.86739">
        <ele>289</ele>
        <time>2018-11-11T10:39:57Z</time>
      </trkpt>
      <trkpt lat="45.96683" lon="4.86748">
        <ele>289</ele>
        <time>2018-11-11T10:39:59Z</time>
      </trkpt>
      <trkpt lat="45.9668" lon="4.86752">
        <ele>289</ele>
        <time>2018-11-11T10:40:00Z</time>
      </trkpt>
      <trkpt lat="45.96675" lon="4.8676">
        <ele>289</ele>
        <time>2018-11-11T10:40:02Z</time>
      </trkpt>
      <trkpt lat="45.96672" lon="4.86765">
        <ele>289</ele>
        <time>2018-11-11T10:40:03Z</time>
      </trkpt>
      <trkpt lat="45.96666" lon="4.86774">
        <ele>288</ele>
        <time>2018-11-11T10:40:05Z</time>
      </trkpt>
      <trkpt lat="45.96663" lon="4.86779">
        <ele>288</ele>
        <time>2018-11-11T10:40:06Z</time>
      </trkpt>
      <trkpt lat="45.9666" lon="4.86783">
        <ele>288</ele>
        <time>2018-11-11T10:40:07Z</time>
      </trkpt>
      <trkpt lat="45.96657" lon="4.86789">
        <ele>288</ele>
        <time>2018-11-11T10:40:08Z</time>
      </trkpt>
      <trkpt lat="45.96653" lon="4.86794">
        <ele>288</ele>
        <time>2018-11-11T10:40:09Z</time>
      </trkpt>
      <trkpt lat="45.9665" lon="4.868">
        <ele>288</ele>
        <time>2018-11-11T10:40:10Z</time>
      </trkpt>
      <trkpt lat="45.96647" lon="4.86805">
        <ele>288</ele>
        <time>2018-11-11T10:40:11Z</time>
      </trkpt>
      <trkpt lat="45.96643" lon="4.86811">
        <ele>288</ele>
        <time>2018-11-11T10:40:12Z</time>
      </trkpt>
      <trkpt lat="45.9664" lon="4.86816">
        <ele>288</ele>
        <time>2018-11-11T10:40:13Z</time>
      </trkpt>
      <trkpt lat="45.96637" lon="4.86821">
        <ele>288</ele>
        <time>2018-11-11T10:40:14Z</time>
      </trkpt>
      <trkpt lat="45.96634" lon="4.86827">
        <ele>288</ele>
        <time>2018-11-11T10:40:15Z</time>
      </trkpt>
      <trkpt lat="45.96631" lon="4.86832">
        <ele>288</ele>
        <time>2018-11-11T10:40:16Z</time>
      </trkpt>
      <trkpt lat="45.96628" lon="4.86837">
        <ele>287</ele>
        <time>2018-11-11T10:40:17Z</time>
      </trkpt>
      <trkpt lat="45.96624" lon="4.86842">
        <ele>287</ele>
        <time>2018-11-11T10:40:18Z</time>
      </trkpt>
      <trkpt lat="45.96621" lon="4.86847">
        <ele>287</ele>
        <time>2018-11-11T10:40:19Z</time>
      </trkpt>
      <trkpt lat="45.96617" lon="4.86852">
        <ele>287</ele>
        <time>2018-11-11T10:40:20Z</time>
      </trkpt>
      <trkpt lat="45.96611" lon="4.86861">
        <ele>287</ele>
        <time>2018-11-11T10:40:22Z</time>
      </trkpt>
      <trkpt lat="45.96609" lon="4.86866">
        <ele>287</ele>
        <time>2018-11-11T10:40:23Z</time>
      </trkpt>
      <trkpt lat="45.96606" lon="4.8687">
        <ele>287</ele>
        <time>2018-11-11T10:40:24Z</time>
      </trkpt>
      <trkpt lat="45.96603" lon="4.86876">
        <ele>287</ele>
        <time>2018-11-11T10:40:25Z</time>
      </trkpt>
      <trkpt lat="45.966" lon="4.86881">
        <ele>287</ele>
        <time>2018-11-11T10:40:26Z</time>
      </trkpt>
      <trkpt lat="45.96597" lon="4.86886">
        <ele>287</ele>
        <time>2018-11-11T10:40:27Z</time>
      </trkpt>
      <trkpt lat="45.96592" lon="4.86896">
        <ele>286</ele>
        <time>2018-11-11T10:40:29Z</time>
      </trkpt>
      <trkpt lat="45.96588" lon="4.86901">
        <ele>286</ele>
        <time>2018-11-11T10:40:30Z</time>
      </trkpt>
      <trkpt lat="45.96585" lon="4.86906">
        <ele>286</ele>
        <time>2018-11-11T10:40:31Z</time>
      </trkpt>
      <trkpt lat="45.96582" lon="4.86912">
        <ele>285</ele>
        <time>2018-11-11T10:40:32Z</time>
      </trkpt>
      <trkpt lat="45.9658" lon="4.86921">
        <ele>285</ele>
        <time>2018-11-11T10:40:33Z</time>
      </trkpt>
      <trkpt lat="45.96578" lon="4.86926">
        <ele>284</ele>
        <time>2018-11-11T10:40:34Z</time>
      </trkpt>
      <trkpt lat="45.96575" lon="4.86931">
        <ele>284</ele>
        <time>2018-11-11T10:40:35Z</time>
      </trkpt>
      <trkpt lat="45.96571" lon="4.86937">
        <ele>284</ele>
        <time>2018-11-11T10:40:36Z</time>
      </trkpt>
      <trkpt lat="45.96568" lon="4.86942">
        <ele>284</ele>
        <time>2018-11-11T10:40:37Z</time>
      </trkpt>
      <trkpt lat="45.96565" lon="4.86949">
        <ele>284</ele>
        <time>2018-11-11T10:40:38Z</time>
      </trkpt>
      <trkpt lat="45.96561" lon="4.86954">
        <ele>283</ele>
        <time>2018-11-11T10:40:39Z</time>
      </trkpt>
      <trkpt lat="45.96558" lon="4.86958">
        <ele>283</ele>
        <time>2018-11-11T10:40:40Z</time>
      </trkpt>
      <trkpt lat="45.96554" lon="4.86962">
        <ele>283</ele>
        <time>2018-11-11T10:40:41Z</time>
      </trkpt>
      <trkpt lat="45.96549" lon="4.86964">
        <ele>283</ele>
        <time>2018-11-11T10:40:42Z</time>
      </trkpt>
      <trkpt lat="45.9655" lon="4.86973">
        <ele>283</ele>
        <time>2018-11-11T10:40:43Z</time>
      </trkpt>
      <trkpt lat="45.96547" lon="4.86977">
        <ele>283</ele>
        <time>2018-11-11T10:40:44Z</time>
      </trkpt>
      <trkpt lat="45.96544" lon="4.86982">
        <ele>283</ele>
        <time>2018-11-11T10:40:46Z</time>
      </trkpt>
      <trkpt lat="45.96541" lon="4.86989">
        <ele>283</ele>
        <time>2018-11-11T10:40:47Z</time>
      </trkpt>
      <trkpt lat="45.96541" lon="4.86999">
        <ele>283</ele>
        <time>2018-11-11T10:40:50Z</time>
      </trkpt>
      <trkpt lat="45.96542" lon="4.87002">
        <ele>283</ele>
        <time>2018-11-11T10:40:51Z</time>
      </trkpt>
      <trkpt lat="45.96544" lon="4.87011">
        <ele>283</ele>
        <time>2018-11-11T10:40:53Z</time>
      </trkpt>
      <trkpt lat="45.96546" lon="4.87015">
        <ele>283</ele>
        <time>2018-11-11T10:40:54Z</time>
      </trkpt>
      <trkpt lat="45.96549" lon="4.87023">
        <ele>283</ele>
        <time>2018-11-11T10:40:56Z</time>
      </trkpt>
      <trkpt lat="45.96551" lon="4.87027">
        <ele>283</ele>
        <time>2018-11-11T10:40:57Z</time>
      </trkpt>
      <trkpt lat="45.96556" lon="4.87034">
        <ele>283</ele>
        <time>2018-11-11T10:40:58Z</time>
      </trkpt>
      <trkpt lat="45.96557" lon="4.87039">
        <ele>283</ele>
        <time>2018-11-11T10:40:59Z</time>
      </trkpt>
      <trkpt lat="45.96559" lon="4.87048">
        <ele>283</ele>
        <time>2018-11-11T10:41:01Z</time>
      </trkpt>
      <trkpt lat="45.96559" lon="4.87052">
        <ele>283</ele>
        <time>2018-11-11T10:41:02Z</time>
      </trkpt>
      <trkpt lat="45.96559" lon="4.87064">
        <ele>283</ele>
        <time>2018-11-11T10:41:05Z</time>
      </trkpt>
      <trkpt lat="45.96559" lon="4.87067">
        <ele>283</ele>
        <time>2018-11-11T10:41:06Z</time>
      </trkpt>
      <trkpt lat="45.96552" lon="4.87074">
        <ele>283</ele>
        <time>2018-11-11T10:41:10Z</time>
      </trkpt>
      <trkpt lat="45.96549" lon="4.87074">
        <ele>283</ele>
        <time>2018-11-11T10:41:11Z</time>
      </trkpt>
      <trkpt lat="45.96541" lon="4.87072">
        <ele>283</ele>
        <time>2018-11-11T10:41:15Z</time>
      </trkpt>
      <trkpt lat="45.96539" lon="4.8707">
        <ele>283</ele>
        <time>2018-11-11T10:41:16Z</time>
      </trkpt>
      <trkpt lat="45.96537" lon="4.87061">
        <ele>283</ele>
        <time>2018-11-11T10:41:18Z</time>
      </trkpt>
      <trkpt lat="45.96537" lon="4.87057">
        <ele>283</ele>
        <time>2018-11-11T10:41:19Z</time>
      </trkpt>
      <trkpt lat="45.96537" lon="4.87044">
        <ele>283</ele>
        <time>2018-11-11T10:41:22Z</time>
      </trkpt>
      <trkpt lat="45.96537" lon="4.8704">
        <ele>283</ele>
        <time>2018-11-11T10:41:23Z</time>
      </trkpt>
      <trkpt lat="45.96533" lon="4.87028">
        <ele>283</ele>
        <time>2018-11-11T10:41:29Z</time>
      </trkpt>
      <trkpt lat="45.96533" lon="4.87028">
        <ele>283</ele>
        <time>2018-11-11T10:41:30Z</time>
      </trkpt>
      <trkpt lat="45.96525" lon="4.87024">
        <ele>283</ele>
        <time>2018-11-11T10:56:16Z</time>
      </trkpt>
      <trkpt lat="45.96524" lon="4.87025">
        <ele>283</ele>
        <time>2018-11-11T10:56:17Z</time>
      </trkpt>
      <trkpt lat="45.96516" lon="4.87031">
        <ele>282</ele>
        <time>2018-11-11T10:56:22Z</time>
      </trkpt>
      <trkpt lat="45.96514" lon="4.87033">
        <ele>282</ele>
        <time>2018-11-11T10:56:23Z</time>
      </trkpt>
      <trkpt lat="45.96508" lon="4.87036">
        <ele>282</ele>
        <time>2018-11-11T10:56:25Z</time>
      </trkpt>
      <trkpt lat="45.96505" lon="4.87038">
        <ele>282</ele>
        <time>2018-11-11T10:56:26Z</time>
      </trkpt>
      <trkpt lat="45.96503" lon="4.8704">
        <ele>282</ele>
        <time>2018-11-11T10:56:27Z</time>
      </trkpt>
      <trkpt lat="45.96498" lon="4.87045">
        <ele>281</ele>
        <time>2018-11-11T10:56:28Z</time>
      </trkpt>
      <trkpt lat="45.96492" lon="4.87053">
        <ele>281</ele>
        <time>2018-11-11T10:56:30Z</time>
      </trkpt>
      <trkpt lat="45.96488" lon="4.87057">
        <ele>281</ele>
        <time>2018-11-11T10:56:31Z</time>
      </trkpt>
      <trkpt lat="45.96484" lon="4.87061">
        <ele>281</ele>
        <time>2018-11-11T10:56:32Z</time>
      </trkpt>
      <trkpt lat="45.96481" lon="4.87066">
        <ele>281</ele>
        <time>2018-11-11T10:56:33Z</time>
      </trkpt>
      <trkpt lat="45.96475" lon="4.87074">
        <ele>281</ele>
        <time>2018-11-11T10:56:35Z</time>
      </trkpt>
      <trkpt lat="45.96472" lon="4.87079">
        <ele>281</ele>
        <time>2018-11-11T10:56:36Z</time>
      </trkpt>
      <trkpt lat="45.96466" lon="4.87087">
        <ele>282</ele>
        <time>2018-11-11T10:56:38Z</time>
      </trkpt>
      <trkpt lat="45.96462" lon="4.87091">
        <ele>282</ele>
        <time>2018-11-11T10:56:39Z</time>
      </trkpt>
      <trkpt lat="45.96456" lon="4.87098">
        <ele>281</ele>
        <time>2018-11-11T10:56:41Z</time>
      </trkpt>
      <trkpt lat="45.96453" lon="4.87102">
        <ele>281</ele>
        <time>2018-11-11T10:56:42Z</time>
      </trkpt>
      <trkpt lat="45.96447" lon="4.8711">
        <ele>281</ele>
        <time>2018-11-11T10:56:44Z</time>
      </trkpt>
      <trkpt lat="45.96444" lon="4.87115">
        <ele>281</ele>
        <time>2018-11-11T10:56:45Z</time>
      </trkpt>
      <trkpt lat="45.96438" lon="4.87123">
        <ele>281</ele>
        <time>2018-11-11T10:56:47Z</time>
      </trkpt>
      <trkpt lat="45.96435" lon="4.87127">
        <ele>281</ele>
        <time>2018-11-11T10:56:48Z</time>
      </trkpt>
      <trkpt lat="45.96429" lon="4.87134">
        <ele>281</ele>
        <time>2018-11-11T10:56:50Z</time>
      </trkpt>
      <trkpt lat="45.96426" lon="4.87137">
        <ele>281</ele>
        <time>2018-11-11T10:56:51Z</time>
      </trkpt>
      <trkpt lat="45.96421" lon="4.87145">
        <ele>281</ele>
        <time>2018-11-11T10:56:53Z</time>
      </trkpt>
      <trkpt lat="45.96418" lon="4.87149">
        <ele>281</ele>
        <time>2018-11-11T10:56:54Z</time>
      </trkpt>
      <trkpt lat="45.96412" lon="4.87157">
        <ele>281</ele>
        <time>2018-11-11T10:56:56Z</time>
      </trkpt>
      <trkpt lat="45.96409" lon="4.87161">
        <ele>281</ele>
        <time>2018-11-11T10:56:57Z</time>
      </trkpt>
      <trkpt lat="45.96402" lon="4.87169">
        <ele>281</ele>
        <time>2018-11-11T10:56:59Z</time>
      </trkpt>
      <trkpt lat="45.96399" lon="4.87173">
        <ele>282</ele>
        <time>2018-11-11T10:57:00Z</time>
      </trkpt>
      <trkpt lat="45.96393" lon="4.87182">
        <ele>282</ele>
        <time>2018-11-11T10:57:02Z</time>
      </trkpt>
      <trkpt lat="45.9639" lon="4.87186">
        <ele>282</ele>
        <time>2018-11-11T10:57:03Z</time>
      </trkpt>
      <trkpt lat="45.96384" lon="4.87194">
        <ele>282</ele>
        <time>2018-11-11T10:57:05Z</time>
      </trkpt>
      <trkpt lat="45.96382" lon="4.87198">
        <ele>282</ele>
        <time>2018-11-11T10:57:06Z</time>
      </trkpt>
      <trkpt lat="45.96376" lon="4.87205">
        <ele>282</ele>
        <time>2018-11-11T10:57:08Z</time>
      </trkpt>
      <trkpt lat="45.96374" lon="4.87208">
        <ele>282</ele>
        <time>2018-11-11T10:57:09Z</time>
      </trkpt>
      <trkpt lat="45.9637" lon="4.87214">
        <ele>282</ele>
        <time>2018-11-11T10:57:11Z</time>
      </trkpt>
      <trkpt lat="45.96368" lon="4.87217">
        <ele>282</ele>
        <time>2018-11-11T10:57:12Z</time>
      </trkpt>
      <trkpt lat="45.96366" lon="4.8722">
        <ele>282</ele>
        <time>2018-11-11T10:57:13Z</time>
      </trkpt>
      <trkpt lat="45.96361" lon="4.87226">
        <ele>282</ele>
        <time>2018-11-11T10:57:14Z</time>
      </trkpt>
      <trkpt lat="45.96356" lon="4.87233">
        <ele>282</ele>
        <time>2018-11-11T10:57:16Z</time>
      </trkpt>
      <trkpt lat="45.96353" lon="4.87237">
        <ele>282</ele>
        <time>2018-11-11T10:57:17Z</time>
      </trkpt>
      <trkpt lat="45.96347" lon="4.87245">
        <ele>283</ele>
        <time>2018-11-11T10:57:19Z</time>
      </trkpt>
      <trkpt lat="45.96345" lon="4.87248">
        <ele>283</ele>
        <time>2018-11-11T10:57:20Z</time>
      </trkpt>
      <trkpt lat="45.96338" lon="4.87257">
        <ele>283</ele>
        <time>2018-11-11T10:57:23Z</time>
      </trkpt>
      <trkpt lat="45.96335" lon="4.8726">
        <ele>283</ele>
        <time>2018-11-11T10:57:24Z</time>
      </trkpt>
      <trkpt lat="45.96333" lon="4.87263">
        <ele>283</ele>
        <time>2018-11-11T10:57:25Z</time>
      </trkpt>
      <trkpt lat="45.96328" lon="4.87269">
        <ele>283</ele>
        <time>2018-11-11T10:57:26Z</time>
      </trkpt>
      <trkpt lat="45.96324" lon="4.87274">
        <ele>283</ele>
        <time>2018-11-11T10:57:28Z</time>
      </trkpt>
      <trkpt lat="45.96321" lon="4.8728">
        <ele>283</ele>
        <time>2018-11-11T10:57:29Z</time>
      </trkpt>
      <trkpt lat="45.96315" lon="4.87287">
        <ele>283</ele>
        <time>2018-11-11T10:57:31Z</time>
      </trkpt>
      <trkpt lat="45.96314" lon="4.8729">
        <ele>283</ele>
        <time>2018-11-11T10:57:32Z</time>
      </trkpt>
      <trkpt lat="45.96309" lon="4.87295">
        <ele>283</ele>
        <time>2018-11-11T10:57:34Z</time>
      </trkpt>
      <trkpt lat="45.96305" lon="4.873">
        <ele>283</ele>
        <time>2018-11-11T10:57:35Z</time>
      </trkpt>
      <trkpt lat="45.96301" lon="4.87305">
        <ele>283</ele>
        <time>2018-11-11T10:57:37Z</time>
      </trkpt>
      <trkpt lat="45.96297" lon="4.87311">
        <ele>283</ele>
        <time>2018-11-11T10:57:38Z</time>
      </trkpt>
      <trkpt lat="45.96291" lon="4.87318">
        <ele>283</ele>
        <time>2018-11-11T10:57:40Z</time>
      </trkpt>
      <trkpt lat="45.96288" lon="4.87322">
        <ele>283</ele>
        <time>2018-11-11T10:57:41Z</time>
      </trkpt>
      <trkpt lat="45.96283" lon="4.87329">
        <ele>283</ele>
        <time>2018-11-11T10:57:43Z</time>
      </trkpt>
      <trkpt lat="45.9628" lon="4.87333">
        <ele>283</ele>
        <time>2018-11-11T10:57:44Z</time>
      </trkpt>
      <trkpt lat="45.96274" lon="4.87341">
        <ele>283</ele>
        <time>2018-11-11T10:57:46Z</time>
      </trkpt>
      <trkpt lat="45.96271" lon="4.87345">
        <ele>283</ele>
        <time>2018-11-11T10:57:47Z</time>
      </trkpt>
      <trkpt lat="45.96266" lon="4.87352">
        <ele>283</ele>
        <time>2018-11-11T10:57:49Z</time>
      </trkpt>
      <trkpt lat="45.96263" lon="4.87355">
        <ele>283</ele>
        <time>2018-11-11T10:57:50Z</time>
      </trkpt>
      <trkpt lat="45.96257" lon="4.87362">
        <ele>283</ele>
        <time>2018-11-11T10:57:52Z</time>
      </trkpt>
      <trkpt lat="45.96254" lon="4.87366">
        <ele>283</ele>
        <time>2018-11-11T10:57:53Z</time>
      </trkpt>
      <trkpt lat="45.96248" lon="4.87374">
        <ele>283</ele>
        <time>2018-11-11T10:57:55Z</time>
      </trkpt>
      <trkpt lat="45.96245" lon="4.87378">
        <ele>283</ele>
        <time>2018-11-11T10:57:56Z</time>
      </trkpt>
      <trkpt lat="45.96239" lon="4.87385">
        <ele>283</ele>
        <time>2018-11-11T10:57:58Z</time>
      </trkpt>
      <trkpt lat="45.96236" lon="4.87389">
        <ele>283</ele>
        <time>2018-11-11T10:57:59Z</time>
      </trkpt>
      <trkpt lat="45.9623" lon="4.87396">
        <ele>283</ele>
        <time>2018-11-11T10:58:01Z</time>
      </trkpt>
      <trkpt lat="45.96227" lon="4.87399">
        <ele>283</ele>
        <time>2018-11-11T10:58:02Z</time>
      </trkpt>
      <trkpt lat="45.96221" lon="4.87406">
        <ele>283</ele>
        <time>2018-11-11T10:58:04Z</time>
      </trkpt>
      <trkpt lat="45.96218" lon="4.8741">
        <ele>283</ele>
        <time>2018-11-11T10:58:05Z</time>
      </trkpt>
      <trkpt lat="45.96212" lon="4.87417">
        <ele>284</ele>
        <time>2018-11-11T10:58:07Z</time>
      </trkpt>
      <trkpt lat="45.96209" lon="4.87421">
        <ele>284</ele>
        <time>2018-11-11T10:58:08Z</time>
      </trkpt>
      <trkpt lat="45.96203" lon="4.87428">
        <ele>284</ele>
        <time>2018-11-11T10:58:10Z</time>
      </trkpt>
      <trkpt lat="45.962" lon="4.87432">
        <ele>284</ele>
        <time>2018-11-11T10:58:11Z</time>
      </trkpt>
      <trkpt lat="45.96195" lon="4.87438">
        <ele>284</ele>
        <time>2018-11-11T10:58:13Z</time>
      </trkpt>
      <trkpt lat="45.96192" lon="4.87441">
        <ele>284</ele>
        <time>2018-11-11T10:58:14Z</time>
      </trkpt>
      <trkpt lat="45.96186" lon="4.87447">
        <ele>284</ele>
        <time>2018-11-11T10:58:16Z</time>
      </trkpt>
      <trkpt lat="45.96183" lon="4.8745">
        <ele>284</ele>
        <time>2018-11-11T10:58:17Z</time>
      </trkpt>
      <trkpt lat="45.96177" lon="4.87457">
        <ele>284</ele>
        <time>2018-11-11T10:58:19Z</time>
      </trkpt>
      <trkpt lat="45.96176" lon="4.87459">
        <ele>284</ele>
        <time>2018-11-11T10:58:20Z</time>
      </trkpt>
      <trkpt lat="45.96169" lon="4.87467">
        <ele>284</ele>
        <time>2018-11-11T10:58:23Z</time>
      </trkpt>
      <trkpt lat="45.96164" lon="4.87472">
        <ele>285</ele>
        <time>2018-11-11T10:58:24Z</time>
      </trkpt>
      <trkpt lat="45.96158" lon="4.87479">
        <ele>285</ele>
        <time>2018-11-11T10:58:27Z</time>
      </trkpt>
      <trkpt lat="45.96156" lon="4.87481">
        <ele>285</ele>
        <time>2018-11-11T10:58:28Z</time>
      </trkpt>
      <trkpt lat="45.96151" lon="4.87486">
        <ele>285</ele>
        <time>2018-11-11T10:58:30Z</time>
      </trkpt>
      <trkpt lat="45.96148" lon="4.87489">
        <ele>285</ele>
        <time>2018-11-11T10:58:31Z</time>
      </trkpt>
      <trkpt lat="45.96142" lon="4.87496">
        <ele>285</ele>
        <time>2018-11-11T10:58:33Z</time>
      </trkpt>
      <trkpt lat="45.9614" lon="4.87499">
        <ele>285</ele>
        <time>2018-11-11T10:58:34Z</time>
      </trkpt>
      <trkpt lat="45.96134" lon="4.87505">
        <ele>286</ele>
        <time>2018-11-11T10:58:36Z</time>
      </trkpt>
      <trkpt lat="45.96132" lon="4.87507">
        <ele>286</ele>
        <time>2018-11-11T10:58:37Z</time>
      </trkpt>
      <trkpt lat="45.96125" lon="4.87515">
        <ele>286</ele>
        <time>2018-11-11T10:58:40Z</time>
      </trkpt>
      <trkpt lat="45.96122" lon="4.87517">
        <ele>286</ele>
        <time>2018-11-11T10:58:41Z</time>
      </trkpt>
      <trkpt lat="45.96116" lon="4.87523">
        <ele>287</ele>
        <time>2018-11-11T10:58:43Z</time>
      </trkpt>
      <trkpt lat="45.96114" lon="4.87526">
        <ele>287</ele>
        <time>2018-11-11T10:58:44Z</time>
      </trkpt>
      <trkpt lat="45.96111" lon="4.87529">
        <ele>287</ele>
        <time>2018-11-11T10:58:45Z</time>
      </trkpt>
      <trkpt lat="45.96106" lon="4.87536">
        <ele>287</ele>
        <time>2018-11-11T10:58:46Z</time>
      </trkpt>
      <trkpt lat="45.96099" lon="4.87543">
        <ele>287</ele>
        <time>2018-11-11T10:58:48Z</time>
      </trkpt>
      <trkpt lat="45.96097" lon="4.87545">
        <ele>287</ele>
        <time>2018-11-11T10:58:49Z</time>
      </trkpt>
      <trkpt lat="45.96091" lon="4.87552">
        <ele>287</ele>
        <time>2018-11-11T10:58:51Z</time>
      </trkpt>
      <trkpt lat="45.96088" lon="4.87555">
        <ele>287</ele>
        <time>2018-11-11T10:58:52Z</time>
      </trkpt>
      <trkpt lat="45.96081" lon="4.87561">
        <ele>288</ele>
        <time>2018-11-11T10:58:55Z</time>
      </trkpt>
      <trkpt lat="45.96077" lon="4.87566">
        <ele>288</ele>
        <time>2018-11-11T10:58:56Z</time>
      </trkpt>
      <trkpt lat="45.96071" lon="4.87573">
        <ele>288</ele>
        <time>2018-11-11T10:58:58Z</time>
      </trkpt>
      <trkpt lat="45.96068" lon="4.87577">
        <ele>288</ele>
        <time>2018-11-11T10:58:59Z</time>
      </trkpt>
      <trkpt lat="45.96062" lon="4.87584">
        <ele>288</ele>
        <time>2018-11-11T10:59:01Z</time>
      </trkpt>
      <trkpt lat="45.96059" lon="4.87587">
        <ele>288</ele>
        <time>2018-11-11T10:59:02Z</time>
      </trkpt>
      <trkpt lat="45.96054" lon="4.87592">
        <ele>288</ele>
        <time>2018-11-11T10:59:04Z</time>
      </trkpt>
      <trkpt lat="45.9605" lon="4.87596">
        <ele>288</ele>
        <time>2018-11-11T10:59:05Z</time>
      </trkpt>
      <trkpt lat="45.96044" lon="4.87603">
        <ele>289</ele>
        <time>2018-11-11T10:59:07Z</time>
      </trkpt>
      <trkpt lat="45.96041" lon="4.87607">
        <ele>289</ele>
        <time>2018-11-11T10:59:08Z</time>
      </trkpt>
      <trkpt lat="45.96035" lon="4.87614">
        <ele>289</ele>
        <time>2018-11-11T10:59:10Z</time>
      </trkpt>
      <trkpt lat="45.96032" lon="4.87617">
        <ele>289</ele>
        <time>2018-11-11T10:59:11Z</time>
      </trkpt>
      <trkpt lat="45.96026" lon="4.87625">
        <ele>289</ele>
        <time>2018-11-11T10:59:13Z</time>
      </trkpt>
      <trkpt lat="45.96023" lon="4.87628">
        <ele>289</ele>
        <time>2018-11-11T10:59:14Z</time>
      </trkpt>
      <trkpt lat="45.96016" lon="4.87636">
        <ele>289</ele>
        <time>2018-11-11T10:59:16Z</time>
      </trkpt>
      <trkpt lat="45.96013" lon="4.8764">
        <ele>289</ele>
        <time>2018-11-11T10:59:17Z</time>
      </trkpt>
      <trkpt lat="45.96006" lon="4.87648">
        <ele>289</ele>
        <time>2018-11-11T10:59:19Z</time>
      </trkpt>
      <trkpt lat="45.96003" lon="4.87652">
        <ele>289</ele>
        <time>2018-11-11T10:59:20Z</time>
      </trkpt>
      <trkpt lat="45.95996" lon="4.8766">
        <ele>290</ele>
        <time>2018-11-11T10:59:22Z</time>
      </trkpt>
      <trkpt lat="45.95993" lon="4.87664">
        <ele>290</ele>
        <time>2018-11-11T10:59:23Z</time>
      </trkpt>
      <trkpt lat="45.95986" lon="4.87672">
        <ele>289</ele>
        <time>2018-11-11T10:59:25Z</time>
      </trkpt>
      <trkpt lat="45.95983" lon="4.87676">
        <ele>289</ele>
        <time>2018-11-11T10:59:26Z</time>
      </trkpt>
      <trkpt lat="45.95977" lon="4.87684">
        <ele>289</ele>
        <time>2018-11-11T10:59:28Z</time>
      </trkpt>
      <trkpt lat="45.95973" lon="4.87688">
        <ele>289</ele>
        <time>2018-11-11T10:59:29Z</time>
      </trkpt>
      <trkpt lat="45.95967" lon="4.87695">
        <ele>289</ele>
        <time>2018-11-11T10:59:31Z</time>
      </trkpt>
      <trkpt lat="45.95964" lon="4.87699">
        <ele>289</ele>
        <time>2018-11-11T10:59:32Z</time>
      </trkpt>
      <trkpt lat="45.95958" lon="4.87707">
        <ele>289</ele>
        <time>2018-11-11T10:59:34Z</time>
      </trkpt>
      <trkpt lat="45.95955" lon="4.87711">
        <ele>289</ele>
        <time>2018-11-11T10:59:35Z</time>
      </trkpt>
      <trkpt lat="45.95949" lon="4.8772">
        <ele>289</ele>
        <time>2018-11-11T10:59:37Z</time>
      </trkpt>
      <trkpt lat="45.95946" lon="4.87724">
        <ele>289</ele>
        <time>2018-11-11T10:59:38Z</time>
      </trkpt>
      <trkpt lat="45.9594" lon="4.87732">
        <ele>289</ele>
        <time>2018-11-11T10:59:40Z</time>
      </trkpt>
      <trkpt lat="45.95937" lon="4.87737">
        <ele>288</ele>
        <time>2018-11-11T10:59:41Z</time>
      </trkpt>
      <trkpt lat="45.95931" lon="4.87745">
        <ele>288</ele>
        <time>2018-11-11T10:59:43Z</time>
      </trkpt>
      <trkpt lat="45.95928" lon="4.87749">
        <ele>288</ele>
        <time>2018-11-11T10:59:44Z</time>
      </trkpt>
      <trkpt lat="45.95922" lon="4.87759">
        <ele>288</ele>
        <time>2018-11-11T10:59:46Z</time>
      </trkpt>
      <trkpt lat="45.95919" lon="4.87764">
        <ele>288</ele>
        <time>2018-11-11T10:59:47Z</time>
      </trkpt>
      <trkpt lat="45.95916" lon="4.87769">
        <ele>288</ele>
        <time>2018-11-11T10:59:48Z</time>
      </trkpt>
      <trkpt lat="45.95913" lon="4.87774">
        <ele>288</ele>
        <time>2018-11-11T10:59:49Z</time>
      </trkpt>
      <trkpt lat="45.9591" lon="4.87779">
        <ele>288</ele>
        <time>2018-11-11T10:59:50Z</time>
      </trkpt>
      <trkpt lat="45.95907" lon="4.87784">
        <ele>288</ele>
        <time>2018-11-11T10:59:51Z</time>
      </trkpt>
      <trkpt lat="45.959" lon="4.87792">
        <ele>288</ele>
        <time>2018-11-11T10:59:53Z</time>
      </trkpt>
      <trkpt lat="45.95897" lon="4.87796">
        <ele>288</ele>
        <time>2018-11-11T10:59:54Z</time>
      </trkpt>
      <trkpt lat="45.95891" lon="4.87805">
        <ele>288</ele>
        <time>2018-11-11T10:59:56Z</time>
      </trkpt>
      <trkpt lat="45.95888" lon="4.87809">
        <ele>288</ele>
        <time>2018-11-11T10:59:57Z</time>
      </trkpt>
      <trkpt lat="45.95882" lon="4.87818">
        <ele>288</ele>
        <time>2018-11-11T10:59:59Z</time>
      </trkpt>
      <trkpt lat="45.95879" lon="4.87822">
        <ele>288</ele>
        <time>2018-11-11T11:00:00Z</time>
      </trkpt>
      <trkpt lat="45.95871" lon="4.87826">
        <ele>288</ele>
        <time>2018-11-11T11:00:02Z</time>
      </trkpt>
      <trkpt lat="45.95867" lon="4.87829">
        <ele>288</ele>
        <time>2018-11-11T11:00:03Z</time>
      </trkpt>
      <trkpt lat="45.95861" lon="4.87834">
        <ele>289</ele>
        <time>2018-11-11T11:00:05Z</time>
      </trkpt>
      <trkpt lat="45.95857" lon="4.87835">
        <ele>289</ele>
        <time>2018-11-11T11:00:06Z</time>
      </trkpt>
      <trkpt lat="45.95849" lon="4.87839">
        <ele>288</ele>
        <time>2018-11-11T11:00:09Z</time>
      </trkpt>
      <trkpt lat="45.95846" lon="4.8784">
        <ele>288</ele>
        <time>2018-11-11T11:00:10Z</time>
      </trkpt>
      <trkpt lat="45.95842" lon="4.8784">
        <ele>288</ele>
        <time>2018-11-11T11:00:11Z</time>
      </trkpt>
      <trkpt lat="45.95837" lon="4.87841">
        <ele>288</ele>
        <time>2018-11-11T11:00:12Z</time>
      </trkpt>
      <trkpt lat="45.95829" lon="4.87845">
        <ele>287</ele>
        <time>2018-11-11T11:00:14Z</time>
      </trkpt>
      <trkpt lat="45.95826" lon="4.87848">
        <ele>287</ele>
        <time>2018-11-11T11:00:15Z</time>
      </trkpt>
      <trkpt lat="45.9582" lon="4.87856">
        <ele>287</ele>
        <time>2018-11-11T11:00:17Z</time>
      </trkpt>
      <trkpt lat="45.95817" lon="4.8786">
        <ele>287</ele>
        <time>2018-11-11T11:00:18Z</time>
      </trkpt>
      <trkpt lat="45.9581" lon="4.87867">
        <ele>287</ele>
        <time>2018-11-11T11:00:20Z</time>
      </trkpt>
      <trkpt lat="45.95806" lon="4.87871">
        <ele>287</ele>
        <time>2018-11-11T11:00:21Z</time>
      </trkpt>
      <trkpt lat="45.95799" lon="4.87878">
        <ele>286</ele>
        <time>2018-11-11T11:00:23Z</time>
      </trkpt>
      <trkpt lat="45.95795" lon="4.87881">
        <ele>286</ele>
        <time>2018-11-11T11:00:24Z</time>
      </trkpt>
      <trkpt lat="45.95788" lon="4.87888">
        <ele>286</ele>
        <time>2018-11-11T11:00:26Z</time>
      </trkpt>
      <trkpt lat="45.95784" lon="4.87891">
        <ele>286</ele>
        <time>2018-11-11T11:00:27Z</time>
      </trkpt>
      <trkpt lat="45.9578" lon="4.87893">
        <ele>286</ele>
        <time>2018-11-11T11:00:28Z</time>
      </trkpt>
      <trkpt lat="45.95776" lon="4.87896">
        <ele>286</ele>
        <time>2018-11-11T11:00:29Z</time>
      </trkpt>
      <trkpt lat="45.95768" lon="4.87902">
        <ele>286</ele>
        <time>2018-11-11T11:00:31Z</time>
      </trkpt>
      <trkpt lat="45.95764" lon="4.87905">
        <ele>286</ele>
        <time>2018-11-11T11:00:32Z</time>
      </trkpt>
      <trkpt lat="45.95759" lon="4.87908">
        <ele>285</ele>
        <time>2018-11-11T11:00:33Z</time>
      </trkpt>
      <trkpt lat="45.95755" lon="4.87911">
        <ele>285</ele>
        <time>2018-11-11T11:00:34Z</time>
      </trkpt>
      <trkpt lat="45.9575" lon="4.87914">
        <ele>285</ele>
        <time>2018-11-11T11:00:35Z</time>
      </trkpt>
      <trkpt lat="45.95746" lon="4.87918">
        <ele>285</ele>
        <time>2018-11-11T11:00:36Z</time>
      </trkpt>
      <trkpt lat="45.95741" lon="4.87921">
        <ele>284</ele>
        <time>2018-11-11T11:00:37Z</time>
      </trkpt>
      <trkpt lat="45.95737" lon="4.87925">
        <ele>284</ele>
        <time>2018-11-11T11:00:38Z</time>
      </trkpt>
      <trkpt lat="45.95733" lon="4.8793">
        <ele>284</ele>
        <time>2018-11-11T11:00:39Z</time>
      </trkpt>
      <trkpt lat="45.95729" lon="4.87934">
        <ele>283</ele>
        <time>2018-11-11T11:00:40Z</time>
      </trkpt>
      <trkpt lat="45.95724" lon="4.87937">
        <ele>283</ele>
        <time>2018-11-11T11:00:41Z</time>
      </trkpt>
      <trkpt lat="45.9572" lon="4.87941">
        <ele>283</ele>
        <time>2018-11-11T11:00:42Z</time>
      </trkpt>
      <trkpt lat="45.95715" lon="4.87945">
        <ele>283</ele>
        <time>2018-11-11T11:00:43Z</time>
      </trkpt>
      <trkpt lat="45.9571" lon="4.87949">
        <ele>283</ele>
        <time>2018-11-11T11:00:44Z</time>
      </trkpt>
      <trkpt lat="45.95706" lon="4.87953">
        <ele>283</ele>
        <time>2018-11-11T11:00:45Z</time>
      </trkpt>
      <trkpt lat="45.95701" lon="4.87957">
        <ele>283</ele>
        <time>2018-11-11T11:00:46Z</time>
      </trkpt>
      <trkpt lat="45.95697" lon="4.87962">
        <ele>282</ele>
        <time>2018-11-11T11:00:47Z</time>
      </trkpt>
      <trkpt lat="45.95692" lon="4.87966">
        <ele>282</ele>
        <time>2018-11-11T11:00:48Z</time>
      </trkpt>
      <trkpt lat="45.95687" lon="4.87971">
        <ele>282</ele>
        <time>2018-11-11T11:00:49Z</time>
      </trkpt>
      <trkpt lat="45.95682" lon="4.87976">
        <ele>282</ele>
        <time>2018-11-11T11:00:50Z</time>
      </trkpt>
      <trkpt lat="45.95677" lon="4.87981">
        <ele>282</ele>
        <time>2018-11-11T11:00:51Z</time>
      </trkpt>
      <trkpt lat="45.95672" lon="4.87986">
        <ele>282</ele>
        <time>2018-11-11T11:00:52Z</time>
      </trkpt>
      <trkpt lat="45.95667" lon="4.87991">
        <ele>281</ele>
        <time>2018-11-11T11:00:53Z</time>
      </trkpt>
      <trkpt lat="45.95662" lon="4.87996">
        <ele>280</ele>
        <time>2018-11-11T11:00:54Z</time>
      </trkpt>
      <trkpt lat="45.95656" lon="4.88001">
        <ele>280</ele>
        <time>2018-11-11T11:00:55Z</time>
      </trkpt>
      <trkpt lat="45.9565" lon="4.88005">
        <ele>280</ele>
        <time>2018-11-11T11:00:56Z</time>
      </trkpt>
      <trkpt lat="45.95645" lon="4.8801">
        <ele>279</ele>
        <time>2018-11-11T11:00:57Z</time>
      </trkpt>
      <trkpt lat="45.95639" lon="4.88015">
        <ele>279</ele>
        <time>2018-11-11T11:00:58Z</time>
      </trkpt>
      <trkpt lat="45.95634" lon="4.88021">
        <ele>279</ele>
        <time>2018-11-11T11:00:59Z</time>
      </trkpt>
      <trkpt lat="45.95629" lon="4.88026">
        <ele>279</ele>
        <time>2018-11-11T11:01:00Z</time>
      </trkpt>
      <trkpt lat="45.95623" lon="4.88031">
        <ele>278</ele>
        <time>2018-11-11T11:01:01Z</time>
      </trkpt>
      <trkpt lat="45.95617" lon="4.88036">
        <ele>278</ele>
        <time>2018-11-11T11:01:02Z</time>
      </trkpt>
      <trkpt lat="45.95612" lon="4.88041">
        <ele>278</ele>
        <time>2018-11-11T11:01:03Z</time>
      </trkpt>
      <trkpt lat="45.95606" lon="4.88045">
        <ele>278</ele>
        <time>2018-11-11T11:01:04Z</time>
      </trkpt>
      <trkpt lat="45.95601" lon="4.88049">
        <ele>278</ele>
        <time>2018-11-11T11:01:05Z</time>
      </trkpt>
      <trkpt lat="45.95596" lon="4.88054">
        <ele>278</ele>
        <time>2018-11-11T11:01:06Z</time>
      </trkpt>
      <trkpt lat="45.95591" lon="4.88057">
        <ele>278</ele>
        <time>2018-11-11T11:01:07Z</time>
      </trkpt>
      <trkpt lat="45.95586" lon="4.88061">
        <ele>278</ele>
        <time>2018-11-11T11:01:08Z</time>
      </trkpt>
      <trkpt lat="45.95581" lon="4.88065">
        <ele>276</ele>
        <time>2018-11-11T11:01:09Z</time>
      </trkpt>
      <trkpt lat="45.95576" lon="4.88069">
        <ele>276</ele>
        <time>2018-11-11T11:01:10Z</time>
      </trkpt>
      <trkpt lat="45.95571" lon="4.88073">
        <ele>276</ele>
        <time>2018-11-11T11:01:11Z</time>
      </trkpt>
      <trkpt lat="45.95567" lon="4.88075">
        <ele>276</ele>
        <time>2018-11-11T11:01:12Z</time>
      </trkpt>
      <trkpt lat="45.95562" lon="4.88078">
        <ele>276</ele>
        <time>2018-11-11T11:01:13Z</time>
      </trkpt>
      <trkpt lat="45.95557" lon="4.8808">
        <ele>276</ele>
        <time>2018-11-11T11:01:14Z</time>
      </trkpt>
      <trkpt lat="45.95552" lon="4.88082">
        <ele>276</ele>
        <time>2018-11-11T11:01:15Z</time>
      </trkpt>
      <trkpt lat="45.95547" lon="4.88085">
        <ele>277</ele>
        <time>2018-11-11T11:01:16Z</time>
      </trkpt>
      <trkpt lat="45.95543" lon="4.88088">
        <ele>277</ele>
        <time>2018-11-11T11:01:17Z</time>
      </trkpt>
      <trkpt lat="45.95538" lon="4.88091">
        <ele>277</ele>
        <time>2018-11-11T11:01:18Z</time>
      </trkpt>
      <trkpt lat="45.95533" lon="4.88094">
        <ele>277</ele>
        <time>2018-11-11T11:01:19Z</time>
      </trkpt>
      <trkpt lat="45.95528" lon="4.88097">
        <ele>277</ele>
        <time>2018-11-11T11:01:20Z</time>
      </trkpt>
      <trkpt lat="45.95523" lon="4.881">
        <ele>276</ele>
        <time>2018-11-11T11:01:21Z</time>
      </trkpt>
      <trkpt lat="45.95517" lon="4.88103">
        <ele>276</ele>
        <time>2018-11-11T11:01:22Z</time>
      </trkpt>
      <trkpt lat="45.95511" lon="4.88105">
        <ele>276</ele>
        <time>2018-11-11T11:01:23Z</time>
      </trkpt>
      <trkpt lat="45.95504" lon="4.88108">
        <ele>276</ele>
        <time>2018-11-11T11:01:24Z</time>
      </trkpt>
      <trkpt lat="45.95498" lon="4.8811">
        <ele>276</ele>
        <time>2018-11-11T11:01:25Z</time>
      </trkpt>
      <trkpt lat="45.95492" lon="4.88112">
        <ele>276</ele>
        <time>2018-11-11T11:01:26Z</time>
      </trkpt>
      <trkpt lat="45.95486" lon="4.88115">
        <ele>276</ele>
        <time>2018-11-11T11:01:27Z</time>
      </trkpt>
      <trkpt lat="45.95481" lon="4.88118">
        <ele>276</ele>
        <time>2018-11-11T11:01:28Z</time>
      </trkpt>
      <trkpt lat="45.95476" lon="4.8812">
        <ele>276</ele>
        <time>2018-11-11T11:01:29Z</time>
      </trkpt>
      <trkpt lat="45.9547" lon="4.88122">
        <ele>276</ele>
        <time>2018-11-11T11:01:30Z</time>
      </trkpt>
      <trkpt lat="45.95465" lon="4.88123">
        <ele>276</ele>
        <time>2018-11-11T11:01:31Z</time>
      </trkpt>
      <trkpt lat="45.9546" lon="4.88127">
        <ele>276</ele>
        <time>2018-11-11T11:01:32Z</time>
      </trkpt>
      <trkpt lat="45.95455" lon="4.88129">
        <ele>276</ele>
        <time>2018-11-11T11:01:33Z</time>
      </trkpt>
      <trkpt lat="45.9545" lon="4.88131">
        <ele>275</ele>
        <time>2018-11-11T11:01:34Z</time>
      </trkpt>
      <trkpt lat="45.95445" lon="4.88133">
        <ele>275</ele>
        <time>2018-11-11T11:01:35Z</time>
      </trkpt>
      <trkpt lat="45.95441" lon="4.88135">
        <ele>275</ele>
        <time>2018-11-11T11:01:36Z</time>
      </trkpt>
      <trkpt lat="45.95435" lon="4.88137">
        <ele>276</ele>
        <time>2018-11-11T11:01:37Z</time>
      </trkpt>
      <trkpt lat="45.9543" lon="4.88139">
        <ele>276</ele>
        <time>2018-11-11T11:01:38Z</time>
      </trkpt>
      <trkpt lat="45.95425" lon="4.88141">
        <ele>276</ele>
        <time>2018-11-11T11:01:39Z</time>
      </trkpt>
      <trkpt lat="45.9542" lon="4.88143">
        <ele>276</ele>
        <time>2018-11-11T11:01:40Z</time>
      </trkpt>
      <trkpt lat="45.95414" lon="4.88146">
        <ele>276</ele>
        <time>2018-11-11T11:01:41Z</time>
      </trkpt>
      <trkpt lat="45.9541" lon="4.88148">
        <ele>276</ele>
        <time>2018-11-11T11:01:42Z</time>
      </trkpt>
      <trkpt lat="45.95405" lon="4.88151">
        <ele>276</ele>
        <time>2018-11-11T11:01:43Z</time>
      </trkpt>
      <trkpt lat="45.95401" lon="4.88154">
        <ele>276</ele>
        <time>2018-11-11T11:01:44Z</time>
      </trkpt>
      <trkpt lat="45.95396" lon="4.88156">
        <ele>276</ele>
        <time>2018-11-11T11:01:45Z</time>
      </trkpt>
      <trkpt lat="45.9539" lon="4.88157">
        <ele>276</ele>
        <time>2018-11-11T11:01:46Z</time>
      </trkpt>
      <trkpt lat="45.95385" lon="4.88158">
        <ele>276</ele>
        <time>2018-11-11T11:01:47Z</time>
      </trkpt>
      <trkpt lat="45.9538" lon="4.88159">
        <ele>276</ele>
        <time>2018-11-11T11:01:48Z</time>
      </trkpt>
      <trkpt lat="45.95375" lon="4.88162">
        <ele>276</ele>
        <time>2018-11-11T11:01:49Z</time>
      </trkpt>
      <trkpt lat="45.9537" lon="4.88163">
        <ele>276</ele>
        <time>2018-11-11T11:01:50Z</time>
      </trkpt>
      <trkpt lat="45.95365" lon="4.88164">
        <ele>276</ele>
        <time>2018-11-11T11:01:51Z</time>
      </trkpt>
      <trkpt lat="45.9536" lon="4.88164">
        <ele>277</ele>
        <time>2018-11-11T11:01:52Z</time>
      </trkpt>
      <trkpt lat="45.95356" lon="4.88167">
        <ele>278</ele>
        <time>2018-11-11T11:01:53Z</time>
      </trkpt>
      <trkpt lat="45.9535" lon="4.88165">
        <ele>277</ele>
        <time>2018-11-11T11:01:54Z</time>
      </trkpt>
      <trkpt lat="45.95341" lon="4.88166">
        <ele>277</ele>
        <time>2018-11-11T11:01:56Z</time>
      </trkpt>
      <trkpt lat="45.95338" lon="4.88167">
        <ele>278</ele>
        <time>2018-11-11T11:01:57Z</time>
      </trkpt>
      <trkpt lat="45.95329" lon="4.88167">
        <ele>279</ele>
        <time>2018-11-11T11:01:59Z</time>
      </trkpt>
      <trkpt lat="45.95324" lon="4.88166">
        <ele>278</ele>
        <time>2018-11-11T11:02:00Z</time>
      </trkpt>
      <trkpt lat="45.9532" lon="4.88165">
        <ele>278</ele>
        <time>2018-11-11T11:02:01Z</time>
      </trkpt>
      <trkpt lat="45.95315" lon="4.88165">
        <ele>278</ele>
        <time>2018-11-11T11:02:02Z</time>
      </trkpt>
      <trkpt lat="45.95307" lon="4.88165">
        <ele>278</ele>
        <time>2018-11-11T11:02:04Z</time>
      </trkpt>
      <trkpt lat="45.95303" lon="4.88166">
        <ele>278</ele>
        <time>2018-11-11T11:02:05Z</time>
      </trkpt>
      <trkpt lat="45.95295" lon="4.88165">
        <ele>279</ele>
        <time>2018-11-11T11:02:07Z</time>
      </trkpt>
      <trkpt lat="45.95291" lon="4.88164">
        <ele>279</ele>
        <time>2018-11-11T11:02:08Z</time>
      </trkpt>
      <trkpt lat="45.95283" lon="4.88163">
        <ele>279</ele>
        <time>2018-11-11T11:02:11Z</time>
      </trkpt>
      <trkpt lat="45.9528" lon="4.88163">
        <ele>279</ele>
        <time>2018-11-11T11:02:12Z</time>
      </trkpt>
      <trkpt lat="45.95273" lon="4.88163">
        <ele>279</ele>
        <time>2018-11-11T11:02:14Z</time>
      </trkpt>
      <trkpt lat="45.95269" lon="4.88163">
        <ele>280</ele>
        <time>2018-11-11T11:02:15Z</time>
      </trkpt>
      <trkpt lat="45.95262" lon="4.88163">
        <ele>280</ele>
        <time>2018-11-11T11:02:17Z</time>
      </trkpt>
      <trkpt lat="45.95259" lon="4.88163">
        <ele>280</ele>
        <time>2018-11-11T11:02:18Z</time>
      </trkpt>
      <trkpt lat="45.95253" lon="4.88162">
        <ele>280</ele>
        <time>2018-11-11T11:02:20Z</time>
      </trkpt>
      <trkpt lat="45.95249" lon="4.88162">
        <ele>281</ele>
        <time>2018-11-11T11:02:21Z</time>
      </trkpt>
      <trkpt lat="45.95243" lon="4.88162">
        <ele>281</ele>
        <time>2018-11-11T11:02:23Z</time>
      </trkpt>
      <trkpt lat="45.9524" lon="4.88162">
        <ele>281</ele>
        <time>2018-11-11T11:02:24Z</time>
      </trkpt>
      <trkpt lat="45.95232" lon="4.88163">
        <ele>282</ele>
        <time>2018-11-11T11:02:26Z</time>
      </trkpt>
      <trkpt lat="45.95229" lon="4.88163">
        <ele>282</ele>
        <time>2018-11-11T11:02:27Z</time>
      </trkpt>
      <trkpt lat="45.95222" lon="4.88164">
        <ele>282</ele>
        <time>2018-11-11T11:02:29Z</time>
      </trkpt>
      <trkpt lat="45.95219" lon="4.88164">
        <ele>282</ele>
        <time>2018-11-11T11:02:30Z</time>
      </trkpt>
      <trkpt lat="45.95213" lon="4.88164">
        <ele>282</ele>
        <time>2018-11-11T11:02:32Z</time>
      </trkpt>
      <trkpt lat="45.95205" lon="4.88164">
        <ele>282</ele>
        <time>2018-11-11T11:02:33Z</time>
      </trkpt>
      <trkpt lat="45.95197" lon="4.88164">
        <ele>283</ele>
        <time>2018-11-11T11:02:35Z</time>
      </trkpt>
      <trkpt lat="45.95194" lon="4.88165">
        <ele>283</ele>
        <time>2018-11-11T11:02:36Z</time>
      </trkpt>
      <trkpt lat="45.95185" lon="4.88166">
        <ele>283</ele>
        <time>2018-11-11T11:02:39Z</time>
      </trkpt>
      <trkpt lat="45.95183" lon="4.88166">
        <ele>283</ele>
        <time>2018-11-11T11:02:40Z</time>
      </trkpt>
      <trkpt lat="45.95174" lon="4.88166">
        <ele>284</ele>
        <time>2018-11-11T11:02:43Z</time>
      </trkpt>
      <trkpt lat="45.95171" lon="4.88165">
        <ele>284</ele>
        <time>2018-11-11T11:02:44Z</time>
      </trkpt>
      <trkpt lat="45.95168" lon="4.88158">
        <ele>284</ele>
        <time>2018-11-11T11:02:46Z</time>
      </trkpt>
      <trkpt lat="45.95167" lon="4.88148">
        <ele>283</ele>
        <time>2018-11-11T11:02:47Z</time>
      </trkpt>
      <trkpt lat="45.95171" lon="4.88138">
        <ele>283</ele>
        <time>2018-11-11T11:02:49Z</time>
      </trkpt>
      <trkpt lat="45.95173" lon="4.88132">
        <ele>283</ele>
        <time>2018-11-11T11:02:50Z</time>
      </trkpt>
      <trkpt lat="45.95176" lon="4.88121">
        <ele>282</ele>
        <time>2018-11-11T11:02:52Z</time>
      </trkpt>
      <trkpt lat="45.95177" lon="4.88115">
        <ele>282</ele>
        <time>2018-11-11T11:02:53Z</time>
      </trkpt>
      <trkpt lat="45.95179" lon="4.88103">
        <ele>282</ele>
        <time>2018-11-11T11:02:55Z</time>
      </trkpt>
      <trkpt lat="45.9518" lon="4.88098">
        <ele>282</ele>
        <time>2018-11-11T11:02:56Z</time>
      </trkpt>
      <trkpt lat="45.95181" lon="4.88092">
        <ele>282</ele>
        <time>2018-11-11T11:02:57Z</time>
      </trkpt>
      <trkpt lat="45.95184" lon="4.88085">
        <ele>282</ele>
        <time>2018-11-11T11:02:58Z</time>
      </trkpt>
      <trkpt lat="45.95186" lon="4.88079">
        <ele>281</ele>
        <time>2018-11-11T11:02:59Z</time>
      </trkpt>
      <trkpt lat="45.95188" lon="4.88073">
        <ele>281</ele>
        <time>2018-11-11T11:03:00Z</time>
      </trkpt>
      <trkpt lat="45.9519" lon="4.88066">
        <ele>281</ele>
        <time>2018-11-11T11:03:01Z</time>
      </trkpt>
      <trkpt lat="45.95192" lon="4.88059">
        <ele>281</ele>
        <time>2018-11-11T11:03:02Z</time>
      </trkpt>
      <trkpt lat="45.95195" lon="4.88053">
        <ele>281</ele>
        <time>2018-11-11T11:03:03Z</time>
      </trkpt>
      <trkpt lat="45.95197" lon="4.88046">
        <ele>281</ele>
        <time>2018-11-11T11:03:04Z</time>
      </trkpt>
      <trkpt lat="45.952" lon="4.8804">
        <ele>281</ele>
        <time>2018-11-11T11:03:05Z</time>
      </trkpt>
      <trkpt lat="45.95203" lon="4.88035">
        <ele>281</ele>
        <time>2018-11-11T11:03:06Z</time>
      </trkpt>
      <trkpt lat="45.95206" lon="4.88029">
        <ele>281</ele>
        <time>2018-11-11T11:03:07Z</time>
      </trkpt>
      <trkpt lat="45.95209" lon="4.88024">
        <ele>281</ele>
        <time>2018-11-11T11:03:08Z</time>
      </trkpt>
      <trkpt lat="45.95213" lon="4.88019">
        <ele>281</ele>
        <time>2018-11-11T11:03:09Z</time>
      </trkpt>
      <trkpt lat="45.95216" lon="4.88014">
        <ele>281</ele>
        <time>2018-11-11T11:03:10Z</time>
      </trkpt>
      <trkpt lat="45.95219" lon="4.8801">
        <ele>281</ele>
        <time>2018-11-11T11:03:11Z</time>
      </trkpt>
      <trkpt lat="45.95223" lon="4.88005">
        <ele>281</ele>
        <time>2018-11-11T11:03:12Z</time>
      </trkpt>
      <trkpt lat="45.95229" lon="4.87997">
        <ele>281</ele>
        <time>2018-11-11T11:03:14Z</time>
      </trkpt>
      <trkpt lat="45.95232" lon="4.87993">
        <ele>281</ele>
        <time>2018-11-11T11:03:15Z</time>
      </trkpt>
      <trkpt lat="45.95236" lon="4.87989">
        <ele>281</ele>
        <time>2018-11-11T11:03:16Z</time>
      </trkpt>
      <trkpt lat="45.9524" lon="4.87983">
        <ele>281</ele>
        <time>2018-11-11T11:03:17Z</time>
      </trkpt>
      <trkpt lat="45.95243" lon="4.87978">
        <ele>282</ele>
        <time>2018-11-11T11:03:18Z</time>
      </trkpt>
      <trkpt lat="45.95247" lon="4.87973">
        <ele>282</ele>
        <time>2018-11-11T11:03:19Z</time>
      </trkpt>
      <trkpt lat="45.9525" lon="4.87968">
        <ele>282</ele>
        <time>2018-11-11T11:03:20Z</time>
      </trkpt>
      <trkpt lat="45.95254" lon="4.87963">
        <ele>280</ele>
        <time>2018-11-11T11:03:21Z</time>
      </trkpt>
      <trkpt lat="45.95256" lon="4.87958">
        <ele>280</ele>
        <time>2018-11-11T11:03:22Z</time>
      </trkpt>
      <trkpt lat="45.95258" lon="4.87952">
        <ele>280</ele>
        <time>2018-11-11T11:03:23Z</time>
      </trkpt>
      <trkpt lat="45.95262" lon="4.87941">
        <ele>280</ele>
        <time>2018-11-11T11:03:25Z</time>
      </trkpt>
      <trkpt lat="45.95263" lon="4.87935">
        <ele>280</ele>
        <time>2018-11-11T11:03:26Z</time>
      </trkpt>
      <trkpt lat="45.95263" lon="4.87928">
        <ele>281</ele>
        <time>2018-11-11T11:03:27Z</time>
      </trkpt>
      <trkpt lat="45.95264" lon="4.87921">
        <ele>281</ele>
        <time>2018-11-11T11:03:28Z</time>
      </trkpt>
      <trkpt lat="45.95264" lon="4.87914">
        <ele>281</ele>
        <time>2018-11-11T11:03:29Z</time>
      </trkpt>
      <trkpt lat="45.95264" lon="4.87907">
        <ele>281</ele>
        <time>2018-11-11T11:03:30Z</time>
      </trkpt>
      <trkpt lat="45.95263" lon="4.879">
        <ele>281</ele>
        <time>2018-11-11T11:03:31Z</time>
      </trkpt>
      <trkpt lat="45.95262" lon="4.87894">
        <ele>281</ele>
        <time>2018-11-11T11:03:32Z</time>
      </trkpt>
      <trkpt lat="45.95261" lon="4.87887">
        <ele>281</ele>
        <time>2018-11-11T11:03:33Z</time>
      </trkpt>
      <trkpt lat="45.9526" lon="4.87881">
        <ele>281</ele>
        <time>2018-11-11T11:03:34Z</time>
      </trkpt>
      <trkpt lat="45.95256" lon="4.87869">
        <ele>281</ele>
        <time>2018-11-11T11:03:36Z</time>
      </trkpt>
      <trkpt lat="45.95255" lon="4.87863">
        <ele>281</ele>
        <time>2018-11-11T11:03:37Z</time>
      </trkpt>
      <trkpt lat="45.95254" lon="4.87856">
        <ele>281</ele>
        <time>2018-11-11T11:03:38Z</time>
      </trkpt>
      <trkpt lat="45.95252" lon="4.87849">
        <ele>281</ele>
        <time>2018-11-11T11:03:39Z</time>
      </trkpt>
      <trkpt lat="45.95251" lon="4.87843">
        <ele>281</ele>
        <time>2018-11-11T11:03:40Z</time>
      </trkpt>
      <trkpt lat="45.95249" lon="4.87835">
        <ele>282</ele>
        <time>2018-11-11T11:03:41Z</time>
      </trkpt>
      <trkpt lat="45.95248" lon="4.87827">
        <ele>282</ele>
        <time>2018-11-11T11:03:42Z</time>
      </trkpt>
      <trkpt lat="45.95247" lon="4.87819">
        <ele>282</ele>
        <time>2018-11-11T11:03:43Z</time>
      </trkpt>
      <trkpt lat="45.95245" lon="4.8781">
        <ele>282</ele>
        <time>2018-11-11T11:03:44Z</time>
      </trkpt>
      <trkpt lat="45.95244" lon="4.87802">
        <ele>282</ele>
        <time>2018-11-11T11:03:45Z</time>
      </trkpt>
      <trkpt lat="45.95243" lon="4.87794">
        <ele>282</ele>
        <time>2018-11-11T11:03:46Z</time>
      </trkpt>
      <trkpt lat="45.95241" lon="4.87786">
        <ele>282</ele>
        <time>2018-11-11T11:03:47Z</time>
      </trkpt>
      <trkpt lat="45.9524" lon="4.87777">
        <ele>282</ele>
        <time>2018-11-11T11:03:48Z</time>
      </trkpt>
      <trkpt lat="45.95238" lon="4.87769">
        <ele>282</ele>
        <time>2018-11-11T11:03:49Z</time>
      </trkpt>
      <trkpt lat="45.95236" lon="4.87762">
        <ele>281</ele>
        <time>2018-11-11T11:03:50Z</time>
      </trkpt>
      <trkpt lat="45.95234" lon="4.87754">
        <ele>281</ele>
        <time>2018-11-11T11:03:51Z</time>
      </trkpt>
      <trkpt lat="45.95234" lon="4.87746">
        <ele>280</ele>
        <time>2018-11-11T11:03:52Z</time>
      </trkpt>
      <trkpt lat="45.95232" lon="4.87738">
        <ele>280</ele>
        <time>2018-11-11T11:03:53Z</time>
      </trkpt>
      <trkpt lat="45.9523" lon="4.8773">
        <ele>280</ele>
        <time>2018-11-11T11:03:54Z</time>
      </trkpt>
      <trkpt lat="45.95229" lon="4.87723">
        <ele>280</ele>
        <time>2018-11-11T11:03:55Z</time>
      </trkpt>
      <trkpt lat="45.95228" lon="4.87711">
        <ele>279</ele>
        <time>2018-11-11T11:03:57Z</time>
      </trkpt>
      <trkpt lat="45.95227" lon="4.87703">
        <ele>279</ele>
        <time>2018-11-11T11:03:58Z</time>
      </trkpt>
      <trkpt lat="45.95226" lon="4.87695">
        <ele>279</ele>
        <time>2018-11-11T11:03:59Z</time>
      </trkpt>
      <trkpt lat="45.95224" lon="4.87687">
        <ele>279</ele>
        <time>2018-11-11T11:04:00Z</time>
      </trkpt>
      <trkpt lat="45.95224" lon="4.87679">
        <ele>278</ele>
        <time>2018-11-11T11:04:01Z</time>
      </trkpt>
      <trkpt lat="45.95222" lon="4.87671">
        <ele>278</ele>
        <time>2018-11-11T11:04:02Z</time>
      </trkpt>
      <trkpt lat="45.9522" lon="4.87661">
        <ele>276</ele>
        <time>2018-11-11T11:04:03Z</time>
      </trkpt>
      <trkpt lat="45.95218" lon="4.8765">
        <ele>276</ele>
        <time>2018-11-11T11:04:04Z</time>
      </trkpt>
      <trkpt lat="45.95216" lon="4.8764">
        <ele>276</ele>
        <time>2018-11-11T11:04:05Z</time>
      </trkpt>
      <trkpt lat="45.95215" lon="4.8763">
        <ele>276</ele>
        <time>2018-11-11T11:04:06Z</time>
      </trkpt>
      <trkpt lat="45.95214" lon="4.87619">
        <ele>276</ele>
        <time>2018-11-11T11:04:07Z</time>
      </trkpt>
      <trkpt lat="45.95213" lon="4.87609">
        <ele>276</ele>
        <time>2018-11-11T11:04:08Z</time>
      </trkpt>
      <trkpt lat="45.95212" lon="4.87598">
        <ele>276</ele>
        <time>2018-11-11T11:04:09Z</time>
      </trkpt>
      <trkpt lat="45.95212" lon="4.87587">
        <ele>276</ele>
        <time>2018-11-11T11:04:10Z</time>
      </trkpt>
      <trkpt lat="45.95211" lon="4.87576">
        <ele>274</ele>
        <time>2018-11-11T11:04:11Z</time>
      </trkpt>
      <trkpt lat="45.9521" lon="4.87565">
        <ele>274</ele>
        <time>2018-11-11T11:04:12Z</time>
      </trkpt>
      <trkpt lat="45.9521" lon="4.87554">
        <ele>274</ele>
        <time>2018-11-11T11:04:13Z</time>
      </trkpt>
      <trkpt lat="45.95208" lon="4.87543">
        <ele>274</ele>
        <time>2018-11-11T11:04:14Z</time>
      </trkpt>
      <trkpt lat="45.95205" lon="4.87531">
        <ele>274</ele>
        <time>2018-11-11T11:04:15Z</time>
      </trkpt>
      <trkpt lat="45.95203" lon="4.8752">
        <ele>273</ele>
        <time>2018-11-11T11:04:16Z</time>
      </trkpt>
      <trkpt lat="45.95201" lon="4.87509">
        <ele>273</ele>
        <time>2018-11-11T11:04:17Z</time>
      </trkpt>
      <trkpt lat="45.95198" lon="4.87499">
        <ele>272</ele>
        <time>2018-11-11T11:04:18Z</time>
      </trkpt>
      <trkpt lat="45.95196" lon="4.87488">
        <ele>272</ele>
        <time>2018-11-11T11:04:19Z</time>
      </trkpt>
      <trkpt lat="45.95193" lon="4.87478">
        <ele>272</ele>
        <time>2018-11-11T11:04:20Z</time>
      </trkpt>
      <trkpt lat="45.9519" lon="4.87468">
        <ele>272</ele>
        <time>2018-11-11T11:04:21Z</time>
      </trkpt>
      <trkpt lat="45.95188" lon="4.87459">
        <ele>272</ele>
        <time>2018-11-11T11:04:22Z</time>
      </trkpt>
      <trkpt lat="45.95185" lon="4.87451">
        <ele>272</ele>
        <time>2018-11-11T11:04:23Z</time>
      </trkpt>
      <trkpt lat="45.95183" lon="4.87441">
        <ele>272</ele>
        <time>2018-11-11T11:04:24Z</time>
      </trkpt>
      <trkpt lat="45.9518" lon="4.87432">
        <ele>271</ele>
        <time>2018-11-11T11:04:25Z</time>
      </trkpt>
      <trkpt lat="45.95178" lon="4.87423">
        <ele>271</ele>
        <time>2018-11-11T11:04:26Z</time>
      </trkpt>
      <trkpt lat="45.95177" lon="4.87415">
        <ele>271</ele>
        <time>2018-11-11T11:04:27Z</time>
      </trkpt>
      <trkpt lat="45.95175" lon="4.87407">
        <ele>271</ele>
        <time>2018-11-11T11:04:28Z</time>
      </trkpt>
      <trkpt lat="45.95173" lon="4.87395">
        <ele>271</ele>
        <time>2018-11-11T11:04:30Z</time>
      </trkpt>
      <trkpt lat="45.95172" lon="4.87389">
        <ele>271</ele>
        <time>2018-11-11T11:04:31Z</time>
      </trkpt>
      <trkpt lat="45.95171" lon="4.87383">
        <ele>271</ele>
        <time>2018-11-11T11:04:32Z</time>
      </trkpt>
      <trkpt lat="45.9517" lon="4.87376">
        <ele>271</ele>
        <time>2018-11-11T11:04:33Z</time>
      </trkpt>
      <trkpt lat="45.95168" lon="4.87368">
        <ele>271</ele>
        <time>2018-11-11T11:04:34Z</time>
      </trkpt>
      <trkpt lat="45.95166" lon="4.8736">
        <ele>272</ele>
        <time>2018-11-11T11:04:35Z</time>
      </trkpt>
      <trkpt lat="45.95165" lon="4.87351">
        <ele>272</ele>
        <time>2018-11-11T11:04:36Z</time>
      </trkpt>
      <trkpt lat="45.95163" lon="4.87344">
        <ele>272</ele>
        <time>2018-11-11T11:04:37Z</time>
      </trkpt>
      <trkpt lat="45.95161" lon="4.87336">
        <ele>272</ele>
        <time>2018-11-11T11:04:38Z</time>
      </trkpt>
      <trkpt lat="45.9516" lon="4.87329">
        <ele>272</ele>
        <time>2018-11-11T11:04:39Z</time>
      </trkpt>
      <trkpt lat="45.95158" lon="4.87322">
        <ele>273</ele>
        <time>2018-11-11T11:04:40Z</time>
      </trkpt>
      <trkpt lat="45.95157" lon="4.87314">
        <ele>273</ele>
        <time>2018-11-11T11:04:41Z</time>
      </trkpt>
      <trkpt lat="45.95155" lon="4.87306">
        <ele>273</ele>
        <time>2018-11-11T11:04:42Z</time>
      </trkpt>
      <trkpt lat="45.95153" lon="4.87299">
        <ele>274</ele>
        <time>2018-11-11T11:04:43Z</time>
      </trkpt>
      <trkpt lat="45.95152" lon="4.87292">
        <ele>274</ele>
        <time>2018-11-11T11:04:44Z</time>
      </trkpt>
      <trkpt lat="45.95151" lon="4.87286">
        <ele>274</ele>
        <time>2018-11-11T11:04:45Z</time>
      </trkpt>
      <trkpt lat="45.95149" lon="4.87279">
        <ele>274</ele>
        <time>2018-11-11T11:04:46Z</time>
      </trkpt>
      <trkpt lat="45.95148" lon="4.87272">
        <ele>274</ele>
        <time>2018-11-11T11:04:47Z</time>
      </trkpt>
      <trkpt lat="45.95146" lon="4.87265">
        <ele>274</ele>
        <time>2018-11-11T11:04:48Z</time>
      </trkpt>
      <trkpt lat="45.95144" lon="4.87259">
        <ele>274</ele>
        <time>2018-11-11T11:04:49Z</time>
      </trkpt>
      <trkpt lat="45.95142" lon="4.87247">
        <ele>275</ele>
        <time>2018-11-11T11:04:51Z</time>
      </trkpt>
      <trkpt lat="45.95141" lon="4.87241">
        <ele>275</ele>
        <time>2018-11-11T11:04:52Z</time>
      </trkpt>
      <trkpt lat="45.95139" lon="4.87235">
        <ele>276</ele>
        <time>2018-11-11T11:04:53Z</time>
      </trkpt>
      <trkpt lat="45.95138" lon="4.87228">
        <ele>276</ele>
        <time>2018-11-11T11:04:54Z</time>
      </trkpt>
      <trkpt lat="45.95137" lon="4.87222">
        <ele>276</ele>
        <time>2018-11-11T11:04:55Z</time>
      </trkpt>
      <trkpt lat="45.95135" lon="4.87216">
        <ele>276</ele>
        <time>2018-11-11T11:04:56Z</time>
      </trkpt>
      <trkpt lat="45.95133" lon="4.87208">
        <ele>276</ele>
        <time>2018-11-11T11:04:57Z</time>
      </trkpt>
      <trkpt lat="45.95132" lon="4.87202">
        <ele>276</ele>
        <time>2018-11-11T11:04:58Z</time>
      </trkpt>
      <trkpt lat="45.95131" lon="4.87189">
        <ele>276</ele>
        <time>2018-11-11T11:05:00Z</time>
      </trkpt>
      <trkpt lat="45.95132" lon="4.87183">
        <ele>276</ele>
        <time>2018-11-11T11:05:01Z</time>
      </trkpt>
      <trkpt lat="45.95127" lon="4.87176">
        <ele>276</ele>
        <time>2018-11-11T11:05:02Z</time>
      </trkpt>
      <trkpt lat="45.95127" lon="4.87169">
        <ele>276</ele>
        <time>2018-11-11T11:05:03Z</time>
      </trkpt>
      <trkpt lat="45.95123" lon="4.87158">
        <ele>276</ele>
        <time>2018-11-11T11:05:05Z</time>
      </trkpt>
      <trkpt lat="45.95121" lon="4.87151">
        <ele>276</ele>
        <time>2018-11-11T11:05:06Z</time>
      </trkpt>
      <trkpt lat="45.95119" lon="4.87139">
        <ele>276</ele>
        <time>2018-11-11T11:05:08Z</time>
      </trkpt>
      <trkpt lat="45.95116" lon="4.87132">
        <ele>277</ele>
        <time>2018-11-11T11:05:09Z</time>
      </trkpt>
      <trkpt lat="45.95115" lon="4.87125">
        <ele>277</ele>
        <time>2018-11-11T11:05:10Z</time>
      </trkpt>
      <trkpt lat="45.95113" lon="4.87118">
        <ele>277</ele>
        <time>2018-11-11T11:05:11Z</time>
      </trkpt>
      <trkpt lat="45.9511" lon="4.87111">
        <ele>277</ele>
        <time>2018-11-11T11:05:12Z</time>
      </trkpt>
      <trkpt lat="45.95108" lon="4.87104">
        <ele>277</ele>
        <time>2018-11-11T11:05:13Z</time>
      </trkpt>
      <trkpt lat="45.95106" lon="4.87099">
        <ele>277</ele>
        <time>2018-11-11T11:05:14Z</time>
      </trkpt>
      <trkpt lat="45.95105" lon="4.87092">
        <ele>277</ele>
        <time>2018-11-11T11:05:15Z</time>
      </trkpt>
      <trkpt lat="45.95103" lon="4.87084">
        <ele>277</ele>
        <time>2018-11-11T11:05:16Z</time>
      </trkpt>
      <trkpt lat="45.95101" lon="4.87078">
        <ele>277</ele>
        <time>2018-11-11T11:05:17Z</time>
      </trkpt>
      <trkpt lat="45.95097" lon="4.87072">
        <ele>277</ele>
        <time>2018-11-11T11:05:18Z</time>
      </trkpt>
      <trkpt lat="45.95094" lon="4.87065">
        <ele>277</ele>
        <time>2018-11-11T11:05:19Z</time>
      </trkpt>
      <trkpt lat="45.95092" lon="4.87059">
        <ele>277</ele>
        <time>2018-11-11T11:05:20Z</time>
      </trkpt>
      <trkpt lat="45.95089" lon="4.87054">
        <ele>277</ele>
        <time>2018-11-11T11:05:21Z</time>
      </trkpt>
      <trkpt lat="45.95085" lon="4.87048">
        <ele>277</ele>
        <time>2018-11-11T11:05:22Z</time>
      </trkpt>
      <trkpt lat="45.95082" lon="4.87042">
        <ele>277</ele>
        <time>2018-11-11T11:05:23Z</time>
      </trkpt>
      <trkpt lat="45.95079" lon="4.87037">
        <ele>277</ele>
        <time>2018-11-11T11:05:24Z</time>
      </trkpt>
      <trkpt lat="45.95076" lon="4.87031">
        <ele>277</ele>
        <time>2018-11-11T11:05:25Z</time>
      </trkpt>
      <trkpt lat="45.95073" lon="4.87026">
        <ele>277</ele>
        <time>2018-11-11T11:05:26Z</time>
      </trkpt>
      <trkpt lat="45.9507" lon="4.8702">
        <ele>277</ele>
        <time>2018-11-11T11:05:27Z</time>
      </trkpt>
      <trkpt lat="45.95066" lon="4.8701">
        <ele>277</ele>
        <time>2018-11-11T11:05:29Z</time>
      </trkpt>
      <trkpt lat="45.95064" lon="4.87004">
        <ele>277</ele>
        <time>2018-11-11T11:05:30Z</time>
      </trkpt>
      <trkpt lat="45.95061" lon="4.86999">
        <ele>276</ele>
        <time>2018-11-11T11:05:31Z</time>
      </trkpt>
      <trkpt lat="45.95058" lon="4.86993">
        <ele>276</ele>
        <time>2018-11-11T11:05:32Z</time>
      </trkpt>
      <trkpt lat="45.95055" lon="4.86987">
        <ele>276</ele>
        <time>2018-11-11T11:05:33Z</time>
      </trkpt>
      <trkpt lat="45.95053" lon="4.86981">
        <ele>276</ele>
        <time>2018-11-11T11:05:34Z</time>
      </trkpt>
      <trkpt lat="45.9505" lon="4.86975">
        <ele>276</ele>
        <time>2018-11-11T11:05:35Z</time>
      </trkpt>
      <trkpt lat="45.95048" lon="4.8697">
        <ele>276</ele>
        <time>2018-11-11T11:05:36Z</time>
      </trkpt>
      <trkpt lat="45.95045" lon="4.86963">
        <ele>276</ele>
        <time>2018-11-11T11:05:37Z</time>
      </trkpt>
      <trkpt lat="45.95044" lon="4.86957">
        <ele>276</ele>
        <time>2018-11-11T11:05:38Z</time>
      </trkpt>
      <trkpt lat="45.95042" lon="4.86951">
        <ele>276</ele>
        <time>2018-11-11T11:05:39Z</time>
      </trkpt>
      <trkpt lat="45.95041" lon="4.86944">
        <ele>276</ele>
        <time>2018-11-11T11:05:40Z</time>
      </trkpt>
      <trkpt lat="45.95039" lon="4.86932">
        <ele>276</ele>
        <time>2018-11-11T11:05:42Z</time>
      </trkpt>
      <trkpt lat="45.95037" lon="4.86925">
        <ele>276</ele>
        <time>2018-11-11T11:05:43Z</time>
      </trkpt>
      <trkpt lat="45.95033" lon="4.86914">
        <ele>275</ele>
        <time>2018-11-11T11:05:45Z</time>
      </trkpt>
      <trkpt lat="45.9503" lon="4.86908">
        <ele>275</ele>
        <time>2018-11-11T11:05:46Z</time>
      </trkpt>
      <trkpt lat="45.95028" lon="4.86902">
        <ele>275</ele>
        <time>2018-11-11T11:05:47Z</time>
      </trkpt>
      <trkpt lat="45.95026" lon="4.86895">
        <ele>275</ele>
        <time>2018-11-11T11:05:48Z</time>
      </trkpt>
      <trkpt lat="45.95024" lon="4.86889">
        <ele>275</ele>
        <time>2018-11-11T11:05:49Z</time>
      </trkpt>
      <trkpt lat="45.95021" lon="4.86882">
        <ele>275</ele>
        <time>2018-11-11T11:05:50Z</time>
      </trkpt>
      <trkpt lat="45.95018" lon="4.86876">
        <ele>275</ele>
        <time>2018-11-11T11:05:51Z</time>
      </trkpt>
      <trkpt lat="45.95016" lon="4.86869">
        <ele>275</ele>
        <time>2018-11-11T11:05:52Z</time>
      </trkpt>
      <trkpt lat="45.95014" lon="4.86862">
        <ele>275</ele>
        <time>2018-11-11T11:05:53Z</time>
      </trkpt>
      <trkpt lat="45.95012" lon="4.86854">
        <ele>275</ele>
        <time>2018-11-11T11:05:54Z</time>
      </trkpt>
      <trkpt lat="45.95009" lon="4.86847">
        <ele>275</ele>
        <time>2018-11-11T11:05:55Z</time>
      </trkpt>
      <trkpt lat="45.95007" lon="4.8684">
        <ele>276</ele>
        <time>2018-11-11T11:05:56Z</time>
      </trkpt>
      <trkpt lat="45.95004" lon="4.86834">
        <ele>276</ele>
        <time>2018-11-11T11:05:57Z</time>
      </trkpt>
      <trkpt lat="45.95001" lon="4.86827">
        <ele>276</ele>
        <time>2018-11-11T11:05:58Z</time>
      </trkpt>
      <trkpt lat="45.94998" lon="4.86821">
        <ele>276</ele>
        <time>2018-11-11T11:05:59Z</time>
      </trkpt>
      <trkpt lat="45.94995" lon="4.86815">
        <ele>276</ele>
        <time>2018-11-11T11:06:00Z</time>
      </trkpt>
      <trkpt lat="45.94992" lon="4.86809">
        <ele>276</ele>
        <time>2018-11-11T11:06:01Z</time>
      </trkpt>
      <trkpt lat="45.9499" lon="4.86802">
        <ele>276</ele>
        <time>2018-11-11T11:06:02Z</time>
      </trkpt>
      <trkpt lat="45.94987" lon="4.86798">
        <ele>276</ele>
        <time>2018-11-11T11:06:03Z</time>
      </trkpt>
      <trkpt lat="45.94984" lon="4.86792">
        <ele>276</ele>
        <time>2018-11-11T11:06:04Z</time>
      </trkpt>
      <trkpt lat="45.94978" lon="4.86782">
        <ele>275</ele>
        <time>2018-11-11T11:06:06Z</time>
      </trkpt>
      <trkpt lat="45.94976" lon="4.86779">
        <ele>275</ele>
        <time>2018-11-11T11:06:07Z</time>
      </trkpt>
      <trkpt lat="45.94973" lon="4.86773">
        <ele>275</ele>
        <time>2018-11-11T11:06:08Z</time>
      </trkpt>
      <trkpt lat="45.94971" lon="4.86767">
        <ele>275</ele>
        <time>2018-11-11T11:06:09Z</time>
      </trkpt>
      <trkpt lat="45.94967" lon="4.8676">
        <ele>275</ele>
        <time>2018-11-11T11:06:10Z</time>
      </trkpt>
      <trkpt lat="45.94964" lon="4.86753">
        <ele>275</ele>
        <time>2018-11-11T11:06:11Z</time>
      </trkpt>
      <trkpt lat="45.94962" lon="4.86746">
        <ele>275</ele>
        <time>2018-11-11T11:06:12Z</time>
      </trkpt>
      <trkpt lat="45.94958" lon="4.8674">
        <ele>275</ele>
        <time>2018-11-11T11:06:13Z</time>
      </trkpt>
      <trkpt lat="45.94956" lon="4.86735">
        <ele>275</ele>
        <time>2018-11-11T11:06:14Z</time>
      </trkpt>
      <trkpt lat="45.94953" lon="4.86728">
        <ele>275</ele>
        <time>2018-11-11T11:06:15Z</time>
      </trkpt>
      <trkpt lat="45.94951" lon="4.86721">
        <ele>275</ele>
        <time>2018-11-11T11:06:16Z</time>
      </trkpt>
      <trkpt lat="45.94949" lon="4.86714">
        <ele>275</ele>
        <time>2018-11-11T11:06:17Z</time>
      </trkpt>
      <trkpt lat="45.94948" lon="4.86707">
        <ele>275</ele>
        <time>2018-11-11T11:06:18Z</time>
      </trkpt>
      <trkpt lat="45.94946" lon="4.86701">
        <ele>275</ele>
        <time>2018-11-11T11:06:19Z</time>
      </trkpt>
      <trkpt lat="45.94944" lon="4.86689">
        <ele>276</ele>
        <time>2018-11-11T11:06:21Z</time>
      </trkpt>
      <trkpt lat="45.94943" lon="4.86683">
        <ele>276</ele>
        <time>2018-11-11T11:06:22Z</time>
      </trkpt>
      <trkpt lat="45.94943" lon="4.8667">
        <ele>276</ele>
        <time>2018-11-11T11:06:24Z</time>
      </trkpt>
      <trkpt lat="45.94944" lon="4.86663">
        <ele>276</ele>
        <time>2018-11-11T11:06:25Z</time>
      </trkpt>
      <trkpt lat="45.94945" lon="4.86657">
        <ele>276</ele>
        <time>2018-11-11T11:06:26Z</time>
      </trkpt>
      <trkpt lat="45.94947" lon="4.8665">
        <ele>276</ele>
        <time>2018-11-11T11:06:27Z</time>
      </trkpt>
      <trkpt lat="45.94951" lon="4.86639">
        <ele>276</ele>
        <time>2018-11-11T11:06:29Z</time>
      </trkpt>
      <trkpt lat="45.94954" lon="4.86635">
        <ele>276</ele>
        <time>2018-11-11T11:06:30Z</time>
      </trkpt>
      <trkpt lat="45.94957" lon="4.8663">
        <ele>276</ele>
        <time>2018-11-11T11:06:31Z</time>
      </trkpt>
      <trkpt lat="45.94961" lon="4.86626">
        <ele>275</ele>
        <time>2018-11-11T11:06:32Z</time>
      </trkpt>
      <trkpt lat="45.94965" lon="4.86624">
        <ele>275</ele>
        <time>2018-11-11T11:06:33Z</time>
      </trkpt>
      <trkpt lat="45.9497" lon="4.86622">
        <ele>275</ele>
        <time>2018-11-11T11:06:34Z</time>
      </trkpt>
      <trkpt lat="45.94978" lon="4.86618">
        <ele>275</ele>
        <time>2018-11-11T11:06:36Z</time>
      </trkpt>
      <trkpt lat="45.94982" lon="4.86616">
        <ele>275</ele>
        <time>2018-11-11T11:06:37Z</time>
      </trkpt>
      <trkpt lat="45.94987" lon="4.86614">
        <ele>275</ele>
        <time>2018-11-11T11:06:38Z</time>
      </trkpt>
      <trkpt lat="45.94993" lon="4.86614">
        <ele>275</ele>
        <time>2018-11-11T11:06:39Z</time>
      </trkpt>
      <trkpt lat="45.94998" lon="4.86613">
        <ele>275</ele>
        <time>2018-11-11T11:06:40Z</time>
      </trkpt>
      <trkpt lat="45.95004" lon="4.8661">
        <ele>273</ele>
        <time>2018-11-11T11:06:41Z</time>
      </trkpt>
      <trkpt lat="45.95009" lon="4.8661">
        <ele>273</ele>
        <time>2018-11-11T11:06:42Z</time>
      </trkpt>
      <trkpt lat="45.95015" lon="4.8661">
        <ele>273</ele>
        <time>2018-11-11T11:06:43Z</time>
      </trkpt>
      <trkpt lat="45.95021" lon="4.86609">
        <ele>273</ele>
        <time>2018-11-11T11:06:44Z</time>
      </trkpt>
      <trkpt lat="45.95026" lon="4.86608">
        <ele>273</ele>
        <time>2018-11-11T11:06:45Z</time>
      </trkpt>
      <trkpt lat="45.95032" lon="4.86608">
        <ele>273</ele>
        <time>2018-11-11T11:06:46Z</time>
      </trkpt>
      <trkpt lat="45.95038" lon="4.86606">
        <ele>273</ele>
        <time>2018-11-11T11:06:47Z</time>
      </trkpt>
      <trkpt lat="45.95045" lon="4.86604">
        <ele>272</ele>
        <time>2018-11-11T11:06:48Z</time>
      </trkpt>
      <trkpt lat="45.95052" lon="4.86603">
        <ele>272</ele>
        <time>2018-11-11T11:06:49Z</time>
      </trkpt>
      <trkpt lat="45.95058" lon="4.86601">
        <ele>272</ele>
        <time>2018-11-11T11:06:50Z</time>
      </trkpt>
      <trkpt lat="45.95066" lon="4.86598">
        <ele>272</ele>
        <time>2018-11-11T11:06:51Z</time>
      </trkpt>
      <trkpt lat="45.95072" lon="4.86596">
        <ele>272</ele>
        <time>2018-11-11T11:06:52Z</time>
      </trkpt>
      <trkpt lat="45.9508" lon="4.86593">
        <ele>271</ele>
        <time>2018-11-11T11:06:53Z</time>
      </trkpt>
      <trkpt lat="45.95088" lon="4.86592">
        <ele>271</ele>
        <time>2018-11-11T11:06:54Z</time>
      </trkpt>
      <trkpt lat="45.95096" lon="4.86589">
        <ele>271</ele>
        <time>2018-11-11T11:06:55Z</time>
      </trkpt>
      <trkpt lat="45.95103" lon="4.86588">
        <ele>271</ele>
        <time>2018-11-11T11:06:56Z</time>
      </trkpt>
      <trkpt lat="45.95111" lon="4.86587">
        <ele>271</ele>
        <time>2018-11-11T11:06:57Z</time>
      </trkpt>
      <trkpt lat="45.95119" lon="4.86585">
        <ele>270</ele>
        <time>2018-11-11T11:06:58Z</time>
      </trkpt>
      <trkpt lat="45.95126" lon="4.86585">
        <ele>270</ele>
        <time>2018-11-11T11:06:59Z</time>
      </trkpt>
      <trkpt lat="45.95134" lon="4.86584">
        <ele>270</ele>
        <time>2018-11-11T11:07:00Z</time>
      </trkpt>
      <trkpt lat="45.95141" lon="4.86583">
        <ele>270</ele>
        <time>2018-11-11T11:07:01Z</time>
      </trkpt>
      <trkpt lat="45.9515" lon="4.86579">
        <ele>270</ele>
        <time>2018-11-11T11:07:02Z</time>
      </trkpt>
      <trkpt lat="45.95158" lon="4.86579">
        <ele>269</ele>
        <time>2018-11-11T11:07:03Z</time>
      </trkpt>
      <trkpt lat="45.95166" lon="4.86578">
        <ele>269</ele>
        <time>2018-11-11T11:07:04Z</time>
      </trkpt>
      <trkpt lat="45.95173" lon="4.86577">
        <ele>269</ele>
        <time>2018-11-11T11:07:05Z</time>
      </trkpt>
      <trkpt lat="45.95181" lon="4.86575">
        <ele>269</ele>
        <time>2018-11-11T11:07:06Z</time>
      </trkpt>
      <trkpt lat="45.95188" lon="4.86575">
        <ele>269</ele>
        <time>2018-11-11T11:07:07Z</time>
      </trkpt>
      <trkpt lat="45.95194" lon="4.86574">
        <ele>268</ele>
        <time>2018-11-11T11:07:08Z</time>
      </trkpt>
      <trkpt lat="45.95201" lon="4.86574">
        <ele>268</ele>
        <time>2018-11-11T11:07:09Z</time>
      </trkpt>
      <trkpt lat="45.95208" lon="4.86575">
        <ele>268</ele>
        <time>2018-11-11T11:07:10Z</time>
      </trkpt>
      <trkpt lat="45.95215" lon="4.86577">
        <ele>268</ele>
        <time>2018-11-11T11:07:11Z</time>
      </trkpt>
      <trkpt lat="45.95222" lon="4.86578">
        <ele>268</ele>
        <time>2018-11-11T11:07:12Z</time>
      </trkpt>
      <trkpt lat="45.95227" lon="4.8658">
        <ele>268</ele>
        <time>2018-11-11T11:07:13Z</time>
      </trkpt>
      <trkpt lat="45.95233" lon="4.86581">
        <ele>268</ele>
        <time>2018-11-11T11:07:14Z</time>
      </trkpt>
      <trkpt lat="45.95238" lon="4.86583">
        <ele>268</ele>
        <time>2018-11-11T11:07:15Z</time>
      </trkpt>
      <trkpt lat="45.95244" lon="4.86583">
        <ele>268</ele>
        <time>2018-11-11T11:07:16Z</time>
      </trkpt>
      <trkpt lat="45.9525" lon="4.86583">
        <ele>268</ele>
        <time>2018-11-11T11:07:17Z</time>
      </trkpt>
      <trkpt lat="45.95254" lon="4.8658">
        <ele>268</ele>
        <time>2018-11-11T11:07:18Z</time>
      </trkpt>
      <trkpt lat="45.95262" lon="4.86576">
        <ele>267</ele>
        <time>2018-11-11T11:07:21Z</time>
      </trkpt>
      <trkpt lat="45.95264" lon="4.86576">
        <ele>267</ele>
        <time>2018-11-11T11:07:22Z</time>
      </trkpt>
      <trkpt lat="45.95267" lon="4.86566">
        <ele>267</ele>
        <time>2018-11-11T11:07:26Z</time>
      </trkpt>
      <trkpt lat="45.95265" lon="4.8656">
        <ele>267</ele>
        <time>2018-11-11T11:07:27Z</time>
      </trkpt>
      <trkpt lat="45.95259" lon="4.86552">
        <ele>267</ele>
        <time>2018-11-11T11:07:29Z</time>
      </trkpt>
      <trkpt lat="45.95256" lon="4.86548">
        <ele>267</ele>
        <time>2018-11-11T11:07:30Z</time>
      </trkpt>
      <trkpt lat="45.95248" lon="4.86541">
        <ele>268</ele>
        <time>2018-11-11T11:07:32Z</time>
      </trkpt>
      <trkpt lat="45.95247" lon="4.8654">
        <ele>268</ele>
        <time>2018-11-11T11:07:33Z</time>
      </trkpt>
      <trkpt lat="45.95241" lon="4.86531">
        <ele>268</ele>
        <time>2018-11-11T11:07:34Z</time>
      </trkpt>
      <trkpt lat="45.95238" lon="4.86527">
        <ele>268</ele>
        <time>2018-11-11T11:07:35Z</time>
      </trkpt>
      <trkpt lat="45.95234" lon="4.86523">
        <ele>268</ele>
        <time>2018-11-11T11:07:36Z</time>
      </trkpt>
      <trkpt lat="45.95229" lon="4.86517">
        <ele>268</ele>
        <time>2018-11-11T11:07:37Z</time>
      </trkpt>
      <trkpt lat="45.95224" lon="4.86509">
        <ele>268</ele>
        <time>2018-11-11T11:07:39Z</time>
      </trkpt>
      <trkpt lat="45.95221" lon="4.86505">
        <ele>268</ele>
        <time>2018-11-11T11:07:40Z</time>
      </trkpt>
      <trkpt lat="45.95216" lon="4.86498">
        <ele>268</ele>
        <time>2018-11-11T11:07:42Z</time>
      </trkpt>
      <trkpt lat="45.95214" lon="4.86494">
        <ele>268</ele>
        <time>2018-11-11T11:07:43Z</time>
      </trkpt>
      <trkpt lat="45.95208" lon="4.86488">
        <ele>268</ele>
        <time>2018-11-11T11:07:45Z</time>
      </trkpt>
      <trkpt lat="45.95206" lon="4.86486">
        <ele>268</ele>
        <time>2018-11-11T11:07:46Z</time>
      </trkpt>
      <trkpt lat="45.95199" lon="4.86479">
        <ele>268</ele>
        <time>2018-11-11T11:07:49Z</time>
      </trkpt>
      <trkpt lat="45.95197" lon="4.86477">
        <ele>268</ele>
        <time>2018-11-11T11:07:50Z</time>
      </trkpt>
      <trkpt lat="45.9519" lon="4.86469">
        <ele>268</ele>
        <time>2018-11-11T11:07:53Z</time>
      </trkpt>
      <trkpt lat="45.95188" lon="4.86466">
        <ele>268</ele>
        <time>2018-11-11T11:07:54Z</time>
      </trkpt>
      <trkpt lat="45.95182" lon="4.86459">
        <ele>268</ele>
        <time>2018-11-11T11:07:57Z</time>
      </trkpt>
      <trkpt lat="45.9518" lon="4.86456">
        <ele>268</ele>
        <time>2018-11-11T11:07:58Z</time>
      </trkpt>
      <trkpt lat="45.95173" lon="4.86448">
        <ele>268</ele>
        <time>2018-11-11T11:08:01Z</time>
      </trkpt>
      <trkpt lat="45.95171" lon="4.86445">
        <ele>267</ele>
        <time>2018-11-11T11:08:02Z</time>
      </trkpt>
      <trkpt lat="45.95165" lon="4.86438">
        <ele>268</ele>
        <time>2018-11-11T11:08:04Z</time>
      </trkpt>
      <trkpt lat="45.95163" lon="4.86435">
        <ele>268</ele>
        <time>2018-11-11T11:08:05Z</time>
      </trkpt>
      <trkpt lat="45.95158" lon="4.8643">
        <ele>268</ele>
        <time>2018-11-11T11:08:07Z</time>
      </trkpt>
      <trkpt lat="45.95153" lon="4.86424">
        <ele>268</ele>
        <time>2018-11-11T11:08:08Z</time>
      </trkpt>
      <trkpt lat="45.95148" lon="4.86419">
        <ele>268</ele>
        <time>2018-11-11T11:08:10Z</time>
      </trkpt>
      <trkpt lat="45.95145" lon="4.86415">
        <ele>268</ele>
        <time>2018-11-11T11:08:11Z</time>
      </trkpt>
      <trkpt lat="45.9514" lon="4.86409">
        <ele>268</ele>
        <time>2018-11-11T11:08:13Z</time>
      </trkpt>
      <trkpt lat="45.95137" lon="4.86405">
        <ele>268</ele>
        <time>2018-11-11T11:08:14Z</time>
      </trkpt>
      <trkpt lat="45.95132" lon="4.864">
        <ele>268</ele>
        <time>2018-11-11T11:08:16Z</time>
      </trkpt>
      <trkpt lat="45.9513" lon="4.86397">
        <ele>268</ele>
        <time>2018-11-11T11:08:17Z</time>
      </trkpt>
      <trkpt lat="45.95124" lon="4.8639">
        <ele>269</ele>
        <time>2018-11-11T11:08:19Z</time>
      </trkpt>
      <trkpt lat="45.9512" lon="4.86385">
        <ele>269</ele>
        <time>2018-11-11T11:08:20Z</time>
      </trkpt>
      <trkpt lat="45.95114" lon="4.86378">
        <ele>269</ele>
        <time>2018-11-11T11:08:22Z</time>
      </trkpt>
      <trkpt lat="45.95111" lon="4.86374">
        <ele>269</ele>
        <time>2018-11-11T11:08:23Z</time>
      </trkpt>
      <trkpt lat="45.95106" lon="4.86368">
        <ele>269</ele>
        <time>2018-11-11T11:08:25Z</time>
      </trkpt>
      <trkpt lat="45.95103" lon="4.86364">
        <ele>269</ele>
        <time>2018-11-11T11:08:26Z</time>
      </trkpt>
      <trkpt lat="45.95096" lon="4.86356">
        <ele>269</ele>
        <time>2018-11-11T11:08:29Z</time>
      </trkpt>
      <trkpt lat="45.95094" lon="4.86354">
        <ele>269</ele>
        <time>2018-11-11T11:08:30Z</time>
      </trkpt>
      <trkpt lat="45.95089" lon="4.86347">
        <ele>269</ele>
        <time>2018-11-11T11:08:32Z</time>
      </trkpt>
      <trkpt lat="45.95087" lon="4.86345">
        <ele>269</ele>
        <time>2018-11-11T11:08:33Z</time>
      </trkpt>
      <trkpt lat="45.95081" lon="4.86338">
        <ele>269</ele>
        <time>2018-11-11T11:08:35Z</time>
      </trkpt>
      <trkpt lat="45.95079" lon="4.86335">
        <ele>269</ele>
        <time>2018-11-11T11:08:36Z</time>
      </trkpt>
      <trkpt lat="45.95074" lon="4.8633">
        <ele>270</ele>
        <time>2018-11-11T11:08:38Z</time>
      </trkpt>
      <trkpt lat="45.95071" lon="4.86327">
        <ele>270</ele>
        <time>2018-11-11T11:08:39Z</time>
      </trkpt>
      <trkpt lat="45.95065" lon="4.8632">
        <ele>270</ele>
        <time>2018-11-11T11:08:41Z</time>
      </trkpt>
      <trkpt lat="45.95063" lon="4.86317">
        <ele>270</ele>
        <time>2018-11-11T11:08:42Z</time>
      </trkpt>
      <trkpt lat="45.95058" lon="4.86311">
        <ele>271</ele>
        <time>2018-11-11T11:08:44Z</time>
      </trkpt>
      <trkpt lat="45.95055" lon="4.86308">
        <ele>271</ele>
        <time>2018-11-11T11:08:45Z</time>
      </trkpt>
      <trkpt lat="45.9505" lon="4.86302">
        <ele>271</ele>
        <time>2018-11-11T11:08:47Z</time>
      </trkpt>
      <trkpt lat="45.95047" lon="4.86298">
        <ele>271</ele>
        <time>2018-11-11T11:08:48Z</time>
      </trkpt>
      <trkpt lat="45.95042" lon="4.86292">
        <ele>271</ele>
        <time>2018-11-11T11:08:50Z</time>
      </trkpt>
      <trkpt lat="45.9504" lon="4.86289">
        <ele>271</ele>
        <time>2018-11-11T11:08:51Z</time>
      </trkpt>
      <trkpt lat="45.95035" lon="4.86283">
        <ele>271</ele>
        <time>2018-11-11T11:08:53Z</time>
      </trkpt>
      <trkpt lat="45.95033" lon="4.8628">
        <ele>271</ele>
        <time>2018-11-11T11:08:54Z</time>
      </trkpt>
      <trkpt lat="45.95027" lon="4.86274">
        <ele>271</ele>
        <time>2018-11-11T11:08:56Z</time>
      </trkpt>
      <trkpt lat="45.95025" lon="4.86271">
        <ele>271</ele>
        <time>2018-11-11T11:08:57Z</time>
      </trkpt>
      <trkpt lat="45.9502" lon="4.86265">
        <ele>271</ele>
        <time>2018-11-11T11:08:59Z</time>
      </trkpt>
      <trkpt lat="45.95017" lon="4.86261">
        <ele>271</ele>
        <time>2018-11-11T11:09:00Z</time>
      </trkpt>
      <trkpt lat="45.95012" lon="4.86255">
        <ele>272</ele>
        <time>2018-11-11T11:09:02Z</time>
      </trkpt>
      <trkpt lat="45.9501" lon="4.86252">
        <ele>272</ele>
        <time>2018-11-11T11:09:03Z</time>
      </trkpt>
      <trkpt lat="45.95005" lon="4.86246">
        <ele>272</ele>
        <time>2018-11-11T11:09:05Z</time>
      </trkpt>
      <trkpt lat="45.95003" lon="4.86243">
        <ele>272</ele>
        <time>2018-11-11T11:09:06Z</time>
      </trkpt>
      <trkpt lat="45.94998" lon="4.86237">
        <ele>272</ele>
        <time>2018-11-11T11:09:08Z</time>
      </trkpt>
      <trkpt lat="45.94992" lon="4.8623">
        <ele>272</ele>
        <time>2018-11-11T11:09:09Z</time>
      </trkpt>
      <trkpt lat="45.94989" lon="4.86225">
        <ele>272</ele>
        <time>2018-11-11T11:09:11Z</time>
      </trkpt>
      <trkpt lat="45.94984" lon="4.8622">
        <ele>272</ele>
        <time>2018-11-11T11:09:12Z</time>
      </trkpt>
      <trkpt lat="45.94978" lon="4.86213">
        <ele>272</ele>
        <time>2018-11-11T11:09:15Z</time>
      </trkpt>
      <trkpt lat="45.94973" lon="4.86208">
        <ele>272</ele>
        <time>2018-11-11T11:09:16Z</time>
      </trkpt>
      <trkpt lat="45.94967" lon="4.86201">
        <ele>272</ele>
        <time>2018-11-11T11:09:19Z</time>
      </trkpt>
      <trkpt lat="45.94965" lon="4.86199">
        <ele>272</ele>
        <time>2018-11-11T11:09:20Z</time>
      </trkpt>
      <trkpt lat="45.9496" lon="4.86192">
        <ele>272</ele>
        <time>2018-11-11T11:09:22Z</time>
      </trkpt>
      <trkpt lat="45.94957" lon="4.86188">
        <ele>273</ele>
        <time>2018-11-11T11:09:23Z</time>
      </trkpt>
      <trkpt lat="45.94952" lon="4.86182">
        <ele>273</ele>
        <time>2018-11-11T11:09:25Z</time>
      </trkpt>
      <trkpt lat="45.9495" lon="4.86178">
        <ele>273</ele>
        <time>2018-11-11T11:09:26Z</time>
      </trkpt>
      <trkpt lat="45.94944" lon="4.86172">
        <ele>273</ele>
        <time>2018-11-11T11:09:28Z</time>
      </trkpt>
      <trkpt lat="45.94942" lon="4.8617">
        <ele>273</ele>
        <time>2018-11-11T11:09:29Z</time>
      </trkpt>
      <trkpt lat="45.94937" lon="4.86164">
        <ele>273</ele>
        <time>2018-11-11T11:09:31Z</time>
      </trkpt>
      <trkpt lat="45.94935" lon="4.86161">
        <ele>273</ele>
        <time>2018-11-11T11:09:32Z</time>
      </trkpt>
      <trkpt lat="45.9493" lon="4.86154">
        <ele>273</ele>
        <time>2018-11-11T11:09:34Z</time>
      </trkpt>
      <trkpt lat="45.94928" lon="4.86151">
        <ele>273</ele>
        <time>2018-11-11T11:09:35Z</time>
      </trkpt>
      <trkpt lat="45.94923" lon="4.86143">
        <ele>273</ele>
        <time>2018-11-11T11:09:37Z</time>
      </trkpt>
      <trkpt lat="45.9492" lon="4.86139">
        <ele>273</ele>
        <time>2018-11-11T11:09:38Z</time>
      </trkpt>
      <trkpt lat="45.94916" lon="4.86133">
        <ele>274</ele>
        <time>2018-11-11T11:09:40Z</time>
      </trkpt>
      <trkpt lat="45.94914" lon="4.86128">
        <ele>274</ele>
        <time>2018-11-11T11:09:41Z</time>
      </trkpt>
      <trkpt lat="45.9491" lon="4.86121">
        <ele>274</ele>
        <time>2018-11-11T11:09:43Z</time>
      </trkpt>
      <trkpt lat="45.94907" lon="4.86116">
        <ele>274</ele>
        <time>2018-11-11T11:09:44Z</time>
      </trkpt>
      <trkpt lat="45.94904" lon="4.86109">
        <ele>274</ele>
        <time>2018-11-11T11:09:46Z</time>
      </trkpt>
      <trkpt lat="45.94902" lon="4.86105">
        <ele>274</ele>
        <time>2018-11-11T11:09:47Z</time>
      </trkpt>
      <trkpt lat="45.94898" lon="4.86097">
        <ele>274</ele>
        <time>2018-11-11T11:09:49Z</time>
      </trkpt>
      <trkpt lat="45.94897" lon="4.86092">
        <ele>274</ele>
        <time>2018-11-11T11:09:50Z</time>
      </trkpt>
      <trkpt lat="45.94894" lon="4.86083">
        <ele>274</ele>
        <time>2018-11-11T11:09:52Z</time>
      </trkpt>
      <trkpt lat="45.94892" lon="4.8608">
        <ele>274</ele>
        <time>2018-11-11T11:09:53Z</time>
      </trkpt>
      <trkpt lat="45.94889" lon="4.86071">
        <ele>274</ele>
        <time>2018-11-11T11:09:55Z</time>
      </trkpt>
      <trkpt lat="45.94887" lon="4.86063">
        <ele>274</ele>
        <time>2018-11-11T11:09:56Z</time>
      </trkpt>
      <trkpt lat="45.94885" lon="4.86053">
        <ele>274</ele>
        <time>2018-11-11T11:09:58Z</time>
      </trkpt>
      <trkpt lat="45.94884" lon="4.86049">
        <ele>274</ele>
        <time>2018-11-11T11:09:59Z</time>
      </trkpt>
      <trkpt lat="45.94881" lon="4.86039">
        <ele>274</ele>
        <time>2018-11-11T11:10:01Z</time>
      </trkpt>
      <trkpt lat="45.94879" lon="4.86033">
        <ele>274</ele>
        <time>2018-11-11T11:10:02Z</time>
      </trkpt>
      <trkpt lat="45.94877" lon="4.86023">
        <ele>274</ele>
        <time>2018-11-11T11:10:04Z</time>
      </trkpt>
      <trkpt lat="45.94875" lon="4.86017">
        <ele>274</ele>
        <time>2018-11-11T11:10:05Z</time>
      </trkpt>
      <trkpt lat="45.94873" lon="4.86007">
        <ele>274</ele>
        <time>2018-11-11T11:10:07Z</time>
      </trkpt>
      <trkpt lat="45.94871" lon="4.86001">
        <ele>274</ele>
        <time>2018-11-11T11:10:08Z</time>
      </trkpt>
      <trkpt lat="45.94869" lon="4.85991">
        <ele>275</ele>
        <time>2018-11-11T11:10:10Z</time>
      </trkpt>
      <trkpt lat="45.94868" lon="4.85985">
        <ele>275</ele>
        <time>2018-11-11T11:10:11Z</time>
      </trkpt>
      <trkpt lat="45.94865" lon="4.85975">
        <ele>275</ele>
        <time>2018-11-11T11:10:13Z</time>
      </trkpt>
      <trkpt lat="45.94864" lon="4.85969">
        <ele>275</ele>
        <time>2018-11-11T11:10:14Z</time>
      </trkpt>
      <trkpt lat="45.94861" lon="4.85959">
        <ele>275</ele>
        <time>2018-11-11T11:10:16Z</time>
      </trkpt>
      <trkpt lat="45.9486" lon="4.85954">
        <ele>275</ele>
        <time>2018-11-11T11:10:17Z</time>
      </trkpt>
      <trkpt lat="45.94858" lon="4.85944">
        <ele>275</ele>
        <time>2018-11-11T11:10:19Z</time>
      </trkpt>
      <trkpt lat="45.94856" lon="4.85939">
        <ele>275</ele>
        <time>2018-11-11T11:10:20Z</time>
      </trkpt>
      <trkpt lat="45.94854" lon="4.85929">
        <ele>275</ele>
        <time>2018-11-11T11:10:22Z</time>
      </trkpt>
      <trkpt lat="45.94852" lon="4.85923">
        <ele>275</ele>
        <time>2018-11-11T11:10:23Z</time>
      </trkpt>
      <trkpt lat="45.94849" lon="4.85913">
        <ele>275</ele>
        <time>2018-11-11T11:10:25Z</time>
      </trkpt>
      <trkpt lat="45.94848" lon="4.85908">
        <ele>275</ele>
        <time>2018-11-11T11:10:26Z</time>
      </trkpt>
      <trkpt lat="45.94845" lon="4.85898">
        <ele>276</ele>
        <time>2018-11-11T11:10:28Z</time>
      </trkpt>
      <trkpt lat="45.94843" lon="4.85893">
        <ele>276</ele>
        <time>2018-11-11T11:10:29Z</time>
      </trkpt>
      <trkpt lat="45.94841" lon="4.85882">
        <ele>276</ele>
        <time>2018-11-11T11:10:31Z</time>
      </trkpt>
      <trkpt lat="45.9484" lon="4.85877">
        <ele>276</ele>
        <time>2018-11-11T11:10:32Z</time>
      </trkpt>
      <trkpt lat="45.94837" lon="4.85867">
        <ele>276</ele>
        <time>2018-11-11T11:10:34Z</time>
      </trkpt>
      <trkpt lat="45.94836" lon="4.85864">
        <ele>276</ele>
        <time>2018-11-11T11:10:35Z</time>
      </trkpt>
      <trkpt lat="45.94834" lon="4.85856">
        <ele>276</ele>
        <time>2018-11-11T11:10:37Z</time>
      </trkpt>
      <trkpt lat="45.94832" lon="4.85848">
        <ele>277</ele>
        <time>2018-11-11T11:10:38Z</time>
      </trkpt>
      <trkpt lat="45.94829" lon="4.85838">
        <ele>277</ele>
        <time>2018-11-11T11:10:40Z</time>
      </trkpt>
      <trkpt lat="45.94828" lon="4.85833">
        <ele>277</ele>
        <time>2018-11-11T11:10:41Z</time>
      </trkpt>
      <trkpt lat="45.94825" lon="4.85822">
        <ele>278</ele>
        <time>2018-11-11T11:10:43Z</time>
      </trkpt>
      <trkpt lat="45.94824" lon="4.85817">
        <ele>278</ele>
        <time>2018-11-11T11:10:44Z</time>
      </trkpt>
      <trkpt lat="45.94821" lon="4.85806">
        <ele>278</ele>
        <time>2018-11-11T11:10:46Z</time>
      </trkpt>
      <trkpt lat="45.9482" lon="4.858">
        <ele>278</ele>
        <time>2018-11-11T11:10:47Z</time>
      </trkpt>
      <trkpt lat="45.94817" lon="4.85789">
        <ele>278</ele>
        <time>2018-11-11T11:10:49Z</time>
      </trkpt>
      <trkpt lat="45.94816" lon="4.85784">
        <ele>278</ele>
        <time>2018-11-11T11:10:50Z</time>
      </trkpt>
      <trkpt lat="45.94813" lon="4.85773">
        <ele>278</ele>
        <time>2018-11-11T11:10:52Z</time>
      </trkpt>
      <trkpt lat="45.94812" lon="4.85767">
        <ele>278</ele>
        <time>2018-11-11T11:10:53Z</time>
      </trkpt>
      <trkpt lat="45.94809" lon="4.85756">
        <ele>278</ele>
        <time>2018-11-11T11:10:55Z</time>
      </trkpt>
      <trkpt lat="45.94808" lon="4.85751">
        <ele>278</ele>
        <time>2018-11-11T11:10:56Z</time>
      </trkpt>
      <trkpt lat="45.94805" lon="4.8574">
        <ele>279</ele>
        <time>2018-11-11T11:10:58Z</time>
      </trkpt>
      <trkpt lat="45.94804" lon="4.85735">
        <ele>280</ele>
        <time>2018-11-11T11:10:59Z</time>
      </trkpt>
      <trkpt lat="45.94801" lon="4.85724">
        <ele>280</ele>
        <time>2018-11-11T11:11:01Z</time>
      </trkpt>
      <trkpt lat="45.948" lon="4.85718">
        <ele>280</ele>
        <time>2018-11-11T11:11:02Z</time>
      </trkpt>
      <trkpt lat="45.94797" lon="4.85707">
        <ele>280</ele>
        <time>2018-11-11T11:11:04Z</time>
      </trkpt>
      <trkpt lat="45.94796" lon="4.85701">
        <ele>280</ele>
        <time>2018-11-11T11:11:05Z</time>
      </trkpt>
      <trkpt lat="45.94793" lon="4.8569">
        <ele>280</ele>
        <time>2018-11-11T11:11:07Z</time>
      </trkpt>
      <trkpt lat="45.94791" lon="4.85684">
        <ele>280</ele>
        <time>2018-11-11T11:11:08Z</time>
      </trkpt>
      <trkpt lat="45.94788" lon="4.85673">
        <ele>280</ele>
        <time>2018-11-11T11:11:10Z</time>
      </trkpt>
      <trkpt lat="45.94786" lon="4.85666">
        <ele>281</ele>
        <time>2018-11-11T11:11:11Z</time>
      </trkpt>
      <trkpt lat="45.94784" lon="4.85659">
        <ele>281</ele>
        <time>2018-11-11T11:11:12Z</time>
      </trkpt>
      <trkpt lat="45.94783" lon="4.85653">
        <ele>281</ele>
        <time>2018-11-11T11:11:13Z</time>
      </trkpt>
      <trkpt lat="45.94781" lon="4.85647">
        <ele>281</ele>
        <time>2018-11-11T11:11:14Z</time>
      </trkpt>
      <trkpt lat="45.9478" lon="4.8564">
        <ele>281</ele>
        <time>2018-11-11T11:11:15Z</time>
      </trkpt>
      <trkpt lat="45.94778" lon="4.85632">
        <ele>280</ele>
        <time>2018-11-11T11:11:16Z</time>
      </trkpt>
      <trkpt lat="45.94776" lon="4.85626">
        <ele>280</ele>
        <time>2018-11-11T11:11:17Z</time>
      </trkpt>
      <trkpt lat="45.94775" lon="4.85619">
        <ele>280</ele>
        <time>2018-11-11T11:11:18Z</time>
      </trkpt>
      <trkpt lat="45.94773" lon="4.85611">
        <ele>280</ele>
        <time>2018-11-11T11:11:19Z</time>
      </trkpt>
      <trkpt lat="45.94772" lon="4.85603">
        <ele>280</ele>
        <time>2018-11-11T11:11:20Z</time>
      </trkpt>
      <trkpt lat="45.9477" lon="4.85595">
        <ele>280</ele>
        <time>2018-11-11T11:11:21Z</time>
      </trkpt>
      <trkpt lat="45.94769" lon="4.85587">
        <ele>280</ele>
        <time>2018-11-11T11:11:22Z</time>
      </trkpt>
      <trkpt lat="45.94767" lon="4.85579">
        <ele>279</ele>
        <time>2018-11-11T11:11:23Z</time>
      </trkpt>
      <trkpt lat="45.94765" lon="4.85571">
        <ele>279</ele>
        <time>2018-11-11T11:11:24Z</time>
      </trkpt>
      <trkpt lat="45.94762" lon="4.85562">
        <ele>278</ele>
        <time>2018-11-11T11:11:25Z</time>
      </trkpt>
      <trkpt lat="45.94761" lon="4.85552">
        <ele>278</ele>
        <time>2018-11-11T11:11:26Z</time>
      </trkpt>
      <trkpt lat="45.94759" lon="4.85543">
        <ele>278</ele>
        <time>2018-11-11T11:11:27Z</time>
      </trkpt>
      <trkpt lat="45.94757" lon="4.85534">
        <ele>278</ele>
        <time>2018-11-11T11:11:28Z</time>
      </trkpt>
      <trkpt lat="45.94756" lon="4.85524">
        <ele>277</ele>
        <time>2018-11-11T11:11:29Z</time>
      </trkpt>
      <trkpt lat="45.94754" lon="4.85514">
        <ele>277</ele>
        <time>2018-11-11T11:11:30Z</time>
      </trkpt>
      <trkpt lat="45.94753" lon="4.85503">
        <ele>276</ele>
        <time>2018-11-11T11:11:31Z</time>
      </trkpt>
      <trkpt lat="45.94752" lon="4.85492">
        <ele>276</ele>
        <time>2018-11-11T11:11:32Z</time>
      </trkpt>
      <trkpt lat="45.94751" lon="4.85481">
        <ele>275</ele>
        <time>2018-11-11T11:11:33Z</time>
      </trkpt>
      <trkpt lat="45.94749" lon="4.85471">
        <ele>274</ele>
        <time>2018-11-11T11:11:34Z</time>
      </trkpt>
      <trkpt lat="45.94747" lon="4.8546">
        <ele>274</ele>
        <time>2018-11-11T11:11:35Z</time>
      </trkpt>
      <trkpt lat="45.94746" lon="4.8545">
        <ele>274</ele>
        <time>2018-11-11T11:11:36Z</time>
      </trkpt>
      <trkpt lat="45.94745" lon="4.85437">
        <ele>274</ele>
        <time>2018-11-11T11:11:37Z</time>
      </trkpt>
      <trkpt lat="45.94744" lon="4.85427">
        <ele>273</ele>
        <time>2018-11-11T11:11:38Z</time>
      </trkpt>
      <trkpt lat="45.94743" lon="4.85415">
        <ele>273</ele>
        <time>2018-11-11T11:11:39Z</time>
      </trkpt>
      <trkpt lat="45.94742" lon="4.85404">
        <ele>272</ele>
        <time>2018-11-11T11:11:40Z</time>
      </trkpt>
      <trkpt lat="45.94742" lon="4.85393">
        <ele>272</ele>
        <time>2018-11-11T11:11:41Z</time>
      </trkpt>
      <trkpt lat="45.9474" lon="4.85384">
        <ele>272</ele>
        <time>2018-11-11T11:11:42Z</time>
      </trkpt>
      <trkpt lat="45.94739" lon="4.85374">
        <ele>271</ele>
        <time>2018-11-11T11:11:43Z</time>
      </trkpt>
      <trkpt lat="45.94737" lon="4.85365">
        <ele>271</ele>
        <time>2018-11-11T11:11:44Z</time>
      </trkpt>
      <trkpt lat="45.94736" lon="4.85356">
        <ele>271</ele>
        <time>2018-11-11T11:11:45Z</time>
      </trkpt>
      <trkpt lat="45.94735" lon="4.85347">
        <ele>271</ele>
        <time>2018-11-11T11:11:46Z</time>
      </trkpt>
      <trkpt lat="45.94735" lon="4.85338">
        <ele>271</ele>
        <time>2018-11-11T11:11:47Z</time>
      </trkpt>
      <trkpt lat="45.94733" lon="4.8533">
        <ele>270</ele>
        <time>2018-11-11T11:11:48Z</time>
      </trkpt>
      <trkpt lat="45.94732" lon="4.85322">
        <ele>270</ele>
        <time>2018-11-11T11:11:49Z</time>
      </trkpt>
      <trkpt lat="45.94731" lon="4.85314">
        <ele>270</ele>
        <time>2018-11-11T11:11:50Z</time>
      </trkpt>
      <trkpt lat="45.9473" lon="4.85307">
        <ele>270</ele>
        <time>2018-11-11T11:11:51Z</time>
      </trkpt>
      <trkpt lat="45.94731" lon="4.85299">
        <ele>270</ele>
        <time>2018-11-11T11:11:52Z</time>
      </trkpt>
      <trkpt lat="45.9473" lon="4.85292">
        <ele>269</ele>
        <time>2018-11-11T11:11:53Z</time>
      </trkpt>
      <trkpt lat="45.94729" lon="4.85284">
        <ele>269</ele>
        <time>2018-11-11T11:11:54Z</time>
      </trkpt>
      <trkpt lat="45.94728" lon="4.85275">
        <ele>269</ele>
        <time>2018-11-11T11:11:55Z</time>
      </trkpt>
      <trkpt lat="45.94727" lon="4.85267">
        <ele>269</ele>
        <time>2018-11-11T11:11:56Z</time>
      </trkpt>
      <trkpt lat="45.94726" lon="4.85258">
        <ele>269</ele>
        <time>2018-11-11T11:11:57Z</time>
      </trkpt>
      <trkpt lat="45.94725" lon="4.8525">
        <ele>269</ele>
        <time>2018-11-11T11:11:58Z</time>
      </trkpt>
      <trkpt lat="45.94723" lon="4.85242">
        <ele>269</ele>
        <time>2018-11-11T11:11:59Z</time>
      </trkpt>
      <trkpt lat="45.94722" lon="4.85234">
        <ele>269</ele>
        <time>2018-11-11T11:12:00Z</time>
      </trkpt>
      <trkpt lat="45.94722" lon="4.85226">
        <ele>269</ele>
        <time>2018-11-11T11:12:01Z</time>
      </trkpt>
      <trkpt lat="45.94721" lon="4.8522">
        <ele>269</ele>
        <time>2018-11-11T11:12:02Z</time>
      </trkpt>
      <trkpt lat="45.94721" lon="4.85212">
        <ele>269</ele>
        <time>2018-11-11T11:12:03Z</time>
      </trkpt>
      <trkpt lat="45.94721" lon="4.85204">
        <ele>269</ele>
        <time>2018-11-11T11:12:04Z</time>
      </trkpt>
      <trkpt lat="45.9472" lon="4.85198">
        <ele>269</ele>
        <time>2018-11-11T11:12:05Z</time>
      </trkpt>
      <trkpt lat="45.94718" lon="4.85191">
        <ele>269</ele>
        <time>2018-11-11T11:12:06Z</time>
      </trkpt>
      <trkpt lat="45.94717" lon="4.85183">
        <ele>269</ele>
        <time>2018-11-11T11:12:07Z</time>
      </trkpt>
      <trkpt lat="45.94715" lon="4.85174">
        <ele>269</ele>
        <time>2018-11-11T11:12:08Z</time>
      </trkpt>
      <trkpt lat="45.94715" lon="4.85166">
        <ele>269</ele>
        <time>2018-11-11T11:12:09Z</time>
      </trkpt>
      <trkpt lat="45.94712" lon="4.85158">
        <ele>269</ele>
        <time>2018-11-11T11:12:10Z</time>
      </trkpt>
      <trkpt lat="45.94711" lon="4.85149">
        <ele>269</ele>
        <time>2018-11-11T11:12:11Z</time>
      </trkpt>
      <trkpt lat="45.94711" lon="4.85141">
        <ele>269</ele>
        <time>2018-11-11T11:12:12Z</time>
      </trkpt>
      <trkpt lat="45.9471" lon="4.85133">
        <ele>269</ele>
        <time>2018-11-11T11:12:13Z</time>
      </trkpt>
      <trkpt lat="45.94709" lon="4.85126">
        <ele>269</ele>
        <time>2018-11-11T11:12:14Z</time>
      </trkpt>
      <trkpt lat="45.94709" lon="4.85119">
        <ele>269</ele>
        <time>2018-11-11T11:12:15Z</time>
      </trkpt>
      <trkpt lat="45.94709" lon="4.85112">
        <ele>269</ele>
        <time>2018-11-11T11:12:16Z</time>
      </trkpt>
      <trkpt lat="45.94708" lon="4.85105">
        <ele>269</ele>
        <time>2018-11-11T11:12:17Z</time>
      </trkpt>
      <trkpt lat="45.94707" lon="4.85098">
        <ele>269</ele>
        <time>2018-11-11T11:12:18Z</time>
      </trkpt>
      <trkpt lat="45.94706" lon="4.85091">
        <ele>269</ele>
        <time>2018-11-11T11:12:19Z</time>
      </trkpt>
      <trkpt lat="45.94707" lon="4.85084">
        <ele>269</ele>
        <time>2018-11-11T11:12:20Z</time>
      </trkpt>
      <trkpt lat="45.94706" lon="4.85077">
        <ele>269</ele>
        <time>2018-11-11T11:12:21Z</time>
      </trkpt>
      <trkpt lat="45.94705" lon="4.85069">
        <ele>269</ele>
        <time>2018-11-11T11:12:22Z</time>
      </trkpt>
      <trkpt lat="45.94704" lon="4.85061">
        <ele>269</ele>
        <time>2018-11-11T11:12:23Z</time>
      </trkpt>
      <trkpt lat="45.94703" lon="4.85055">
        <ele>269</ele>
        <time>2018-11-11T11:12:24Z</time>
      </trkpt>
      <trkpt lat="45.94702" lon="4.85048">
        <ele>269</ele>
        <time>2018-11-11T11:12:25Z</time>
      </trkpt>
      <trkpt lat="45.94702" lon="4.85041">
        <ele>269</ele>
        <time>2018-11-11T11:12:26Z</time>
      </trkpt>
      <trkpt lat="45.94702" lon="4.85034">
        <ele>269</ele>
        <time>2018-11-11T11:12:27Z</time>
      </trkpt>
      <trkpt lat="45.947" lon="4.85022">
        <ele>269</ele>
        <time>2018-11-11T11:12:29Z</time>
      </trkpt>
      <trkpt lat="45.94699" lon="4.85015">
        <ele>269</ele>
        <time>2018-11-11T11:12:30Z</time>
      </trkpt>
      <trkpt lat="45.94698" lon="4.85009">
        <ele>269</ele>
        <time>2018-11-11T11:12:31Z</time>
      </trkpt>
      <trkpt lat="45.94697" lon="4.85002">
        <ele>269</ele>
        <time>2018-11-11T11:12:32Z</time>
      </trkpt>
      <trkpt lat="45.94696" lon="4.84996">
        <ele>269</ele>
        <time>2018-11-11T11:12:33Z</time>
      </trkpt>
      <trkpt lat="45.94696" lon="4.84988">
        <ele>269</ele>
        <time>2018-11-11T11:12:34Z</time>
      </trkpt>
      <trkpt lat="45.94695" lon="4.8498">
        <ele>269</ele>
        <time>2018-11-11T11:12:35Z</time>
      </trkpt>
      <trkpt lat="45.94694" lon="4.84973">
        <ele>269</ele>
        <time>2018-11-11T11:12:36Z</time>
      </trkpt>
      <trkpt lat="45.94693" lon="4.84966">
        <ele>269</ele>
        <time>2018-11-11T11:12:37Z</time>
      </trkpt>
      <trkpt lat="45.94693" lon="4.84957">
        <ele>269</ele>
        <time>2018-11-11T11:12:38Z</time>
      </trkpt>
      <trkpt lat="45.94692" lon="4.84949">
        <ele>269</ele>
        <time>2018-11-11T11:12:39Z</time>
      </trkpt>
      <trkpt lat="45.94691" lon="4.8494">
        <ele>269</ele>
        <time>2018-11-11T11:12:40Z</time>
      </trkpt>
      <trkpt lat="45.9469" lon="4.84934">
        <ele>269</ele>
        <time>2018-11-11T11:12:41Z</time>
      </trkpt>
      <trkpt lat="45.94689" lon="4.84925">
        <ele>269</ele>
        <time>2018-11-11T11:12:42Z</time>
      </trkpt>
      <trkpt lat="45.94689" lon="4.84917">
        <ele>269</ele>
        <time>2018-11-11T11:12:43Z</time>
      </trkpt>
      <trkpt lat="45.94688" lon="4.8491">
        <ele>269</ele>
        <time>2018-11-11T11:12:44Z</time>
      </trkpt>
      <trkpt lat="45.94687" lon="4.84902">
        <ele>268</ele>
        <time>2018-11-11T11:12:45Z</time>
      </trkpt>
      <trkpt lat="45.94686" lon="4.84895">
        <ele>268</ele>
        <time>2018-11-11T11:12:46Z</time>
      </trkpt>
      <trkpt lat="45.94684" lon="4.84888">
        <ele>268</ele>
        <time>2018-11-11T11:12:47Z</time>
      </trkpt>
      <trkpt lat="45.94684" lon="4.8488">
        <ele>268</ele>
        <time>2018-11-11T11:12:48Z</time>
      </trkpt>
      <trkpt lat="45.94684" lon="4.84868">
        <ele>268</ele>
        <time>2018-11-11T11:12:50Z</time>
      </trkpt>
      <trkpt lat="45.94684" lon="4.84861">
        <ele>268</ele>
        <time>2018-11-11T11:12:51Z</time>
      </trkpt>
      <trkpt lat="45.94683" lon="4.84854">
        <ele>268</ele>
        <time>2018-11-11T11:12:52Z</time>
      </trkpt>
      <trkpt lat="45.94683" lon="4.84846">
        <ele>268</ele>
        <time>2018-11-11T11:12:53Z</time>
      </trkpt>
      <trkpt lat="45.94682" lon="4.84839">
        <ele>268</ele>
        <time>2018-11-11T11:12:54Z</time>
      </trkpt>
      <trkpt lat="45.94681" lon="4.84831">
        <ele>268</ele>
        <time>2018-11-11T11:12:55Z</time>
      </trkpt>
      <trkpt lat="45.94681" lon="4.84822">
        <ele>268</ele>
        <time>2018-11-11T11:12:56Z</time>
      </trkpt>
      <trkpt lat="45.94681" lon="4.84814">
        <ele>268</ele>
        <time>2018-11-11T11:12:57Z</time>
      </trkpt>
      <trkpt lat="45.9468" lon="4.84807">
        <ele>268</ele>
        <time>2018-11-11T11:12:58Z</time>
      </trkpt>
      <trkpt lat="45.94679" lon="4.84799">
        <ele>268</ele>
        <time>2018-11-11T11:12:59Z</time>
      </trkpt>
      <trkpt lat="45.94678" lon="4.84793">
        <ele>268</ele>
        <time>2018-11-11T11:13:00Z</time>
      </trkpt>
      <trkpt lat="45.94678" lon="4.84785">
        <ele>269</ele>
        <time>2018-11-11T11:13:01Z</time>
      </trkpt>
      <trkpt lat="45.94677" lon="4.84773">
        <ele>269</ele>
        <time>2018-11-11T11:13:03Z</time>
      </trkpt>
      <trkpt lat="45.94677" lon="4.84768">
        <ele>269</ele>
        <time>2018-11-11T11:13:04Z</time>
      </trkpt>
      <trkpt lat="45.94676" lon="4.84755">
        <ele>269</ele>
        <time>2018-11-11T11:13:06Z</time>
      </trkpt>
      <trkpt lat="45.94676" lon="4.84748">
        <ele>269</ele>
        <time>2018-11-11T11:13:07Z</time>
      </trkpt>
      <trkpt lat="45.94676" lon="4.84742">
        <ele>269</ele>
        <time>2018-11-11T11:13:08Z</time>
      </trkpt>
      <trkpt lat="45.94676" lon="4.84734">
        <ele>269</ele>
        <time>2018-11-11T11:13:09Z</time>
      </trkpt>
      <trkpt lat="45.94675" lon="4.84727">
        <ele>269</ele>
        <time>2018-11-11T11:13:10Z</time>
      </trkpt>
      <trkpt lat="45.94675" lon="4.8472">
        <ele>269</ele>
        <time>2018-11-11T11:13:11Z</time>
      </trkpt>
      <trkpt lat="45.94674" lon="4.84713">
        <ele>269</ele>
        <time>2018-11-11T11:13:12Z</time>
      </trkpt>
      <trkpt lat="45.94673" lon="4.84706">
        <ele>269</ele>
        <time>2018-11-11T11:13:13Z</time>
      </trkpt>
      <trkpt lat="45.94672" lon="4.84698">
        <ele>269</ele>
        <time>2018-11-11T11:13:14Z</time>
      </trkpt>
      <trkpt lat="45.94672" lon="4.8469">
        <ele>269</ele>
        <time>2018-11-11T11:13:15Z</time>
      </trkpt>
      <trkpt lat="45.94672" lon="4.84683">
        <ele>269</ele>
        <time>2018-11-11T11:13:16Z</time>
      </trkpt>
      <trkpt lat="45.94672" lon="4.84675">
        <ele>269</ele>
        <time>2018-11-11T11:13:17Z</time>
      </trkpt>
      <trkpt lat="45.94671" lon="4.84667">
        <ele>269</ele>
        <time>2018-11-11T11:13:18Z</time>
      </trkpt>
      <trkpt lat="45.9467" lon="4.8466">
        <ele>269</ele>
        <time>2018-11-11T11:13:19Z</time>
      </trkpt>
      <trkpt lat="45.9467" lon="4.84653">
        <ele>268</ele>
        <time>2018-11-11T11:13:20Z</time>
      </trkpt>
      <trkpt lat="45.9467" lon="4.84646">
        <ele>268</ele>
        <time>2018-11-11T11:13:21Z</time>
      </trkpt>
      <trkpt lat="45.94669" lon="4.84638">
        <ele>268</ele>
        <time>2018-11-11T11:13:22Z</time>
      </trkpt>
      <trkpt lat="45.94669" lon="4.84631">
        <ele>268</ele>
        <time>2018-11-11T11:13:23Z</time>
      </trkpt>
      <trkpt lat="45.94669" lon="4.84618">
        <ele>268</ele>
        <time>2018-11-11T11:13:25Z</time>
      </trkpt>
      <trkpt lat="45.94669" lon="4.84612">
        <ele>268</ele>
        <time>2018-11-11T11:13:26Z</time>
      </trkpt>
      <trkpt lat="45.94668" lon="4.84606">
        <ele>268</ele>
        <time>2018-11-11T11:13:27Z</time>
      </trkpt>
      <trkpt lat="45.94669" lon="4.84599">
        <ele>268</ele>
        <time>2018-11-11T11:13:28Z</time>
      </trkpt>
      <trkpt lat="45.94668" lon="4.84592">
        <ele>268</ele>
        <time>2018-11-11T11:13:29Z</time>
      </trkpt>
      <trkpt lat="45.94668" lon="4.84586">
        <ele>268</ele>
        <time>2018-11-11T11:13:30Z</time>
      </trkpt>
      <trkpt lat="45.94668" lon="4.84579">
        <ele>268</ele>
        <time>2018-11-11T11:13:31Z</time>
      </trkpt>
      <trkpt lat="45.94667" lon="4.84572">
        <ele>268</ele>
        <time>2018-11-11T11:13:32Z</time>
      </trkpt>
      <trkpt lat="45.94667" lon="4.84565">
        <ele>268</ele>
        <time>2018-11-11T11:13:33Z</time>
      </trkpt>
      <trkpt lat="45.94666" lon="4.84558">
        <ele>268</ele>
        <time>2018-11-11T11:13:34Z</time>
      </trkpt>
      <trkpt lat="45.94666" lon="4.8455">
        <ele>268</ele>
        <time>2018-11-11T11:13:35Z</time>
      </trkpt>
      <trkpt lat="45.94665" lon="4.84544">
        <ele>268</ele>
        <time>2018-11-11T11:13:36Z</time>
      </trkpt>
      <trkpt lat="45.94665" lon="4.84537">
        <ele>268</ele>
        <time>2018-11-11T11:13:37Z</time>
      </trkpt>
      <trkpt lat="45.94664" lon="4.8453">
        <ele>268</ele>
        <time>2018-11-11T11:13:38Z</time>
      </trkpt>
      <trkpt lat="45.94663" lon="4.84523">
        <ele>268</ele>
        <time>2018-11-11T11:13:39Z</time>
      </trkpt>
      <trkpt lat="45.94663" lon="4.84515">
        <ele>268</ele>
        <time>2018-11-11T11:13:40Z</time>
      </trkpt>
      <trkpt lat="45.94662" lon="4.84508">
        <ele>268</ele>
        <time>2018-11-11T11:13:41Z</time>
      </trkpt>
      <trkpt lat="45.94662" lon="4.84501">
        <ele>268</ele>
        <time>2018-11-11T11:13:42Z</time>
      </trkpt>
      <trkpt lat="45.94661" lon="4.84494">
        <ele>268</ele>
        <time>2018-11-11T11:13:43Z</time>
      </trkpt>
      <trkpt lat="45.9466" lon="4.84486">
        <ele>268</ele>
        <time>2018-11-11T11:13:44Z</time>
      </trkpt>
      <trkpt lat="45.9466" lon="4.8448">
        <ele>268</ele>
        <time>2018-11-11T11:13:45Z</time>
      </trkpt>
      <trkpt lat="45.94659" lon="4.84472">
        <ele>268</ele>
        <time>2018-11-11T11:13:46Z</time>
      </trkpt>
      <trkpt lat="45.94658" lon="4.8446">
        <ele>268</ele>
        <time>2018-11-11T11:13:48Z</time>
      </trkpt>
      <trkpt lat="45.94657" lon="4.84454">
        <ele>268</ele>
        <time>2018-11-11T11:13:49Z</time>
      </trkpt>
      <trkpt lat="45.94655" lon="4.84441">
        <ele>268</ele>
        <time>2018-11-11T11:13:51Z</time>
      </trkpt>
      <trkpt lat="45.94655" lon="4.84435">
        <ele>268</ele>
        <time>2018-11-11T11:13:52Z</time>
      </trkpt>
      <trkpt lat="45.94653" lon="4.84422">
        <ele>268</ele>
        <time>2018-11-11T11:13:54Z</time>
      </trkpt>
      <trkpt lat="45.94653" lon="4.84417">
        <ele>268</ele>
        <time>2018-11-11T11:13:55Z</time>
      </trkpt>
      <trkpt lat="45.94652" lon="4.84406">
        <ele>268</ele>
        <time>2018-11-11T11:13:57Z</time>
      </trkpt>
      <trkpt lat="45.94651" lon="4.84402">
        <ele>268</ele>
        <time>2018-11-11T11:13:58Z</time>
      </trkpt>
      <trkpt lat="45.9465" lon="4.8439">
        <ele>268</ele>
        <time>2018-11-11T11:14:00Z</time>
      </trkpt>
      <trkpt lat="45.94649" lon="4.84384">
        <ele>268</ele>
        <time>2018-11-11T11:14:01Z</time>
      </trkpt>
      <trkpt lat="45.94648" lon="4.84377">
        <ele>268</ele>
        <time>2018-11-11T11:14:02Z</time>
      </trkpt>
      <trkpt lat="45.94648" lon="4.84371">
        <ele>268</ele>
        <time>2018-11-11T11:14:03Z</time>
      </trkpt>
      <trkpt lat="45.94646" lon="4.84358">
        <ele>268</ele>
        <time>2018-11-11T11:14:05Z</time>
      </trkpt>
      <trkpt lat="45.94645" lon="4.84351">
        <ele>268</ele>
        <time>2018-11-11T11:14:06Z</time>
      </trkpt>
      <trkpt lat="45.94644" lon="4.84344">
        <ele>268</ele>
        <time>2018-11-11T11:14:07Z</time>
      </trkpt>
      <trkpt lat="45.94642" lon="4.84338">
        <ele>268</ele>
        <time>2018-11-11T11:14:08Z</time>
      </trkpt>
      <trkpt lat="45.94642" lon="4.84325">
        <ele>268</ele>
        <time>2018-11-11T11:14:10Z</time>
      </trkpt>
      <trkpt lat="45.94641" lon="4.84318">
        <ele>269</ele>
        <time>2018-11-11T11:14:11Z</time>
      </trkpt>
      <trkpt lat="45.9464" lon="4.84307">
        <ele>269</ele>
        <time>2018-11-11T11:14:13Z</time>
      </trkpt>
      <trkpt lat="45.9464" lon="4.843">
        <ele>269</ele>
        <time>2018-11-11T11:14:14Z</time>
      </trkpt>
      <trkpt lat="45.94639" lon="4.84293">
        <ele>269</ele>
        <time>2018-11-11T11:14:15Z</time>
      </trkpt>
      <trkpt lat="45.94639" lon="4.84287">
        <ele>269</ele>
        <time>2018-11-11T11:14:16Z</time>
      </trkpt>
      <trkpt lat="45.94638" lon="4.8428">
        <ele>269</ele>
        <time>2018-11-11T11:14:17Z</time>
      </trkpt>
      <trkpt lat="45.94637" lon="4.84273">
        <ele>269</ele>
        <time>2018-11-11T11:14:18Z</time>
      </trkpt>
      <trkpt lat="45.94636" lon="4.84267">
        <ele>269</ele>
        <time>2018-11-11T11:14:19Z</time>
      </trkpt>
      <trkpt lat="45.94636" lon="4.8426">
        <ele>269</ele>
        <time>2018-11-11T11:14:20Z</time>
      </trkpt>
      <trkpt lat="45.94635" lon="4.84253">
        <ele>269</ele>
        <time>2018-11-11T11:14:21Z</time>
      </trkpt>
      <trkpt lat="45.94634" lon="4.84246">
        <ele>269</ele>
        <time>2018-11-11T11:14:22Z</time>
      </trkpt>
      <trkpt lat="45.94633" lon="4.8424">
        <ele>269</ele>
        <time>2018-11-11T11:14:23Z</time>
      </trkpt>
      <trkpt lat="45.94631" lon="4.84234">
        <ele>269</ele>
        <time>2018-11-11T11:14:24Z</time>
      </trkpt>
      <trkpt lat="45.94628" lon="4.84222">
        <ele>269</ele>
        <time>2018-11-11T11:14:26Z</time>
      </trkpt>
      <trkpt lat="45.94627" lon="4.84217">
        <ele>269</ele>
        <time>2018-11-11T11:14:27Z</time>
      </trkpt>
      <trkpt lat="45.94626" lon="4.84211">
        <ele>269</ele>
        <time>2018-11-11T11:14:28Z</time>
      </trkpt>
      <trkpt lat="45.94625" lon="4.84204">
        <ele>269</ele>
        <time>2018-11-11T11:14:29Z</time>
      </trkpt>
      <trkpt lat="45.94623" lon="4.84197">
        <ele>269</ele>
        <time>2018-11-11T11:14:30Z</time>
      </trkpt>
      <trkpt lat="45.94622" lon="4.84189">
        <ele>269</ele>
        <time>2018-11-11T11:14:31Z</time>
      </trkpt>
      <trkpt lat="45.94621" lon="4.84182">
        <ele>269</ele>
        <time>2018-11-11T11:14:32Z</time>
      </trkpt>
      <trkpt lat="45.94621" lon="4.84174">
        <ele>269</ele>
        <time>2018-11-11T11:14:33Z</time>
      </trkpt>
      <trkpt lat="45.94619" lon="4.84167">
        <ele>269</ele>
        <time>2018-11-11T11:14:34Z</time>
      </trkpt>
      <trkpt lat="45.94618" lon="4.84159">
        <ele>269</ele>
        <time>2018-11-11T11:14:35Z</time>
      </trkpt>
      <trkpt lat="45.94617" lon="4.84151">
        <ele>269</ele>
        <time>2018-11-11T11:14:36Z</time>
      </trkpt>
      <trkpt lat="45.94615" lon="4.84144">
        <ele>269</ele>
        <time>2018-11-11T11:14:37Z</time>
      </trkpt>
      <trkpt lat="45.94614" lon="4.84136">
        <ele>269</ele>
        <time>2018-11-11T11:14:38Z</time>
      </trkpt>
      <trkpt lat="45.94613" lon="4.84129">
        <ele>269</ele>
        <time>2018-11-11T11:14:39Z</time>
      </trkpt>
      <trkpt lat="45.94612" lon="4.84121">
        <ele>269</ele>
        <time>2018-11-11T11:14:40Z</time>
      </trkpt>
      <trkpt lat="45.94611" lon="4.84115">
        <ele>269</ele>
        <time>2018-11-11T11:14:41Z</time>
      </trkpt>
      <trkpt lat="45.94609" lon="4.84103">
        <ele>269</ele>
        <time>2018-11-11T11:14:43Z</time>
      </trkpt>
      <trkpt lat="45.94608" lon="4.84097">
        <ele>269</ele>
        <time>2018-11-11T11:14:44Z</time>
      </trkpt>
      <trkpt lat="45.94607" lon="4.84085">
        <ele>269</ele>
        <time>2018-11-11T11:14:46Z</time>
      </trkpt>
      <trkpt lat="45.94606" lon="4.84078">
        <ele>269</ele>
        <time>2018-11-11T11:14:47Z</time>
      </trkpt>
      <trkpt lat="45.94605" lon="4.8407">
        <ele>269</ele>
        <time>2018-11-11T11:14:48Z</time>
      </trkpt>
      <trkpt lat="45.94605" lon="4.84063">
        <ele>269</ele>
        <time>2018-11-11T11:14:49Z</time>
      </trkpt>
      <trkpt lat="45.94603" lon="4.84057">
        <ele>269</ele>
        <time>2018-11-11T11:14:50Z</time>
      </trkpt>
      <trkpt lat="45.94602" lon="4.84049">
        <ele>269</ele>
        <time>2018-11-11T11:14:51Z</time>
      </trkpt>
      <trkpt lat="45.94601" lon="4.84042">
        <ele>269</ele>
        <time>2018-11-11T11:14:52Z</time>
      </trkpt>
      <trkpt lat="45.94599" lon="4.84034">
        <ele>269</ele>
        <time>2018-11-11T11:14:53Z</time>
      </trkpt>
      <trkpt lat="45.94597" lon="4.84026">
        <ele>269</ele>
        <time>2018-11-11T11:14:54Z</time>
      </trkpt>
      <trkpt lat="45.94597" lon="4.84018">
        <ele>269</ele>
        <time>2018-11-11T11:14:55Z</time>
      </trkpt>
      <trkpt lat="45.94596" lon="4.84011">
        <ele>269</ele>
        <time>2018-11-11T11:14:56Z</time>
      </trkpt>
      <trkpt lat="45.94595" lon="4.84003">
        <ele>269</ele>
        <time>2018-11-11T11:14:57Z</time>
      </trkpt>
      <trkpt lat="45.94594" lon="4.83996">
        <ele>269</ele>
        <time>2018-11-11T11:14:58Z</time>
      </trkpt>
      <trkpt lat="45.94592" lon="4.83988">
        <ele>269</ele>
        <time>2018-11-11T11:14:59Z</time>
      </trkpt>
      <trkpt lat="45.94591" lon="4.83981">
        <ele>268</ele>
        <time>2018-11-11T11:15:00Z</time>
      </trkpt>
      <trkpt lat="45.9459" lon="4.83974">
        <ele>268</ele>
        <time>2018-11-11T11:15:01Z</time>
      </trkpt>
      <trkpt lat="45.94588" lon="4.83966">
        <ele>268</ele>
        <time>2018-11-11T11:15:02Z</time>
      </trkpt>
      <trkpt lat="45.94587" lon="4.83958">
        <ele>268</ele>
        <time>2018-11-11T11:15:03Z</time>
      </trkpt>
      <trkpt lat="45.94586" lon="4.83951">
        <ele>268</ele>
        <time>2018-11-11T11:15:04Z</time>
      </trkpt>
      <trkpt lat="45.94585" lon="4.83943">
        <ele>268</ele>
        <time>2018-11-11T11:15:05Z</time>
      </trkpt>
      <trkpt lat="45.94585" lon="4.83937">
        <ele>268</ele>
        <time>2018-11-11T11:15:06Z</time>
      </trkpt>
      <trkpt lat="45.94583" lon="4.83928">
        <ele>268</ele>
        <time>2018-11-11T11:15:07Z</time>
      </trkpt>
      <trkpt lat="45.94582" lon="4.8392">
        <ele>268</ele>
        <time>2018-11-11T11:15:08Z</time>
      </trkpt>
      <trkpt lat="45.9458" lon="4.83912">
        <ele>268</ele>
        <time>2018-11-11T11:15:09Z</time>
      </trkpt>
      <trkpt lat="45.94579" lon="4.83903">
        <ele>268</ele>
        <time>2018-11-11T11:15:10Z</time>
      </trkpt>
      <trkpt lat="45.94578" lon="4.83894">
        <ele>267</ele>
        <time>2018-11-11T11:15:11Z</time>
      </trkpt>
      <trkpt lat="45.94576" lon="4.83886">
        <ele>267</ele>
        <time>2018-11-11T11:15:12Z</time>
      </trkpt>
      <trkpt lat="45.94574" lon="4.83877">
        <ele>267</ele>
        <time>2018-11-11T11:15:13Z</time>
      </trkpt>
      <trkpt lat="45.94572" lon="4.83867">
        <ele>267</ele>
        <time>2018-11-11T11:15:14Z</time>
      </trkpt>
      <trkpt lat="45.9457" lon="4.83858">
        <ele>267</ele>
        <time>2018-11-11T11:15:15Z</time>
      </trkpt>
      <trkpt lat="45.94569" lon="4.83849">
        <ele>266</ele>
        <time>2018-11-11T11:15:16Z</time>
      </trkpt>
      <trkpt lat="45.94568" lon="4.83839">
        <ele>266</ele>
        <time>2018-11-11T11:15:17Z</time>
      </trkpt>
      <trkpt lat="45.94567" lon="4.8383">
        <ele>265</ele>
        <time>2018-11-11T11:15:18Z</time>
      </trkpt>
      <trkpt lat="45.94566" lon="4.83821">
        <ele>264</ele>
        <time>2018-11-11T11:15:19Z</time>
      </trkpt>
      <trkpt lat="45.94564" lon="4.83812">
        <ele>264</ele>
        <time>2018-11-11T11:15:20Z</time>
      </trkpt>
      <trkpt lat="45.94563" lon="4.83801">
        <ele>264</ele>
        <time>2018-11-11T11:15:21Z</time>
      </trkpt>
      <trkpt lat="45.94561" lon="4.83792">
        <ele>264</ele>
        <time>2018-11-11T11:15:22Z</time>
      </trkpt>
      <trkpt lat="45.9456" lon="4.83783">
        <ele>264</ele>
        <time>2018-11-11T11:15:23Z</time>
      </trkpt>
      <trkpt lat="45.94558" lon="4.83774">
        <ele>264</ele>
        <time>2018-11-11T11:15:24Z</time>
      </trkpt>
      <trkpt lat="45.94556" lon="4.83765">
        <ele>263</ele>
        <time>2018-11-11T11:15:25Z</time>
      </trkpt>
      <trkpt lat="45.94555" lon="4.83756">
        <ele>263</ele>
        <time>2018-11-11T11:15:26Z</time>
      </trkpt>
      <trkpt lat="45.94554" lon="4.83748">
        <ele>262</ele>
        <time>2018-11-11T11:15:27Z</time>
      </trkpt>
      <trkpt lat="45.94553" lon="4.8374">
        <ele>262</ele>
        <time>2018-11-11T11:15:28Z</time>
      </trkpt>
      <trkpt lat="45.94551" lon="4.83732">
        <ele>262</ele>
        <time>2018-11-11T11:15:29Z</time>
      </trkpt>
      <trkpt lat="45.9455" lon="4.83723">
        <ele>262</ele>
        <time>2018-11-11T11:15:30Z</time>
      </trkpt>
      <trkpt lat="45.94548" lon="4.83715">
        <ele>262</ele>
        <time>2018-11-11T11:15:31Z</time>
      </trkpt>
      <trkpt lat="45.94547" lon="4.83708">
        <ele>262</ele>
        <time>2018-11-11T11:15:32Z</time>
      </trkpt>
      <trkpt lat="45.94546" lon="4.837">
        <ele>262</ele>
        <time>2018-11-11T11:15:33Z</time>
      </trkpt>
      <trkpt lat="45.94544" lon="4.83691">
        <ele>262</ele>
        <time>2018-11-11T11:15:34Z</time>
      </trkpt>
      <trkpt lat="45.94544" lon="4.83684">
        <ele>262</ele>
        <time>2018-11-11T11:15:35Z</time>
      </trkpt>
      <trkpt lat="45.94543" lon="4.83676">
        <ele>262</ele>
        <time>2018-11-11T11:15:36Z</time>
      </trkpt>
      <trkpt lat="45.94541" lon="4.83668">
        <ele>262</ele>
        <time>2018-11-11T11:15:37Z</time>
      </trkpt>
      <trkpt lat="45.9454" lon="4.8366">
        <ele>261</ele>
        <time>2018-11-11T11:15:38Z</time>
      </trkpt>
      <trkpt lat="45.94539" lon="4.83651">
        <ele>261</ele>
        <time>2018-11-11T11:15:39Z</time>
      </trkpt>
      <trkpt lat="45.94539" lon="4.83644">
        <ele>261</ele>
        <time>2018-11-11T11:15:40Z</time>
      </trkpt>
      <trkpt lat="45.94537" lon="4.83635">
        <ele>261</ele>
        <time>2018-11-11T11:15:41Z</time>
      </trkpt>
      <trkpt lat="45.94536" lon="4.83626">
        <ele>261</ele>
        <time>2018-11-11T11:15:42Z</time>
      </trkpt>
      <trkpt lat="45.94535" lon="4.83619">
        <ele>261</ele>
        <time>2018-11-11T11:15:43Z</time>
      </trkpt>
      <trkpt lat="45.94534" lon="4.83611">
        <ele>261</ele>
        <time>2018-11-11T11:15:44Z</time>
      </trkpt>
      <trkpt lat="45.94533" lon="4.83604">
        <ele>261</ele>
        <time>2018-11-11T11:15:45Z</time>
      </trkpt>
      <trkpt lat="45.94531" lon="4.83597">
        <ele>261</ele>
        <time>2018-11-11T11:15:46Z</time>
      </trkpt>
      <trkpt lat="45.9453" lon="4.83591">
        <ele>261</ele>
        <time>2018-11-11T11:15:47Z</time>
      </trkpt>
      <trkpt lat="45.94526" lon="4.83579">
        <ele>261</ele>
        <time>2018-11-11T11:15:49Z</time>
      </trkpt>
      <trkpt lat="45.94524" lon="4.83572">
        <ele>261</ele>
        <time>2018-11-11T11:15:50Z</time>
      </trkpt>
      <trkpt lat="45.94521" lon="4.83567">
        <ele>261</ele>
        <time>2018-11-11T11:15:51Z</time>
      </trkpt>
      <trkpt lat="45.94518" lon="4.83561">
        <ele>261</ele>
        <time>2018-11-11T11:15:52Z</time>
      </trkpt>
      <trkpt lat="45.94516" lon="4.83555">
        <ele>261</ele>
        <time>2018-11-11T11:15:53Z</time>
      </trkpt>
      <trkpt lat="45.94512" lon="4.8355">
        <ele>261</ele>
        <time>2018-11-11T11:15:54Z</time>
      </trkpt>
      <trkpt lat="45.94509" lon="4.83544">
        <ele>261</ele>
        <time>2018-11-11T11:15:55Z</time>
      </trkpt>
      <trkpt lat="45.94506" lon="4.83539">
        <ele>262</ele>
        <time>2018-11-11T11:15:56Z</time>
      </trkpt>
      <trkpt lat="45.94503" lon="4.83533">
        <ele>262</ele>
        <time>2018-11-11T11:15:57Z</time>
      </trkpt>
      <trkpt lat="45.94499" lon="4.83527">
        <ele>262</ele>
        <time>2018-11-11T11:15:58Z</time>
      </trkpt>
      <trkpt lat="45.94496" lon="4.83521">
        <ele>262</ele>
        <time>2018-11-11T11:15:59Z</time>
      </trkpt>
      <trkpt lat="45.94493" lon="4.83515">
        <ele>262</ele>
        <time>2018-11-11T11:16:00Z</time>
      </trkpt>
      <trkpt lat="45.9449" lon="4.83509">
        <ele>262</ele>
        <time>2018-11-11T11:16:01Z</time>
      </trkpt>
      <trkpt lat="45.94486" lon="4.83504">
        <ele>262</ele>
        <time>2018-11-11T11:16:02Z</time>
      </trkpt>
      <trkpt lat="45.9448" lon="4.83495">
        <ele>263</ele>
        <time>2018-11-11T11:16:04Z</time>
      </trkpt>
      <trkpt lat="45.94477" lon="4.83489">
        <ele>263</ele>
        <time>2018-11-11T11:16:05Z</time>
      </trkpt>
      <trkpt lat="45.94471" lon="4.8348">
        <ele>263</ele>
        <time>2018-11-11T11:16:07Z</time>
      </trkpt>
      <trkpt lat="45.94468" lon="4.83474">
        <ele>263</ele>
        <time>2018-11-11T11:16:08Z</time>
      </trkpt>
      <trkpt lat="45.94465" lon="4.83469">
        <ele>263</ele>
        <time>2018-11-11T11:16:09Z</time>
      </trkpt>
      <trkpt lat="45.94462" lon="4.83465">
        <ele>263</ele>
        <time>2018-11-11T11:16:10Z</time>
      </trkpt>
      <trkpt lat="45.94459" lon="4.83459">
        <ele>263</ele>
        <time>2018-11-11T11:16:11Z</time>
      </trkpt>
      <trkpt lat="45.94457" lon="4.83454">
        <ele>263</ele>
        <time>2018-11-11T11:16:12Z</time>
      </trkpt>
      <trkpt lat="45.94453" lon="4.83449">
        <ele>263</ele>
        <time>2018-11-11T11:16:13Z</time>
      </trkpt>
      <trkpt lat="45.9445" lon="4.83445">
        <ele>263</ele>
        <time>2018-11-11T11:16:14Z</time>
      </trkpt>
      <trkpt lat="45.94445" lon="4.83437">
        <ele>263</ele>
        <time>2018-11-11T11:16:16Z</time>
      </trkpt>
      <trkpt lat="45.94443" lon="4.83432">
        <ele>263</ele>
        <time>2018-11-11T11:16:17Z</time>
      </trkpt>
      <trkpt lat="45.94438" lon="4.83421">
        <ele>264</ele>
        <time>2018-11-11T11:16:19Z</time>
      </trkpt>
      <trkpt lat="45.94435" lon="4.83415">
        <ele>264</ele>
        <time>2018-11-11T11:16:20Z</time>
      </trkpt>
      <trkpt lat="45.94432" lon="4.83408">
        <ele>264</ele>
        <time>2018-11-11T11:16:21Z</time>
      </trkpt>
      <trkpt lat="45.94429" lon="4.83403">
        <ele>264</ele>
        <time>2018-11-11T11:16:22Z</time>
      </trkpt>
      <trkpt lat="45.94427" lon="4.83397">
        <ele>264</ele>
        <time>2018-11-11T11:16:23Z</time>
      </trkpt>
      <trkpt lat="45.94424" lon="4.8339">
        <ele>264</ele>
        <time>2018-11-11T11:16:24Z</time>
      </trkpt>
      <trkpt lat="45.94421" lon="4.83384">
        <ele>264</ele>
        <time>2018-11-11T11:16:25Z</time>
      </trkpt>
      <trkpt lat="45.94419" lon="4.83377">
        <ele>264</ele>
        <time>2018-11-11T11:16:26Z</time>
      </trkpt>
      <trkpt lat="45.94415" lon="4.83371">
        <ele>264</ele>
        <time>2018-11-11T11:16:27Z</time>
      </trkpt>
      <trkpt lat="45.94413" lon="4.83365">
        <ele>264</ele>
        <time>2018-11-11T11:16:28Z</time>
      </trkpt>
      <trkpt lat="45.9441" lon="4.83358">
        <ele>264</ele>
        <time>2018-11-11T11:16:29Z</time>
      </trkpt>
      <trkpt lat="45.94407" lon="4.83352">
        <ele>263</ele>
        <time>2018-11-11T11:16:30Z</time>
      </trkpt>
      <trkpt lat="45.94405" lon="4.83346">
        <ele>263</ele>
        <time>2018-11-11T11:16:31Z</time>
      </trkpt>
      <trkpt lat="45.94402" lon="4.8334">
        <ele>263</ele>
        <time>2018-11-11T11:16:32Z</time>
      </trkpt>
      <trkpt lat="45.94399" lon="4.83334">
        <ele>263</ele>
        <time>2018-11-11T11:16:33Z</time>
      </trkpt>
      <trkpt lat="45.94397" lon="4.83328">
        <ele>264</ele>
        <time>2018-11-11T11:16:34Z</time>
      </trkpt>
      <trkpt lat="45.94395" lon="4.83321">
        <ele>264</ele>
        <time>2018-11-11T11:16:35Z</time>
      </trkpt>
      <trkpt lat="45.94392" lon="4.83314">
        <ele>264</ele>
        <time>2018-11-11T11:16:36Z</time>
      </trkpt>
      <trkpt lat="45.94388" lon="4.83303">
        <ele>264</ele>
        <time>2018-11-11T11:16:38Z</time>
      </trkpt>
      <trkpt lat="45.94386" lon="4.83297">
        <ele>264</ele>
        <time>2018-11-11T11:16:39Z</time>
      </trkpt>
      <trkpt lat="45.94382" lon="4.83286">
        <ele>264</ele>
        <time>2018-11-11T11:16:41Z</time>
      </trkpt>
      <trkpt lat="45.9438" lon="4.8328">
        <ele>264</ele>
        <time>2018-11-11T11:16:42Z</time>
      </trkpt>
      <trkpt lat="45.94378" lon="4.83274">
        <ele>264</ele>
        <time>2018-11-11T11:16:43Z</time>
      </trkpt>
      <trkpt lat="45.94376" lon="4.83269">
        <ele>264</ele>
        <time>2018-11-11T11:16:44Z</time>
      </trkpt>
      <trkpt lat="45.94372" lon="4.83259">
        <ele>265</ele>
        <time>2018-11-11T11:16:46Z</time>
      </trkpt>
      <trkpt lat="45.9437" lon="4.83253">
        <ele>265</ele>
        <time>2018-11-11T11:16:47Z</time>
      </trkpt>
      <trkpt lat="45.94366" lon="4.83241">
        <ele>265</ele>
        <time>2018-11-11T11:16:49Z</time>
      </trkpt>
      <trkpt lat="45.94364" lon="4.83236">
        <ele>266</ele>
        <time>2018-11-11T11:16:50Z</time>
      </trkpt>
      <trkpt lat="45.9436" lon="4.83224">
        <ele>266</ele>
        <time>2018-11-11T11:16:52Z</time>
      </trkpt>
      <trkpt lat="45.94358" lon="4.83219">
        <ele>266</ele>
        <time>2018-11-11T11:16:53Z</time>
      </trkpt>
      <trkpt lat="45.94354" lon="4.83208">
        <ele>266</ele>
        <time>2018-11-11T11:16:55Z</time>
      </trkpt>
      <trkpt lat="45.94352" lon="4.83202">
        <ele>266</ele>
        <time>2018-11-11T11:16:56Z</time>
      </trkpt>
      <trkpt lat="45.94349" lon="4.83191">
        <ele>266</ele>
        <time>2018-11-11T11:16:58Z</time>
      </trkpt>
      <trkpt lat="45.94347" lon="4.83185">
        <ele>266</ele>
        <time>2018-11-11T11:16:59Z</time>
      </trkpt>
      <trkpt lat="45.94344" lon="4.83174">
        <ele>266</ele>
        <time>2018-11-11T11:17:01Z</time>
      </trkpt>
      <trkpt lat="45.94342" lon="4.83169">
        <ele>266</ele>
        <time>2018-11-11T11:17:02Z</time>
      </trkpt>
      <trkpt lat="45.94338" lon="4.83158">
        <ele>266</ele>
        <time>2018-11-11T11:17:04Z</time>
      </trkpt>
      <trkpt lat="45.94336" lon="4.83152">
        <ele>266</ele>
        <time>2018-11-11T11:17:05Z</time>
      </trkpt>
      <trkpt lat="45.94334" lon="4.83141">
        <ele>266</ele>
        <time>2018-11-11T11:17:07Z</time>
      </trkpt>
      <trkpt lat="45.94332" lon="4.83136">
        <ele>266</ele>
        <time>2018-11-11T11:17:08Z</time>
      </trkpt>
      <trkpt lat="45.9433" lon="4.8313">
        <ele>266</ele>
        <time>2018-11-11T11:17:09Z</time>
      </trkpt>
      <trkpt lat="45.94327" lon="4.83124">
        <ele>266</ele>
        <time>2018-11-11T11:17:10Z</time>
      </trkpt>
      <trkpt lat="45.94324" lon="4.83113">
        <ele>266</ele>
        <time>2018-11-11T11:17:12Z</time>
      </trkpt>
      <trkpt lat="45.94323" lon="4.83106">
        <ele>266</ele>
        <time>2018-11-11T11:17:13Z</time>
      </trkpt>
      <trkpt lat="45.9432" lon="4.831">
        <ele>266</ele>
        <time>2018-11-11T11:17:14Z</time>
      </trkpt>
      <trkpt lat="45.94319" lon="4.83093">
        <ele>266</ele>
        <time>2018-11-11T11:17:15Z</time>
      </trkpt>
      <trkpt lat="45.94316" lon="4.83087">
        <ele>266</ele>
        <time>2018-11-11T11:17:16Z</time>
      </trkpt>
      <trkpt lat="45.94314" lon="4.83081">
        <ele>266</ele>
        <time>2018-11-11T11:17:17Z</time>
      </trkpt>
      <trkpt lat="45.94312" lon="4.83074">
        <ele>266</ele>
        <time>2018-11-11T11:17:18Z</time>
      </trkpt>
      <trkpt lat="45.9431" lon="4.83068">
        <ele>266</ele>
        <time>2018-11-11T11:17:19Z</time>
      </trkpt>
      <trkpt lat="45.94308" lon="4.83061">
        <ele>266</ele>
        <time>2018-11-11T11:17:20Z</time>
      </trkpt>
      <trkpt lat="45.94306" lon="4.83056">
        <ele>266</ele>
        <time>2018-11-11T11:17:21Z</time>
      </trkpt>
      <trkpt lat="45.94305" lon="4.83048">
        <ele>266</ele>
        <time>2018-11-11T11:17:22Z</time>
      </trkpt>
      <trkpt lat="45.94303" lon="4.83041">
        <ele>266</ele>
        <time>2018-11-11T11:17:23Z</time>
      </trkpt>
      <trkpt lat="45.94302" lon="4.83035">
        <ele>266</ele>
        <time>2018-11-11T11:17:24Z</time>
      </trkpt>
      <trkpt lat="45.943" lon="4.83028">
        <ele>266</ele>
        <time>2018-11-11T11:17:25Z</time>
      </trkpt>
      <trkpt lat="45.94298" lon="4.83021">
        <ele>266</ele>
        <time>2018-11-11T11:17:26Z</time>
      </trkpt>
      <trkpt lat="45.94297" lon="4.83015">
        <ele>266</ele>
        <time>2018-11-11T11:17:27Z</time>
      </trkpt>
      <trkpt lat="45.94296" lon="4.83008">
        <ele>266</ele>
        <time>2018-11-11T11:17:28Z</time>
      </trkpt>
      <trkpt lat="45.94294" lon="4.83">
        <ele>266</ele>
        <time>2018-11-11T11:17:29Z</time>
      </trkpt>
      <trkpt lat="45.94292" lon="4.82993">
        <ele>265</ele>
        <time>2018-11-11T11:17:30Z</time>
      </trkpt>
      <trkpt lat="45.9429" lon="4.82986">
        <ele>265</ele>
        <time>2018-11-11T11:17:31Z</time>
      </trkpt>
      <trkpt lat="45.94288" lon="4.8298">
        <ele>265</ele>
        <time>2018-11-11T11:17:32Z</time>
      </trkpt>
      <trkpt lat="45.94286" lon="4.82974">
        <ele>265</ele>
        <time>2018-11-11T11:17:33Z</time>
      </trkpt>
      <trkpt lat="45.94283" lon="4.82962">
        <ele>265</ele>
        <time>2018-11-11T11:17:35Z</time>
      </trkpt>
      <trkpt lat="45.94282" lon="4.82955">
        <ele>265</ele>
        <time>2018-11-11T11:17:36Z</time>
      </trkpt>
      <trkpt lat="45.94282" lon="4.82948">
        <ele>265</ele>
        <time>2018-11-11T11:17:37Z</time>
      </trkpt>
      <trkpt lat="45.94283" lon="4.82941">
        <ele>265</ele>
        <time>2018-11-11T11:17:38Z</time>
      </trkpt>
      <trkpt lat="45.94284" lon="4.82935">
        <ele>265</ele>
        <time>2018-11-11T11:17:39Z</time>
      </trkpt>
      <trkpt lat="45.94285" lon="4.82928">
        <ele>265</ele>
        <time>2018-11-11T11:17:40Z</time>
      </trkpt>
      <trkpt lat="45.94287" lon="4.82922">
        <ele>265</ele>
        <time>2018-11-11T11:17:41Z</time>
      </trkpt>
      <trkpt lat="45.94288" lon="4.82915">
        <ele>265</ele>
        <time>2018-11-11T11:17:42Z</time>
      </trkpt>
      <trkpt lat="45.9429" lon="4.82903">
        <ele>265</ele>
        <time>2018-11-11T11:17:44Z</time>
      </trkpt>
      <trkpt lat="45.94291" lon="4.82896">
        <ele>265</ele>
        <time>2018-11-11T11:17:45Z</time>
      </trkpt>
      <trkpt lat="45.94292" lon="4.82885">
        <ele>265</ele>
        <time>2018-11-11T11:17:47Z</time>
      </trkpt>
      <trkpt lat="45.94293" lon="4.82878">
        <ele>265</ele>
        <time>2018-11-11T11:17:48Z</time>
      </trkpt>
      <trkpt lat="45.94293" lon="4.82873">
        <ele>265</ele>
        <time>2018-11-11T11:17:49Z</time>
      </trkpt>
      <trkpt lat="45.94293" lon="4.82865">
        <ele>265</ele>
        <time>2018-11-11T11:17:50Z</time>
      </trkpt>
      <trkpt lat="45.94293" lon="4.82859">
        <ele>265</ele>
        <time>2018-11-11T11:17:51Z</time>
      </trkpt>
      <trkpt lat="45.94293" lon="4.82852">
        <ele>265</ele>
        <time>2018-11-11T11:17:52Z</time>
      </trkpt>
      <trkpt lat="45.94292" lon="4.82845">
        <ele>265</ele>
        <time>2018-11-11T11:17:53Z</time>
      </trkpt>
      <trkpt lat="45.94293" lon="4.82836">
        <ele>265</ele>
        <time>2018-11-11T11:17:54Z</time>
      </trkpt>
      <trkpt lat="45.94293" lon="4.82828">
        <ele>265</ele>
        <time>2018-11-11T11:17:55Z</time>
      </trkpt>
      <trkpt lat="45.94293" lon="4.82819">
        <ele>265</ele>
        <time>2018-11-11T11:17:56Z</time>
      </trkpt>
      <trkpt lat="45.94292" lon="4.82811">
        <ele>265</ele>
        <time>2018-11-11T11:17:57Z</time>
      </trkpt>
      <trkpt lat="45.94292" lon="4.82803">
        <ele>265</ele>
        <time>2018-11-11T11:17:58Z</time>
      </trkpt>
      <trkpt lat="45.94292" lon="4.82796">
        <ele>265</ele>
        <time>2018-11-11T11:17:59Z</time>
      </trkpt>
      <trkpt lat="45.94292" lon="4.82788">
        <ele>265</ele>
        <time>2018-11-11T11:18:00Z</time>
      </trkpt>
      <trkpt lat="45.94293" lon="4.82782">
        <ele>265</ele>
        <time>2018-11-11T11:18:01Z</time>
      </trkpt>
      <trkpt lat="45.94293" lon="4.82774">
        <ele>265</ele>
        <time>2018-11-11T11:18:02Z</time>
      </trkpt>
      <trkpt lat="45.94292" lon="4.82767">
        <ele>265</ele>
        <time>2018-11-11T11:18:03Z</time>
      </trkpt>
      <trkpt lat="45.94293" lon="4.82759">
        <ele>265</ele>
        <time>2018-11-11T11:18:04Z</time>
      </trkpt>
      <trkpt lat="45.94293" lon="4.82753">
        <ele>265</ele>
        <time>2018-11-11T11:18:05Z</time>
      </trkpt>
      <trkpt lat="45.94294" lon="4.82745">
        <ele>265</ele>
        <time>2018-11-11T11:18:06Z</time>
      </trkpt>
      <trkpt lat="45.94294" lon="4.82738">
        <ele>265</ele>
        <time>2018-11-11T11:18:07Z</time>
      </trkpt>
      <trkpt lat="45.94293" lon="4.8273">
        <ele>265</ele>
        <time>2018-11-11T11:18:08Z</time>
      </trkpt>
      <trkpt lat="45.94295" lon="4.82722">
        <ele>265</ele>
        <time>2018-11-11T11:18:09Z</time>
      </trkpt>
      <trkpt lat="45.94295" lon="4.82715">
        <ele>265</ele>
        <time>2018-11-11T11:18:10Z</time>
      </trkpt>
      <trkpt lat="45.94294" lon="4.82708">
        <ele>265</ele>
        <time>2018-11-11T11:18:11Z</time>
      </trkpt>
      <trkpt lat="45.94294" lon="4.827">
        <ele>265</ele>
        <time>2018-11-11T11:18:12Z</time>
      </trkpt>
      <trkpt lat="45.94295" lon="4.82691">
        <ele>265</ele>
        <time>2018-11-11T11:18:13Z</time>
      </trkpt>
      <trkpt lat="45.94295" lon="4.82684">
        <ele>265</ele>
        <time>2018-11-11T11:18:14Z</time>
      </trkpt>
      <trkpt lat="45.94296" lon="4.82676">
        <ele>265</ele>
        <time>2018-11-11T11:18:15Z</time>
      </trkpt>
      <trkpt lat="45.94296" lon="4.82668">
        <ele>265</ele>
        <time>2018-11-11T11:18:16Z</time>
      </trkpt>
      <trkpt lat="45.94296" lon="4.82661">
        <ele>265</ele>
        <time>2018-11-11T11:18:17Z</time>
      </trkpt>
      <trkpt lat="45.94296" lon="4.82655">
        <ele>265</ele>
        <time>2018-11-11T11:18:18Z</time>
      </trkpt>
      <trkpt lat="45.94295" lon="4.82648">
        <ele>265</ele>
        <time>2018-11-11T11:18:19Z</time>
      </trkpt>
      <trkpt lat="45.94295" lon="4.82641">
        <ele>265</ele>
        <time>2018-11-11T11:18:20Z</time>
      </trkpt>
      <trkpt lat="45.94296" lon="4.82628">
        <ele>265</ele>
        <time>2018-11-11T11:18:22Z</time>
      </trkpt>
      <trkpt lat="45.94296" lon="4.82621">
        <ele>265</ele>
        <time>2018-11-11T11:18:23Z</time>
      </trkpt>
      <trkpt lat="45.94296" lon="4.82614">
        <ele>265</ele>
        <time>2018-11-11T11:18:24Z</time>
      </trkpt>
      <trkpt lat="45.94296" lon="4.82605">
        <ele>265</ele>
        <time>2018-11-11T11:18:25Z</time>
      </trkpt>
      <trkpt lat="45.94297" lon="4.82596">
        <ele>265</ele>
        <time>2018-11-11T11:18:26Z</time>
      </trkpt>
      <trkpt lat="45.94296" lon="4.82587">
        <ele>265</ele>
        <time>2018-11-11T11:18:27Z</time>
      </trkpt>
      <trkpt lat="45.94298" lon="4.82577">
        <ele>264</ele>
        <time>2018-11-11T11:18:28Z</time>
      </trkpt>
      <trkpt lat="45.94297" lon="4.82567">
        <ele>264</ele>
        <time>2018-11-11T11:18:29Z</time>
      </trkpt>
      <trkpt lat="45.94297" lon="4.82559">
        <ele>264</ele>
        <time>2018-11-11T11:18:30Z</time>
      </trkpt>
      <trkpt lat="45.94296" lon="4.82551">
        <ele>264</ele>
        <time>2018-11-11T11:18:31Z</time>
      </trkpt>
      <trkpt lat="45.94297" lon="4.82542">
        <ele>264</ele>
        <time>2018-11-11T11:18:32Z</time>
      </trkpt>
      <trkpt lat="45.94297" lon="4.82534">
        <ele>264</ele>
        <time>2018-11-11T11:18:33Z</time>
      </trkpt>
      <trkpt lat="45.94298" lon="4.82526">
        <ele>264</ele>
        <time>2018-11-11T11:18:34Z</time>
      </trkpt>
      <trkpt lat="45.94298" lon="4.82517">
        <ele>264</ele>
        <time>2018-11-11T11:18:35Z</time>
      </trkpt>
      <trkpt lat="45.94298" lon="4.82509">
        <ele>264</ele>
        <time>2018-11-11T11:18:36Z</time>
      </trkpt>
      <trkpt lat="45.94297" lon="4.82502">
        <ele>264</ele>
        <time>2018-11-11T11:18:37Z</time>
      </trkpt>
      <trkpt lat="45.94297" lon="4.82494">
        <ele>264</ele>
        <time>2018-11-11T11:18:38Z</time>
      </trkpt>
      <trkpt lat="45.94297" lon="4.82486">
        <ele>264</ele>
        <time>2018-11-11T11:18:39Z</time>
      </trkpt>
      <trkpt lat="45.94297" lon="4.82478">
        <ele>264</ele>
        <time>2018-11-11T11:18:40Z</time>
      </trkpt>
      <trkpt lat="45.94297" lon="4.82467">
        <ele>264</ele>
        <time>2018-11-11T11:18:41Z</time>
      </trkpt>
      <trkpt lat="45.94296" lon="4.82458">
        <ele>264</ele>
        <time>2018-11-11T11:18:42Z</time>
      </trkpt>
      <trkpt lat="45.94295" lon="4.82451">
        <ele>264</ele>
        <time>2018-11-11T11:18:43Z</time>
      </trkpt>
      <trkpt lat="45.94295" lon="4.82443">
        <ele>264</ele>
        <time>2018-11-11T11:18:44Z</time>
      </trkpt>
      <trkpt lat="45.94295" lon="4.82435">
        <ele>264</ele>
        <time>2018-11-11T11:18:45Z</time>
      </trkpt>
      <trkpt lat="45.94294" lon="4.82427">
        <ele>264</ele>
        <time>2018-11-11T11:18:46Z</time>
      </trkpt>
      <trkpt lat="45.94294" lon="4.82419">
        <ele>264</ele>
        <time>2018-11-11T11:18:47Z</time>
      </trkpt>
      <trkpt lat="45.94293" lon="4.82411">
        <ele>264</ele>
        <time>2018-11-11T11:18:48Z</time>
      </trkpt>
      <trkpt lat="45.94293" lon="4.82403">
        <ele>264</ele>
        <time>2018-11-11T11:18:49Z</time>
      </trkpt>
      <trkpt lat="45.94292" lon="4.82396">
        <ele>264</ele>
        <time>2018-11-11T11:18:50Z</time>
      </trkpt>
      <trkpt lat="45.94291" lon="4.82389">
        <ele>264</ele>
        <time>2018-11-11T11:18:51Z</time>
      </trkpt>
      <trkpt lat="45.9429" lon="4.82381">
        <ele>264</ele>
        <time>2018-11-11T11:18:52Z</time>
      </trkpt>
      <trkpt lat="45.9429" lon="4.82374">
        <ele>264</ele>
        <time>2018-11-11T11:18:53Z</time>
      </trkpt>
      <trkpt lat="45.9429" lon="4.82365">
        <ele>264</ele>
        <time>2018-11-11T11:18:54Z</time>
      </trkpt>
      <trkpt lat="45.9429" lon="4.82355">
        <ele>264</ele>
        <time>2018-11-11T11:18:55Z</time>
      </trkpt>
      <trkpt lat="45.94289" lon="4.82346">
        <ele>264</ele>
        <time>2018-11-11T11:18:56Z</time>
      </trkpt>
      <trkpt lat="45.94289" lon="4.82337">
        <ele>264</ele>
        <time>2018-11-11T11:18:57Z</time>
      </trkpt>
      <trkpt lat="45.94289" lon="4.82328">
        <ele>265</ele>
        <time>2018-11-11T11:18:58Z</time>
      </trkpt>
      <trkpt lat="45.94288" lon="4.82319">
        <ele>265</ele>
        <time>2018-11-11T11:18:59Z</time>
      </trkpt>
      <trkpt lat="45.94288" lon="4.8231">
        <ele>265</ele>
        <time>2018-11-11T11:19:00Z</time>
      </trkpt>
      <trkpt lat="45.94288" lon="4.823">
        <ele>265</ele>
        <time>2018-11-11T11:19:01Z</time>
      </trkpt>
      <trkpt lat="45.94287" lon="4.82291">
        <ele>265</ele>
        <time>2018-11-11T11:19:02Z</time>
      </trkpt>
      <trkpt lat="45.94287" lon="4.82283">
        <ele>265</ele>
        <time>2018-11-11T11:19:03Z</time>
      </trkpt>
      <trkpt lat="45.94286" lon="4.82274">
        <ele>265</ele>
        <time>2018-11-11T11:19:04Z</time>
      </trkpt>
      <trkpt lat="45.94285" lon="4.82265">
        <ele>265</ele>
        <time>2018-11-11T11:19:05Z</time>
      </trkpt>
      <trkpt lat="45.94285" lon="4.82258">
        <ele>265</ele>
        <time>2018-11-11T11:19:06Z</time>
      </trkpt>
      <trkpt lat="45.94284" lon="4.8225">
        <ele>265</ele>
        <time>2018-11-11T11:19:07Z</time>
      </trkpt>
      <trkpt lat="45.94284" lon="4.82242">
        <ele>264</ele>
        <time>2018-11-11T11:19:08Z</time>
      </trkpt>
      <trkpt lat="45.94284" lon="4.82234">
        <ele>264</ele>
        <time>2018-11-11T11:19:09Z</time>
      </trkpt>
      <trkpt lat="45.94283" lon="4.82226">
        <ele>264</ele>
        <time>2018-11-11T11:19:10Z</time>
      </trkpt>
      <trkpt lat="45.94282" lon="4.82219">
        <ele>264</ele>
        <time>2018-11-11T11:19:11Z</time>
      </trkpt>
      <trkpt lat="45.94282" lon="4.82211">
        <ele>264</ele>
        <time>2018-11-11T11:19:12Z</time>
      </trkpt>
      <trkpt lat="45.94281" lon="4.82204">
        <ele>264</ele>
        <time>2018-11-11T11:19:13Z</time>
      </trkpt>
      <trkpt lat="45.9428" lon="4.82197">
        <ele>264</ele>
        <time>2018-11-11T11:19:14Z</time>
      </trkpt>
      <trkpt lat="45.94279" lon="4.8219">
        <ele>264</ele>
        <time>2018-11-11T11:19:15Z</time>
      </trkpt>
      <trkpt lat="45.94277" lon="4.82184">
        <ele>264</ele>
        <time>2018-11-11T11:19:16Z</time>
      </trkpt>
      <trkpt lat="45.94276" lon="4.82177">
        <ele>264</ele>
        <time>2018-11-11T11:19:17Z</time>
      </trkpt>
      <trkpt lat="45.94276" lon="4.8217">
        <ele>264</ele>
        <time>2018-11-11T11:19:18Z</time>
      </trkpt>
      <trkpt lat="45.94274" lon="4.82163">
        <ele>263</ele>
        <time>2018-11-11T11:19:19Z</time>
      </trkpt>
      <trkpt lat="45.94274" lon="4.82156">
        <ele>263</ele>
        <time>2018-11-11T11:19:20Z</time>
      </trkpt>
      <trkpt lat="45.94273" lon="4.82148">
        <ele>263</ele>
        <time>2018-11-11T11:19:21Z</time>
      </trkpt>
      <trkpt lat="45.94271" lon="4.8214">
        <ele>263</ele>
        <time>2018-11-11T11:19:22Z</time>
      </trkpt>
      <trkpt lat="45.94269" lon="4.82133">
        <ele>263</ele>
        <time>2018-11-11T11:19:23Z</time>
      </trkpt>
      <trkpt lat="45.94268" lon="4.82124">
        <ele>263</ele>
        <time>2018-11-11T11:19:24Z</time>
      </trkpt>
      <trkpt lat="45.94265" lon="4.82115">
        <ele>263</ele>
        <time>2018-11-11T11:19:25Z</time>
      </trkpt>
      <trkpt lat="45.94264" lon="4.82108">
        <ele>263</ele>
        <time>2018-11-11T11:19:26Z</time>
      </trkpt>
      <trkpt lat="45.94262" lon="4.82101">
        <ele>262</ele>
        <time>2018-11-11T11:19:27Z</time>
      </trkpt>
      <trkpt lat="45.94261" lon="4.82093">
        <ele>262</ele>
        <time>2018-11-11T11:19:28Z</time>
      </trkpt>
      <trkpt lat="45.94259" lon="4.82085">
        <ele>262</ele>
        <time>2018-11-11T11:19:29Z</time>
      </trkpt>
      <trkpt lat="45.94258" lon="4.82078">
        <ele>262</ele>
        <time>2018-11-11T11:19:30Z</time>
      </trkpt>
      <trkpt lat="45.94256" lon="4.82069">
        <ele>262</ele>
        <time>2018-11-11T11:19:31Z</time>
      </trkpt>
      <trkpt lat="45.94255" lon="4.82061">
        <ele>262</ele>
        <time>2018-11-11T11:19:32Z</time>
      </trkpt>
      <trkpt lat="45.94253" lon="4.82053">
        <ele>262</ele>
        <time>2018-11-11T11:19:33Z</time>
      </trkpt>
      <trkpt lat="45.94251" lon="4.82044">
        <ele>262</ele>
        <time>2018-11-11T11:19:34Z</time>
      </trkpt>
      <trkpt lat="45.94249" lon="4.82035">
        <ele>263</ele>
        <time>2018-11-11T11:19:35Z</time>
      </trkpt>
      <trkpt lat="45.94248" lon="4.82026">
        <ele>263</ele>
        <time>2018-11-11T11:19:36Z</time>
      </trkpt>
      <trkpt lat="45.94245" lon="4.82017">
        <ele>263</ele>
        <time>2018-11-11T11:19:37Z</time>
      </trkpt>
      <trkpt lat="45.94243" lon="4.82009">
        <ele>263</ele>
        <time>2018-11-11T11:19:38Z</time>
      </trkpt>
      <trkpt lat="45.94242" lon="4.82">
        <ele>263</ele>
        <time>2018-11-11T11:19:39Z</time>
      </trkpt>
      <trkpt lat="45.9424" lon="4.81992">
        <ele>263</ele>
        <time>2018-11-11T11:19:40Z</time>
      </trkpt>
      <trkpt lat="45.94239" lon="4.81985">
        <ele>263</ele>
        <time>2018-11-11T11:19:41Z</time>
      </trkpt>
      <trkpt lat="45.94237" lon="4.81976">
        <ele>263</ele>
        <time>2018-11-11T11:19:42Z</time>
      </trkpt>
      <trkpt lat="45.94236" lon="4.81969">
        <ele>264</ele>
        <time>2018-11-11T11:19:43Z</time>
      </trkpt>
      <trkpt lat="45.94235" lon="4.81962">
        <ele>264</ele>
        <time>2018-11-11T11:19:44Z</time>
      </trkpt>
      <trkpt lat="45.94233" lon="4.81955">
        <ele>264</ele>
        <time>2018-11-11T11:19:45Z</time>
      </trkpt>
      <trkpt lat="45.94233" lon="4.81947">
        <ele>264</ele>
        <time>2018-11-11T11:19:46Z</time>
      </trkpt>
      <trkpt lat="45.94232" lon="4.81939">
        <ele>264</ele>
        <time>2018-11-11T11:19:47Z</time>
      </trkpt>
      <trkpt lat="45.9423" lon="4.81932">
        <ele>264</ele>
        <time>2018-11-11T11:19:48Z</time>
      </trkpt>
      <trkpt lat="45.94228" lon="4.81925">
        <ele>263</ele>
        <time>2018-11-11T11:19:49Z</time>
      </trkpt>
      <trkpt lat="45.94226" lon="4.81917">
        <ele>264</ele>
        <time>2018-11-11T11:19:50Z</time>
      </trkpt>
      <trkpt lat="45.94224" lon="4.8191">
        <ele>264</ele>
        <time>2018-11-11T11:19:51Z</time>
      </trkpt>
      <trkpt lat="45.94222" lon="4.81901">
        <ele>264</ele>
        <time>2018-11-11T11:19:52Z</time>
      </trkpt>
      <trkpt lat="45.9422" lon="4.81893">
        <ele>265</ele>
        <time>2018-11-11T11:19:53Z</time>
      </trkpt>
      <trkpt lat="45.94218" lon="4.81885">
        <ele>265</ele>
        <time>2018-11-11T11:19:54Z</time>
      </trkpt>
      <trkpt lat="45.94216" lon="4.81878">
        <ele>265</ele>
        <time>2018-11-11T11:19:55Z</time>
      </trkpt>
      <trkpt lat="45.94215" lon="4.8187">
        <ele>265</ele>
        <time>2018-11-11T11:19:56Z</time>
      </trkpt>
      <trkpt lat="45.94213" lon="4.81863">
        <ele>265</ele>
        <time>2018-11-11T11:19:57Z</time>
      </trkpt>
      <trkpt lat="45.94212" lon="4.81856">
        <ele>265</ele>
        <time>2018-11-11T11:19:58Z</time>
      </trkpt>
      <trkpt lat="45.9421" lon="4.8185">
        <ele>265</ele>
        <time>2018-11-11T11:19:59Z</time>
      </trkpt>
      <trkpt lat="45.94209" lon="4.81843">
        <ele>265</ele>
        <time>2018-11-11T11:20:00Z</time>
      </trkpt>
      <trkpt lat="45.94207" lon="4.81836">
        <ele>266</ele>
        <time>2018-11-11T11:20:01Z</time>
      </trkpt>
      <trkpt lat="45.94205" lon="4.81829">
        <ele>266</ele>
        <time>2018-11-11T11:20:02Z</time>
      </trkpt>
      <trkpt lat="45.94204" lon="4.81822">
        <ele>266</ele>
        <time>2018-11-11T11:20:03Z</time>
      </trkpt>
      <trkpt lat="45.94203" lon="4.81814">
        <ele>266</ele>
        <time>2018-11-11T11:20:04Z</time>
      </trkpt>
      <trkpt lat="45.94203" lon="4.81806">
        <ele>266</ele>
        <time>2018-11-11T11:20:05Z</time>
      </trkpt>
      <trkpt lat="45.94203" lon="4.81799">
        <ele>266</ele>
        <time>2018-11-11T11:20:06Z</time>
      </trkpt>
      <trkpt lat="45.94205" lon="4.81792">
        <ele>266</ele>
        <time>2018-11-11T11:20:07Z</time>
      </trkpt>
      <trkpt lat="45.94206" lon="4.81785">
        <ele>266</ele>
        <time>2018-11-11T11:20:08Z</time>
      </trkpt>
      <trkpt lat="45.94207" lon="4.81778">
        <ele>265</ele>
        <time>2018-11-11T11:20:09Z</time>
      </trkpt>
      <trkpt lat="45.94209" lon="4.81771">
        <ele>265</ele>
        <time>2018-11-11T11:20:10Z</time>
      </trkpt>
      <trkpt lat="45.94211" lon="4.81763">
        <ele>265</ele>
        <time>2018-11-11T11:20:11Z</time>
      </trkpt>
      <trkpt lat="45.94215" lon="4.81756">
        <ele>265</ele>
        <time>2018-11-11T11:20:12Z</time>
      </trkpt>
      <trkpt lat="45.94218" lon="4.81749">
        <ele>265</ele>
        <time>2018-11-11T11:20:13Z</time>
      </trkpt>
      <trkpt lat="45.9422" lon="4.81742">
        <ele>265</ele>
        <time>2018-11-11T11:20:14Z</time>
      </trkpt>
      <trkpt lat="45.94221" lon="4.81735">
        <ele>265</ele>
        <time>2018-11-11T11:20:15Z</time>
      </trkpt>
      <trkpt lat="45.94222" lon="4.81728">
        <ele>265</ele>
        <time>2018-11-11T11:20:16Z</time>
      </trkpt>
      <trkpt lat="45.9422" lon="4.8172">
        <ele>266</ele>
        <time>2018-11-11T11:20:17Z</time>
      </trkpt>
      <trkpt lat="45.94218" lon="4.81715">
        <ele>266</ele>
        <time>2018-11-11T11:20:18Z</time>
      </trkpt>
      <trkpt lat="45.94215" lon="4.8171">
        <ele>266</ele>
        <time>2018-11-11T11:20:19Z</time>
      </trkpt>
      <trkpt lat="45.94211" lon="4.81706">
        <ele>266</ele>
        <time>2018-11-11T11:20:20Z</time>
      </trkpt>
      <trkpt lat="45.94206" lon="4.81703">
        <ele>266</ele>
        <time>2018-11-11T11:20:21Z</time>
      </trkpt>
      <trkpt lat="45.94202" lon="4.81701">
        <ele>267</ele>
        <time>2018-11-11T11:20:22Z</time>
      </trkpt>
      <trkpt lat="45.94197" lon="4.81698">
        <ele>267</ele>
        <time>2018-11-11T11:20:23Z</time>
      </trkpt>
      <trkpt lat="45.94193" lon="4.81693">
        <ele>267</ele>
        <time>2018-11-11T11:20:24Z</time>
      </trkpt>
      <trkpt lat="45.94188" lon="4.81688">
        <ele>267</ele>
        <time>2018-11-11T11:20:25Z</time>
      </trkpt>
      <trkpt lat="45.94185" lon="4.81682">
        <ele>267</ele>
        <time>2018-11-11T11:20:26Z</time>
      </trkpt>
      <trkpt lat="45.94181" lon="4.81676">
        <ele>268</ele>
        <time>2018-11-11T11:20:27Z</time>
      </trkpt>
      <trkpt lat="45.94179" lon="4.81669">
        <ele>268</ele>
        <time>2018-11-11T11:20:28Z</time>
      </trkpt>
      <trkpt lat="45.94177" lon="4.8166">
        <ele>268</ele>
        <time>2018-11-11T11:20:29Z</time>
      </trkpt>
      <trkpt lat="45.94175" lon="4.81651">
        <ele>268</ele>
        <time>2018-11-11T11:20:30Z</time>
      </trkpt>
      <trkpt lat="45.94173" lon="4.81643">
        <ele>268</ele>
        <time>2018-11-11T11:20:31Z</time>
      </trkpt>
      <trkpt lat="45.94172" lon="4.81635">
        <ele>268</ele>
        <time>2018-11-11T11:20:32Z</time>
      </trkpt>
      <trkpt lat="45.9417" lon="4.81626">
        <ele>267</ele>
        <time>2018-11-11T11:20:33Z</time>
      </trkpt>
      <trkpt lat="45.94168" lon="4.81618">
        <ele>267</ele>
        <time>2018-11-11T11:20:34Z</time>
      </trkpt>
      <trkpt lat="45.94166" lon="4.81609">
        <ele>267</ele>
        <time>2018-11-11T11:20:35Z</time>
      </trkpt>
      <trkpt lat="45.94164" lon="4.81598">
        <ele>267</ele>
        <time>2018-11-11T11:20:36Z</time>
      </trkpt>
      <trkpt lat="45.94162" lon="4.81589">
        <ele>267</ele>
        <time>2018-11-11T11:20:37Z</time>
      </trkpt>
      <trkpt lat="45.94161" lon="4.81579">
        <ele>266</ele>
        <time>2018-11-11T11:20:38Z</time>
      </trkpt>
      <trkpt lat="45.94159" lon="4.81569">
        <ele>265</ele>
        <time>2018-11-11T11:20:39Z</time>
      </trkpt>
      <trkpt lat="45.94158" lon="4.8156">
        <ele>265</ele>
        <time>2018-11-11T11:20:40Z</time>
      </trkpt>
      <trkpt lat="45.94157" lon="4.81549">
        <ele>264</ele>
        <time>2018-11-11T11:20:41Z</time>
      </trkpt>
      <trkpt lat="45.94158" lon="4.81539">
        <ele>264</ele>
        <time>2018-11-11T11:20:42Z</time>
      </trkpt>
      <trkpt lat="45.94157" lon="4.8153">
        <ele>264</ele>
        <time>2018-11-11T11:20:43Z</time>
      </trkpt>
      <trkpt lat="45.94157" lon="4.8152">
        <ele>263</ele>
        <time>2018-11-11T11:20:44Z</time>
      </trkpt>
      <trkpt lat="45.94159" lon="4.81509">
        <ele>263</ele>
        <time>2018-11-11T11:20:45Z</time>
      </trkpt>
      <trkpt lat="45.94161" lon="4.81498">
        <ele>262</ele>
        <time>2018-11-11T11:20:46Z</time>
      </trkpt>
      <trkpt lat="45.94163" lon="4.81487">
        <ele>260</ele>
        <time>2018-11-11T11:20:47Z</time>
      </trkpt>
      <trkpt lat="45.94164" lon="4.81477">
        <ele>259</ele>
        <time>2018-11-11T11:20:48Z</time>
      </trkpt>
      <trkpt lat="45.94164" lon="4.81466">
        <ele>258</ele>
        <time>2018-11-11T11:20:49Z</time>
      </trkpt>
      <trkpt lat="45.94165" lon="4.81454">
        <ele>257</ele>
        <time>2018-11-11T11:20:50Z</time>
      </trkpt>
      <trkpt lat="45.94166" lon="4.81443">
        <ele>257</ele>
        <time>2018-11-11T11:20:51Z</time>
      </trkpt>
      <trkpt lat="45.94166" lon="4.81433">
        <ele>256</ele>
        <time>2018-11-11T11:20:52Z</time>
      </trkpt>
      <trkpt lat="45.94167" lon="4.81421">
        <ele>257</ele>
        <time>2018-11-11T11:20:53Z</time>
      </trkpt>
      <trkpt lat="45.94168" lon="4.8141">
        <ele>257</ele>
        <time>2018-11-11T11:20:54Z</time>
      </trkpt>
      <trkpt lat="45.94169" lon="4.81399">
        <ele>258</ele>
        <time>2018-11-11T11:20:55Z</time>
      </trkpt>
      <trkpt lat="45.9417" lon="4.81387">
        <ele>258</ele>
        <time>2018-11-11T11:20:56Z</time>
      </trkpt>
      <trkpt lat="45.94171" lon="4.81375">
        <ele>258</ele>
        <time>2018-11-11T11:20:57Z</time>
      </trkpt>
      <trkpt lat="45.94173" lon="4.81364">
        <ele>257</ele>
        <time>2018-11-11T11:20:58Z</time>
      </trkpt>
      <trkpt lat="45.94173" lon="4.81352">
        <ele>256</ele>
        <time>2018-11-11T11:20:59Z</time>
      </trkpt>
      <trkpt lat="45.94174" lon="4.8134">
        <ele>254</ele>
        <time>2018-11-11T11:21:00Z</time>
      </trkpt>
      <trkpt lat="45.94173" lon="4.81327">
        <ele>254</ele>
        <time>2018-11-11T11:21:01Z</time>
      </trkpt>
      <trkpt lat="45.94175" lon="4.81316">
        <ele>255</ele>
        <time>2018-11-11T11:21:02Z</time>
      </trkpt>
      <trkpt lat="45.94174" lon="4.81302">
        <ele>256</ele>
        <time>2018-11-11T11:21:03Z</time>
      </trkpt>
      <trkpt lat="45.94173" lon="4.81289">
        <ele>255</ele>
        <time>2018-11-11T11:21:04Z</time>
      </trkpt>
      <trkpt lat="45.94171" lon="4.81277">
        <ele>255</ele>
        <time>2018-11-11T11:21:05Z</time>
      </trkpt>
      <trkpt lat="45.94169" lon="4.81264">
        <ele>253</ele>
        <time>2018-11-11T11:21:06Z</time>
      </trkpt>
      <trkpt lat="45.94168" lon="4.8125">
        <ele>250</ele>
        <time>2018-11-11T11:21:07Z</time>
      </trkpt>
      <trkpt lat="45.94166" lon="4.81237">
        <ele>247</ele>
        <time>2018-11-11T11:21:08Z</time>
      </trkpt>
      <trkpt lat="45.94163" lon="4.81224">
        <ele>246</ele>
        <time>2018-11-11T11:21:09Z</time>
      </trkpt>
      <trkpt lat="45.94159" lon="4.81212">
        <ele>245</ele>
        <time>2018-11-11T11:21:10Z</time>
      </trkpt>
      <trkpt lat="45.94156" lon="4.81197">
        <ele>245</ele>
        <time>2018-11-11T11:21:11Z</time>
      </trkpt>
      <trkpt lat="45.94152" lon="4.81184">
        <ele>245</ele>
        <time>2018-11-11T11:21:12Z</time>
      </trkpt>
      <trkpt lat="45.94146" lon="4.8117">
        <ele>245</ele>
        <time>2018-11-11T11:21:13Z</time>
      </trkpt>
      <trkpt lat="45.94141" lon="4.81159">
        <ele>244</ele>
        <time>2018-11-11T11:21:14Z</time>
      </trkpt>
      <trkpt lat="45.94136" lon="4.81147">
        <ele>244</ele>
        <time>2018-11-11T11:21:15Z</time>
      </trkpt>
      <trkpt lat="45.9413" lon="4.81135">
        <ele>243</ele>
        <time>2018-11-11T11:21:16Z</time>
      </trkpt>
      <trkpt lat="45.94125" lon="4.81125">
        <ele>243</ele>
        <time>2018-11-11T11:21:17Z</time>
      </trkpt>
      <trkpt lat="45.9412" lon="4.81115">
        <ele>243</ele>
        <time>2018-11-11T11:21:18Z</time>
      </trkpt>
      <trkpt lat="45.94115" lon="4.81107">
        <ele>243</ele>
        <time>2018-11-11T11:21:19Z</time>
      </trkpt>
      <trkpt lat="45.94108" lon="4.81096">
        <ele>242</ele>
        <time>2018-11-11T11:21:20Z</time>
      </trkpt>
      <trkpt lat="45.94103" lon="4.81086">
        <ele>241</ele>
        <time>2018-11-11T11:21:21Z</time>
      </trkpt>
      <trkpt lat="45.941" lon="4.81076">
        <ele>242</ele>
        <time>2018-11-11T11:21:22Z</time>
      </trkpt>
      <trkpt lat="45.94095" lon="4.81064">
        <ele>242</ele>
        <time>2018-11-11T11:21:23Z</time>
      </trkpt>
      <trkpt lat="45.9409" lon="4.81052">
        <ele>243</ele>
        <time>2018-11-11T11:21:24Z</time>
      </trkpt>
      <trkpt lat="45.94087" lon="4.81039">
        <ele>244</ele>
        <time>2018-11-11T11:21:25Z</time>
      </trkpt>
      <trkpt lat="45.94083" lon="4.81028">
        <ele>234</ele>
        <time>2018-11-11T11:21:26Z</time>
      </trkpt>
      <trkpt lat="45.9408" lon="4.81015">
        <ele>236</ele>
        <time>2018-11-11T11:21:27Z</time>
      </trkpt>
      <trkpt lat="45.94077" lon="4.81003">
        <ele>238</ele>
        <time>2018-11-11T11:21:28Z</time>
      </trkpt>
      <trkpt lat="45.94075" lon="4.8099">
        <ele>236</ele>
        <time>2018-11-11T11:21:29Z</time>
      </trkpt>
      <trkpt lat="45.94073" lon="4.80977">
        <ele>234</ele>
        <time>2018-11-11T11:21:30Z</time>
      </trkpt>
      <trkpt lat="45.94071" lon="4.80965">
        <ele>233</ele>
        <time>2018-11-11T11:21:31Z</time>
      </trkpt>
      <trkpt lat="45.94071" lon="4.80953">
        <ele>233</ele>
        <time>2018-11-11T11:21:32Z</time>
      </trkpt>
      <trkpt lat="45.94069" lon="4.80939">
        <ele>233</ele>
        <time>2018-11-11T11:21:33Z</time>
      </trkpt>
      <trkpt lat="45.94067" lon="4.80926">
        <ele>234</ele>
        <time>2018-11-11T11:21:34Z</time>
      </trkpt>
      <trkpt lat="45.94065" lon="4.80914">
        <ele>233</ele>
        <time>2018-11-11T11:21:35Z</time>
      </trkpt>
      <trkpt lat="45.94064" lon="4.80901">
        <ele>232</ele>
        <time>2018-11-11T11:21:36Z</time>
      </trkpt>
      <trkpt lat="45.94062" lon="4.80889">
        <ele>231</ele>
        <time>2018-11-11T11:21:37Z</time>
      </trkpt>
      <trkpt lat="45.9406" lon="4.80876">
        <ele>231</ele>
        <time>2018-11-11T11:21:38Z</time>
      </trkpt>
      <trkpt lat="45.94058" lon="4.80862">
        <ele>231</ele>
        <time>2018-11-11T11:21:39Z</time>
      </trkpt>
      <trkpt lat="45.94056" lon="4.80848">
        <ele>231</ele>
        <time>2018-11-11T11:21:40Z</time>
      </trkpt>
      <trkpt lat="45.94054" lon="4.80835">
        <ele>231</ele>
        <time>2018-11-11T11:21:41Z</time>
      </trkpt>
      <trkpt lat="45.94054" lon="4.80819">
        <ele>230</ele>
        <time>2018-11-11T11:21:42Z</time>
      </trkpt>
      <trkpt lat="45.94052" lon="4.80804">
        <ele>230</ele>
        <time>2018-11-11T11:21:43Z</time>
      </trkpt>
      <trkpt lat="45.9405" lon="4.8079">
        <ele>229</ele>
        <time>2018-11-11T11:21:44Z</time>
      </trkpt>
      <trkpt lat="45.94048" lon="4.80776">
        <ele>229</ele>
        <time>2018-11-11T11:21:45Z</time>
      </trkpt>
      <trkpt lat="45.94046" lon="4.80762">
        <ele>229</ele>
        <time>2018-11-11T11:21:46Z</time>
      </trkpt>
      <trkpt lat="45.94044" lon="4.80747">
        <ele>227</ele>
        <time>2018-11-11T11:21:47Z</time>
      </trkpt>
      <trkpt lat="45.94042" lon="4.80732">
        <ele>227</ele>
        <time>2018-11-11T11:21:48Z</time>
      </trkpt>
      <trkpt lat="45.94041" lon="4.80715">
        <ele>227</ele>
        <time>2018-11-11T11:21:49Z</time>
      </trkpt>
      <trkpt lat="45.9404" lon="4.807">
        <ele>226</ele>
        <time>2018-11-11T11:21:50Z</time>
      </trkpt>
      <trkpt lat="45.94038" lon="4.80685">
        <ele>226</ele>
        <time>2018-11-11T11:21:51Z</time>
      </trkpt>
      <trkpt lat="45.94036" lon="4.80668">
        <ele>225</ele>
        <time>2018-11-11T11:21:52Z</time>
      </trkpt>
      <trkpt lat="45.94034" lon="4.80651">
        <ele>225</ele>
        <time>2018-11-11T11:21:53Z</time>
      </trkpt>
      <trkpt lat="45.94032" lon="4.80636">
        <ele>225</ele>
        <time>2018-11-11T11:21:54Z</time>
      </trkpt>
      <trkpt lat="45.9403" lon="4.8062">
        <ele>225</ele>
        <time>2018-11-11T11:21:55Z</time>
      </trkpt>
      <trkpt lat="45.94028" lon="4.80604">
        <ele>225</ele>
        <time>2018-11-11T11:21:56Z</time>
      </trkpt>
      <trkpt lat="45.94027" lon="4.80588">
        <ele>224</ele>
        <time>2018-11-11T11:21:57Z</time>
      </trkpt>
      <trkpt lat="45.94026" lon="4.80571">
        <ele>224</ele>
        <time>2018-11-11T11:21:58Z</time>
      </trkpt>
      <trkpt lat="45.94025" lon="4.80555">
        <ele>225</ele>
        <time>2018-11-11T11:21:59Z</time>
      </trkpt>
      <trkpt lat="45.94024" lon="4.80539">
        <ele>225</ele>
        <time>2018-11-11T11:22:00Z</time>
      </trkpt>
      <trkpt lat="45.94023" lon="4.80522">
        <ele>224</ele>
        <time>2018-11-11T11:22:01Z</time>
      </trkpt>
      <trkpt lat="45.94023" lon="4.80506">
        <ele>224</ele>
        <time>2018-11-11T11:22:02Z</time>
      </trkpt>
      <trkpt lat="45.94025" lon="4.80491">
        <ele>223</ele>
        <time>2018-11-11T11:22:03Z</time>
      </trkpt>
      <trkpt lat="45.94024" lon="4.80475">
        <ele>224</ele>
        <time>2018-11-11T11:22:04Z</time>
      </trkpt>
      <trkpt lat="45.94023" lon="4.80458">
        <ele>223</ele>
        <time>2018-11-11T11:22:05Z</time>
      </trkpt>
      <trkpt lat="45.94021" lon="4.80442">
        <ele>223</ele>
        <time>2018-11-11T11:22:06Z</time>
      </trkpt>
      <trkpt lat="45.9402" lon="4.80425">
        <ele>222</ele>
        <time>2018-11-11T11:22:07Z</time>
      </trkpt>
      <trkpt lat="45.94017" lon="4.80409">
        <ele>218</ele>
        <time>2018-11-11T11:22:08Z</time>
      </trkpt>
      <trkpt lat="45.94015" lon="4.80395">
        <ele>218</ele>
        <time>2018-11-11T11:22:09Z</time>
      </trkpt>
      <trkpt lat="45.94009" lon="4.8038">
        <ele>217</ele>
        <time>2018-11-11T11:22:10Z</time>
      </trkpt>
      <trkpt lat="45.94004" lon="4.80364">
        <ele>215</ele>
        <time>2018-11-11T11:22:11Z</time>
      </trkpt>
      <trkpt lat="45.94" lon="4.8035">
        <ele>206</ele>
        <time>2018-11-11T11:22:12Z</time>
      </trkpt>
      <trkpt lat="45.93995" lon="4.80335">
        <ele>206</ele>
        <time>2018-11-11T11:22:13Z</time>
      </trkpt>
      <trkpt lat="45.9399" lon="4.8032">
        <ele>204</ele>
        <time>2018-11-11T11:22:14Z</time>
      </trkpt>
      <trkpt lat="45.93985" lon="4.80306">
        <ele>203</ele>
        <time>2018-11-11T11:22:15Z</time>
      </trkpt>
      <trkpt lat="45.93981" lon="4.80292">
        <ele>203</ele>
        <time>2018-11-11T11:22:16Z</time>
      </trkpt>
      <trkpt lat="45.93979" lon="4.80278">
        <ele>203</ele>
        <time>2018-11-11T11:22:17Z</time>
      </trkpt>
      <trkpt lat="45.93975" lon="4.80263">
        <ele>203</ele>
        <time>2018-11-11T11:22:18Z</time>
      </trkpt>
      <trkpt lat="45.9397" lon="4.80248">
        <ele>204</ele>
        <time>2018-11-11T11:22:19Z</time>
      </trkpt>
      <trkpt lat="45.93967" lon="4.80234">
        <ele>205</ele>
        <time>2018-11-11T11:22:20Z</time>
      </trkpt>
      <trkpt lat="45.93963" lon="4.80221">
        <ele>205</ele>
        <time>2018-11-11T11:22:21Z</time>
      </trkpt>
      <trkpt lat="45.9396" lon="4.80208">
        <ele>205</ele>
        <time>2018-11-11T11:22:22Z</time>
      </trkpt>
      <trkpt lat="45.93956" lon="4.80196">
        <ele>206</ele>
        <time>2018-11-11T11:22:23Z</time>
      </trkpt>
      <trkpt lat="45.93954" lon="4.80182">
        <ele>206</ele>
        <time>2018-11-11T11:22:24Z</time>
      </trkpt>
      <trkpt lat="45.93951" lon="4.8017">
        <ele>206</ele>
        <time>2018-11-11T11:22:25Z</time>
      </trkpt>
      <trkpt lat="45.93949" lon="4.80159">
        <ele>208</ele>
        <time>2018-11-11T11:22:26Z</time>
      </trkpt>
      <trkpt lat="45.93948" lon="4.80148">
        <ele>208</ele>
        <time>2018-11-11T11:22:27Z</time>
      </trkpt>
      <trkpt lat="45.93946" lon="4.80136">
        <ele>209</ele>
        <time>2018-11-11T11:22:28Z</time>
      </trkpt>
      <trkpt lat="45.93944" lon="4.80125">
        <ele>209</ele>
        <time>2018-11-11T11:22:29Z</time>
      </trkpt>
      <trkpt lat="45.93943" lon="4.80114">
        <ele>209</ele>
        <time>2018-11-11T11:22:30Z</time>
      </trkpt>
      <trkpt lat="45.93942" lon="4.80104">
        <ele>209</ele>
        <time>2018-11-11T11:22:31Z</time>
      </trkpt>
      <trkpt lat="45.93941" lon="4.80095">
        <ele>208</ele>
        <time>2018-11-11T11:22:32Z</time>
      </trkpt>
      <trkpt lat="45.93941" lon="4.80085">
        <ele>208</ele>
        <time>2018-11-11T11:22:33Z</time>
      </trkpt>
      <trkpt lat="45.9394" lon="4.80077">
        <ele>207</ele>
        <time>2018-11-11T11:22:34Z</time>
      </trkpt>
      <trkpt lat="45.9394" lon="4.80069">
        <ele>207</ele>
        <time>2018-11-11T11:22:35Z</time>
      </trkpt>
      <trkpt lat="45.9394" lon="4.80061">
        <ele>207</ele>
        <time>2018-11-11T11:22:36Z</time>
      </trkpt>
      <trkpt lat="45.93941" lon="4.80052">
        <ele>207</ele>
        <time>2018-11-11T11:22:37Z</time>
      </trkpt>
      <trkpt lat="45.93942" lon="4.80044">
        <ele>207</ele>
        <time>2018-11-11T11:22:38Z</time>
      </trkpt>
      <trkpt lat="45.93943" lon="4.80035">
        <ele>207</ele>
        <time>2018-11-11T11:22:39Z</time>
      </trkpt>
      <trkpt lat="45.93944" lon="4.80026">
        <ele>207</ele>
        <time>2018-11-11T11:22:40Z</time>
      </trkpt>
      <trkpt lat="45.93945" lon="4.80018">
        <ele>207</ele>
        <time>2018-11-11T11:22:41Z</time>
      </trkpt>
      <trkpt lat="45.93945" lon="4.80008">
        <ele>206</ele>
        <time>2018-11-11T11:22:42Z</time>
      </trkpt>
      <trkpt lat="45.93947" lon="4.79999">
        <ele>205</ele>
        <time>2018-11-11T11:22:43Z</time>
      </trkpt>
      <trkpt lat="45.93948" lon="4.7999">
        <ele>205</ele>
        <time>2018-11-11T11:22:44Z</time>
      </trkpt>
      <trkpt lat="45.93949" lon="4.79982">
        <ele>205</ele>
        <time>2018-11-11T11:22:45Z</time>
      </trkpt>
      <trkpt lat="45.93951" lon="4.79973">
        <ele>205</ele>
        <time>2018-11-11T11:22:46Z</time>
      </trkpt>
      <trkpt lat="45.93951" lon="4.79965">
        <ele>205</ele>
        <time>2018-11-11T11:22:47Z</time>
      </trkpt>
      <trkpt lat="45.93953" lon="4.79956">
        <ele>205</ele>
        <time>2018-11-11T11:22:48Z</time>
      </trkpt>
      <trkpt lat="45.93954" lon="4.79946">
        <ele>205</ele>
        <time>2018-11-11T11:22:49Z</time>
      </trkpt>
      <trkpt lat="45.93955" lon="4.79938">
        <ele>205</ele>
        <time>2018-11-11T11:22:50Z</time>
      </trkpt>
      <trkpt lat="45.93957" lon="4.79929">
        <ele>205</ele>
        <time>2018-11-11T11:22:51Z</time>
      </trkpt>
      <trkpt lat="45.93958" lon="4.7992">
        <ele>205</ele>
        <time>2018-11-11T11:22:52Z</time>
      </trkpt>
      <trkpt lat="45.93959" lon="4.79912">
        <ele>205</ele>
        <time>2018-11-11T11:22:53Z</time>
      </trkpt>
      <trkpt lat="45.93959" lon="4.79903">
        <ele>206</ele>
        <time>2018-11-11T11:22:54Z</time>
      </trkpt>
      <trkpt lat="45.93961" lon="4.79896">
        <ele>206</ele>
        <time>2018-11-11T11:22:55Z</time>
      </trkpt>
      <trkpt lat="45.93962" lon="4.79888">
        <ele>206</ele>
        <time>2018-11-11T11:22:56Z</time>
      </trkpt>
      <trkpt lat="45.93964" lon="4.7988">
        <ele>206</ele>
        <time>2018-11-11T11:22:57Z</time>
      </trkpt>
      <trkpt lat="45.93965" lon="4.79873">
        <ele>206</ele>
        <time>2018-11-11T11:22:58Z</time>
      </trkpt>
      <trkpt lat="45.93966" lon="4.79865">
        <ele>206</ele>
        <time>2018-11-11T11:22:59Z</time>
      </trkpt>
      <trkpt lat="45.93967" lon="4.79857">
        <ele>206</ele>
        <time>2018-11-11T11:23:00Z</time>
      </trkpt>
      <trkpt lat="45.93968" lon="4.79849">
        <ele>206</ele>
        <time>2018-11-11T11:23:01Z</time>
      </trkpt>
      <trkpt lat="45.93969" lon="4.79842">
        <ele>207</ele>
        <time>2018-11-11T11:23:02Z</time>
      </trkpt>
      <trkpt lat="45.9397" lon="4.79834">
        <ele>207</ele>
        <time>2018-11-11T11:23:03Z</time>
      </trkpt>
      <trkpt lat="45.93971" lon="4.79825">
        <ele>207</ele>
        <time>2018-11-11T11:23:04Z</time>
      </trkpt>
      <trkpt lat="45.93973" lon="4.79815">
        <ele>207</ele>
        <time>2018-11-11T11:23:05Z</time>
      </trkpt>
      <trkpt lat="45.93973" lon="4.79807">
        <ele>207</ele>
        <time>2018-11-11T11:23:06Z</time>
      </trkpt>
      <trkpt lat="45.93974" lon="4.79799">
        <ele>207</ele>
        <time>2018-11-11T11:23:07Z</time>
      </trkpt>
      <trkpt lat="45.93976" lon="4.7979">
        <ele>206</ele>
        <time>2018-11-11T11:23:08Z</time>
      </trkpt>
      <trkpt lat="45.93976" lon="4.79782">
        <ele>206</ele>
        <time>2018-11-11T11:23:09Z</time>
      </trkpt>
      <trkpt lat="45.93977" lon="4.79774">
        <ele>207</ele>
        <time>2018-11-11T11:23:10Z</time>
      </trkpt>
      <trkpt lat="45.93977" lon="4.79766">
        <ele>207</ele>
        <time>2018-11-11T11:23:11Z</time>
      </trkpt>
      <trkpt lat="45.93976" lon="4.79759">
        <ele>207</ele>
        <time>2018-11-11T11:23:12Z</time>
      </trkpt>
      <trkpt lat="45.93976" lon="4.79752">
        <ele>207</ele>
        <time>2018-11-11T11:23:13Z</time>
      </trkpt>
      <trkpt lat="45.93975" lon="4.79744">
        <ele>207</ele>
        <time>2018-11-11T11:23:14Z</time>
      </trkpt>
      <trkpt lat="45.93974" lon="4.79736">
        <ele>207</ele>
        <time>2018-11-11T11:23:15Z</time>
      </trkpt>
      <trkpt lat="45.93973" lon="4.79728">
        <ele>207</ele>
        <time>2018-11-11T11:23:16Z</time>
      </trkpt>
      <trkpt lat="45.93972" lon="4.79719">
        <ele>207</ele>
        <time>2018-11-11T11:23:17Z</time>
      </trkpt>
      <trkpt lat="45.93971" lon="4.79711">
        <ele>207</ele>
        <time>2018-11-11T11:23:18Z</time>
      </trkpt>
      <trkpt lat="45.93971" lon="4.79702">
        <ele>207</ele>
        <time>2018-11-11T11:23:19Z</time>
      </trkpt>
      <trkpt lat="45.9397" lon="4.79693">
        <ele>207</ele>
        <time>2018-11-11T11:23:20Z</time>
      </trkpt>
      <trkpt lat="45.93969" lon="4.79685">
        <ele>207</ele>
        <time>2018-11-11T11:23:21Z</time>
      </trkpt>
      <trkpt lat="45.93969" lon="4.79677">
        <ele>207</ele>
        <time>2018-11-11T11:23:22Z</time>
      </trkpt>
      <trkpt lat="45.93968" lon="4.79668">
        <ele>207</ele>
        <time>2018-11-11T11:23:23Z</time>
      </trkpt>
      <trkpt lat="45.93967" lon="4.7966">
        <ele>208</ele>
        <time>2018-11-11T11:23:24Z</time>
      </trkpt>
      <trkpt lat="45.93966" lon="4.7965">
        <ele>207</ele>
        <time>2018-11-11T11:23:25Z</time>
      </trkpt>
      <trkpt lat="45.93966" lon="4.7964">
        <ele>207</ele>
        <time>2018-11-11T11:23:26Z</time>
      </trkpt>
      <trkpt lat="45.93965" lon="4.79631">
        <ele>207</ele>
        <time>2018-11-11T11:23:27Z</time>
      </trkpt>
      <trkpt lat="45.93964" lon="4.79623">
        <ele>207</ele>
        <time>2018-11-11T11:23:28Z</time>
      </trkpt>
      <trkpt lat="45.93963" lon="4.79615">
        <ele>207</ele>
        <time>2018-11-11T11:23:29Z</time>
      </trkpt>
      <trkpt lat="45.93963" lon="4.79606">
        <ele>207</ele>
        <time>2018-11-11T11:23:30Z</time>
      </trkpt>
      <trkpt lat="45.93961" lon="4.79598">
        <ele>207</ele>
        <time>2018-11-11T11:23:31Z</time>
      </trkpt>
      <trkpt lat="45.93961" lon="4.79589">
        <ele>207</ele>
        <time>2018-11-11T11:23:32Z</time>
      </trkpt>
      <trkpt lat="45.93959" lon="4.7958">
        <ele>206</ele>
        <time>2018-11-11T11:23:33Z</time>
      </trkpt>
      <trkpt lat="45.93959" lon="4.79572">
        <ele>205</ele>
        <time>2018-11-11T11:23:34Z</time>
      </trkpt>
      <trkpt lat="45.93958" lon="4.79563">
        <ele>205</ele>
        <time>2018-11-11T11:23:35Z</time>
      </trkpt>
      <trkpt lat="45.93958" lon="4.79554">
        <ele>205</ele>
        <time>2018-11-11T11:23:36Z</time>
      </trkpt>
      <trkpt lat="45.93957" lon="4.79545">
        <ele>205</ele>
        <time>2018-11-11T11:23:37Z</time>
      </trkpt>
      <trkpt lat="45.93956" lon="4.79535">
        <ele>205</ele>
        <time>2018-11-11T11:23:38Z</time>
      </trkpt>
      <trkpt lat="45.93956" lon="4.79525">
        <ele>204</ele>
        <time>2018-11-11T11:23:39Z</time>
      </trkpt>
      <trkpt lat="45.93955" lon="4.79515">
        <ele>204</ele>
        <time>2018-11-11T11:23:40Z</time>
      </trkpt>
      <trkpt lat="45.93955" lon="4.79506">
        <ele>204</ele>
        <time>2018-11-11T11:23:41Z</time>
      </trkpt>
      <trkpt lat="45.93955" lon="4.79496">
        <ele>203</ele>
        <time>2018-11-11T11:23:42Z</time>
      </trkpt>
      <trkpt lat="45.93954" lon="4.79486">
        <ele>203</ele>
        <time>2018-11-11T11:23:43Z</time>
      </trkpt>
      <trkpt lat="45.93954" lon="4.79475">
        <ele>203</ele>
        <time>2018-11-11T11:23:44Z</time>
      </trkpt>
      <trkpt lat="45.93954" lon="4.79466">
        <ele>203</ele>
        <time>2018-11-11T11:23:45Z</time>
      </trkpt>
      <trkpt lat="45.93954" lon="4.79457">
        <ele>203</ele>
        <time>2018-11-11T11:23:46Z</time>
      </trkpt>
      <trkpt lat="45.93955" lon="4.79447">
        <ele>203</ele>
        <time>2018-11-11T11:23:47Z</time>
      </trkpt>
      <trkpt lat="45.93955" lon="4.79436">
        <ele>203</ele>
        <time>2018-11-11T11:23:48Z</time>
      </trkpt>
      <trkpt lat="45.93955" lon="4.79427">
        <ele>202</ele>
        <time>2018-11-11T11:23:49Z</time>
      </trkpt>
      <trkpt lat="45.93953" lon="4.79417">
        <ele>201</ele>
        <time>2018-11-11T11:23:50Z</time>
      </trkpt>
      <trkpt lat="45.93953" lon="4.79408">
        <ele>201</ele>
        <time>2018-11-11T11:23:51Z</time>
      </trkpt>
      <trkpt lat="45.93952" lon="4.79395">
        <ele>201</ele>
        <time>2018-11-11T11:23:52Z</time>
      </trkpt>
      <trkpt lat="45.93952" lon="4.79384">
        <ele>201</ele>
        <time>2018-11-11T11:23:53Z</time>
      </trkpt>
      <trkpt lat="45.93953" lon="4.7937">
        <ele>201</ele>
        <time>2018-11-11T11:23:54Z</time>
      </trkpt>
      <trkpt lat="45.93953" lon="4.7936">
        <ele>201</ele>
        <time>2018-11-11T11:23:55Z</time>
      </trkpt>
      <trkpt lat="45.93953" lon="4.7935">
        <ele>200</ele>
        <time>2018-11-11T11:23:56Z</time>
      </trkpt>
      <trkpt lat="45.93953" lon="4.79338">
        <ele>200</ele>
        <time>2018-11-11T11:23:57Z</time>
      </trkpt>
      <trkpt lat="45.93953" lon="4.79326">
        <ele>199</ele>
        <time>2018-11-11T11:23:58Z</time>
      </trkpt>
      <trkpt lat="45.93954" lon="4.79315">
        <ele>199</ele>
        <time>2018-11-11T11:23:59Z</time>
      </trkpt>
      <trkpt lat="45.93954" lon="4.79304">
        <ele>199</ele>
        <time>2018-11-11T11:24:00Z</time>
      </trkpt>
      <trkpt lat="45.93953" lon="4.79293">
        <ele>198</ele>
        <time>2018-11-11T11:24:01Z</time>
      </trkpt>
      <trkpt lat="45.93953" lon="4.79283">
        <ele>198</ele>
        <time>2018-11-11T11:24:02Z</time>
      </trkpt>
      <trkpt lat="45.93952" lon="4.79272">
        <ele>198</ele>
        <time>2018-11-11T11:24:03Z</time>
      </trkpt>
      <trkpt lat="45.93952" lon="4.79261">
        <ele>198</ele>
        <time>2018-11-11T11:24:04Z</time>
      </trkpt>
      <trkpt lat="45.93952" lon="4.79251">
        <ele>198</ele>
        <time>2018-11-11T11:24:05Z</time>
      </trkpt>
      <trkpt lat="45.93952" lon="4.79241">
        <ele>197</ele>
        <time>2018-11-11T11:24:06Z</time>
      </trkpt>
      <trkpt lat="45.93952" lon="4.79232">
        <ele>197</ele>
        <time>2018-11-11T11:24:07Z</time>
      </trkpt>
      <trkpt lat="45.93951" lon="4.79222">
        <ele>197</ele>
        <time>2018-11-11T11:24:08Z</time>
      </trkpt>
      <trkpt lat="45.93952" lon="4.79214">
        <ele>197</ele>
        <time>2018-11-11T11:24:09Z</time>
      </trkpt>
      <trkpt lat="45.93952" lon="4.79204">
        <ele>197</ele>
        <time>2018-11-11T11:24:10Z</time>
      </trkpt>
      <trkpt lat="45.93952" lon="4.79194">
        <ele>197</ele>
        <time>2018-11-11T11:24:11Z</time>
      </trkpt>
      <trkpt lat="45.93952" lon="4.79185">
        <ele>197</ele>
        <time>2018-11-11T11:24:12Z</time>
      </trkpt>
      <trkpt lat="45.93951" lon="4.79175">
        <ele>197</ele>
        <time>2018-11-11T11:24:13Z</time>
      </trkpt>
      <trkpt lat="45.93951" lon="4.79166">
        <ele>197</ele>
        <time>2018-11-11T11:24:14Z</time>
      </trkpt>
      <trkpt lat="45.93951" lon="4.79157">
        <ele>197</ele>
        <time>2018-11-11T11:24:15Z</time>
      </trkpt>
      <trkpt lat="45.93951" lon="4.79147">
        <ele>197</ele>
        <time>2018-11-11T11:24:16Z</time>
      </trkpt>
      <trkpt lat="45.9395" lon="4.79136">
        <ele>197</ele>
        <time>2018-11-11T11:24:17Z</time>
      </trkpt>
      <trkpt lat="45.9395" lon="4.79125">
        <ele>197</ele>
        <time>2018-11-11T11:24:18Z</time>
      </trkpt>
      <trkpt lat="45.9395" lon="4.79114">
        <ele>197</ele>
        <time>2018-11-11T11:24:19Z</time>
      </trkpt>
      <trkpt lat="45.93949" lon="4.79103">
        <ele>197</ele>
        <time>2018-11-11T11:24:20Z</time>
      </trkpt>
      <trkpt lat="45.9395" lon="4.79093">
        <ele>196</ele>
        <time>2018-11-11T11:24:21Z</time>
      </trkpt>
      <trkpt lat="45.93947" lon="4.79083">
        <ele>196</ele>
        <time>2018-11-11T11:24:22Z</time>
      </trkpt>
      <trkpt lat="45.93947" lon="4.79072">
        <ele>196</ele>
        <time>2018-11-11T11:24:23Z</time>
      </trkpt>
      <trkpt lat="45.93946" lon="4.79063">
        <ele>196</ele>
        <time>2018-11-11T11:24:24Z</time>
      </trkpt>
      <trkpt lat="45.93946" lon="4.79054">
        <ele>196</ele>
        <time>2018-11-11T11:24:25Z</time>
      </trkpt>
      <trkpt lat="45.93945" lon="4.79045">
        <ele>195</ele>
        <time>2018-11-11T11:24:26Z</time>
      </trkpt>
      <trkpt lat="45.93945" lon="4.79035">
        <ele>195</ele>
        <time>2018-11-11T11:24:27Z</time>
      </trkpt>
      <trkpt lat="45.93944" lon="4.79026">
        <ele>195</ele>
        <time>2018-11-11T11:24:28Z</time>
      </trkpt>
      <trkpt lat="45.93944" lon="4.79019">
        <ele>195</ele>
        <time>2018-11-11T11:24:29Z</time>
      </trkpt>
      <trkpt lat="45.93944" lon="4.7901">
        <ele>195</ele>
        <time>2018-11-11T11:24:30Z</time>
      </trkpt>
      <trkpt lat="45.93944" lon="4.79001">
        <ele>194</ele>
        <time>2018-11-11T11:24:31Z</time>
      </trkpt>
      <trkpt lat="45.93944" lon="4.78993">
        <ele>194</ele>
        <time>2018-11-11T11:24:32Z</time>
      </trkpt>
      <trkpt lat="45.93943" lon="4.78985">
        <ele>194</ele>
        <time>2018-11-11T11:24:33Z</time>
      </trkpt>
      <trkpt lat="45.93944" lon="4.78976">
        <ele>194</ele>
        <time>2018-11-11T11:24:34Z</time>
      </trkpt>
      <trkpt lat="45.93944" lon="4.78968">
        <ele>194</ele>
        <time>2018-11-11T11:24:35Z</time>
      </trkpt>
      <trkpt lat="45.93943" lon="4.7896">
        <ele>194</ele>
        <time>2018-11-11T11:24:36Z</time>
      </trkpt>
      <trkpt lat="45.93943" lon="4.78949">
        <ele>194</ele>
        <time>2018-11-11T11:24:37Z</time>
      </trkpt>
      <trkpt lat="45.93943" lon="4.7894">
        <ele>194</ele>
        <time>2018-11-11T11:24:38Z</time>
      </trkpt>
      <trkpt lat="45.93943" lon="4.78931">
        <ele>193</ele>
        <time>2018-11-11T11:24:39Z</time>
      </trkpt>
      <trkpt lat="45.93942" lon="4.78922">
        <ele>193</ele>
        <time>2018-11-11T11:24:40Z</time>
      </trkpt>
      <trkpt lat="45.93942" lon="4.78912">
        <ele>193</ele>
        <time>2018-11-11T11:24:41Z</time>
      </trkpt>
      <trkpt lat="45.93942" lon="4.78903">
        <ele>193</ele>
        <time>2018-11-11T11:24:42Z</time>
      </trkpt>
      <trkpt lat="45.93942" lon="4.78895">
        <ele>193</ele>
        <time>2018-11-11T11:24:43Z</time>
      </trkpt>
      <trkpt lat="45.93942" lon="4.78887">
        <ele>194</ele>
        <time>2018-11-11T11:24:44Z</time>
      </trkpt>
      <trkpt lat="45.93942" lon="4.78879">
        <ele>194</ele>
        <time>2018-11-11T11:24:45Z</time>
      </trkpt>
      <trkpt lat="45.93941" lon="4.7887">
        <ele>194</ele>
        <time>2018-11-11T11:24:46Z</time>
      </trkpt>
      <trkpt lat="45.93941" lon="4.78863">
        <ele>194</ele>
        <time>2018-11-11T11:24:47Z</time>
      </trkpt>
      <trkpt lat="45.9394" lon="4.78855">
        <ele>194</ele>
        <time>2018-11-11T11:24:48Z</time>
      </trkpt>
      <trkpt lat="45.9394" lon="4.78846">
        <ele>193</ele>
        <time>2018-11-11T11:24:49Z</time>
      </trkpt>
      <trkpt lat="45.9394" lon="4.78838">
        <ele>193</ele>
        <time>2018-11-11T11:24:50Z</time>
      </trkpt>
      <trkpt lat="45.93939" lon="4.7883">
        <ele>194</ele>
        <time>2018-11-11T11:24:51Z</time>
      </trkpt>
      <trkpt lat="45.93939" lon="4.78822">
        <ele>194</ele>
        <time>2018-11-11T11:24:52Z</time>
      </trkpt>
      <trkpt lat="45.93939" lon="4.78815">
        <ele>194</ele>
        <time>2018-11-11T11:24:53Z</time>
      </trkpt>
      <trkpt lat="45.93939" lon="4.78807">
        <ele>194</ele>
        <time>2018-11-11T11:24:54Z</time>
      </trkpt>
      <trkpt lat="45.9394" lon="4.78799">
        <ele>194</ele>
        <time>2018-11-11T11:24:55Z</time>
      </trkpt>
      <trkpt lat="45.9394" lon="4.78792">
        <ele>194</ele>
        <time>2018-11-11T11:24:56Z</time>
      </trkpt>
      <trkpt lat="45.9394" lon="4.78783">
        <ele>194</ele>
        <time>2018-11-11T11:24:57Z</time>
      </trkpt>
      <trkpt lat="45.9394" lon="4.78775">
        <ele>194</ele>
        <time>2018-11-11T11:24:58Z</time>
      </trkpt>
      <trkpt lat="45.9394" lon="4.78766">
        <ele>194</ele>
        <time>2018-11-11T11:24:59Z</time>
      </trkpt>
      <trkpt lat="45.9394" lon="4.78757">
        <ele>193</ele>
        <time>2018-11-11T11:25:00Z</time>
      </trkpt>
      <trkpt lat="45.9394" lon="4.7875">
        <ele>193</ele>
        <time>2018-11-11T11:25:01Z</time>
      </trkpt>
      <trkpt lat="45.9394" lon="4.78743">
        <ele>193</ele>
        <time>2018-11-11T11:25:02Z</time>
      </trkpt>
      <trkpt lat="45.9394" lon="4.78736">
        <ele>194</ele>
        <time>2018-11-11T11:25:03Z</time>
      </trkpt>
      <trkpt lat="45.93939" lon="4.78728">
        <ele>194</ele>
        <time>2018-11-11T11:25:04Z</time>
      </trkpt>
      <trkpt lat="45.9394" lon="4.78721">
        <ele>194</ele>
        <time>2018-11-11T11:25:05Z</time>
      </trkpt>
      <trkpt lat="45.9394" lon="4.78714">
        <ele>194</ele>
        <time>2018-11-11T11:25:06Z</time>
      </trkpt>
      <trkpt lat="45.9394" lon="4.78702">
        <ele>194</ele>
        <time>2018-11-11T11:25:08Z</time>
      </trkpt>
      <trkpt lat="45.9394" lon="4.78696">
        <ele>194</ele>
        <time>2018-11-11T11:25:09Z</time>
      </trkpt>
      <trkpt lat="45.9394" lon="4.78689">
        <ele>194</ele>
        <time>2018-11-11T11:25:10Z</time>
      </trkpt>
      <trkpt lat="45.93939" lon="4.78682">
        <ele>194</ele>
        <time>2018-11-11T11:25:11Z</time>
      </trkpt>
      <trkpt lat="45.93938" lon="4.78675">
        <ele>193</ele>
        <time>2018-11-11T11:25:12Z</time>
      </trkpt>
      <trkpt lat="45.93939" lon="4.78667">
        <ele>193</ele>
        <time>2018-11-11T11:25:13Z</time>
      </trkpt>
      <trkpt lat="45.9394" lon="4.7866">
        <ele>194</ele>
        <time>2018-11-11T11:25:14Z</time>
      </trkpt>
      <trkpt lat="45.9394" lon="4.78652">
        <ele>195</ele>
        <time>2018-11-11T11:25:15Z</time>
      </trkpt>
      <trkpt lat="45.9394" lon="4.78646">
        <ele>195</ele>
        <time>2018-11-11T11:25:16Z</time>
      </trkpt>
      <trkpt lat="45.93941" lon="4.78639">
        <ele>195</ele>
        <time>2018-11-11T11:25:17Z</time>
      </trkpt>
      <trkpt lat="45.93942" lon="4.78631">
        <ele>196</ele>
        <time>2018-11-11T11:25:18Z</time>
      </trkpt>
      <trkpt lat="45.93942" lon="4.78625">
        <ele>196</ele>
        <time>2018-11-11T11:25:19Z</time>
      </trkpt>
      <trkpt lat="45.9394" lon="4.78613">
        <ele>196</ele>
        <time>2018-11-11T11:25:21Z</time>
      </trkpt>
      <trkpt lat="45.9394" lon="4.78606">
        <ele>196</ele>
        <time>2018-11-11T11:25:22Z</time>
      </trkpt>
      <trkpt lat="45.93941" lon="4.78598">
        <ele>196</ele>
        <time>2018-11-11T11:25:23Z</time>
      </trkpt>
      <trkpt lat="45.9394" lon="4.78592">
        <ele>196</ele>
        <time>2018-11-11T11:25:24Z</time>
      </trkpt>
      <trkpt lat="45.93939" lon="4.78581">
        <ele>196</ele>
        <time>2018-11-11T11:25:26Z</time>
      </trkpt>
      <trkpt lat="45.93939" lon="4.78577">
        <ele>196</ele>
        <time>2018-11-11T11:25:27Z</time>
      </trkpt>
      <trkpt lat="45.93938" lon="4.78566">
        <ele>197</ele>
        <time>2018-11-11T11:25:30Z</time>
      </trkpt>
      <trkpt lat="45.93937" lon="4.78563">
        <ele>197</ele>
        <time>2018-11-11T11:25:31Z</time>
      </trkpt>
      <trkpt lat="45.93937" lon="4.78551">
        <ele>197</ele>
        <time>2018-11-11T11:25:34Z</time>
      </trkpt>
      <trkpt lat="45.93937" lon="4.78546">
        <ele>197</ele>
        <time>2018-11-11T11:25:35Z</time>
      </trkpt>
      <trkpt lat="45.93938" lon="4.78536">
        <ele>197</ele>
        <time>2018-11-11T11:25:36Z</time>
      </trkpt>
      <trkpt lat="45.93938" lon="4.7853">
        <ele>197</ele>
        <time>2018-11-11T11:25:37Z</time>
      </trkpt>
      <trkpt lat="45.93938" lon="4.78518">
        <ele>197</ele>
        <time>2018-11-11T11:25:39Z</time>
      </trkpt>
      <trkpt lat="45.93938" lon="4.78512">
        <ele>197</ele>
        <time>2018-11-11T11:25:40Z</time>
      </trkpt>
      <trkpt lat="45.93939" lon="4.78499">
        <ele>197</ele>
        <time>2018-11-11T11:25:42Z</time>
      </trkpt>
      <trkpt lat="45.93941" lon="4.78492">
        <ele>197</ele>
        <time>2018-11-11T11:25:43Z</time>
      </trkpt>
      <trkpt lat="45.93941" lon="4.78482">
        <ele>197</ele>
        <time>2018-11-11T11:25:45Z</time>
      </trkpt>
      <trkpt lat="45.93943" lon="4.78476">
        <ele>197</ele>
        <time>2018-11-11T11:25:46Z</time>
      </trkpt>
      <trkpt lat="45.93943" lon="4.7847">
        <ele>197</ele>
        <time>2018-11-11T11:25:47Z</time>
      </trkpt>
      <trkpt lat="45.93945" lon="4.78462">
        <ele>197</ele>
        <time>2018-11-11T11:25:48Z</time>
      </trkpt>
      <trkpt lat="45.93946" lon="4.78455">
        <ele>197</ele>
        <time>2018-11-11T11:25:49Z</time>
      </trkpt>
      <trkpt lat="45.93947" lon="4.78448">
        <ele>197</ele>
        <time>2018-11-11T11:25:50Z</time>
      </trkpt>
      <trkpt lat="45.93948" lon="4.78441">
        <ele>197</ele>
        <time>2018-11-11T11:25:51Z</time>
      </trkpt>
      <trkpt lat="45.9395" lon="4.78433">
        <ele>197</ele>
        <time>2018-11-11T11:25:52Z</time>
      </trkpt>
      <trkpt lat="45.9395" lon="4.78425">
        <ele>197</ele>
        <time>2018-11-11T11:25:53Z</time>
      </trkpt>
      <trkpt lat="45.93952" lon="4.78418">
        <ele>197</ele>
        <time>2018-11-11T11:25:54Z</time>
      </trkpt>
      <trkpt lat="45.93954" lon="4.78409">
        <ele>196</ele>
        <time>2018-11-11T11:25:55Z</time>
      </trkpt>
      <trkpt lat="45.93954" lon="4.78402">
        <ele>196</ele>
        <time>2018-11-11T11:25:56Z</time>
      </trkpt>
      <trkpt lat="45.93955" lon="4.78395">
        <ele>196</ele>
        <time>2018-11-11T11:25:57Z</time>
      </trkpt>
      <trkpt lat="45.93956" lon="4.7839">
        <ele>196</ele>
        <time>2018-11-11T11:25:58Z</time>
      </trkpt>
      <trkpt lat="45.93957" lon="4.78382">
        <ele>196</ele>
        <time>2018-11-11T11:25:59Z</time>
      </trkpt>
      <trkpt lat="45.93957" lon="4.78375">
        <ele>196</ele>
        <time>2018-11-11T11:26:00Z</time>
      </trkpt>
      <trkpt lat="45.93957" lon="4.78367">
        <ele>196</ele>
        <time>2018-11-11T11:26:01Z</time>
      </trkpt>
      <trkpt lat="45.93958" lon="4.7836">
        <ele>196</ele>
        <time>2018-11-11T11:26:02Z</time>
      </trkpt>
      <trkpt lat="45.93959" lon="4.78353">
        <ele>196</ele>
        <time>2018-11-11T11:26:03Z</time>
      </trkpt>
      <trkpt lat="45.9396" lon="4.78347">
        <ele>196</ele>
        <time>2018-11-11T11:26:04Z</time>
      </trkpt>
      <trkpt lat="45.93962" lon="4.78334">
        <ele>196</ele>
        <time>2018-11-11T11:26:06Z</time>
      </trkpt>
      <trkpt lat="45.93962" lon="4.78329">
        <ele>196</ele>
        <time>2018-11-11T11:26:07Z</time>
      </trkpt>
      <trkpt lat="45.93963" lon="4.78322">
        <ele>196</ele>
        <time>2018-11-11T11:26:08Z</time>
      </trkpt>
      <trkpt lat="45.93964" lon="4.78315">
        <ele>196</ele>
        <time>2018-11-11T11:26:09Z</time>
      </trkpt>
      <trkpt lat="45.93964" lon="4.78309">
        <ele>196</ele>
        <time>2018-11-11T11:26:10Z</time>
      </trkpt>
      <trkpt lat="45.93965" lon="4.78302">
        <ele>196</ele>
        <time>2018-11-11T11:26:11Z</time>
      </trkpt>
      <trkpt lat="45.93966" lon="4.78296">
        <ele>195</ele>
        <time>2018-11-11T11:26:12Z</time>
      </trkpt>
      <trkpt lat="45.93967" lon="4.78289">
        <ele>195</ele>
        <time>2018-11-11T11:26:13Z</time>
      </trkpt>
      <trkpt lat="45.93968" lon="4.78283">
        <ele>196</ele>
        <time>2018-11-11T11:26:14Z</time>
      </trkpt>
      <trkpt lat="45.93969" lon="4.78275">
        <ele>196</ele>
        <time>2018-11-11T11:26:15Z</time>
      </trkpt>
      <trkpt lat="45.9397" lon="4.78266">
        <ele>196</ele>
        <time>2018-11-11T11:26:16Z</time>
      </trkpt>
      <trkpt lat="45.93971" lon="4.78258">
        <ele>196</ele>
        <time>2018-11-11T11:26:17Z</time>
      </trkpt>
      <trkpt lat="45.93972" lon="4.78246">
        <ele>196</ele>
        <time>2018-11-11T11:26:19Z</time>
      </trkpt>
      <trkpt lat="45.93973" lon="4.78239">
        <ele>196</ele>
        <time>2018-11-11T11:26:20Z</time>
      </trkpt>
      <trkpt lat="45.93974" lon="4.78231">
        <ele>196</ele>
        <time>2018-11-11T11:26:21Z</time>
      </trkpt>
      <trkpt lat="45.93974" lon="4.78226">
        <ele>196</ele>
        <time>2018-11-11T11:26:22Z</time>
      </trkpt>
      <trkpt lat="45.93975" lon="4.78215">
        <ele>196</ele>
        <time>2018-11-11T11:26:24Z</time>
      </trkpt>
      <trkpt lat="45.93976" lon="4.7821">
        <ele>197</ele>
        <time>2018-11-11T11:26:25Z</time>
      </trkpt>
      <trkpt lat="45.93978" lon="4.78197">
        <ele>197</ele>
        <time>2018-11-11T11:26:27Z</time>
      </trkpt>
      <trkpt lat="45.93978" lon="4.78194">
        <ele>197</ele>
        <time>2018-11-11T11:26:28Z</time>
      </trkpt>
      <trkpt lat="45.93981" lon="4.78185">
        <ele>198</ele>
        <time>2018-11-11T11:26:30Z</time>
      </trkpt>
      <trkpt lat="45.93982" lon="4.78181">
        <ele>198</ele>
        <time>2018-11-11T11:26:31Z</time>
      </trkpt>
      <trkpt lat="45.93985" lon="4.78174">
        <ele>198</ele>
        <time>2018-11-11T11:26:33Z</time>
      </trkpt>
      <trkpt lat="45.93987" lon="4.7817">
        <ele>199</ele>
        <time>2018-11-11T11:26:34Z</time>
      </trkpt>
      <trkpt lat="45.93993" lon="4.78163">
        <ele>200</ele>
        <time>2018-11-11T11:26:37Z</time>
      </trkpt>
      <trkpt lat="45.93995" lon="4.78162">
        <ele>200</ele>
        <time>2018-11-11T11:26:38Z</time>
      </trkpt>
      <trkpt lat="45.94002" lon="4.78156">
        <ele>202</ele>
        <time>2018-11-11T11:26:46Z</time>
      </trkpt>
      <trkpt lat="45.94003" lon="4.78153">
        <ele>202</ele>
        <time>2018-11-11T11:26:47Z</time>
      </trkpt>
      <trkpt lat="45.94008" lon="4.78143">
        <ele>203</ele>
        <time>2018-11-11T11:26:50Z</time>
      </trkpt>
      <trkpt lat="45.94009" lon="4.78139">
        <ele>203</ele>
        <time>2018-11-11T11:26:51Z</time>
      </trkpt>
      <trkpt lat="45.94012" lon="4.78131">
        <ele>203</ele>
        <time>2018-11-11T11:26:52Z</time>
      </trkpt>
      <trkpt lat="45.94013" lon="4.78125">
        <ele>203</ele>
        <time>2018-11-11T11:26:53Z</time>
      </trkpt>
      <trkpt lat="45.94013" lon="4.78116">
        <ele>203</ele>
        <time>2018-11-11T11:26:54Z</time>
      </trkpt>
      <trkpt lat="45.94015" lon="4.7811">
        <ele>203</ele>
        <time>2018-11-11T11:26:55Z</time>
      </trkpt>
      <trkpt lat="45.94019" lon="4.78099">
        <ele>203</ele>
        <time>2018-11-11T11:26:57Z</time>
      </trkpt>
      <trkpt lat="45.94019" lon="4.78096">
        <ele>203</ele>
        <time>2018-11-11T11:26:58Z</time>
      </trkpt>
      <trkpt lat="45.94021" lon="4.78085">
        <ele>202</ele>
        <time>2018-11-11T11:27:01Z</time>
      </trkpt>
      <trkpt lat="45.94022" lon="4.78081">
        <ele>202</ele>
        <time>2018-11-11T11:27:02Z</time>
      </trkpt>
      <trkpt lat="45.94023" lon="4.78073">
        <ele>202</ele>
        <time>2018-11-11T11:27:04Z</time>
      </trkpt>
      <trkpt lat="45.94025" lon="4.78063">
        <ele>202</ele>
        <time>2018-11-11T11:27:05Z</time>
      </trkpt>
      <trkpt lat="45.94028" lon="4.78051">
        <ele>202</ele>
        <time>2018-11-11T11:27:07Z</time>
      </trkpt>
      <trkpt lat="45.94029" lon="4.78044">
        <ele>202</ele>
        <time>2018-11-11T11:27:08Z</time>
      </trkpt>
      <trkpt lat="45.9403" lon="4.78038">
        <ele>202</ele>
        <time>2018-11-11T11:27:09Z</time>
      </trkpt>
      <trkpt lat="45.94032" lon="4.7803">
        <ele>202</ele>
        <time>2018-11-11T11:27:10Z</time>
      </trkpt>
      <trkpt lat="45.94032" lon="4.78023">
        <ele>202</ele>
        <time>2018-11-11T11:27:11Z</time>
      </trkpt>
      <trkpt lat="45.94033" lon="4.78016">
        <ele>202</ele>
        <time>2018-11-11T11:27:12Z</time>
      </trkpt>
      <trkpt lat="45.94034" lon="4.78008">
        <ele>202</ele>
        <time>2018-11-11T11:27:13Z</time>
      </trkpt>
      <trkpt lat="45.94035" lon="4.78001">
        <ele>202</ele>
        <time>2018-11-11T11:27:14Z</time>
      </trkpt>
      <trkpt lat="45.94036" lon="4.77993">
        <ele>201</ele>
        <time>2018-11-11T11:27:15Z</time>
      </trkpt>
      <trkpt lat="45.94036" lon="4.77985">
        <ele>201</ele>
        <time>2018-11-11T11:27:16Z</time>
      </trkpt>
      <trkpt lat="45.94037" lon="4.77972">
        <ele>201</ele>
        <time>2018-11-11T11:27:20Z</time>
      </trkpt>
      <trkpt lat="45.94037" lon="4.77969">
        <ele>201</ele>
        <time>2018-11-11T11:27:21Z</time>
      </trkpt>
      <trkpt lat="45.94041" lon="4.77957">
        <ele>201</ele>
        <time>2018-11-11T11:27:31Z</time>
      </trkpt>
      <trkpt lat="45.94041" lon="4.77955">
        <ele>201</ele>
        <time>2018-11-11T11:27:32Z</time>
      </trkpt>
      <trkpt lat="45.9404" lon="4.77942">
        <ele>201</ele>
        <time>2018-11-11T11:27:37Z</time>
      </trkpt>
      <trkpt lat="45.9404" lon="4.7794">
        <ele>201</ele>
        <time>2018-11-11T11:27:38Z</time>
      </trkpt>
      <trkpt lat="45.94037" lon="4.7793">
        <ele>201</ele>
        <time>2018-11-11T11:27:43Z</time>
      </trkpt>
      <trkpt lat="45.94037" lon="4.77927">
        <ele>201</ele>
        <time>2018-11-11T11:27:44Z</time>
      </trkpt>
      <trkpt lat="45.94036" lon="4.77917">
        <ele>200</ele>
        <time>2018-11-11T11:27:47Z</time>
      </trkpt>
      <trkpt lat="45.94036" lon="4.77914">
        <ele>199</ele>
        <time>2018-11-11T11:27:48Z</time>
      </trkpt>
      <trkpt lat="45.9403" lon="4.77919">
        <ele>200</ele>
        <time>2018-11-11T11:27:58Z</time>
      </trkpt>
      <trkpt lat="45.94028" lon="4.77923">
        <ele>200</ele>
        <time>2018-11-11T11:27:59Z</time>
      </trkpt>
      <trkpt lat="45.94023" lon="4.77928">
        <ele>199</ele>
        <time>2018-11-11T11:28:01Z</time>
      </trkpt>
      <trkpt lat="45.94019" lon="4.77929">
        <ele>199</ele>
        <time>2018-11-11T11:28:02Z</time>
      </trkpt>
      <trkpt lat="45.94014" lon="4.77928">
        <ele>198</ele>
        <time>2018-11-11T11:28:03Z</time>
      </trkpt>
      <trkpt lat="45.94009" lon="4.77925">
        <ele>197</ele>
        <time>2018-11-11T11:28:04Z</time>
      </trkpt>
      <trkpt lat="45.94005" lon="4.77923">
        <ele>196</ele>
        <time>2018-11-11T11:28:05Z</time>
      </trkpt>
      <trkpt lat="45.93999" lon="4.77922">
        <ele>193</ele>
        <time>2018-11-11T11:28:06Z</time>
      </trkpt>
      <trkpt lat="45.93993" lon="4.77923">
        <ele>193</ele>
        <time>2018-11-11T11:28:07Z</time>
      </trkpt>
      <trkpt lat="45.93988" lon="4.77925">
        <ele>192</ele>
        <time>2018-11-11T11:28:08Z</time>
      </trkpt>
      <trkpt lat="45.93982" lon="4.77928">
        <ele>192</ele>
        <time>2018-11-11T11:28:09Z</time>
      </trkpt>
      <trkpt lat="45.93976" lon="4.77932">
        <ele>191</ele>
        <time>2018-11-11T11:28:10Z</time>
      </trkpt>
      <trkpt lat="45.9397" lon="4.77937">
        <ele>191</ele>
        <time>2018-11-11T11:28:11Z</time>
      </trkpt>
      <trkpt lat="45.93964" lon="4.77942">
        <ele>190</ele>
        <time>2018-11-11T11:28:12Z</time>
      </trkpt>
      <trkpt lat="45.93956" lon="4.77947">
        <ele>190</ele>
        <time>2018-11-11T11:28:13Z</time>
      </trkpt>
      <trkpt lat="45.93949" lon="4.77953">
        <ele>189</ele>
        <time>2018-11-11T11:28:14Z</time>
      </trkpt>
      <trkpt lat="45.93942" lon="4.77958">
        <ele>189</ele>
        <time>2018-11-11T11:28:15Z</time>
      </trkpt>
      <trkpt lat="45.93935" lon="4.77964">
        <ele>189</ele>
        <time>2018-11-11T11:28:16Z</time>
      </trkpt>
      <trkpt lat="45.93929" lon="4.77968">
        <ele>189</ele>
        <time>2018-11-11T11:28:17Z</time>
      </trkpt>
      <trkpt lat="45.93925" lon="4.77971">
        <ele>188</ele>
        <time>2018-11-11T11:28:18Z</time>
      </trkpt>
      <trkpt lat="45.9392" lon="4.77975">
        <ele>188</ele>
        <time>2018-11-11T11:28:19Z</time>
      </trkpt>
      <trkpt lat="45.93917" lon="4.77978">
        <ele>188</ele>
        <time>2018-11-11T11:28:20Z</time>
      </trkpt>
      <trkpt lat="45.93909" lon="4.77984">
        <ele>183</ele>
        <time>2018-11-11T11:28:24Z</time>
      </trkpt>
      <trkpt lat="45.93907" lon="4.77987">
        <ele>183</ele>
        <time>2018-11-11T11:28:25Z</time>
      </trkpt>
      <trkpt lat="45.93901" lon="4.77992">
        <ele>183</ele>
        <time>2018-11-11T11:28:28Z</time>
      </trkpt>
      <trkpt lat="45.939" lon="4.77994">
        <ele>183</ele>
        <time>2018-11-11T11:28:29Z</time>
      </trkpt>
      <trkpt lat="45.93895" lon="4.78003">
        <ele>185</ele>
        <time>2018-11-11T11:28:32Z</time>
      </trkpt>
      <trkpt lat="45.93893" lon="4.78006">
        <ele>184</ele>
        <time>2018-11-11T11:28:33Z</time>
      </trkpt>
      <trkpt lat="45.93887" lon="4.78014">
        <ele>184</ele>
        <time>2018-11-11T11:28:34Z</time>
      </trkpt>
      <trkpt lat="45.93883" lon="4.78017">
        <ele>184</ele>
        <time>2018-11-11T11:28:35Z</time>
      </trkpt>
      <trkpt lat="45.93874" lon="4.78016">
        <ele>183</ele>
        <time>2018-11-11T11:28:38Z</time>
      </trkpt>
      <trkpt lat="45.93872" lon="4.78014">
        <ele>183</ele>
        <time>2018-11-11T11:28:39Z</time>
      </trkpt>
      <trkpt lat="45.93869" lon="4.78007">
        <ele>183</ele>
        <time>2018-11-11T11:28:40Z</time>
      </trkpt>
      <trkpt lat="45.93867" lon="4.78002">
        <ele>183</ele>
        <time>2018-11-11T11:28:41Z</time>
      </trkpt>
      <trkpt lat="45.93861" lon="4.77993">
        <ele>179</ele>
        <time>2018-11-11T11:28:43Z</time>
      </trkpt>
      <trkpt lat="45.93856" lon="4.77993">
        <ele>179</ele>
        <time>2018-11-11T11:28:44Z</time>
      </trkpt>
      <trkpt lat="45.93849" lon="4.77992">
        <ele>179</ele>
        <time>2018-11-11T11:28:46Z</time>
      </trkpt>
      <trkpt lat="45.93845" lon="4.77989">
        <ele>179</ele>
        <time>2018-11-11T11:28:47Z</time>
      </trkpt>
      <trkpt lat="45.93841" lon="4.77984">
        <ele>178</ele>
        <time>2018-11-11T11:28:48Z</time>
      </trkpt>
      <trkpt lat="45.93838" lon="4.77979">
        <ele>178</ele>
        <time>2018-11-11T11:28:49Z</time>
      </trkpt>
      <trkpt lat="45.93835" lon="4.77975">
        <ele>178</ele>
        <time>2018-11-11T11:28:50Z</time>
      </trkpt>
      <trkpt lat="45.93832" lon="4.77969">
        <ele>172</ele>
        <time>2018-11-11T11:28:51Z</time>
      </trkpt>
      <trkpt lat="45.93829" lon="4.77965">
        <ele>171</ele>
        <time>2018-11-11T11:28:52Z</time>
      </trkpt>
      <trkpt lat="45.93824" lon="4.7796">
        <ele>170</ele>
        <time>2018-11-11T11:28:53Z</time>
      </trkpt>
      <trkpt lat="45.9382" lon="4.77956">
        <ele>170</ele>
        <time>2018-11-11T11:28:54Z</time>
      </trkpt>
      <trkpt lat="45.93816" lon="4.77952">
        <ele>170</ele>
        <time>2018-11-11T11:28:55Z</time>
      </trkpt>
      <trkpt lat="45.9381" lon="4.77943">
        <ele>169</ele>
        <time>2018-11-11T11:28:57Z</time>
      </trkpt>
      <trkpt lat="45.93806" lon="4.77939">
        <ele>169</ele>
        <time>2018-11-11T11:28:58Z</time>
      </trkpt>
      <trkpt lat="45.938" lon="4.7793">
        <ele>168</ele>
        <time>2018-11-11T11:29:00Z</time>
      </trkpt>
      <trkpt lat="45.93797" lon="4.77926">
        <ele>168</ele>
        <time>2018-11-11T11:29:01Z</time>
      </trkpt>
      <trkpt lat="45.9379" lon="4.77918">
        <ele>168</ele>
        <time>2018-11-11T11:29:03Z</time>
      </trkpt>
      <trkpt lat="45.93787" lon="4.77914">
        <ele>166</ele>
        <time>2018-11-11T11:29:04Z</time>
      </trkpt>
      <trkpt lat="45.93781" lon="4.77905">
        <ele>166</ele>
        <time>2018-11-11T11:29:06Z</time>
      </trkpt>
      <trkpt lat="45.93778" lon="4.779">
        <ele>166</ele>
        <time>2018-11-11T11:29:07Z</time>
      </trkpt>
      <trkpt lat="45.93774" lon="4.77894">
        <ele>166</ele>
        <time>2018-11-11T11:29:08Z</time>
      </trkpt>
      <trkpt lat="45.93771" lon="4.77889">
        <ele>166</ele>
        <time>2018-11-11T11:29:09Z</time>
      </trkpt>
      <trkpt lat="45.93764" lon="4.77881">
        <ele>166</ele>
        <time>2018-11-11T11:29:11Z</time>
      </trkpt>
      <trkpt lat="45.93762" lon="4.77878">
        <ele>166</ele>
        <time>2018-11-11T11:29:12Z</time>
      </trkpt>
      <trkpt lat="45.93757" lon="4.7787">
        <ele>166</ele>
        <time>2018-11-11T11:29:14Z</time>
      </trkpt>
      <trkpt lat="45.93754" lon="4.77866">
        <ele>166</ele>
        <time>2018-11-11T11:29:15Z</time>
      </trkpt>
      <trkpt lat="45.93748" lon="4.77859">
        <ele>167</ele>
        <time>2018-11-11T11:29:17Z</time>
      </trkpt>
      <trkpt lat="45.93744" lon="4.77855">
        <ele>167</ele>
        <time>2018-11-11T11:29:18Z</time>
      </trkpt>
      <trkpt lat="45.93741" lon="4.7785">
        <ele>167</ele>
        <time>2018-11-11T11:29:19Z</time>
      </trkpt>
      <trkpt lat="45.93737" lon="4.77846">
        <ele>167</ele>
        <time>2018-11-11T11:29:20Z</time>
      </trkpt>
      <trkpt lat="45.93734" lon="4.77841">
        <ele>167</ele>
        <time>2018-11-11T11:29:21Z</time>
      </trkpt>
      <trkpt lat="45.9373" lon="4.77836">
        <ele>167</ele>
        <time>2018-11-11T11:29:22Z</time>
      </trkpt>
      <trkpt lat="45.93723" lon="4.77827">
        <ele>168</ele>
        <time>2018-11-11T11:29:24Z</time>
      </trkpt>
      <trkpt lat="45.9372" lon="4.77822">
        <ele>168</ele>
        <time>2018-11-11T11:29:25Z</time>
      </trkpt>
      <trkpt lat="45.93714" lon="4.77813">
        <ele>169</ele>
        <time>2018-11-11T11:29:27Z</time>
      </trkpt>
      <trkpt lat="45.93711" lon="4.7781">
        <ele>169</ele>
        <time>2018-11-11T11:29:28Z</time>
      </trkpt>
      <trkpt lat="45.93704" lon="4.77801">
        <ele>169</ele>
        <time>2018-11-11T11:29:30Z</time>
      </trkpt>
      <trkpt lat="45.93702" lon="4.77797">
        <ele>169</ele>
        <time>2018-11-11T11:29:31Z</time>
      </trkpt>
      <trkpt lat="45.93698" lon="4.77793">
        <ele>169</ele>
        <time>2018-11-11T11:29:32Z</time>
      </trkpt>
      <trkpt lat="45.93694" lon="4.77788">
        <ele>170</ele>
        <time>2018-11-11T11:29:33Z</time>
      </trkpt>
      <trkpt lat="45.93691" lon="4.77782">
        <ele>170</ele>
        <time>2018-11-11T11:29:34Z</time>
      </trkpt>
      <trkpt lat="45.93687" lon="4.77777">
        <ele>170</ele>
        <time>2018-11-11T11:29:35Z</time>
      </trkpt>
      <trkpt lat="45.93683" lon="4.77772">
        <ele>170</ele>
        <time>2018-11-11T11:29:36Z</time>
      </trkpt>
      <trkpt lat="45.93679" lon="4.77767">
        <ele>170</ele>
        <time>2018-11-11T11:29:37Z</time>
      </trkpt>
      <trkpt lat="45.93676" lon="4.77762">
        <ele>170</ele>
        <time>2018-11-11T11:29:38Z</time>
      </trkpt>
      <trkpt lat="45.93672" lon="4.77756">
        <ele>171</ele>
        <time>2018-11-11T11:29:39Z</time>
      </trkpt>
      <trkpt lat="45.93668" lon="4.7775">
        <ele>171</ele>
        <time>2018-11-11T11:29:40Z</time>
      </trkpt>
      <trkpt lat="45.93664" lon="4.77744">
        <ele>171</ele>
        <time>2018-11-11T11:29:41Z</time>
      </trkpt>
      <trkpt lat="45.9366" lon="4.77738">
        <ele>170</ele>
        <time>2018-11-11T11:29:42Z</time>
      </trkpt>
      <trkpt lat="45.93655" lon="4.77732">
        <ele>170</ele>
        <time>2018-11-11T11:29:43Z</time>
      </trkpt>
      <trkpt lat="45.93652" lon="4.77726">
        <ele>170</ele>
        <time>2018-11-11T11:29:44Z</time>
      </trkpt>
      <trkpt lat="45.93648" lon="4.77719">
        <ele>170</ele>
        <time>2018-11-11T11:29:45Z</time>
      </trkpt>
      <trkpt lat="45.93644" lon="4.77713">
        <ele>170</ele>
        <time>2018-11-11T11:29:46Z</time>
      </trkpt>
      <trkpt lat="45.9364" lon="4.77705">
        <ele>170</ele>
        <time>2018-11-11T11:29:47Z</time>
      </trkpt>
      <trkpt lat="45.93635" lon="4.77698">
        <ele>169</ele>
        <time>2018-11-11T11:29:48Z</time>
      </trkpt>
      <trkpt lat="45.93631" lon="4.7769">
        <ele>169</ele>
        <time>2018-11-11T11:29:49Z</time>
      </trkpt>
      <trkpt lat="45.93627" lon="4.77682">
        <ele>169</ele>
        <time>2018-11-11T11:29:50Z</time>
      </trkpt>
      <trkpt lat="45.93623" lon="4.77674">
        <ele>169</ele>
        <time>2018-11-11T11:29:51Z</time>
      </trkpt>
      <trkpt lat="45.9362" lon="4.77667">
        <ele>169</ele>
        <time>2018-11-11T11:29:52Z</time>
      </trkpt>
      <trkpt lat="45.93617" lon="4.77659">
        <ele>169</ele>
        <time>2018-11-11T11:29:53Z</time>
      </trkpt>
      <trkpt lat="45.93613" lon="4.77651">
        <ele>169</ele>
        <time>2018-11-11T11:29:54Z</time>
      </trkpt>
      <trkpt lat="45.9361" lon="4.77644">
        <ele>169</ele>
        <time>2018-11-11T11:29:55Z</time>
      </trkpt>
      <trkpt lat="45.93607" lon="4.77636">
        <ele>169</ele>
        <time>2018-11-11T11:29:56Z</time>
      </trkpt>
      <trkpt lat="45.93604" lon="4.77628">
        <ele>169</ele>
        <time>2018-11-11T11:29:57Z</time>
      </trkpt>
      <trkpt lat="45.93601" lon="4.77621">
        <ele>170</ele>
        <time>2018-11-11T11:29:58Z</time>
      </trkpt>
      <trkpt lat="45.93599" lon="4.77614">
        <ele>170</ele>
        <time>2018-11-11T11:29:59Z</time>
      </trkpt>
      <trkpt lat="45.93597" lon="4.77607">
        <ele>170</ele>
        <time>2018-11-11T11:30:00Z</time>
      </trkpt>
      <trkpt lat="45.93594" lon="4.776">
        <ele>170</ele>
        <time>2018-11-11T11:30:01Z</time>
      </trkpt>
      <trkpt lat="45.93592" lon="4.77594">
        <ele>170</ele>
        <time>2018-11-11T11:30:02Z</time>
      </trkpt>
      <trkpt lat="45.9359" lon="4.77587">
        <ele>170</ele>
        <time>2018-11-11T11:30:03Z</time>
      </trkpt>
      <trkpt lat="45.93588" lon="4.7758">
        <ele>170</ele>
        <time>2018-11-11T11:30:04Z</time>
      </trkpt>
      <trkpt lat="45.93585" lon="4.77573">
        <ele>170</ele>
        <time>2018-11-11T11:30:05Z</time>
      </trkpt>
      <trkpt lat="45.93583" lon="4.77565">
        <ele>169</ele>
        <time>2018-11-11T11:30:06Z</time>
      </trkpt>
      <trkpt lat="45.93582" lon="4.77556">
        <ele>169</ele>
        <time>2018-11-11T11:30:07Z</time>
      </trkpt>
      <trkpt lat="45.9358" lon="4.77549">
        <ele>169</ele>
        <time>2018-11-11T11:30:08Z</time>
      </trkpt>
      <trkpt lat="45.93578" lon="4.77541">
        <ele>169</ele>
        <time>2018-11-11T11:30:09Z</time>
      </trkpt>
      <trkpt lat="45.93576" lon="4.77533">
        <ele>169</ele>
        <time>2018-11-11T11:30:10Z</time>
      </trkpt>
      <trkpt lat="45.93574" lon="4.77525">
        <ele>169</ele>
        <time>2018-11-11T11:30:11Z</time>
      </trkpt>
      <trkpt lat="45.93573" lon="4.77518">
        <ele>169</ele>
        <time>2018-11-11T11:30:12Z</time>
      </trkpt>
      <trkpt lat="45.93571" lon="4.7751">
        <ele>169</ele>
        <time>2018-11-11T11:30:13Z</time>
      </trkpt>
      <trkpt lat="45.9357" lon="4.77501">
        <ele>169</ele>
        <time>2018-11-11T11:30:14Z</time>
      </trkpt>
      <trkpt lat="45.93568" lon="4.77494">
        <ele>169</ele>
        <time>2018-11-11T11:30:15Z</time>
      </trkpt>
      <trkpt lat="45.93567" lon="4.77486">
        <ele>169</ele>
        <time>2018-11-11T11:30:16Z</time>
      </trkpt>
      <trkpt lat="45.93565" lon="4.77479">
        <ele>169</ele>
        <time>2018-11-11T11:30:17Z</time>
      </trkpt>
      <trkpt lat="45.93564" lon="4.77472">
        <ele>169</ele>
        <time>2018-11-11T11:30:18Z</time>
      </trkpt>
      <trkpt lat="45.93563" lon="4.77466">
        <ele>169</ele>
        <time>2018-11-11T11:30:19Z</time>
      </trkpt>
      <trkpt lat="45.93561" lon="4.77458">
        <ele>169</ele>
        <time>2018-11-11T11:30:20Z</time>
      </trkpt>
      <trkpt lat="45.9356" lon="4.77451">
        <ele>169</ele>
        <time>2018-11-11T11:30:21Z</time>
      </trkpt>
      <trkpt lat="45.93558" lon="4.77442">
        <ele>169</ele>
        <time>2018-11-11T11:30:22Z</time>
      </trkpt>
      <trkpt lat="45.93556" lon="4.77434">
        <ele>169</ele>
        <time>2018-11-11T11:30:23Z</time>
      </trkpt>
      <trkpt lat="45.93554" lon="4.77427">
        <ele>170</ele>
        <time>2018-11-11T11:30:24Z</time>
      </trkpt>
      <trkpt lat="45.93552" lon="4.7742">
        <ele>170</ele>
        <time>2018-11-11T11:30:25Z</time>
      </trkpt>
      <trkpt lat="45.93551" lon="4.77412">
        <ele>170</ele>
        <time>2018-11-11T11:30:26Z</time>
      </trkpt>
      <trkpt lat="45.93549" lon="4.77404">
        <ele>170</ele>
        <time>2018-11-11T11:30:27Z</time>
      </trkpt>
      <trkpt lat="45.93547" lon="4.77396">
        <ele>170</ele>
        <time>2018-11-11T11:30:28Z</time>
      </trkpt>
      <trkpt lat="45.93545" lon="4.77389">
        <ele>170</ele>
        <time>2018-11-11T11:30:29Z</time>
      </trkpt>
      <trkpt lat="45.93543" lon="4.77381">
        <ele>170</ele>
        <time>2018-11-11T11:30:30Z</time>
      </trkpt>
      <trkpt lat="45.93542" lon="4.77371">
        <ele>170</ele>
        <time>2018-11-11T11:30:31Z</time>
      </trkpt>
      <trkpt lat="45.9354" lon="4.77363">
        <ele>170</ele>
        <time>2018-11-11T11:30:32Z</time>
      </trkpt>
      <trkpt lat="45.93538" lon="4.77355">
        <ele>170</ele>
        <time>2018-11-11T11:30:33Z</time>
      </trkpt>
      <trkpt lat="45.93537" lon="4.77347">
        <ele>170</ele>
        <time>2018-11-11T11:30:34Z</time>
      </trkpt>
      <trkpt lat="45.93535" lon="4.77339">
        <ele>170</ele>
        <time>2018-11-11T11:30:35Z</time>
      </trkpt>
      <trkpt lat="45.93533" lon="4.77332">
        <ele>170</ele>
        <time>2018-11-11T11:30:36Z</time>
      </trkpt>
      <trkpt lat="45.93532" lon="4.77325">
        <ele>170</ele>
        <time>2018-11-11T11:30:37Z</time>
      </trkpt>
      <trkpt lat="45.9353" lon="4.77319">
        <ele>170</ele>
        <time>2018-11-11T11:30:38Z</time>
      </trkpt>
      <trkpt lat="45.93528" lon="4.77312">
        <ele>170</ele>
        <time>2018-11-11T11:30:39Z</time>
      </trkpt>
      <trkpt lat="45.93525" lon="4.77301">
        <ele>170</ele>
        <time>2018-11-11T11:30:41Z</time>
      </trkpt>
      <trkpt lat="45.93524" lon="4.77295">
        <ele>170</ele>
        <time>2018-11-11T11:30:42Z</time>
      </trkpt>
      <trkpt lat="45.93522" lon="4.77288">
        <ele>170</ele>
        <time>2018-11-11T11:30:43Z</time>
      </trkpt>
      <trkpt lat="45.93521" lon="4.77281">
        <ele>170</ele>
        <time>2018-11-11T11:30:44Z</time>
      </trkpt>
      <trkpt lat="45.9352" lon="4.77274">
        <ele>170</ele>
        <time>2018-11-11T11:30:45Z</time>
      </trkpt>
      <trkpt lat="45.93518" lon="4.77267">
        <ele>170</ele>
        <time>2018-11-11T11:30:46Z</time>
      </trkpt>
      <trkpt lat="45.93516" lon="4.7726">
        <ele>170</ele>
        <time>2018-11-11T11:30:47Z</time>
      </trkpt>
      <trkpt lat="45.93515" lon="4.77252">
        <ele>170</ele>
        <time>2018-11-11T11:30:48Z</time>
      </trkpt>
      <trkpt lat="45.93514" lon="4.77246">
        <ele>169</ele>
        <time>2018-11-11T11:30:49Z</time>
      </trkpt>
      <trkpt lat="45.93513" lon="4.77238">
        <ele>169</ele>
        <time>2018-11-11T11:30:50Z</time>
      </trkpt>
      <trkpt lat="45.93511" lon="4.7723">
        <ele>169</ele>
        <time>2018-11-11T11:30:51Z</time>
      </trkpt>
      <trkpt lat="45.93509" lon="4.77222">
        <ele>169</ele>
        <time>2018-11-11T11:30:52Z</time>
      </trkpt>
      <trkpt lat="45.93506" lon="4.77214">
        <ele>169</ele>
        <time>2018-11-11T11:30:53Z</time>
      </trkpt>
      <trkpt lat="45.93505" lon="4.77206">
        <ele>169</ele>
        <time>2018-11-11T11:30:54Z</time>
      </trkpt>
      <trkpt lat="45.93503" lon="4.77198">
        <ele>169</ele>
        <time>2018-11-11T11:30:55Z</time>
      </trkpt>
      <trkpt lat="45.93501" lon="4.7719">
        <ele>169</ele>
        <time>2018-11-11T11:30:56Z</time>
      </trkpt>
      <trkpt lat="45.93499" lon="4.77183">
        <ele>169</ele>
        <time>2018-11-11T11:30:57Z</time>
      </trkpt>
      <trkpt lat="45.93498" lon="4.77175">
        <ele>169</ele>
        <time>2018-11-11T11:30:58Z</time>
      </trkpt>
      <trkpt lat="45.93496" lon="4.77169">
        <ele>169</ele>
        <time>2018-11-11T11:30:59Z</time>
      </trkpt>
      <trkpt lat="45.93494" lon="4.77162">
        <ele>169</ele>
        <time>2018-11-11T11:31:00Z</time>
      </trkpt>
      <trkpt lat="45.93493" lon="4.77155">
        <ele>169</ele>
        <time>2018-11-11T11:31:01Z</time>
      </trkpt>
      <trkpt lat="45.93492" lon="4.77148">
        <ele>169</ele>
        <time>2018-11-11T11:31:02Z</time>
      </trkpt>
      <trkpt lat="45.9349" lon="4.77141">
        <ele>169</ele>
        <time>2018-11-11T11:31:03Z</time>
      </trkpt>
      <trkpt lat="45.93488" lon="4.77134">
        <ele>169</ele>
        <time>2018-11-11T11:31:04Z</time>
      </trkpt>
      <trkpt lat="45.93487" lon="4.77128">
        <ele>169</ele>
        <time>2018-11-11T11:31:05Z</time>
      </trkpt>
      <trkpt lat="45.93486" lon="4.77121">
        <ele>169</ele>
        <time>2018-11-11T11:31:06Z</time>
      </trkpt>
      <trkpt lat="45.93485" lon="4.77115">
        <ele>169</ele>
        <time>2018-11-11T11:31:07Z</time>
      </trkpt>
      <trkpt lat="45.93483" lon="4.77107">
        <ele>169</ele>
        <time>2018-11-11T11:31:08Z</time>
      </trkpt>
      <trkpt lat="45.93481" lon="4.771">
        <ele>169</ele>
        <time>2018-11-11T11:31:09Z</time>
      </trkpt>
      <trkpt lat="45.9348" lon="4.77093">
        <ele>169</ele>
        <time>2018-11-11T11:31:10Z</time>
      </trkpt>
      <trkpt lat="45.93479" lon="4.77087">
        <ele>169</ele>
        <time>2018-11-11T11:31:11Z</time>
      </trkpt>
      <trkpt lat="45.93478" lon="4.77079">
        <ele>170</ele>
        <time>2018-11-11T11:31:12Z</time>
      </trkpt>
      <trkpt lat="45.93476" lon="4.77067">
        <ele>170</ele>
        <time>2018-11-11T11:31:14Z</time>
      </trkpt>
      <trkpt lat="45.93475" lon="4.7706">
        <ele>170</ele>
        <time>2018-11-11T11:31:15Z</time>
      </trkpt>
      <trkpt lat="45.93473" lon="4.77053">
        <ele>170</ele>
        <time>2018-11-11T11:31:16Z</time>
      </trkpt>
      <trkpt lat="45.93472" lon="4.77045">
        <ele>170</ele>
        <time>2018-11-11T11:31:17Z</time>
      </trkpt>
      <trkpt lat="45.93471" lon="4.77037">
        <ele>170</ele>
        <time>2018-11-11T11:31:18Z</time>
      </trkpt>
      <trkpt lat="45.9347" lon="4.7703">
        <ele>170</ele>
        <time>2018-11-11T11:31:19Z</time>
      </trkpt>
      <trkpt lat="45.93469" lon="4.77022">
        <ele>170</ele>
        <time>2018-11-11T11:31:20Z</time>
      </trkpt>
      <trkpt lat="45.93467" lon="4.77015">
        <ele>170</ele>
        <time>2018-11-11T11:31:21Z</time>
      </trkpt>
      <trkpt lat="45.93466" lon="4.77007">
        <ele>170</ele>
        <time>2018-11-11T11:31:22Z</time>
      </trkpt>
      <trkpt lat="45.93464" lon="4.77">
        <ele>170</ele>
        <time>2018-11-11T11:31:23Z</time>
      </trkpt>
      <trkpt lat="45.93463" lon="4.76993">
        <ele>170</ele>
        <time>2018-11-11T11:31:24Z</time>
      </trkpt>
      <trkpt lat="45.93462" lon="4.76985">
        <ele>170</ele>
        <time>2018-11-11T11:31:25Z</time>
      </trkpt>
      <trkpt lat="45.93461" lon="4.76977">
        <ele>170</ele>
        <time>2018-11-11T11:31:26Z</time>
      </trkpt>
      <trkpt lat="45.9346" lon="4.7697">
        <ele>170</ele>
        <time>2018-11-11T11:31:27Z</time>
      </trkpt>
      <trkpt lat="45.9346" lon="4.76963">
        <ele>170</ele>
        <time>2018-11-11T11:31:28Z</time>
      </trkpt>
      <trkpt lat="45.93458" lon="4.76956">
        <ele>170</ele>
        <time>2018-11-11T11:31:29Z</time>
      </trkpt>
      <trkpt lat="45.93457" lon="4.76948">
        <ele>170</ele>
        <time>2018-11-11T11:31:30Z</time>
      </trkpt>
      <trkpt lat="45.93456" lon="4.76941">
        <ele>170</ele>
        <time>2018-11-11T11:31:31Z</time>
      </trkpt>
      <trkpt lat="45.93454" lon="4.76933">
        <ele>170</ele>
        <time>2018-11-11T11:31:32Z</time>
      </trkpt>
      <trkpt lat="45.93452" lon="4.76925">
        <ele>170</ele>
        <time>2018-11-11T11:31:33Z</time>
      </trkpt>
      <trkpt lat="45.93451" lon="4.76918">
        <ele>170</ele>
        <time>2018-11-11T11:31:34Z</time>
      </trkpt>
      <trkpt lat="45.93451" lon="4.76911">
        <ele>170</ele>
        <time>2018-11-11T11:31:35Z</time>
      </trkpt>
      <trkpt lat="45.93449" lon="4.76904">
        <ele>170</ele>
        <time>2018-11-11T11:31:36Z</time>
      </trkpt>
      <trkpt lat="45.93448" lon="4.76895">
        <ele>170</ele>
        <time>2018-11-11T11:31:37Z</time>
      </trkpt>
      <trkpt lat="45.93446" lon="4.76888">
        <ele>170</ele>
        <time>2018-11-11T11:31:38Z</time>
      </trkpt>
      <trkpt lat="45.93445" lon="4.76881">
        <ele>170</ele>
        <time>2018-11-11T11:31:39Z</time>
      </trkpt>
      <trkpt lat="45.93442" lon="4.76875">
        <ele>170</ele>
        <time>2018-11-11T11:31:40Z</time>
      </trkpt>
      <trkpt lat="45.9344" lon="4.76869">
        <ele>171</ele>
        <time>2018-11-11T11:31:41Z</time>
      </trkpt>
      <trkpt lat="45.93437" lon="4.76862">
        <ele>171</ele>
        <time>2018-11-11T11:31:42Z</time>
      </trkpt>
      <trkpt lat="45.93435" lon="4.76856">
        <ele>171</ele>
        <time>2018-11-11T11:31:43Z</time>
      </trkpt>
      <trkpt lat="45.93432" lon="4.76851">
        <ele>171</ele>
        <time>2018-11-11T11:31:44Z</time>
      </trkpt>
      <trkpt lat="45.93429" lon="4.76845">
        <ele>171</ele>
        <time>2018-11-11T11:31:45Z</time>
      </trkpt>
      <trkpt lat="45.93425" lon="4.76835">
        <ele>172</ele>
        <time>2018-11-11T11:31:47Z</time>
      </trkpt>
      <trkpt lat="45.93421" lon="4.76829">
        <ele>172</ele>
        <time>2018-11-11T11:31:48Z</time>
      </trkpt>
      <trkpt lat="45.93418" lon="4.76824">
        <ele>172</ele>
        <time>2018-11-11T11:31:49Z</time>
      </trkpt>
      <trkpt lat="45.93415" lon="4.76819">
        <ele>172</ele>
        <time>2018-11-11T11:31:50Z</time>
      </trkpt>
      <trkpt lat="45.93412" lon="4.76813">
        <ele>172</ele>
        <time>2018-11-11T11:31:51Z</time>
      </trkpt>
      <trkpt lat="45.93408" lon="4.76809">
        <ele>172</ele>
        <time>2018-11-11T11:31:52Z</time>
      </trkpt>
      <trkpt lat="45.93405" lon="4.76805">
        <ele>172</ele>
        <time>2018-11-11T11:31:53Z</time>
      </trkpt>
      <trkpt lat="45.93399" lon="4.76801">
        <ele>172</ele>
        <time>2018-11-11T11:31:54Z</time>
      </trkpt>
      <trkpt lat="45.93396" lon="4.76796">
        <ele>172</ele>
        <time>2018-11-11T11:31:55Z</time>
      </trkpt>
      <trkpt lat="45.93392" lon="4.76792">
        <ele>172</ele>
        <time>2018-11-11T11:31:56Z</time>
      </trkpt>
      <trkpt lat="45.93388" lon="4.76787">
        <ele>172</ele>
        <time>2018-11-11T11:31:57Z</time>
      </trkpt>
      <trkpt lat="45.93384" lon="4.76783">
        <ele>172</ele>
        <time>2018-11-11T11:31:58Z</time>
      </trkpt>
      <trkpt lat="45.93381" lon="4.76778">
        <ele>172</ele>
        <time>2018-11-11T11:31:59Z</time>
      </trkpt>
      <trkpt lat="45.93377" lon="4.76773">
        <ele>172</ele>
        <time>2018-11-11T11:32:00Z</time>
      </trkpt>
      <trkpt lat="45.93373" lon="4.76768">
        <ele>172</ele>
        <time>2018-11-11T11:32:01Z</time>
      </trkpt>
      <trkpt lat="45.93369" lon="4.76764">
        <ele>172</ele>
        <time>2018-11-11T11:32:02Z</time>
      </trkpt>
      <trkpt lat="45.93365" lon="4.7676">
        <ele>172</ele>
        <time>2018-11-11T11:32:03Z</time>
      </trkpt>
      <trkpt lat="45.93361" lon="4.76757">
        <ele>172</ele>
        <time>2018-11-11T11:32:04Z</time>
      </trkpt>
      <trkpt lat="45.93357" lon="4.76752">
        <ele>172</ele>
        <time>2018-11-11T11:32:05Z</time>
      </trkpt>
      <trkpt lat="45.93354" lon="4.76748">
        <ele>172</ele>
        <time>2018-11-11T11:32:06Z</time>
      </trkpt>
      <trkpt lat="45.93347" lon="4.76742">
        <ele>172</ele>
        <time>2018-11-11T11:32:08Z</time>
      </trkpt>
      <trkpt lat="45.93343" lon="4.76739">
        <ele>172</ele>
        <time>2018-11-11T11:32:09Z</time>
      </trkpt>
      <trkpt lat="45.93337" lon="4.76732">
        <ele>172</ele>
        <time>2018-11-11T11:32:11Z</time>
      </trkpt>
      <trkpt lat="45.93333" lon="4.76728">
        <ele>172</ele>
        <time>2018-11-11T11:32:12Z</time>
      </trkpt>
      <trkpt lat="45.93326" lon="4.76722">
        <ele>172</ele>
        <time>2018-11-11T11:32:14Z</time>
      </trkpt>
      <trkpt lat="45.93322" lon="4.76719">
        <ele>172</ele>
        <time>2018-11-11T11:32:15Z</time>
      </trkpt>
      <trkpt lat="45.93319" lon="4.76716">
        <ele>172</ele>
        <time>2018-11-11T11:32:16Z</time>
      </trkpt>
      <trkpt lat="45.93315" lon="4.76712">
        <ele>172</ele>
        <time>2018-11-11T11:32:17Z</time>
      </trkpt>
      <trkpt lat="45.93308" lon="4.76706">
        <ele>172</ele>
        <time>2018-11-11T11:32:19Z</time>
      </trkpt>
      <trkpt lat="45.93304" lon="4.76702">
        <ele>172</ele>
        <time>2018-11-11T11:32:20Z</time>
      </trkpt>
      <trkpt lat="45.933" lon="4.76698">
        <ele>172</ele>
        <time>2018-11-11T11:32:21Z</time>
      </trkpt>
      <trkpt lat="45.93296" lon="4.76694">
        <ele>172</ele>
        <time>2018-11-11T11:32:22Z</time>
      </trkpt>
      <trkpt lat="45.93292" lon="4.76689">
        <ele>172</ele>
        <time>2018-11-11T11:32:23Z</time>
      </trkpt>
      <trkpt lat="45.93288" lon="4.76685">
        <ele>172</ele>
        <time>2018-11-11T11:32:24Z</time>
      </trkpt>
      <trkpt lat="45.93284" lon="4.76679">
        <ele>172</ele>
        <time>2018-11-11T11:32:25Z</time>
      </trkpt>
      <trkpt lat="45.93279" lon="4.76674">
        <ele>172</ele>
        <time>2018-11-11T11:32:26Z</time>
      </trkpt>
      <trkpt lat="45.93274" lon="4.76671">
        <ele>172</ele>
        <time>2018-11-11T11:32:27Z</time>
      </trkpt>
      <trkpt lat="45.9327" lon="4.76666">
        <ele>171</ele>
        <time>2018-11-11T11:32:28Z</time>
      </trkpt>
      <trkpt lat="45.93265" lon="4.76661">
        <ele>171</ele>
        <time>2018-11-11T11:32:29Z</time>
      </trkpt>
      <trkpt lat="45.93261" lon="4.76657">
        <ele>171</ele>
        <time>2018-11-11T11:32:30Z</time>
      </trkpt>
      <trkpt lat="45.93256" lon="4.76652">
        <ele>171</ele>
        <time>2018-11-11T11:32:31Z</time>
      </trkpt>
      <trkpt lat="45.93252" lon="4.76648">
        <ele>171</ele>
        <time>2018-11-11T11:32:32Z</time>
      </trkpt>
      <trkpt lat="45.93248" lon="4.76644">
        <ele>171</ele>
        <time>2018-11-11T11:32:33Z</time>
      </trkpt>
      <trkpt lat="45.93243" lon="4.7664">
        <ele>171</ele>
        <time>2018-11-11T11:32:34Z</time>
      </trkpt>
      <trkpt lat="45.93239" lon="4.76636">
        <ele>171</ele>
        <time>2018-11-11T11:32:35Z</time>
      </trkpt>
      <trkpt lat="45.93235" lon="4.7663">
        <ele>170</ele>
        <time>2018-11-11T11:32:36Z</time>
      </trkpt>
      <trkpt lat="45.93231" lon="4.76627">
        <ele>170</ele>
        <time>2018-11-11T11:32:37Z</time>
      </trkpt>
      <trkpt lat="45.93227" lon="4.76622">
        <ele>170</ele>
        <time>2018-11-11T11:32:38Z</time>
      </trkpt>
      <trkpt lat="45.93222" lon="4.76618">
        <ele>170</ele>
        <time>2018-11-11T11:32:39Z</time>
      </trkpt>
      <trkpt lat="45.93218" lon="4.76613">
        <ele>170</ele>
        <time>2018-11-11T11:32:40Z</time>
      </trkpt>
      <trkpt lat="45.93214" lon="4.7661">
        <ele>170</ele>
        <time>2018-11-11T11:32:41Z</time>
      </trkpt>
      <trkpt lat="45.93208" lon="4.76606">
        <ele>170</ele>
        <time>2018-11-11T11:32:42Z</time>
      </trkpt>
      <trkpt lat="45.93204" lon="4.76602">
        <ele>170</ele>
        <time>2018-11-11T11:32:43Z</time>
      </trkpt>
      <trkpt lat="45.93199" lon="4.76597">
        <ele>170</ele>
        <time>2018-11-11T11:32:44Z</time>
      </trkpt>
      <trkpt lat="45.93195" lon="4.76594">
        <ele>170</ele>
        <time>2018-11-11T11:32:45Z</time>
      </trkpt>
      <trkpt lat="45.93191" lon="4.76589">
        <ele>170</ele>
        <time>2018-11-11T11:32:46Z</time>
      </trkpt>
      <trkpt lat="45.93186" lon="4.76585">
        <ele>171</ele>
        <time>2018-11-11T11:32:47Z</time>
      </trkpt>
      <trkpt lat="45.93183" lon="4.7658">
        <ele>170</ele>
        <time>2018-11-11T11:32:48Z</time>
      </trkpt>
      <trkpt lat="45.93179" lon="4.76576">
        <ele>170</ele>
        <time>2018-11-11T11:32:49Z</time>
      </trkpt>
      <trkpt lat="45.93175" lon="4.76571">
        <ele>170</ele>
        <time>2018-11-11T11:32:50Z</time>
      </trkpt>
      <trkpt lat="45.9317" lon="4.76567">
        <ele>170</ele>
        <time>2018-11-11T11:32:51Z</time>
      </trkpt>
      <trkpt lat="45.93166" lon="4.76563">
        <ele>170</ele>
        <time>2018-11-11T11:32:52Z</time>
      </trkpt>
      <trkpt lat="45.93161" lon="4.7656">
        <ele>170</ele>
        <time>2018-11-11T11:32:53Z</time>
      </trkpt>
      <trkpt lat="45.93157" lon="4.76555">
        <ele>170</ele>
        <time>2018-11-11T11:32:54Z</time>
      </trkpt>
      <trkpt lat="45.93153" lon="4.7655">
        <ele>170</ele>
        <time>2018-11-11T11:32:55Z</time>
      </trkpt>
      <trkpt lat="45.9315" lon="4.76546">
        <ele>170</ele>
        <time>2018-11-11T11:32:56Z</time>
      </trkpt>
      <trkpt lat="45.93146" lon="4.76542">
        <ele>170</ele>
        <time>2018-11-11T11:32:57Z</time>
      </trkpt>
      <trkpt lat="45.93142" lon="4.76539">
        <ele>170</ele>
        <time>2018-11-11T11:32:58Z</time>
      </trkpt>
      <trkpt lat="45.93137" lon="4.76535">
        <ele>170</ele>
        <time>2018-11-11T11:32:59Z</time>
      </trkpt>
      <trkpt lat="45.93134" lon="4.76531">
        <ele>170</ele>
        <time>2018-11-11T11:33:00Z</time>
      </trkpt>
      <trkpt lat="45.93129" lon="4.76527">
        <ele>170</ele>
        <time>2018-11-11T11:33:01Z</time>
      </trkpt>
      <trkpt lat="45.93125" lon="4.76523">
        <ele>170</ele>
        <time>2018-11-11T11:33:02Z</time>
      </trkpt>
      <trkpt lat="45.93117" lon="4.76517">
        <ele>170</ele>
        <time>2018-11-11T11:33:04Z</time>
      </trkpt>
      <trkpt lat="45.93113" lon="4.76513">
        <ele>170</ele>
        <time>2018-11-11T11:33:05Z</time>
      </trkpt>
      <trkpt lat="45.93109" lon="4.76509">
        <ele>170</ele>
        <time>2018-11-11T11:33:06Z</time>
      </trkpt>
      <trkpt lat="45.93106" lon="4.76504">
        <ele>170</ele>
        <time>2018-11-11T11:33:07Z</time>
      </trkpt>
      <trkpt lat="45.93099" lon="4.76498">
        <ele>170</ele>
        <time>2018-11-11T11:33:09Z</time>
      </trkpt>
      <trkpt lat="45.93095" lon="4.76494">
        <ele>170</ele>
        <time>2018-11-11T11:33:10Z</time>
      </trkpt>
      <trkpt lat="45.93091" lon="4.76489">
        <ele>170</ele>
        <time>2018-11-11T11:33:11Z</time>
      </trkpt>
      <trkpt lat="45.93087" lon="4.76486">
        <ele>170</ele>
        <time>2018-11-11T11:33:12Z</time>
      </trkpt>
      <trkpt lat="45.93083" lon="4.76482">
        <ele>169</ele>
        <time>2018-11-11T11:33:13Z</time>
      </trkpt>
      <trkpt lat="45.93078" lon="4.76478">
        <ele>169</ele>
        <time>2018-11-11T11:33:14Z</time>
      </trkpt>
      <trkpt lat="45.93072" lon="4.7647">
        <ele>169</ele>
        <time>2018-11-11T11:33:16Z</time>
      </trkpt>
      <trkpt lat="45.93068" lon="4.76466">
        <ele>169</ele>
        <time>2018-11-11T11:33:17Z</time>
      </trkpt>
      <trkpt lat="45.93064" lon="4.76458">
        <ele>169</ele>
        <time>2018-11-11T11:33:18Z</time>
      </trkpt>
      <trkpt lat="45.93061" lon="4.76455">
        <ele>169</ele>
        <time>2018-11-11T11:33:19Z</time>
      </trkpt>
      <trkpt lat="45.93057" lon="4.76451">
        <ele>169</ele>
        <time>2018-11-11T11:33:20Z</time>
      </trkpt>
      <trkpt lat="45.93053" lon="4.76447">
        <ele>169</ele>
        <time>2018-11-11T11:33:21Z</time>
      </trkpt>
      <trkpt lat="45.93049" lon="4.76443">
        <ele>169</ele>
        <time>2018-11-11T11:33:22Z</time>
      </trkpt>
      <trkpt lat="45.93045" lon="4.7644">
        <ele>169</ele>
        <time>2018-11-11T11:33:23Z</time>
      </trkpt>
      <trkpt lat="45.93041" lon="4.76436">
        <ele>169</ele>
        <time>2018-11-11T11:33:24Z</time>
      </trkpt>
      <trkpt lat="45.93036" lon="4.76431">
        <ele>169</ele>
        <time>2018-11-11T11:33:25Z</time>
      </trkpt>
      <trkpt lat="45.93032" lon="4.76427">
        <ele>169</ele>
        <time>2018-11-11T11:33:26Z</time>
      </trkpt>
      <trkpt lat="45.93027" lon="4.76424">
        <ele>169</ele>
        <time>2018-11-11T11:33:27Z</time>
      </trkpt>
      <trkpt lat="45.93024" lon="4.76421">
        <ele>169</ele>
        <time>2018-11-11T11:33:28Z</time>
      </trkpt>
      <trkpt lat="45.9302" lon="4.76417">
        <ele>169</ele>
        <time>2018-11-11T11:33:29Z</time>
      </trkpt>
      <trkpt lat="45.93015" lon="4.76413">
        <ele>169</ele>
        <time>2018-11-11T11:33:30Z</time>
      </trkpt>
      <trkpt lat="45.93012" lon="4.76409">
        <ele>169</ele>
        <time>2018-11-11T11:33:31Z</time>
      </trkpt>
      <trkpt lat="45.93008" lon="4.76405">
        <ele>169</ele>
        <time>2018-11-11T11:33:32Z</time>
      </trkpt>
      <trkpt lat="45.93004" lon="4.76402">
        <ele>169</ele>
        <time>2018-11-11T11:33:33Z</time>
      </trkpt>
      <trkpt lat="45.92997" lon="4.76395">
        <ele>169</ele>
        <time>2018-11-11T11:33:35Z</time>
      </trkpt>
      <trkpt lat="45.92993" lon="4.76391">
        <ele>169</ele>
        <time>2018-11-11T11:33:36Z</time>
      </trkpt>
      <trkpt lat="45.92989" lon="4.76387">
        <ele>169</ele>
        <time>2018-11-11T11:33:37Z</time>
      </trkpt>
      <trkpt lat="45.92985" lon="4.76383">
        <ele>169</ele>
        <time>2018-11-11T11:33:38Z</time>
      </trkpt>
      <trkpt lat="45.92982" lon="4.76378">
        <ele>169</ele>
        <time>2018-11-11T11:33:39Z</time>
      </trkpt>
      <trkpt lat="45.92978" lon="4.76375">
        <ele>169</ele>
        <time>2018-11-11T11:33:40Z</time>
      </trkpt>
      <trkpt lat="45.92971" lon="4.76368">
        <ele>169</ele>
        <time>2018-11-11T11:33:42Z</time>
      </trkpt>
      <trkpt lat="45.92966" lon="4.76363">
        <ele>169</ele>
        <time>2018-11-11T11:33:43Z</time>
      </trkpt>
      <trkpt lat="45.92962" lon="4.76359">
        <ele>169</ele>
        <time>2018-11-11T11:33:44Z</time>
      </trkpt>
      <trkpt lat="45.92957" lon="4.76355">
        <ele>169</ele>
        <time>2018-11-11T11:33:45Z</time>
      </trkpt>
      <trkpt lat="45.92953" lon="4.76351">
        <ele>169</ele>
        <time>2018-11-11T11:33:46Z</time>
      </trkpt>
      <trkpt lat="45.92948" lon="4.76347">
        <ele>169</ele>
        <time>2018-11-11T11:33:47Z</time>
      </trkpt>
      <trkpt lat="45.92941" lon="4.7634">
        <ele>169</ele>
        <time>2018-11-11T11:33:49Z</time>
      </trkpt>
      <trkpt lat="45.92937" lon="4.76336">
        <ele>169</ele>
        <time>2018-11-11T11:33:50Z</time>
      </trkpt>
      <trkpt lat="45.92932" lon="4.76331">
        <ele>169</ele>
        <time>2018-11-11T11:33:51Z</time>
      </trkpt>
      <trkpt lat="45.92926" lon="4.76328">
        <ele>169</ele>
        <time>2018-11-11T11:33:52Z</time>
      </trkpt>
      <trkpt lat="45.92923" lon="4.76325">
        <ele>169</ele>
        <time>2018-11-11T11:33:53Z</time>
      </trkpt>
      <trkpt lat="45.92919" lon="4.7632">
        <ele>169</ele>
        <time>2018-11-11T11:33:54Z</time>
      </trkpt>
      <trkpt lat="45.92915" lon="4.76316">
        <ele>169</ele>
        <time>2018-11-11T11:33:55Z</time>
      </trkpt>
      <trkpt lat="45.9291" lon="4.76312">
        <ele>169</ele>
        <time>2018-11-11T11:33:56Z</time>
      </trkpt>
      <trkpt lat="45.92906" lon="4.76308">
        <ele>169</ele>
        <time>2018-11-11T11:33:57Z</time>
      </trkpt>
      <trkpt lat="45.92902" lon="4.76304">
        <ele>169</ele>
        <time>2018-11-11T11:33:58Z</time>
      </trkpt>
      <trkpt lat="45.92897" lon="4.763">
        <ele>169</ele>
        <time>2018-11-11T11:33:59Z</time>
      </trkpt>
      <trkpt lat="45.92893" lon="4.76295">
        <ele>169</ele>
        <time>2018-11-11T11:34:00Z</time>
      </trkpt>
      <trkpt lat="45.92888" lon="4.76291">
        <ele>169</ele>
        <time>2018-11-11T11:34:01Z</time>
      </trkpt>
      <trkpt lat="45.92884" lon="4.76286">
        <ele>169</ele>
        <time>2018-11-11T11:34:02Z</time>
      </trkpt>
      <trkpt lat="45.92879" lon="4.76283">
        <ele>169</ele>
        <time>2018-11-11T11:34:03Z</time>
      </trkpt>
      <trkpt lat="45.92876" lon="4.76278">
        <ele>169</ele>
        <time>2018-11-11T11:34:04Z</time>
      </trkpt>
      <trkpt lat="45.92872" lon="4.76274">
        <ele>169</ele>
        <time>2018-11-11T11:34:05Z</time>
      </trkpt>
      <trkpt lat="45.92867" lon="4.76269">
        <ele>169</ele>
        <time>2018-11-11T11:34:06Z</time>
      </trkpt>
      <trkpt lat="45.92864" lon="4.76264">
        <ele>169</ele>
        <time>2018-11-11T11:34:07Z</time>
      </trkpt>
      <trkpt lat="45.9286" lon="4.7626">
        <ele>169</ele>
        <time>2018-11-11T11:34:08Z</time>
      </trkpt>
      <trkpt lat="45.92855" lon="4.76257">
        <ele>169</ele>
        <time>2018-11-11T11:34:09Z</time>
      </trkpt>
      <trkpt lat="45.92852" lon="4.76253">
        <ele>169</ele>
        <time>2018-11-11T11:34:10Z</time>
      </trkpt>
      <trkpt lat="45.92848" lon="4.76249">
        <ele>169</ele>
        <time>2018-11-11T11:34:11Z</time>
      </trkpt>
      <trkpt lat="45.92843" lon="4.76245">
        <ele>169</ele>
        <time>2018-11-11T11:34:12Z</time>
      </trkpt>
      <trkpt lat="45.92837" lon="4.76238">
        <ele>169</ele>
        <time>2018-11-11T11:34:14Z</time>
      </trkpt>
      <trkpt lat="45.92833" lon="4.76233">
        <ele>168</ele>
        <time>2018-11-11T11:34:15Z</time>
      </trkpt>
      <trkpt lat="45.92829" lon="4.7623">
        <ele>168</ele>
        <time>2018-11-11T11:34:16Z</time>
      </trkpt>
      <trkpt lat="45.92825" lon="4.76226">
        <ele>168</ele>
        <time>2018-11-11T11:34:17Z</time>
      </trkpt>
      <trkpt lat="45.92818" lon="4.76218">
        <ele>168</ele>
        <time>2018-11-11T11:34:19Z</time>
      </trkpt>
      <trkpt lat="45.92814" lon="4.76214">
        <ele>168</ele>
        <time>2018-11-11T11:34:20Z</time>
      </trkpt>
      <trkpt lat="45.92811" lon="4.76209">
        <ele>168</ele>
        <time>2018-11-11T11:34:21Z</time>
      </trkpt>
      <trkpt lat="45.92805" lon="4.76206">
        <ele>168</ele>
        <time>2018-11-11T11:34:22Z</time>
      </trkpt>
      <trkpt lat="45.92802" lon="4.76202">
        <ele>168</ele>
        <time>2018-11-11T11:34:23Z</time>
      </trkpt>
      <trkpt lat="45.92797" lon="4.76198">
        <ele>168</ele>
        <time>2018-11-11T11:34:24Z</time>
      </trkpt>
      <trkpt lat="45.92794" lon="4.76194">
        <ele>168</ele>
        <time>2018-11-11T11:34:25Z</time>
      </trkpt>
      <trkpt lat="45.9279" lon="4.76191">
        <ele>168</ele>
        <time>2018-11-11T11:34:26Z</time>
      </trkpt>
      <trkpt lat="45.92785" lon="4.76187">
        <ele>168</ele>
        <time>2018-11-11T11:34:27Z</time>
      </trkpt>
      <trkpt lat="45.92781" lon="4.76183">
        <ele>168</ele>
        <time>2018-11-11T11:34:28Z</time>
      </trkpt>
      <trkpt lat="45.92777" lon="4.76179">
        <ele>167</ele>
        <time>2018-11-11T11:34:29Z</time>
      </trkpt>
      <trkpt lat="45.92773" lon="4.76176">
        <ele>167</ele>
        <time>2018-11-11T11:34:30Z</time>
      </trkpt>
      <trkpt lat="45.92769" lon="4.76173">
        <ele>167</ele>
        <time>2018-11-11T11:34:31Z</time>
      </trkpt>
      <trkpt lat="45.92764" lon="4.76169">
        <ele>167</ele>
        <time>2018-11-11T11:34:32Z</time>
      </trkpt>
      <trkpt lat="45.92761" lon="4.76165">
        <ele>167</ele>
        <time>2018-11-11T11:34:33Z</time>
      </trkpt>
      <trkpt lat="45.92756" lon="4.76161">
        <ele>167</ele>
        <time>2018-11-11T11:34:34Z</time>
      </trkpt>
      <trkpt lat="45.92752" lon="4.76157">
        <ele>167</ele>
        <time>2018-11-11T11:34:35Z</time>
      </trkpt>
      <trkpt lat="45.92748" lon="4.76153">
        <ele>168</ele>
        <time>2018-11-11T11:34:36Z</time>
      </trkpt>
      <trkpt lat="45.92743" lon="4.76149">
        <ele>168</ele>
        <time>2018-11-11T11:34:37Z</time>
      </trkpt>
      <trkpt lat="45.92738" lon="4.76145">
        <ele>168</ele>
        <time>2018-11-11T11:34:38Z</time>
      </trkpt>
      <trkpt lat="45.92734" lon="4.76141">
        <ele>168</ele>
        <time>2018-11-11T11:34:39Z</time>
      </trkpt>
      <trkpt lat="45.9273" lon="4.76137">
        <ele>168</ele>
        <time>2018-11-11T11:34:40Z</time>
      </trkpt>
      <trkpt lat="45.92725" lon="4.76134">
        <ele>168</ele>
        <time>2018-11-11T11:34:41Z</time>
      </trkpt>
      <trkpt lat="45.92722" lon="4.7613">
        <ele>168</ele>
        <time>2018-11-11T11:34:42Z</time>
      </trkpt>
      <trkpt lat="45.92715" lon="4.76125">
        <ele>168</ele>
        <time>2018-11-11T11:34:44Z</time>
      </trkpt>
      <trkpt lat="45.92711" lon="4.76123">
        <ele>168</ele>
        <time>2018-11-11T11:34:45Z</time>
      </trkpt>
      <trkpt lat="45.92704" lon="4.76119">
        <ele>169</ele>
        <time>2018-11-11T11:34:47Z</time>
      </trkpt>
      <trkpt lat="45.927" lon="4.76116">
        <ele>169</ele>
        <time>2018-11-11T11:34:48Z</time>
      </trkpt>
      <trkpt lat="45.92692" lon="4.76111">
        <ele>169</ele>
        <time>2018-11-11T11:34:50Z</time>
      </trkpt>
      <trkpt lat="45.92689" lon="4.76108">
        <ele>169</ele>
        <time>2018-11-11T11:34:51Z</time>
      </trkpt>
      <trkpt lat="45.92681" lon="4.76103">
        <ele>169</ele>
        <time>2018-11-11T11:34:53Z</time>
      </trkpt>
      <trkpt lat="45.92677" lon="4.761">
        <ele>169</ele>
        <time>2018-11-11T11:34:54Z</time>
      </trkpt>
      <trkpt lat="45.9267" lon="4.76094">
        <ele>169</ele>
        <time>2018-11-11T11:34:56Z</time>
      </trkpt>
      <trkpt lat="45.92667" lon="4.76091">
        <ele>170</ele>
        <time>2018-11-11T11:34:57Z</time>
      </trkpt>
      <trkpt lat="45.9266" lon="4.76086">
        <ele>170</ele>
        <time>2018-11-11T11:34:59Z</time>
      </trkpt>
      <trkpt lat="45.92656" lon="4.76082">
        <ele>170</ele>
        <time>2018-11-11T11:35:00Z</time>
      </trkpt>
      <trkpt lat="45.92648" lon="4.76076">
        <ele>170</ele>
        <time>2018-11-11T11:35:02Z</time>
      </trkpt>
      <trkpt lat="45.92645" lon="4.76074">
        <ele>170</ele>
        <time>2018-11-11T11:35:03Z</time>
      </trkpt>
      <trkpt lat="45.92637" lon="4.76069">
        <ele>170</ele>
        <time>2018-11-11T11:35:05Z</time>
      </trkpt>
      <trkpt lat="45.92633" lon="4.76066">
        <ele>170</ele>
        <time>2018-11-11T11:35:06Z</time>
      </trkpt>
      <trkpt lat="45.92626" lon="4.76061">
        <ele>170</ele>
        <time>2018-11-11T11:35:08Z</time>
      </trkpt>
      <trkpt lat="45.92622" lon="4.76059">
        <ele>171</ele>
        <time>2018-11-11T11:35:09Z</time>
      </trkpt>
      <trkpt lat="45.92615" lon="4.76054">
        <ele>171</ele>
        <time>2018-11-11T11:35:11Z</time>
      </trkpt>
      <trkpt lat="45.92611" lon="4.76051">
        <ele>171</ele>
        <time>2018-11-11T11:35:12Z</time>
      </trkpt>
      <trkpt lat="45.92603" lon="4.76046">
        <ele>171</ele>
        <time>2018-11-11T11:35:14Z</time>
      </trkpt>
      <trkpt lat="45.926" lon="4.76043">
        <ele>171</ele>
        <time>2018-11-11T11:35:15Z</time>
      </trkpt>
      <trkpt lat="45.92593" lon="4.76038">
        <ele>171</ele>
        <time>2018-11-11T11:35:17Z</time>
      </trkpt>
      <trkpt lat="45.92589" lon="4.76035">
        <ele>171</ele>
        <time>2018-11-11T11:35:18Z</time>
      </trkpt>
      <trkpt lat="45.92581" lon="4.7603">
        <ele>172</ele>
        <time>2018-11-11T11:35:20Z</time>
      </trkpt>
      <trkpt lat="45.92577" lon="4.76027">
        <ele>172</ele>
        <time>2018-11-11T11:35:21Z</time>
      </trkpt>
      <trkpt lat="45.9257" lon="4.76022">
        <ele>172</ele>
        <time>2018-11-11T11:35:23Z</time>
      </trkpt>
      <trkpt lat="45.92567" lon="4.7602">
        <ele>172</ele>
        <time>2018-11-11T11:35:24Z</time>
      </trkpt>
      <trkpt lat="45.9256" lon="4.76015">
        <ele>172</ele>
        <time>2018-11-11T11:35:26Z</time>
      </trkpt>
      <trkpt lat="45.92556" lon="4.76012">
        <ele>172</ele>
        <time>2018-11-11T11:35:27Z</time>
      </trkpt>
      <trkpt lat="45.9255" lon="4.76008">
        <ele>172</ele>
        <time>2018-11-11T11:35:29Z</time>
      </trkpt>
      <trkpt lat="45.92546" lon="4.76006">
        <ele>172</ele>
        <time>2018-11-11T11:35:30Z</time>
      </trkpt>
      <trkpt lat="45.92539" lon="4.76001">
        <ele>172</ele>
        <time>2018-11-11T11:35:32Z</time>
      </trkpt>
      <trkpt lat="45.92536" lon="4.75999">
        <ele>172</ele>
        <time>2018-11-11T11:35:33Z</time>
      </trkpt>
      <trkpt lat="45.92529" lon="4.75994">
        <ele>172</ele>
        <time>2018-11-11T11:35:35Z</time>
      </trkpt>
      <trkpt lat="45.92525" lon="4.75991">
        <ele>172</ele>
        <time>2018-11-11T11:35:36Z</time>
      </trkpt>
      <trkpt lat="45.92518" lon="4.75986">
        <ele>172</ele>
        <time>2018-11-11T11:35:38Z</time>
      </trkpt>
      <trkpt lat="45.92515" lon="4.75982">
        <ele>172</ele>
        <time>2018-11-11T11:35:39Z</time>
      </trkpt>
      <trkpt lat="45.92511" lon="4.75979">
        <ele>172</ele>
        <time>2018-11-11T11:35:40Z</time>
      </trkpt>
      <trkpt lat="45.92507" lon="4.75976">
        <ele>172</ele>
        <time>2018-11-11T11:35:41Z</time>
      </trkpt>
      <trkpt lat="45.92502" lon="4.75972">
        <ele>172</ele>
        <time>2018-11-11T11:35:42Z</time>
      </trkpt>
      <trkpt lat="45.92498" lon="4.75969">
        <ele>172</ele>
        <time>2018-11-11T11:35:43Z</time>
      </trkpt>
      <trkpt lat="45.92494" lon="4.75966">
        <ele>172</ele>
        <time>2018-11-11T11:35:44Z</time>
      </trkpt>
      <trkpt lat="45.9249" lon="4.75963">
        <ele>172</ele>
        <time>2018-11-11T11:35:45Z</time>
      </trkpt>
      <trkpt lat="45.92482" lon="4.75958">
        <ele>172</ele>
        <time>2018-11-11T11:35:47Z</time>
      </trkpt>
      <trkpt lat="45.92479" lon="4.75956">
        <ele>172</ele>
        <time>2018-11-11T11:35:48Z</time>
      </trkpt>
      <trkpt lat="45.92471" lon="4.75952">
        <ele>172</ele>
        <time>2018-11-11T11:35:50Z</time>
      </trkpt>
      <trkpt lat="45.92467" lon="4.75949">
        <ele>172</ele>
        <time>2018-11-11T11:35:51Z</time>
      </trkpt>
      <trkpt lat="45.92462" lon="4.75945">
        <ele>172</ele>
        <time>2018-11-11T11:35:52Z</time>
      </trkpt>
      <trkpt lat="45.92458" lon="4.75943">
        <ele>172</ele>
        <time>2018-11-11T11:35:53Z</time>
      </trkpt>
      <trkpt lat="45.92453" lon="4.75939">
        <ele>172</ele>
        <time>2018-11-11T11:35:54Z</time>
      </trkpt>
      <trkpt lat="45.92448" lon="4.75936">
        <ele>172</ele>
        <time>2018-11-11T11:35:55Z</time>
      </trkpt>
      <trkpt lat="45.92444" lon="4.75933">
        <ele>172</ele>
        <time>2018-11-11T11:35:56Z</time>
      </trkpt>
      <trkpt lat="45.92439" lon="4.75931">
        <ele>172</ele>
        <time>2018-11-11T11:35:57Z</time>
      </trkpt>
      <trkpt lat="45.92434" lon="4.75928">
        <ele>172</ele>
        <time>2018-11-11T11:35:58Z</time>
      </trkpt>
      <trkpt lat="45.92429" lon="4.75925">
        <ele>172</ele>
        <time>2018-11-11T11:35:59Z</time>
      </trkpt>
      <trkpt lat="45.92425" lon="4.75921">
        <ele>172</ele>
        <time>2018-11-11T11:36:00Z</time>
      </trkpt>
      <trkpt lat="45.92421" lon="4.75919">
        <ele>172</ele>
        <time>2018-11-11T11:36:01Z</time>
      </trkpt>
      <trkpt lat="45.92416" lon="4.75916">
        <ele>172</ele>
        <time>2018-11-11T11:36:02Z</time>
      </trkpt>
      <trkpt lat="45.92411" lon="4.75913">
        <ele>172</ele>
        <time>2018-11-11T11:36:03Z</time>
      </trkpt>
      <trkpt lat="45.92407" lon="4.7591">
        <ele>172</ele>
        <time>2018-11-11T11:36:04Z</time>
      </trkpt>
      <trkpt lat="45.92402" lon="4.75906">
        <ele>173</ele>
        <time>2018-11-11T11:36:05Z</time>
      </trkpt>
      <trkpt lat="45.92398" lon="4.75903">
        <ele>173</ele>
        <time>2018-11-11T11:36:06Z</time>
      </trkpt>
      <trkpt lat="45.92394" lon="4.759">
        <ele>173</ele>
        <time>2018-11-11T11:36:07Z</time>
      </trkpt>
      <trkpt lat="45.92386" lon="4.75895">
        <ele>173</ele>
        <time>2018-11-11T11:36:09Z</time>
      </trkpt>
      <trkpt lat="45.92381" lon="4.75892">
        <ele>173</ele>
        <time>2018-11-11T11:36:10Z</time>
      </trkpt>
      <trkpt lat="45.92377" lon="4.75889">
        <ele>173</ele>
        <time>2018-11-11T11:36:11Z</time>
      </trkpt>
      <trkpt lat="45.92373" lon="4.75886">
        <ele>173</ele>
        <time>2018-11-11T11:36:12Z</time>
      </trkpt>
      <trkpt lat="45.92366" lon="4.75879">
        <ele>173</ele>
        <time>2018-11-11T11:36:14Z</time>
      </trkpt>
      <trkpt lat="45.92362" lon="4.75877">
        <ele>173</ele>
        <time>2018-11-11T11:36:15Z</time>
      </trkpt>
      <trkpt lat="45.92355" lon="4.75872">
        <ele>173</ele>
        <time>2018-11-11T11:36:17Z</time>
      </trkpt>
      <trkpt lat="45.92352" lon="4.7587">
        <ele>173</ele>
        <time>2018-11-11T11:36:18Z</time>
      </trkpt>
      <trkpt lat="45.92345" lon="4.75865">
        <ele>173</ele>
        <time>2018-11-11T11:36:20Z</time>
      </trkpt>
      <trkpt lat="45.92341" lon="4.75863">
        <ele>173</ele>
        <time>2018-11-11T11:36:21Z</time>
      </trkpt>
      <trkpt lat="45.92335" lon="4.75858">
        <ele>173</ele>
        <time>2018-11-11T11:36:23Z</time>
      </trkpt>
      <trkpt lat="45.92331" lon="4.75856">
        <ele>174</ele>
        <time>2018-11-11T11:36:24Z</time>
      </trkpt>
      <trkpt lat="45.92326" lon="4.75852">
        <ele>174</ele>
        <time>2018-11-11T11:36:26Z</time>
      </trkpt>
      <trkpt lat="45.92321" lon="4.75849">
        <ele>174</ele>
        <time>2018-11-11T11:36:27Z</time>
      </trkpt>
      <trkpt lat="45.92314" lon="4.75844">
        <ele>174</ele>
        <time>2018-11-11T11:36:30Z</time>
      </trkpt>
      <trkpt lat="45.92308" lon="4.75841">
        <ele>173</ele>
        <time>2018-11-11T11:36:31Z</time>
      </trkpt>
      <trkpt lat="45.92302" lon="4.75837">
        <ele>173</ele>
        <time>2018-11-11T11:36:33Z</time>
      </trkpt>
      <trkpt lat="45.92298" lon="4.75835">
        <ele>173</ele>
        <time>2018-11-11T11:36:34Z</time>
      </trkpt>
      <trkpt lat="45.9229" lon="4.7583">
        <ele>174</ele>
        <time>2018-11-11T11:36:37Z</time>
      </trkpt>
      <trkpt lat="45.92285" lon="4.75827">
        <ele>174</ele>
        <time>2018-11-11T11:36:38Z</time>
      </trkpt>
      <trkpt lat="45.92278" lon="4.75822">
        <ele>174</ele>
        <time>2018-11-11T11:36:40Z</time>
      </trkpt>
      <trkpt lat="45.92275" lon="4.75819">
        <ele>174</ele>
        <time>2018-11-11T11:36:41Z</time>
      </trkpt>
      <trkpt lat="45.9227" lon="4.75814">
        <ele>174</ele>
        <time>2018-11-11T11:36:43Z</time>
      </trkpt>
      <trkpt lat="45.92268" lon="4.75811">
        <ele>174</ele>
        <time>2018-11-11T11:36:44Z</time>
      </trkpt>
      <trkpt lat="45.92266" lon="4.75806">
        <ele>174</ele>
        <time>2018-11-11T11:36:45Z</time>
      </trkpt>
      <trkpt lat="45.92263" lon="4.758">
        <ele>174</ele>
        <time>2018-11-11T11:36:46Z</time>
      </trkpt>
      <trkpt lat="45.9226" lon="4.7579">
        <ele>174</ele>
        <time>2018-11-11T11:36:48Z</time>
      </trkpt>
      <trkpt lat="45.92258" lon="4.75785">
        <ele>174</ele>
        <time>2018-11-11T11:36:49Z</time>
      </trkpt>
      <trkpt lat="45.92256" lon="4.75773">
        <ele>174</ele>
        <time>2018-11-11T11:36:51Z</time>
      </trkpt>
      <trkpt lat="45.92255" lon="4.75766">
        <ele>174</ele>
        <time>2018-11-11T11:36:52Z</time>
      </trkpt>
      <trkpt lat="45.92254" lon="4.7576">
        <ele>174</ele>
        <time>2018-11-11T11:36:53Z</time>
      </trkpt>
      <trkpt lat="45.92254" lon="4.75752">
        <ele>174</ele>
        <time>2018-11-11T11:36:54Z</time>
      </trkpt>
      <trkpt lat="45.92253" lon="4.75745">
        <ele>174</ele>
        <time>2018-11-11T11:36:55Z</time>
      </trkpt>
      <trkpt lat="45.92252" lon="4.75739">
        <ele>174</ele>
        <time>2018-11-11T11:36:56Z</time>
      </trkpt>
      <trkpt lat="45.9225" lon="4.75732">
        <ele>174</ele>
        <time>2018-11-11T11:36:57Z</time>
      </trkpt>
      <trkpt lat="45.92249" lon="4.75726">
        <ele>174</ele>
        <time>2018-11-11T11:36:58Z</time>
      </trkpt>
      <trkpt lat="45.92245" lon="4.75715">
        <ele>174</ele>
        <time>2018-11-11T11:37:00Z</time>
      </trkpt>
      <trkpt lat="45.92243" lon="4.7571">
        <ele>174</ele>
        <time>2018-11-11T11:37:01Z</time>
      </trkpt>
      <trkpt lat="45.9224" lon="4.75705">
        <ele>174</ele>
        <time>2018-11-11T11:37:02Z</time>
      </trkpt>
      <trkpt lat="45.92236" lon="4.75701">
        <ele>174</ele>
        <time>2018-11-11T11:37:03Z</time>
      </trkpt>
      <trkpt lat="45.92229" lon="4.75694">
        <ele>174</ele>
        <time>2018-11-11T11:37:05Z</time>
      </trkpt>
      <trkpt lat="45.92226" lon="4.7569">
        <ele>174</ele>
        <time>2018-11-11T11:37:06Z</time>
      </trkpt>
      <trkpt lat="45.9222" lon="4.75682">
        <ele>174</ele>
        <time>2018-11-11T11:37:08Z</time>
      </trkpt>
      <trkpt lat="45.92215" lon="4.75677">
        <ele>174</ele>
        <time>2018-11-11T11:37:09Z</time>
      </trkpt>
      <trkpt lat="45.92211" lon="4.75673">
        <ele>174</ele>
        <time>2018-11-11T11:37:10Z</time>
      </trkpt>
      <trkpt lat="45.92205" lon="4.75668">
        <ele>174</ele>
        <time>2018-11-11T11:37:11Z</time>
      </trkpt>
      <trkpt lat="45.92201" lon="4.75664">
        <ele>174</ele>
        <time>2018-11-11T11:37:12Z</time>
      </trkpt>
      <trkpt lat="45.92196" lon="4.7566">
        <ele>174</ele>
        <time>2018-11-11T11:37:13Z</time>
      </trkpt>
      <trkpt lat="45.92192" lon="4.75656">
        <ele>174</ele>
        <time>2018-11-11T11:37:14Z</time>
      </trkpt>
      <trkpt lat="45.92187" lon="4.75652">
        <ele>174</ele>
        <time>2018-11-11T11:37:15Z</time>
      </trkpt>
      <trkpt lat="45.92184" lon="4.75648">
        <ele>174</ele>
        <time>2018-11-11T11:37:16Z</time>
      </trkpt>
      <trkpt lat="45.9218" lon="4.75645">
        <ele>174</ele>
        <time>2018-11-11T11:37:17Z</time>
      </trkpt>
      <trkpt lat="45.92172" lon="4.75639">
        <ele>174</ele>
        <time>2018-11-11T11:37:19Z</time>
      </trkpt>
      <trkpt lat="45.92169" lon="4.75636">
        <ele>174</ele>
        <time>2018-11-11T11:37:20Z</time>
      </trkpt>
      <trkpt lat="45.92162" lon="4.75628">
        <ele>174</ele>
        <time>2018-11-11T11:37:22Z</time>
      </trkpt>
      <trkpt lat="45.92158" lon="4.75624">
        <ele>174</ele>
        <time>2018-11-11T11:37:23Z</time>
      </trkpt>
      <trkpt lat="45.92154" lon="4.75621">
        <ele>174</ele>
        <time>2018-11-11T11:37:24Z</time>
      </trkpt>
      <trkpt lat="45.9215" lon="4.75617">
        <ele>174</ele>
        <time>2018-11-11T11:37:25Z</time>
      </trkpt>
      <trkpt lat="45.92146" lon="4.75613">
        <ele>174</ele>
        <time>2018-11-11T11:37:26Z</time>
      </trkpt>
      <trkpt lat="45.92142" lon="4.7561">
        <ele>174</ele>
        <time>2018-11-11T11:37:27Z</time>
      </trkpt>
      <trkpt lat="45.92135" lon="4.75603">
        <ele>174</ele>
        <time>2018-11-11T11:37:29Z</time>
      </trkpt>
      <trkpt lat="45.92132" lon="4.756">
        <ele>174</ele>
        <time>2018-11-11T11:37:30Z</time>
      </trkpt>
      <trkpt lat="45.92127" lon="4.75593">
        <ele>174</ele>
        <time>2018-11-11T11:37:32Z</time>
      </trkpt>
      <trkpt lat="45.92125" lon="4.7559">
        <ele>174</ele>
        <time>2018-11-11T11:37:33Z</time>
      </trkpt>
      <trkpt lat="45.9212" lon="4.7558">
        <ele>174</ele>
        <time>2018-11-11T11:37:36Z</time>
      </trkpt>
      <trkpt lat="45.92119" lon="4.75576">
        <ele>174</ele>
        <time>2018-11-11T11:37:37Z</time>
      </trkpt>
      <trkpt lat="45.92117" lon="4.75565">
        <ele>174</ele>
        <time>2018-11-11T11:37:40Z</time>
      </trkpt>
      <trkpt lat="45.92118" lon="4.75556">
        <ele>174</ele>
        <time>2018-11-11T11:37:41Z</time>
      </trkpt>
      <trkpt lat="45.9212" lon="4.7555">
        <ele>174</ele>
        <time>2018-11-11T11:37:42Z</time>
      </trkpt>
      <trkpt lat="45.92125" lon="4.75546">
        <ele>174</ele>
        <time>2018-11-11T11:37:43Z</time>
      </trkpt>
      <trkpt lat="45.92128" lon="4.75541">
        <ele>174</ele>
        <time>2018-11-11T11:37:44Z</time>
      </trkpt>
      <trkpt lat="45.92131" lon="4.75535">
        <ele>174</ele>
        <time>2018-11-11T11:37:45Z</time>
      </trkpt>
      <trkpt lat="45.92134" lon="4.7553">
        <ele>174</ele>
        <time>2018-11-11T11:37:46Z</time>
      </trkpt>
      <trkpt lat="45.92137" lon="4.75524">
        <ele>174</ele>
        <time>2018-11-11T11:37:47Z</time>
      </trkpt>
      <trkpt lat="45.92141" lon="4.75519">
        <ele>174</ele>
        <time>2018-11-11T11:37:48Z</time>
      </trkpt>
      <trkpt lat="45.92143" lon="4.75514">
        <ele>174</ele>
        <time>2018-11-11T11:37:49Z</time>
      </trkpt>
      <trkpt lat="45.92147" lon="4.75503">
        <ele>175</ele>
        <time>2018-11-11T11:37:51Z</time>
      </trkpt>
      <trkpt lat="45.92149" lon="4.75498">
        <ele>175</ele>
        <time>2018-11-11T11:37:52Z</time>
      </trkpt>
      <trkpt lat="45.92153" lon="4.75488">
        <ele>175</ele>
        <time>2018-11-11T11:37:54Z</time>
      </trkpt>
      <trkpt lat="45.92155" lon="4.75484">
        <ele>176</ele>
        <time>2018-11-11T11:37:55Z</time>
      </trkpt>
      <trkpt lat="45.92158" lon="4.75478">
        <ele>176</ele>
        <time>2018-11-11T11:37:56Z</time>
      </trkpt>
      <trkpt lat="45.9216" lon="4.75472">
        <ele>176</ele>
        <time>2018-11-11T11:37:57Z</time>
      </trkpt>
      <trkpt lat="45.92162" lon="4.75467">
        <ele>176</ele>
        <time>2018-11-11T11:37:58Z</time>
      </trkpt>
      <trkpt lat="45.92165" lon="4.7546">
        <ele>176</ele>
        <time>2018-11-11T11:37:59Z</time>
      </trkpt>
      <trkpt lat="45.92166" lon="4.75454">
        <ele>176</ele>
        <time>2018-11-11T11:38:00Z</time>
      </trkpt>
      <trkpt lat="45.92169" lon="4.75447">
        <ele>176</ele>
        <time>2018-11-11T11:38:01Z</time>
      </trkpt>
      <trkpt lat="45.92172" lon="4.7544">
        <ele>177</ele>
        <time>2018-11-11T11:38:02Z</time>
      </trkpt>
      <trkpt lat="45.92175" lon="4.75433">
        <ele>177</ele>
        <time>2018-11-11T11:38:03Z</time>
      </trkpt>
      <trkpt lat="45.92178" lon="4.75427">
        <ele>177</ele>
        <time>2018-11-11T11:38:04Z</time>
      </trkpt>
      <trkpt lat="45.9218" lon="4.75421">
        <ele>177</ele>
        <time>2018-11-11T11:38:05Z</time>
      </trkpt>
      <trkpt lat="45.92183" lon="4.75415">
        <ele>177</ele>
        <time>2018-11-11T11:38:06Z</time>
      </trkpt>
      <trkpt lat="45.92185" lon="4.75409">
        <ele>177</ele>
        <time>2018-11-11T11:38:07Z</time>
      </trkpt>
      <trkpt lat="45.92187" lon="4.75403">
        <ele>177</ele>
        <time>2018-11-11T11:38:08Z</time>
      </trkpt>
      <trkpt lat="45.9219" lon="4.75397">
        <ele>177</ele>
        <time>2018-11-11T11:38:09Z</time>
      </trkpt>
      <trkpt lat="45.92191" lon="4.75392">
        <ele>177</ele>
        <time>2018-11-11T11:38:11Z</time>
      </trkpt>
      <trkpt lat="45.92193" lon="4.75383">
        <ele>177</ele>
        <time>2018-11-11T11:38:12Z</time>
      </trkpt>
      <trkpt lat="45.92195" lon="4.75377">
        <ele>177</ele>
        <time>2018-11-11T11:38:13Z</time>
      </trkpt>
      <trkpt lat="45.92198" lon="4.75371">
        <ele>177</ele>
        <time>2018-11-11T11:38:14Z</time>
      </trkpt>
      <trkpt lat="45.922" lon="4.75365">
        <ele>177</ele>
        <time>2018-11-11T11:38:15Z</time>
      </trkpt>
      <trkpt lat="45.92203" lon="4.75359">
        <ele>177</ele>
        <time>2018-11-11T11:38:16Z</time>
      </trkpt>
      <trkpt lat="45.92205" lon="4.75353">
        <ele>177</ele>
        <time>2018-11-11T11:38:17Z</time>
      </trkpt>
      <trkpt lat="45.92206" lon="4.75346">
        <ele>177</ele>
        <time>2018-11-11T11:38:18Z</time>
      </trkpt>
      <trkpt lat="45.92208" lon="4.75338">
        <ele>177</ele>
        <time>2018-11-11T11:38:19Z</time>
      </trkpt>
      <trkpt lat="45.92209" lon="4.75331">
        <ele>176</ele>
        <time>2018-11-11T11:38:20Z</time>
      </trkpt>
      <trkpt lat="45.92211" lon="4.75323">
        <ele>176</ele>
        <time>2018-11-11T11:38:21Z</time>
      </trkpt>
      <trkpt lat="45.92212" lon="4.75315">
        <ele>176</ele>
        <time>2018-11-11T11:38:22Z</time>
      </trkpt>
      <trkpt lat="45.92213" lon="4.75307">
        <ele>176</ele>
        <time>2018-11-11T11:38:23Z</time>
      </trkpt>
      <trkpt lat="45.92213" lon="4.75299">
        <ele>176</ele>
        <time>2018-11-11T11:38:24Z</time>
      </trkpt>
      <trkpt lat="45.92213" lon="4.75289">
        <ele>176</ele>
        <time>2018-11-11T11:38:25Z</time>
      </trkpt>
      <trkpt lat="45.92213" lon="4.7528">
        <ele>176</ele>
        <time>2018-11-11T11:38:26Z</time>
      </trkpt>
      <trkpt lat="45.92213" lon="4.75272">
        <ele>176</ele>
        <time>2018-11-11T11:38:27Z</time>
      </trkpt>
      <trkpt lat="45.92214" lon="4.75263">
        <ele>176</ele>
        <time>2018-11-11T11:38:28Z</time>
      </trkpt>
      <trkpt lat="45.92213" lon="4.75254">
        <ele>175</ele>
        <time>2018-11-11T11:38:29Z</time>
      </trkpt>
      <trkpt lat="45.92214" lon="4.75245">
        <ele>175</ele>
        <time>2018-11-11T11:38:30Z</time>
      </trkpt>
      <trkpt lat="45.92215" lon="4.75236">
        <ele>175</ele>
        <time>2018-11-11T11:38:31Z</time>
      </trkpt>
      <trkpt lat="45.92216" lon="4.75227">
        <ele>175</ele>
        <time>2018-11-11T11:38:32Z</time>
      </trkpt>
      <trkpt lat="45.92217" lon="4.75217">
        <ele>175</ele>
        <time>2018-11-11T11:38:33Z</time>
      </trkpt>
      <trkpt lat="45.92219" lon="4.75208">
        <ele>175</ele>
        <time>2018-11-11T11:38:34Z</time>
      </trkpt>
      <trkpt lat="45.92221" lon="4.75198">
        <ele>175</ele>
        <time>2018-11-11T11:38:35Z</time>
      </trkpt>
      <trkpt lat="45.92222" lon="4.75189">
        <ele>175</ele>
        <time>2018-11-11T11:38:36Z</time>
      </trkpt>
      <trkpt lat="45.92225" lon="4.75181">
        <ele>175</ele>
        <time>2018-11-11T11:38:37Z</time>
      </trkpt>
      <trkpt lat="45.92228" lon="4.75172">
        <ele>175</ele>
        <time>2018-11-11T11:38:38Z</time>
      </trkpt>
      <trkpt lat="45.92231" lon="4.75164">
        <ele>174</ele>
        <time>2018-11-11T11:38:39Z</time>
      </trkpt>
      <trkpt lat="45.92234" lon="4.75156">
        <ele>174</ele>
        <time>2018-11-11T11:38:40Z</time>
      </trkpt>
      <trkpt lat="45.92237" lon="4.75149">
        <ele>174</ele>
        <time>2018-11-11T11:38:41Z</time>
      </trkpt>
      <trkpt lat="45.92242" lon="4.75142">
        <ele>174</ele>
        <time>2018-11-11T11:38:42Z</time>
      </trkpt>
      <trkpt lat="45.92246" lon="4.75136">
        <ele>174</ele>
        <time>2018-11-11T11:38:43Z</time>
      </trkpt>
      <trkpt lat="45.9225" lon="4.75131">
        <ele>174</ele>
        <time>2018-11-11T11:38:44Z</time>
      </trkpt>
      <trkpt lat="45.92254" lon="4.75125">
        <ele>174</ele>
        <time>2018-11-11T11:38:45Z</time>
      </trkpt>
      <trkpt lat="45.92258" lon="4.7512">
        <ele>174</ele>
        <time>2018-11-11T11:38:46Z</time>
      </trkpt>
      <trkpt lat="45.92263" lon="4.75114">
        <ele>174</ele>
        <time>2018-11-11T11:38:47Z</time>
      </trkpt>
      <trkpt lat="45.92268" lon="4.7511">
        <ele>174</ele>
        <time>2018-11-11T11:38:48Z</time>
      </trkpt>
      <trkpt lat="45.92272" lon="4.75104">
        <ele>173</ele>
        <time>2018-11-11T11:38:49Z</time>
      </trkpt>
      <trkpt lat="45.92277" lon="4.751">
        <ele>173</ele>
        <time>2018-11-11T11:38:50Z</time>
      </trkpt>
      <trkpt lat="45.92281" lon="4.75096">
        <ele>173</ele>
        <time>2018-11-11T11:38:51Z</time>
      </trkpt>
      <trkpt lat="45.92285" lon="4.75091">
        <ele>173</ele>
        <time>2018-11-11T11:38:52Z</time>
      </trkpt>
      <trkpt lat="45.9229" lon="4.75086">
        <ele>173</ele>
        <time>2018-11-11T11:38:53Z</time>
      </trkpt>
      <trkpt lat="45.92296" lon="4.75081">
        <ele>172</ele>
        <time>2018-11-11T11:38:54Z</time>
      </trkpt>
      <trkpt lat="45.92302" lon="4.75074">
        <ele>172</ele>
        <time>2018-11-11T11:38:55Z</time>
      </trkpt>
      <trkpt lat="45.92307" lon="4.75068">
        <ele>172</ele>
        <time>2018-11-11T11:38:56Z</time>
      </trkpt>
      <trkpt lat="45.92312" lon="4.75061">
        <ele>172</ele>
        <time>2018-11-11T11:38:57Z</time>
      </trkpt>
      <trkpt lat="45.92316" lon="4.75055">
        <ele>172</ele>
        <time>2018-11-11T11:38:58Z</time>
      </trkpt>
      <trkpt lat="45.92321" lon="4.75049">
        <ele>172</ele>
        <time>2018-11-11T11:38:59Z</time>
      </trkpt>
      <trkpt lat="45.92325" lon="4.75042">
        <ele>172</ele>
        <time>2018-11-11T11:39:00Z</time>
      </trkpt>
      <trkpt lat="45.92328" lon="4.75036">
        <ele>171</ele>
        <time>2018-11-11T11:39:01Z</time>
      </trkpt>
      <trkpt lat="45.92332" lon="4.7503">
        <ele>171</ele>
        <time>2018-11-11T11:39:02Z</time>
      </trkpt>
      <trkpt lat="45.92335" lon="4.75023">
        <ele>170</ele>
        <time>2018-11-11T11:39:03Z</time>
      </trkpt>
      <trkpt lat="45.92338" lon="4.75017">
        <ele>170</ele>
        <time>2018-11-11T11:39:04Z</time>
      </trkpt>
      <trkpt lat="45.92341" lon="4.75011">
        <ele>170</ele>
        <time>2018-11-11T11:39:05Z</time>
      </trkpt>
      <trkpt lat="45.92343" lon="4.75003">
        <ele>170</ele>
        <time>2018-11-11T11:39:06Z</time>
      </trkpt>
      <trkpt lat="45.92346" lon="4.74997">
        <ele>170</ele>
        <time>2018-11-11T11:39:07Z</time>
      </trkpt>
      <trkpt lat="45.92349" lon="4.7499">
        <ele>170</ele>
        <time>2018-11-11T11:39:08Z</time>
      </trkpt>
      <trkpt lat="45.92351" lon="4.74983">
        <ele>170</ele>
        <time>2018-11-11T11:39:09Z</time>
      </trkpt>
      <trkpt lat="45.92354" lon="4.74976">
        <ele>170</ele>
        <time>2018-11-11T11:39:10Z</time>
      </trkpt>
      <trkpt lat="45.92356" lon="4.74969">
        <ele>170</ele>
        <time>2018-11-11T11:39:11Z</time>
      </trkpt>
      <trkpt lat="45.92359" lon="4.74962">
        <ele>170</ele>
        <time>2018-11-11T11:39:12Z</time>
      </trkpt>
      <trkpt lat="45.92363" lon="4.74954">
        <ele>170</ele>
        <time>2018-11-11T11:39:13Z</time>
      </trkpt>
      <trkpt lat="45.92365" lon="4.74945">
        <ele>170</ele>
        <time>2018-11-11T11:39:14Z</time>
      </trkpt>
      <trkpt lat="45.92368" lon="4.74938">
        <ele>170</ele>
        <time>2018-11-11T11:39:15Z</time>
      </trkpt>
      <trkpt lat="45.92372" lon="4.7493">
        <ele>170</ele>
        <time>2018-11-11T11:39:16Z</time>
      </trkpt>
      <trkpt lat="45.92376" lon="4.74922">
        <ele>170</ele>
        <time>2018-11-11T11:39:17Z</time>
      </trkpt>
      <trkpt lat="45.92379" lon="4.74916">
        <ele>171</ele>
        <time>2018-11-11T11:39:18Z</time>
      </trkpt>
      <trkpt lat="45.92382" lon="4.74909">
        <ele>171</ele>
        <time>2018-11-11T11:39:19Z</time>
      </trkpt>
      <trkpt lat="45.92384" lon="4.749">
        <ele>171</ele>
        <time>2018-11-11T11:39:20Z</time>
      </trkpt>
      <trkpt lat="45.92387" lon="4.74893">
        <ele>171</ele>
        <time>2018-11-11T11:39:21Z</time>
      </trkpt>
      <trkpt lat="45.9239" lon="4.74886">
        <ele>171</ele>
        <time>2018-11-11T11:39:22Z</time>
      </trkpt>
      <trkpt lat="45.92392" lon="4.7488">
        <ele>171</ele>
        <time>2018-11-11T11:39:23Z</time>
      </trkpt>
      <trkpt lat="45.92395" lon="4.74873">
        <ele>171</ele>
        <time>2018-11-11T11:39:24Z</time>
      </trkpt>
      <trkpt lat="45.92398" lon="4.74865">
        <ele>171</ele>
        <time>2018-11-11T11:39:25Z</time>
      </trkpt>
      <trkpt lat="45.924" lon="4.74858">
        <ele>171</ele>
        <time>2018-11-11T11:39:26Z</time>
      </trkpt>
      <trkpt lat="45.92402" lon="4.7485">
        <ele>171</ele>
        <time>2018-11-11T11:39:27Z</time>
      </trkpt>
      <trkpt lat="45.92405" lon="4.74842">
        <ele>171</ele>
        <time>2018-11-11T11:39:28Z</time>
      </trkpt>
      <trkpt lat="45.92407" lon="4.74834">
        <ele>171</ele>
        <time>2018-11-11T11:39:29Z</time>
      </trkpt>
      <trkpt lat="45.92409" lon="4.74825">
        <ele>171</ele>
        <time>2018-11-11T11:39:30Z</time>
      </trkpt>
      <trkpt lat="45.92411" lon="4.74816">
        <ele>171</ele>
        <time>2018-11-11T11:39:31Z</time>
      </trkpt>
      <trkpt lat="45.92413" lon="4.74808">
        <ele>171</ele>
        <time>2018-11-11T11:39:32Z</time>
      </trkpt>
      <trkpt lat="45.92415" lon="4.748">
        <ele>171</ele>
        <time>2018-11-11T11:39:33Z</time>
      </trkpt>
      <trkpt lat="45.92416" lon="4.74792">
        <ele>171</ele>
        <time>2018-11-11T11:39:34Z</time>
      </trkpt>
      <trkpt lat="45.92418" lon="4.74784">
        <ele>171</ele>
        <time>2018-11-11T11:39:35Z</time>
      </trkpt>
      <trkpt lat="45.9242" lon="4.74776">
        <ele>171</ele>
        <time>2018-11-11T11:39:36Z</time>
      </trkpt>
      <trkpt lat="45.92421" lon="4.74769">
        <ele>171</ele>
        <time>2018-11-11T11:39:37Z</time>
      </trkpt>
      <trkpt lat="45.92423" lon="4.74763">
        <ele>171</ele>
        <time>2018-11-11T11:39:38Z</time>
      </trkpt>
      <trkpt lat="45.92425" lon="4.74757">
        <ele>171</ele>
        <time>2018-11-11T11:39:39Z</time>
      </trkpt>
      <trkpt lat="45.92426" lon="4.7475">
        <ele>172</ele>
        <time>2018-11-11T11:39:40Z</time>
      </trkpt>
      <trkpt lat="45.92428" lon="4.74743">
        <ele>171</ele>
        <time>2018-11-11T11:39:41Z</time>
      </trkpt>
      <trkpt lat="45.9243" lon="4.74737">
        <ele>171</ele>
        <time>2018-11-11T11:39:42Z</time>
      </trkpt>
      <trkpt lat="45.92432" lon="4.7473">
        <ele>171</ele>
        <time>2018-11-11T11:39:43Z</time>
      </trkpt>
      <trkpt lat="45.92435" lon="4.74724">
        <ele>171</ele>
        <time>2018-11-11T11:39:44Z</time>
      </trkpt>
      <trkpt lat="45.92437" lon="4.74718">
        <ele>171</ele>
        <time>2018-11-11T11:39:45Z</time>
      </trkpt>
      <trkpt lat="45.9244" lon="4.7471">
        <ele>171</ele>
        <time>2018-11-11T11:39:46Z</time>
      </trkpt>
      <trkpt lat="45.92443" lon="4.74703">
        <ele>171</ele>
        <time>2018-11-11T11:39:47Z</time>
      </trkpt>
      <trkpt lat="45.92446" lon="4.74695">
        <ele>171</ele>
        <time>2018-11-11T11:39:48Z</time>
      </trkpt>
      <trkpt lat="45.92449" lon="4.74688">
        <ele>171</ele>
        <time>2018-11-11T11:39:49Z</time>
      </trkpt>
      <trkpt lat="45.92453" lon="4.74681">
        <ele>171</ele>
        <time>2018-11-11T11:39:50Z</time>
      </trkpt>
      <trkpt lat="45.92456" lon="4.74673">
        <ele>171</ele>
        <time>2018-11-11T11:39:51Z</time>
      </trkpt>
      <trkpt lat="45.92459" lon="4.74665">
        <ele>171</ele>
        <time>2018-11-11T11:39:52Z</time>
      </trkpt>
      <trkpt lat="45.92464" lon="4.74657">
        <ele>171</ele>
        <time>2018-11-11T11:39:53Z</time>
      </trkpt>
      <trkpt lat="45.92467" lon="4.74651">
        <ele>171</ele>
        <time>2018-11-11T11:39:54Z</time>
      </trkpt>
      <trkpt lat="45.92471" lon="4.74644">
        <ele>171</ele>
        <time>2018-11-11T11:39:55Z</time>
      </trkpt>
      <trkpt lat="45.92475" lon="4.74638">
        <ele>171</ele>
        <time>2018-11-11T11:39:56Z</time>
      </trkpt>
      <trkpt lat="45.92479" lon="4.74631">
        <ele>171</ele>
        <time>2018-11-11T11:39:57Z</time>
      </trkpt>
      <trkpt lat="45.92485" lon="4.74625">
        <ele>171</ele>
        <time>2018-11-11T11:39:58Z</time>
      </trkpt>
      <trkpt lat="45.92489" lon="4.74619">
        <ele>171</ele>
        <time>2018-11-11T11:39:59Z</time>
      </trkpt>
      <trkpt lat="45.92493" lon="4.74612">
        <ele>171</ele>
        <time>2018-11-11T11:40:00Z</time>
      </trkpt>
      <trkpt lat="45.92498" lon="4.74606">
        <ele>171</ele>
        <time>2018-11-11T11:40:01Z</time>
      </trkpt>
      <trkpt lat="45.92502" lon="4.746">
        <ele>171</ele>
        <time>2018-11-11T11:40:02Z</time>
      </trkpt>
      <trkpt lat="45.92507" lon="4.74595">
        <ele>171</ele>
        <time>2018-11-11T11:40:03Z</time>
      </trkpt>
      <trkpt lat="45.92512" lon="4.74588">
        <ele>171</ele>
        <time>2018-11-11T11:40:04Z</time>
      </trkpt>
      <trkpt lat="45.92516" lon="4.74582">
        <ele>171</ele>
        <time>2018-11-11T11:40:05Z</time>
      </trkpt>
      <trkpt lat="45.92521" lon="4.74576">
        <ele>171</ele>
        <time>2018-11-11T11:40:06Z</time>
      </trkpt>
      <trkpt lat="45.92526" lon="4.74571">
        <ele>171</ele>
        <time>2018-11-11T11:40:07Z</time>
      </trkpt>
      <trkpt lat="45.9253" lon="4.74565">
        <ele>171</ele>
        <time>2018-11-11T11:40:08Z</time>
      </trkpt>
      <trkpt lat="45.92534" lon="4.7456">
        <ele>171</ele>
        <time>2018-11-11T11:40:09Z</time>
      </trkpt>
      <trkpt lat="45.92539" lon="4.74553">
        <ele>171</ele>
        <time>2018-11-11T11:40:10Z</time>
      </trkpt>
      <trkpt lat="45.92544" lon="4.74547">
        <ele>170</ele>
        <time>2018-11-11T11:40:11Z</time>
      </trkpt>
      <trkpt lat="45.92548" lon="4.74539">
        <ele>170</ele>
        <time>2018-11-11T11:40:12Z</time>
      </trkpt>
      <trkpt lat="45.92552" lon="4.74532">
        <ele>170</ele>
        <time>2018-11-11T11:40:13Z</time>
      </trkpt>
      <trkpt lat="45.92556" lon="4.74524">
        <ele>170</ele>
        <time>2018-11-11T11:40:14Z</time>
      </trkpt>
      <trkpt lat="45.9256" lon="4.74517">
        <ele>170</ele>
        <time>2018-11-11T11:40:15Z</time>
      </trkpt>
      <trkpt lat="45.92565" lon="4.74508">
        <ele>170</ele>
        <time>2018-11-11T11:40:16Z</time>
      </trkpt>
      <trkpt lat="45.92569" lon="4.745">
        <ele>170</ele>
        <time>2018-11-11T11:40:17Z</time>
      </trkpt>
      <trkpt lat="45.92573" lon="4.74492">
        <ele>170</ele>
        <time>2018-11-11T11:40:18Z</time>
      </trkpt>
      <trkpt lat="45.92577" lon="4.74485">
        <ele>170</ele>
        <time>2018-11-11T11:40:19Z</time>
      </trkpt>
      <trkpt lat="45.92582" lon="4.74478">
        <ele>170</ele>
        <time>2018-11-11T11:40:20Z</time>
      </trkpt>
      <trkpt lat="45.92586" lon="4.7447">
        <ele>170</ele>
        <time>2018-11-11T11:40:21Z</time>
      </trkpt>
      <trkpt lat="45.92589" lon="4.74463">
        <ele>170</ele>
        <time>2018-11-11T11:40:22Z</time>
      </trkpt>
      <trkpt lat="45.92594" lon="4.74455">
        <ele>170</ele>
        <time>2018-11-11T11:40:23Z</time>
      </trkpt>
      <trkpt lat="45.92598" lon="4.74449">
        <ele>170</ele>
        <time>2018-11-11T11:40:24Z</time>
      </trkpt>
      <trkpt lat="45.92601" lon="4.74442">
        <ele>170</ele>
        <time>2018-11-11T11:40:25Z</time>
      </trkpt>
      <trkpt lat="45.92604" lon="4.74435">
        <ele>170</ele>
        <time>2018-11-11T11:40:26Z</time>
      </trkpt>
      <trkpt lat="45.92607" lon="4.74429">
        <ele>170</ele>
        <time>2018-11-11T11:40:27Z</time>
      </trkpt>
      <trkpt lat="45.92611" lon="4.74423">
        <ele>170</ele>
        <time>2018-11-11T11:40:28Z</time>
      </trkpt>
      <trkpt lat="45.92615" lon="4.74418">
        <ele>170</ele>
        <time>2018-11-11T11:40:29Z</time>
      </trkpt>
      <trkpt lat="45.92618" lon="4.74413">
        <ele>170</ele>
        <time>2018-11-11T11:40:30Z</time>
      </trkpt>
      <trkpt lat="45.92621" lon="4.74407">
        <ele>170</ele>
        <time>2018-11-11T11:40:31Z</time>
      </trkpt>
      <trkpt lat="45.92624" lon="4.74401">
        <ele>170</ele>
        <time>2018-11-11T11:40:32Z</time>
      </trkpt>
      <trkpt lat="45.92627" lon="4.74395">
        <ele>170</ele>
        <time>2018-11-11T11:40:33Z</time>
      </trkpt>
      <trkpt lat="45.9263" lon="4.74389">
        <ele>170</ele>
        <time>2018-11-11T11:40:34Z</time>
      </trkpt>
      <trkpt lat="45.92634" lon="4.74381">
        <ele>170</ele>
        <time>2018-11-11T11:40:35Z</time>
      </trkpt>
      <trkpt lat="45.92638" lon="4.74375">
        <ele>171</ele>
        <time>2018-11-11T11:40:36Z</time>
      </trkpt>
      <trkpt lat="45.92641" lon="4.74368">
        <ele>171</ele>
        <time>2018-11-11T11:40:37Z</time>
      </trkpt>
      <trkpt lat="45.92645" lon="4.74361">
        <ele>171</ele>
        <time>2018-11-11T11:40:38Z</time>
      </trkpt>
      <trkpt lat="45.92649" lon="4.74355">
        <ele>171</ele>
        <time>2018-11-11T11:40:39Z</time>
      </trkpt>
      <trkpt lat="45.92653" lon="4.74348">
        <ele>171</ele>
        <time>2018-11-11T11:40:40Z</time>
      </trkpt>
      <trkpt lat="45.92657" lon="4.74341">
        <ele>171</ele>
        <time>2018-11-11T11:40:41Z</time>
      </trkpt>
      <trkpt lat="45.92661" lon="4.74334">
        <ele>171</ele>
        <time>2018-11-11T11:40:42Z</time>
      </trkpt>
      <trkpt lat="45.92664" lon="4.74328">
        <ele>171</ele>
        <time>2018-11-11T11:40:43Z</time>
      </trkpt>
      <trkpt lat="45.92668" lon="4.74321">
        <ele>171</ele>
        <time>2018-11-11T11:40:44Z</time>
      </trkpt>
      <trkpt lat="45.92672" lon="4.74314">
        <ele>171</ele>
        <time>2018-11-11T11:40:45Z</time>
      </trkpt>
      <trkpt lat="45.92676" lon="4.74308">
        <ele>171</ele>
        <time>2018-11-11T11:40:46Z</time>
      </trkpt>
      <trkpt lat="45.9268" lon="4.74301">
        <ele>171</ele>
        <time>2018-11-11T11:40:47Z</time>
      </trkpt>
      <trkpt lat="45.92684" lon="4.74294">
        <ele>171</ele>
        <time>2018-11-11T11:40:48Z</time>
      </trkpt>
      <trkpt lat="45.92687" lon="4.74287">
        <ele>171</ele>
        <time>2018-11-11T11:40:49Z</time>
      </trkpt>
      <trkpt lat="45.92691" lon="4.74279">
        <ele>171</ele>
        <time>2018-11-11T11:40:50Z</time>
      </trkpt>
      <trkpt lat="45.92695" lon="4.74273">
        <ele>171</ele>
        <time>2018-11-11T11:40:51Z</time>
      </trkpt>
      <trkpt lat="45.92698" lon="4.74267">
        <ele>171</ele>
        <time>2018-11-11T11:40:52Z</time>
      </trkpt>
      <trkpt lat="45.92701" lon="4.7426">
        <ele>171</ele>
        <time>2018-11-11T11:40:53Z</time>
      </trkpt>
      <trkpt lat="45.92705" lon="4.74253">
        <ele>171</ele>
        <time>2018-11-11T11:40:54Z</time>
      </trkpt>
      <trkpt lat="45.92708" lon="4.74248">
        <ele>171</ele>
        <time>2018-11-11T11:40:55Z</time>
      </trkpt>
      <trkpt lat="45.92712" lon="4.74242">
        <ele>171</ele>
        <time>2018-11-11T11:40:56Z</time>
      </trkpt>
      <trkpt lat="45.92716" lon="4.74236">
        <ele>171</ele>
        <time>2018-11-11T11:40:57Z</time>
      </trkpt>
      <trkpt lat="45.9272" lon="4.7423">
        <ele>171</ele>
        <time>2018-11-11T11:40:58Z</time>
      </trkpt>
      <trkpt lat="45.92724" lon="4.74224">
        <ele>171</ele>
        <time>2018-11-11T11:40:59Z</time>
      </trkpt>
      <trkpt lat="45.92729" lon="4.74217">
        <ele>171</ele>
        <time>2018-11-11T11:41:00Z</time>
      </trkpt>
      <trkpt lat="45.92734" lon="4.7421">
        <ele>171</ele>
        <time>2018-11-11T11:41:01Z</time>
      </trkpt>
      <trkpt lat="45.92739" lon="4.74203">
        <ele>171</ele>
        <time>2018-11-11T11:41:02Z</time>
      </trkpt>
      <trkpt lat="45.92744" lon="4.74197">
        <ele>171</ele>
        <time>2018-11-11T11:41:03Z</time>
      </trkpt>
      <trkpt lat="45.92749" lon="4.7419">
        <ele>172</ele>
        <time>2018-11-11T11:41:04Z</time>
      </trkpt>
      <trkpt lat="45.92754" lon="4.74183">
        <ele>172</ele>
        <time>2018-11-11T11:41:05Z</time>
      </trkpt>
      <trkpt lat="45.92758" lon="4.74177">
        <ele>172</ele>
        <time>2018-11-11T11:41:06Z</time>
      </trkpt>
      <trkpt lat="45.92764" lon="4.74171">
        <ele>172</ele>
        <time>2018-11-11T11:41:07Z</time>
      </trkpt>
      <trkpt lat="45.92769" lon="4.74166">
        <ele>172</ele>
        <time>2018-11-11T11:41:08Z</time>
      </trkpt>
      <trkpt lat="45.92774" lon="4.74161">
        <ele>172</ele>
        <time>2018-11-11T11:41:09Z</time>
      </trkpt>
      <trkpt lat="45.9278" lon="4.74155">
        <ele>172</ele>
        <time>2018-11-11T11:41:10Z</time>
      </trkpt>
      <trkpt lat="45.92786" lon="4.7415">
        <ele>172</ele>
        <time>2018-11-11T11:41:11Z</time>
      </trkpt>
      <trkpt lat="45.92791" lon="4.74144">
        <ele>172</ele>
        <time>2018-11-11T11:41:12Z</time>
      </trkpt>
      <trkpt lat="45.92796" lon="4.74139">
        <ele>172</ele>
        <time>2018-11-11T11:41:13Z</time>
      </trkpt>
      <trkpt lat="45.92801" lon="4.74134">
        <ele>172</ele>
        <time>2018-11-11T11:41:14Z</time>
      </trkpt>
      <trkpt lat="45.92805" lon="4.74128">
        <ele>172</ele>
        <time>2018-11-11T11:41:15Z</time>
      </trkpt>
      <trkpt lat="45.9281" lon="4.74123">
        <ele>172</ele>
        <time>2018-11-11T11:41:16Z</time>
      </trkpt>
      <trkpt lat="45.92815" lon="4.74118">
        <ele>172</ele>
        <time>2018-11-11T11:41:17Z</time>
      </trkpt>
      <trkpt lat="45.92821" lon="4.74112">
        <ele>172</ele>
        <time>2018-11-11T11:41:18Z</time>
      </trkpt>
      <trkpt lat="45.92825" lon="4.74107">
        <ele>171</ele>
        <time>2018-11-11T11:41:19Z</time>
      </trkpt>
      <trkpt lat="45.9283" lon="4.74101">
        <ele>171</ele>
        <time>2018-11-11T11:41:20Z</time>
      </trkpt>
      <trkpt lat="45.92834" lon="4.74095">
        <ele>171</ele>
        <time>2018-11-11T11:41:21Z</time>
      </trkpt>
      <trkpt lat="45.92839" lon="4.74089">
        <ele>171</ele>
        <time>2018-11-11T11:41:22Z</time>
      </trkpt>
      <trkpt lat="45.92844" lon="4.74084">
        <ele>171</ele>
        <time>2018-11-11T11:41:23Z</time>
      </trkpt>
      <trkpt lat="45.92849" lon="4.74077">
        <ele>172</ele>
        <time>2018-11-11T11:41:24Z</time>
      </trkpt>
      <trkpt lat="45.92852" lon="4.74072">
        <ele>172</ele>
        <time>2018-11-11T11:41:25Z</time>
      </trkpt>
      <trkpt lat="45.92857" lon="4.74067">
        <ele>172</ele>
        <time>2018-11-11T11:41:26Z</time>
      </trkpt>
      <trkpt lat="45.92861" lon="4.74063">
        <ele>172</ele>
        <time>2018-11-11T11:41:27Z</time>
      </trkpt>
      <trkpt lat="45.92865" lon="4.74058">
        <ele>172</ele>
        <time>2018-11-11T11:41:28Z</time>
      </trkpt>
      <trkpt lat="45.92869" lon="4.74053">
        <ele>172</ele>
        <time>2018-11-11T11:41:29Z</time>
      </trkpt>
      <trkpt lat="45.92874" lon="4.74049">
        <ele>172</ele>
        <time>2018-11-11T11:41:30Z</time>
      </trkpt>
      <trkpt lat="45.92878" lon="4.74045">
        <ele>172</ele>
        <time>2018-11-11T11:41:31Z</time>
      </trkpt>
      <trkpt lat="45.92884" lon="4.74043">
        <ele>172</ele>
        <time>2018-11-11T11:41:32Z</time>
      </trkpt>
      <trkpt lat="45.92892" lon="4.74043">
        <ele>172</ele>
        <time>2018-11-11T11:41:34Z</time>
      </trkpt>
      <trkpt lat="45.92897" lon="4.74044">
        <ele>172</ele>
        <time>2018-11-11T11:41:35Z</time>
      </trkpt>
      <trkpt lat="45.92902" lon="4.74045">
        <ele>172</ele>
        <time>2018-11-11T11:41:36Z</time>
      </trkpt>
      <trkpt lat="45.92906" lon="4.74041">
        <ele>172</ele>
        <time>2018-11-11T11:41:37Z</time>
      </trkpt>
      <trkpt lat="45.92912" lon="4.74036">
        <ele>172</ele>
        <time>2018-11-11T11:41:38Z</time>
      </trkpt>
      <trkpt lat="45.92916" lon="4.74031">
        <ele>172</ele>
        <time>2018-11-11T11:41:39Z</time>
      </trkpt>
      <trkpt lat="45.92919" lon="4.74024">
        <ele>172</ele>
        <time>2018-11-11T11:41:40Z</time>
      </trkpt>
      <trkpt lat="45.9292" lon="4.74017">
        <ele>172</ele>
        <time>2018-11-11T11:41:41Z</time>
      </trkpt>
      <trkpt lat="45.9292" lon="4.74009">
        <ele>172</ele>
        <time>2018-11-11T11:41:42Z</time>
      </trkpt>
      <trkpt lat="45.92919" lon="4.74001">
        <ele>172</ele>
        <time>2018-11-11T11:41:43Z</time>
      </trkpt>
      <trkpt lat="45.92916" lon="4.73994">
        <ele>172</ele>
        <time>2018-11-11T11:41:44Z</time>
      </trkpt>
      <trkpt lat="45.92912" lon="4.73989">
        <ele>172</ele>
        <time>2018-11-11T11:41:45Z</time>
      </trkpt>
      <trkpt lat="45.92908" lon="4.73986">
        <ele>172</ele>
        <time>2018-11-11T11:41:46Z</time>
      </trkpt>
      <trkpt lat="45.92903" lon="4.73981">
        <ele>172</ele>
        <time>2018-11-11T11:41:47Z</time>
      </trkpt>
      <trkpt lat="45.92899" lon="4.73978">
        <ele>172</ele>
        <time>2018-11-11T11:41:48Z</time>
      </trkpt>
      <trkpt lat="45.92895" lon="4.73973">
        <ele>172</ele>
        <time>2018-11-11T11:41:49Z</time>
      </trkpt>
      <trkpt lat="45.92892" lon="4.73967">
        <ele>172</ele>
        <time>2018-11-11T11:41:50Z</time>
      </trkpt>
      <trkpt lat="45.9289" lon="4.73961">
        <ele>172</ele>
        <time>2018-11-11T11:41:51Z</time>
      </trkpt>
      <trkpt lat="45.92888" lon="4.73954">
        <ele>172</ele>
        <time>2018-11-11T11:41:52Z</time>
      </trkpt>
      <trkpt lat="45.92888" lon="4.73946">
        <ele>172</ele>
        <time>2018-11-11T11:41:53Z</time>
      </trkpt>
      <trkpt lat="45.92887" lon="4.73938">
        <ele>172</ele>
        <time>2018-11-11T11:41:54Z</time>
      </trkpt>
      <trkpt lat="45.92887" lon="4.73931">
        <ele>172</ele>
        <time>2018-11-11T11:41:55Z</time>
      </trkpt>
      <trkpt lat="45.92887" lon="4.73924">
        <ele>172</ele>
        <time>2018-11-11T11:41:56Z</time>
      </trkpt>
      <trkpt lat="45.92886" lon="4.73917">
        <ele>173</ele>
        <time>2018-11-11T11:41:57Z</time>
      </trkpt>
      <trkpt lat="45.92886" lon="4.73909">
        <ele>173</ele>
        <time>2018-11-11T11:41:58Z</time>
      </trkpt>
      <trkpt lat="45.92884" lon="4.73903">
        <ele>173</ele>
        <time>2018-11-11T11:41:59Z</time>
      </trkpt>
      <trkpt lat="45.92883" lon="4.73895">
        <ele>173</ele>
        <time>2018-11-11T11:42:00Z</time>
      </trkpt>
      <trkpt lat="45.92882" lon="4.73887">
        <ele>173</ele>
        <time>2018-11-11T11:42:01Z</time>
      </trkpt>
      <trkpt lat="45.9288" lon="4.7388">
        <ele>173</ele>
        <time>2018-11-11T11:42:02Z</time>
      </trkpt>
      <trkpt lat="45.92878" lon="4.73872">
        <ele>173</ele>
        <time>2018-11-11T11:42:03Z</time>
      </trkpt>
      <trkpt lat="45.92875" lon="4.73864">
        <ele>173</ele>
        <time>2018-11-11T11:42:04Z</time>
      </trkpt>
      <trkpt lat="45.92872" lon="4.73856">
        <ele>173</ele>
        <time>2018-11-11T11:42:05Z</time>
      </trkpt>
      <trkpt lat="45.92871" lon="4.73849">
        <ele>173</ele>
        <time>2018-11-11T11:42:06Z</time>
      </trkpt>
      <trkpt lat="45.92868" lon="4.73841">
        <ele>173</ele>
        <time>2018-11-11T11:42:07Z</time>
      </trkpt>
      <trkpt lat="45.92866" lon="4.73834">
        <ele>173</ele>
        <time>2018-11-11T11:42:08Z</time>
      </trkpt>
      <trkpt lat="45.92864" lon="4.73826">
        <ele>173</ele>
        <time>2018-11-11T11:42:09Z</time>
      </trkpt>
      <trkpt lat="45.92862" lon="4.73818">
        <ele>173</ele>
        <time>2018-11-11T11:42:10Z</time>
      </trkpt>
      <trkpt lat="45.92859" lon="4.73811">
        <ele>173</ele>
        <time>2018-11-11T11:42:11Z</time>
      </trkpt>
      <trkpt lat="45.92855" lon="4.73804">
        <ele>173</ele>
        <time>2018-11-11T11:42:12Z</time>
      </trkpt>
      <trkpt lat="45.92852" lon="4.73799">
        <ele>173</ele>
        <time>2018-11-11T11:42:13Z</time>
      </trkpt>
      <trkpt lat="45.92849" lon="4.73793">
        <ele>173</ele>
        <time>2018-11-11T11:42:14Z</time>
      </trkpt>
      <trkpt lat="45.92845" lon="4.7379">
        <ele>173</ele>
        <time>2018-11-11T11:42:15Z</time>
      </trkpt>
      <trkpt lat="45.92841" lon="4.73787">
        <ele>173</ele>
        <time>2018-11-11T11:42:16Z</time>
      </trkpt>
      <trkpt lat="45.92837" lon="4.73784">
        <ele>173</ele>
        <time>2018-11-11T11:42:17Z</time>
      </trkpt>
      <trkpt lat="45.9283" lon="4.73778">
        <ele>173</ele>
        <time>2018-11-11T11:42:19Z</time>
      </trkpt>
      <trkpt lat="45.92826" lon="4.73775">
        <ele>173</ele>
        <time>2018-11-11T11:42:20Z</time>
      </trkpt>
      <trkpt lat="45.9282" lon="4.73772">
        <ele>173</ele>
        <time>2018-11-11T11:42:22Z</time>
      </trkpt>
      <trkpt lat="45.92818" lon="4.7377">
        <ele>173</ele>
        <time>2018-11-11T11:42:23Z</time>
      </trkpt>
      <trkpt lat="45.92811" lon="4.73766">
        <ele>173</ele>
        <time>2018-11-11T11:42:26Z</time>
      </trkpt>
      <trkpt lat="45.92808" lon="4.73764">
        <ele>173</ele>
        <time>2018-11-11T11:42:27Z</time>
      </trkpt>
      <trkpt lat="45.92805" lon="4.73762">
        <ele>173</ele>
        <time>2018-11-11T11:42:28Z</time>
      </trkpt>
      <trkpt lat="45.92799" lon="4.73758">
        <ele>173</ele>
        <time>2018-11-11T11:42:29Z</time>
      </trkpt>
      <trkpt lat="45.92792" lon="4.73754">
        <ele>173</ele>
        <time>2018-11-11T11:42:31Z</time>
      </trkpt>
      <trkpt lat="45.9279" lon="4.73753">
        <ele>173</ele>
        <time>2018-11-11T11:42:32Z</time>
      </trkpt>
      <trkpt lat="45.92783" lon="4.73745">
        <ele>172</ele>
        <time>2018-11-11T11:42:34Z</time>
      </trkpt>
      <trkpt lat="45.92781" lon="4.7374">
        <ele>172</ele>
        <time>2018-11-11T11:42:35Z</time>
      </trkpt>
      <trkpt lat="45.92775" lon="4.73732">
        <ele>172</ele>
        <time>2018-11-11T11:42:37Z</time>
      </trkpt>
      <trkpt lat="45.92771" lon="4.73729">
        <ele>172</ele>
        <time>2018-11-11T11:42:38Z</time>
      </trkpt>
      <trkpt lat="45.92766" lon="4.73728">
        <ele>172</ele>
        <time>2018-11-11T11:42:39Z</time>
      </trkpt>
      <trkpt lat="45.92762" lon="4.73726">
        <ele>172</ele>
        <time>2018-11-11T11:42:40Z</time>
      </trkpt>
      <trkpt lat="45.92757" lon="4.73725">
        <ele>172</ele>
        <time>2018-11-11T11:42:41Z</time>
      </trkpt>
      <trkpt lat="45.92753" lon="4.73723">
        <ele>172</ele>
        <time>2018-11-11T11:42:42Z</time>
      </trkpt>
      <trkpt lat="45.92748" lon="4.73722">
        <ele>173</ele>
        <time>2018-11-11T11:42:43Z</time>
      </trkpt>
      <trkpt lat="45.92742" lon="4.73721">
        <ele>173</ele>
        <time>2018-11-11T11:42:44Z</time>
      </trkpt>
      <trkpt lat="45.92737" lon="4.73721">
        <ele>173</ele>
        <time>2018-11-11T11:42:45Z</time>
      </trkpt>
      <trkpt lat="45.92732" lon="4.73721">
        <ele>173</ele>
        <time>2018-11-11T11:42:46Z</time>
      </trkpt>
      <trkpt lat="45.92727" lon="4.73721">
        <ele>173</ele>
        <time>2018-11-11T11:42:47Z</time>
      </trkpt>
      <trkpt lat="45.92723" lon="4.73719">
        <ele>173</ele>
        <time>2018-11-11T11:42:48Z</time>
      </trkpt>
      <trkpt lat="45.92719" lon="4.73717">
        <ele>173</ele>
        <time>2018-11-11T11:42:49Z</time>
      </trkpt>
      <trkpt lat="45.92714" lon="4.73714">
        <ele>173</ele>
        <time>2018-11-11T11:42:50Z</time>
      </trkpt>
      <trkpt lat="45.9271" lon="4.73712">
        <ele>173</ele>
        <time>2018-11-11T11:42:51Z</time>
      </trkpt>
      <trkpt lat="45.92705" lon="4.7371">
        <ele>173</ele>
        <time>2018-11-11T11:42:52Z</time>
      </trkpt>
      <trkpt lat="45.92696" lon="4.73707">
        <ele>173</ele>
        <time>2018-11-11T11:42:54Z</time>
      </trkpt>
      <trkpt lat="45.92691" lon="4.73706">
        <ele>173</ele>
        <time>2018-11-11T11:42:55Z</time>
      </trkpt>
      <trkpt lat="45.92687" lon="4.73705">
        <ele>173</ele>
        <time>2018-11-11T11:42:56Z</time>
      </trkpt>
      <trkpt lat="45.92682" lon="4.73703">
        <ele>173</ele>
        <time>2018-11-11T11:42:57Z</time>
      </trkpt>
      <trkpt lat="45.92678" lon="4.73701">
        <ele>173</ele>
        <time>2018-11-11T11:42:58Z</time>
      </trkpt>
      <trkpt lat="45.92673" lon="4.737">
        <ele>174</ele>
        <time>2018-11-11T11:42:59Z</time>
      </trkpt>
      <trkpt lat="45.92669" lon="4.73696">
        <ele>174</ele>
        <time>2018-11-11T11:43:00Z</time>
      </trkpt>
      <trkpt lat="45.92665" lon="4.73694">
        <ele>173</ele>
        <time>2018-11-11T11:43:01Z</time>
      </trkpt>
      <trkpt lat="45.92657" lon="4.73687">
        <ele>173</ele>
        <time>2018-11-11T11:43:03Z</time>
      </trkpt>
      <trkpt lat="45.92654" lon="4.73684">
        <ele>173</ele>
        <time>2018-11-11T11:43:04Z</time>
      </trkpt>
      <trkpt lat="45.92649" lon="4.7368">
        <ele>173</ele>
        <time>2018-11-11T11:43:06Z</time>
      </trkpt>
      <trkpt lat="45.92645" lon="4.73677">
        <ele>173</ele>
        <time>2018-11-11T11:43:07Z</time>
      </trkpt>
      <trkpt lat="45.92639" lon="4.73668">
        <ele>173</ele>
        <time>2018-11-11T11:43:09Z</time>
      </trkpt>
      <trkpt lat="45.92636" lon="4.73663">
        <ele>173</ele>
        <time>2018-11-11T11:43:10Z</time>
      </trkpt>
      <trkpt lat="45.92634" lon="4.73657">
        <ele>173</ele>
        <time>2018-11-11T11:43:11Z</time>
      </trkpt>
      <trkpt lat="45.92631" lon="4.73652">
        <ele>173</ele>
        <time>2018-11-11T11:43:12Z</time>
      </trkpt>
      <trkpt lat="45.92627" lon="4.73641">
        <ele>173</ele>
        <time>2018-11-11T11:43:14Z</time>
      </trkpt>
      <trkpt lat="45.92624" lon="4.73635">
        <ele>173</ele>
        <time>2018-11-11T11:43:15Z</time>
      </trkpt>
      <trkpt lat="45.92618" lon="4.73627">
        <ele>173</ele>
        <time>2018-11-11T11:43:17Z</time>
      </trkpt>
      <trkpt lat="45.92613" lon="4.73625">
        <ele>173</ele>
        <time>2018-11-11T11:43:18Z</time>
      </trkpt>
      <trkpt lat="45.92609" lon="4.73623">
        <ele>173</ele>
        <time>2018-11-11T11:43:19Z</time>
      </trkpt>
      <trkpt lat="45.92604" lon="4.73621">
        <ele>173</ele>
        <time>2018-11-11T11:43:20Z</time>
      </trkpt>
      <trkpt lat="45.92596" lon="4.7362">
        <ele>173</ele>
        <time>2018-11-11T11:43:22Z</time>
      </trkpt>
      <trkpt lat="45.92591" lon="4.73621">
        <ele>173</ele>
        <time>2018-11-11T11:43:23Z</time>
      </trkpt>
      <trkpt lat="45.92586" lon="4.73623">
        <ele>173</ele>
        <time>2018-11-11T11:43:24Z</time>
      </trkpt>
      <trkpt lat="45.92582" lon="4.73624">
        <ele>173</ele>
        <time>2018-11-11T11:43:25Z</time>
      </trkpt>
      <trkpt lat="45.92577" lon="4.73625">
        <ele>173</ele>
        <time>2018-11-11T11:43:26Z</time>
      </trkpt>
      <trkpt lat="45.92573" lon="4.73626">
        <ele>173</ele>
        <time>2018-11-11T11:43:27Z</time>
      </trkpt>
      <trkpt lat="45.92566" lon="4.7363">
        <ele>173</ele>
        <time>2018-11-11T11:43:29Z</time>
      </trkpt>
      <trkpt lat="45.92562" lon="4.7363">
        <ele>173</ele>
        <time>2018-11-11T11:43:30Z</time>
      </trkpt>
      <trkpt lat="45.92554" lon="4.73632">
        <ele>173</ele>
        <time>2018-11-11T11:43:32Z</time>
      </trkpt>
      <trkpt lat="45.9255" lon="4.73633">
        <ele>173</ele>
        <time>2018-11-11T11:43:33Z</time>
      </trkpt>
      <trkpt lat="45.92545" lon="4.73633">
        <ele>173</ele>
        <time>2018-11-11T11:43:34Z</time>
      </trkpt>
      <trkpt lat="45.92539" lon="4.73633">
        <ele>173</ele>
        <time>2018-11-11T11:43:35Z</time>
      </trkpt>
      <trkpt lat="45.9253" lon="4.73633">
        <ele>173</ele>
        <time>2018-11-11T11:43:37Z</time>
      </trkpt>
      <trkpt lat="45.92526" lon="4.73635">
        <ele>173</ele>
        <time>2018-11-11T11:43:38Z</time>
      </trkpt>
      <trkpt lat="45.92521" lon="4.73635">
        <ele>173</ele>
        <time>2018-11-11T11:43:39Z</time>
      </trkpt>
      <trkpt lat="45.92516" lon="4.73636">
        <ele>173</ele>
        <time>2018-11-11T11:43:40Z</time>
      </trkpt>
      <trkpt lat="45.92512" lon="4.73637">
        <ele>174</ele>
        <time>2018-11-11T11:43:41Z</time>
      </trkpt>
      <trkpt lat="45.92507" lon="4.73637">
        <ele>174</ele>
        <time>2018-11-11T11:43:42Z</time>
      </trkpt>
      <trkpt lat="45.925" lon="4.73637">
        <ele>174</ele>
        <time>2018-11-11T11:43:44Z</time>
      </trkpt>
      <trkpt lat="45.92496" lon="4.73636">
        <ele>174</ele>
        <time>2018-11-11T11:43:45Z</time>
      </trkpt>
      <trkpt lat="45.92487" lon="4.73636">
        <ele>174</ele>
        <time>2018-11-11T11:43:48Z</time>
      </trkpt>
      <trkpt lat="45.92483" lon="4.73636">
        <ele>174</ele>
        <time>2018-11-11T11:43:49Z</time>
      </trkpt>
      <trkpt lat="45.92475" lon="4.7364">
        <ele>174</ele>
        <time>2018-11-11T11:43:52Z</time>
      </trkpt>
      <trkpt lat="45.92473" lon="4.73644">
        <ele>174</ele>
        <time>2018-11-11T11:43:53Z</time>
      </trkpt>
      <trkpt lat="45.92471" lon="4.73648">
        <ele>174</ele>
        <time>2018-11-11T11:43:54Z</time>
      </trkpt>
      <trkpt lat="45.92469" lon="4.73657">
        <ele>174</ele>
        <time>2018-11-11T11:43:55Z</time>
      </trkpt>
      <trkpt lat="45.92468" lon="4.73668">
        <ele>174</ele>
        <time>2018-11-11T11:43:57Z</time>
      </trkpt>
      <trkpt lat="45.92468" lon="4.73674">
        <ele>174</ele>
        <time>2018-11-11T11:43:58Z</time>
      </trkpt>
      <trkpt lat="45.92467" lon="4.73685">
        <ele>174</ele>
        <time>2018-11-11T11:44:00Z</time>
      </trkpt>
      <trkpt lat="45.92466" lon="4.73691">
        <ele>174</ele>
        <time>2018-11-11T11:44:01Z</time>
      </trkpt>
      <trkpt lat="45.92465" lon="4.73702">
        <ele>174</ele>
        <time>2018-11-11T11:44:04Z</time>
      </trkpt>
      <trkpt lat="45.92464" lon="4.73704">
        <ele>174</ele>
        <time>2018-11-11T11:44:05Z</time>
      </trkpt>
      <trkpt lat="45.92459" lon="4.73711">
        <ele>174</ele>
        <time>2018-11-11T11:44:35.633Z</time>
      </trkpt>
    </trkseg>
  </trk>
</gpx>